GFSSGP_prec_precacc24_030.txt.gz
Total_Precipitation_Accumulation
0.01 0.11 0.35 0.57 0.56 0.61 0.60 0.45 0.28 0.08 0.04 0.02 0.00 0.03 0.10 0.09 0.16 0.16 0.05 0.13 0.14 0.23 0.07 0.30 0.48 0.42 0.12 0.04 0.03 0.01 0.00 0.00 0.00 0.00 0.04 0.02 0.04 0.02 0.06 0.07 0.05 0.03 0.03 0.04 0.03 0.01 0.02 0.02 0.05
0.03 0.28 0.72 0.63 0.33 1.00 0.84 0.22 0.11 0.07 0.05 0.02 0.00 0.01 0.00 0.00 0.00 0.03 0.08 0.14 0.04 0.01 0.02 0.06 0.57 0.30 0.04 0.02 0.01 0.00 0.00 0.00 0.00 0.01 0.04 0.04 0.05 0.05 0.01 0.01 0.02 0.01 0.01 0.02 0.07 0.06 0.04 0.07 0.09
0.09 0.79 1.38 1.01 0.41 0.36 0.44 0.20 0.11 0.02 0.02 0.04 0.01 0.02 0.01 0.02 0.01 0.05 0.06 0.05 0.01 0.01 0.00 0.08 0.19 0.12 0.01 0.02 0.00 0.00 0.00 0.00 0.00 0.01 0.01 0.03 0.02 0.03 0.02 0.02 0.04 0.05 0.02 0.02 0.00 0.02 0.07 0.10 0.11
0.25 2.50 2.71 1.32 0.43 0.09 0.10 0.07 0.14 0.02 0.01 0.02 0.03 0.02 0.00 0.00 0.00 0.01 0.01 0.02 0.02 0.01 0.01 0.05 0.06 0.01 0.01 0.01 0.00 0.00 0.00 0.00 0.00 0.00 0.02 0.02 0.01 0.01 0.02 0.07 0.08 0.07 0.02 0.00 0.00 0.00 0.01 0.10 0.15
0.36 1.27 0.76 0.64 0.06 0.07 0.04 0.15 0.40 0.12 0.06 0.03 0.01 0.00 0.02 0.01 0.00 0.00 0.00 0.01 0.03 0.01 0.00 0.01 0.10 0.04 0.01 0.00 0.00 0.00 0.00 0.00 0.00 0.00 0.00 0.00 0.01 0.02 0.06 0.06 0.05 0.06 0.02 0.02 0.00 0.00 0.02 0.06 0.19
0.48 0.42 0.54 0.09 0.02 0.02 0.03 0.04 0.05 0.13 0.03 0.00 0.00 0.00 0.03 0.01 0.00 0.00 0.00 0.01 0.02 0.01 0.00 0.00 0.03 0.02 0.03 0.04 0.00 0.00 0.00 0.00 0.00 0.00 0.00 0.00 0.00 0.01 0.02 0.01 0.01 0.02 0.00 0.00 0.00 0.01 0.04 0.08 0.11
0.11 1.19 0.67 0.09 0.02 0.02 0.02 0.02 0.02 0.04 0.02 0.00 0.00 0.00 0.02 0.01 0.00 0.00 0.00 0.01 0.01 0.01 0.00 0.00 0.00 0.00 0.03 0.04 0.00 0.00 0.00 0.00 0.00 0.00 0.00 0.00 0.00 0.01 0.00 0.00 0.00 0.00 0.00 0.01 0.01 0.02 0.03 0.06 0.12
0.09 0.26 0.58 0.27 0.07 0.02 0.01 0.00 0.00 0.01 0.01 0.00 0.00 0.00 0.01 0.00 0.00 0.00 0.01 0.01 0.00 0.00 0.01 0.00 0.00 0.00 0.00 0.00 0.00 0.00 0.00 0.00 0.00 0.00 0.00 0.02 0.07 0.04 0.02 0.01 0.01 0.03 0.00 0.02 0.03 0.04 0.06 0.05 0.09
0.14 0.08 0.15 0.06 0.02 0.02 0.01 0.00 0.00 0.01 0.00 0.00 0.05 0.00 0.00 0.00 0.00 0.00 0.00 0.01 0.01 0.00 0.00 0.00 0.00 0.00 0.00 0.00 0.00 0.00 0.00 0.00 0.00 0.00 0.02 0.22 0.27 0.31 0.34 0.15 0.07 0.06 0.06 0.02 0.04 0.04 0.05 0.07 0.08
0.07 0.30 0.21 0.01 0.00 0.01 0.00 0.01 0.00 0.00 0.00 0.00 0.01 0.00 0.00 0.00 0.00 0.00 0.00 0.00 0.00 0.00 0.00 0.00 0.00 0.00 0.00 0.00 0.00 0.00 0.00 0.00 0.00 0.00 0.18 0.71 0.24 0.19 0.22 0.14 0.06 0.07 0.08 0.06 0.10 0.11 0.09 0.10 0.04
0.01 0.14 0.16 0.00 0.00 0.00 0.00 0.00 0.00 0.00 0.00 0.00 0.00 0.00 0.00 0.00 0.00 0.00 0.00 0.00 0.00 0.00 0.00 0.00 0.00 0.00 0.01 0.00 0.00 0.00 0.00 0.00 0.00 0.01 0.21 0.66 0.31 0.27 0.21 0.10 0.07 0.10 0.03 0.04 0.12 0.09 0.02 0.00 0.00
0.00 0.03 0.07 0.00 0.00 0.00 0.00 0.05 0.00 0.00 0.00 0.00 0.00 0.00 0.00 0.00 0.00 0.00 0.00 0.00 0.00 0.00 0.00 0.00 0.00 0.00 0.00 0.00 0.00 0.00 0.00 0.00 0.00 0.00 0.01 0.11 0.26 0.16 0.12 0.30 0.19 0.11 0.08 0.11 0.10 0.04 0.06 0.05 0.00
0.00 0.00 0.00 0.05 0.00 0.00 0.00 0.04 0.07 0.00 0.00 0.00 0.00 0.00 0.00 0.00 0.00 0.00 0.00 0.00 0.00 0.00 0.00 0.00 0.00 0.00 0.00 0.00 0.00 0.00 0.00 0.00 0.00 0.00 0.00 0.07 0.16 0.13 0.11 0.13 0.10 0.08 0.22 0.77 0.12 0.11 0.09 0.03 0.02
0.00 0.00 0.00 0.00 0.00 0.00 0.00 0.00 0.00 0.01 0.00 0.00 0.00 0.00 0.00 0.00 0.00 0.00 0.00 0.00 0.00 0.00 0.00 0.00 0.00 0.00 0.00 0.00 0.00 0.00 0.00 0.00 0.00 0.00 0.00 0.00 0.05 0.04 0.07 0.08 0.03 0.06 0.10 0.22 0.13 0.09 0.23 0.01 0.00
0.00 0.00 0.00 0.00 0.00 0.00 0.01 0.01 0.00 0.01 0.00 0.00 0.00 0.00 0.00 0.00 0.00 0.00 0.00 0.00 0.00 0.00 0.00 0.00 0.00 0.00 0.00 0.00 0.00 0.00 0.00 0.00 0.00 0.00 0.00 0.00 0.02 0.03 0.05 0.07 0.05 0.13 0.20 0.18 0.10 0.07 0.26 0.02 0.00
0.00 0.00 0.00 0.00 0.00 0.00 0.00 0.00 0.00 0.00 0.00 0.00 0.00 0.00 0.00 0.00 0.00 0.00 0.00 0.00 0.00 0.00 0.00 0.00 0.00 0.00 0.00 0.00 0.00 0.00 0.00 0.00 0.00 0.00 0.00 0.00 0.00 0.01 0.04 0.19 0.11 0.16 0.14 0.14 0.10 0.08 0.07 0.00 0.00
0.00 0.00 0.00 0.00 0.00 0.00 0.00 0.00 0.00 0.00 0.00 0.00 0.00 0.00 0.00 0.00 0.00 0.00 0.00 0.00 0.00 0.00 0.00 0.00 0.00 0.00 0.00 0.00 0.00 0.00 0.00 0.00 0.00 0.00 0.00 0.01 0.00 0.05 0.23 0.20 0.13 0.07 0.16 0.09 0.08 0.07 0.03 0.00 0.00
0.00 0.00 0.00 0.00 0.00 0.00 0.00 0.00 0.00 0.00 0.00 0.00 0.00 0.00 0.00 0.00 0.00 0.00 0.00 0.00 0.00 0.00 0.00 0.00 0.00 0.00 0.00 0.00 0.00 0.00 0.00 0.00 0.00 0.00 0.02 0.02 0.00 0.09 0.04 0.11 0.19 0.07 0.07 0.06 0.08 0.06 0.00 0.00 0.00
0.00 0.00 0.00 0.00 0.00 0.00 0.00 0.00 0.00 0.00 0.14 0.03 0.00 0.00 0.00 0.00 0.00 0.00 0.00 0.00 0.00 0.00 0.00 0.00 0.00 0.01 0.01 0.00 0.00 0.00 0.00 0.00 0.00 0.00 0.00 0.00 0.01 0.02 0.04 0.17 0.22 0.09 0.09 0.11 0.09 0.04 0.00 0.00 0.00
0.00 0.00 0.00 0.00 0.00 0.00 0.00 0.00 0.00 0.00 0.03 0.01 0.00 0.01 0.00 0.00 0.00 0.00 0.00 0.00 0.00 0.00 0.00 0.00 0.00 0.00 0.00 0.00 0.00 0.00 0.00 0.00 0.00 0.00 0.00 0.00 0.00 0.02 0.10 0.26 0.14 0.07 0.11 0.13 0.07 0.06 0.04 0.00 0.00
0.00 0.00 0.00 0.00 0.00 0.00 0.00 0.00 0.00 0.00 0.00 0.00 0.00 0.00 0.00 0.00 0.00 0.00 0.00 0.00 0.00 0.00 0.00 0.00 0.00 0.00 0.00 0.00 0.00 0.00 0.00 0.00 0.00 0.00 0.01 0.00 0.00 0.00 0.09 0.18 0.09 0.13 0.10 0.23 0.14 0.04 0.02 0.01 0.00
0.00 0.00 0.00 0.00 0.00 0.00 0.00 0.00 0.00 0.00 0.03 0.01 0.00 0.00 0.02 0.00 0.00 0.00 0.00 0.00 0.00 0.00 0.00 0.00 0.00 0.00 0.00 0.00 0.00 0.00 0.00 0.00 0.00 0.00 0.00 0.00 0.00 0.00 0.02 0.07 0.07 0.06 0.04 0.15 0.16 0.02 0.01 0.00 0.00
0.00 0.00 0.00 0.00 0.00 0.00 0.00 0.00 0.00 0.00 0.00 0.00 0.00 0.00 0.01 0.00 0.00 0.00 0.00 0.00 0.00 0.00 0.00 0.00 0.00 0.00 0.00 0.00 0.00 0.00 0.00 0.00 0.00 0.00 0.00 0.00 0.00 0.00 0.00 0.02 0.11 0.03 0.03 0.06 0.11 0.03 0.00 0.00 0.00
0.00 0.00 0.00 0.00 0.00 0.00 0.00 0.00 0.00 0.00 0.00 0.00 0.00 0.00 0.00 0.00 0.00 0.00 0.00 0.00 0.00 0.00 0.00 0.00 0.00 0.00 0.00 0.00 0.00 0.00 0.00 0.00 0.00 0.00 0.00 0.00 0.00 0.00 0.00 0.01 0.03 0.04 0.01 0.03 0.07 0.03 0.00 0.00 0.00
0.00 0.00 0.00 0.00 0.00 0.00 0.00 0.00 0.00 0.00 0.00 0.00 0.00 0.00 0.00 0.00 0.00 0.00 0.00 0.00 0.00 0.00 0.00 0.00 0.00 0.00 0.00 0.00 0.00 0.00 0.00 0.00 0.00 0.00 0.00 0.00 0.00 0.00 0.00 0.00 0.03 0.01 0.00 0.01 0.01 0.02 0.00 0.00 0.00
0.00 0.00 0.00 0.00 0.00 0.00 0.00 0.00 0.00 0.00 0.00 0.00 0.00 0.00 0.00 0.00 0.00 0.00 0.00 0.00 0.00 0.00 0.00 0.00 0.00 0.00 0.00 0.00 0.00 0.00 0.00 0.00 0.00 0.00 0.00 0.00 0.00 0.00 0.00 0.00 0.00 0.00 0.00 0.00 0.00 0.00 0.00 0.00 0.00
0.00 0.00 0.00 0.00 0.00 0.00 0.00 0.00 0.00 0.00 0.00 0.00 0.00 0.00 0.00 0.00 0.00 0.00 0.00 0.00 0.00 0.00 0.00 0.00 0.00 0.00 0.00 0.00 0.00 0.00 0.00 0.00 0.00 0.00 0.00 0.00 0.00 0.00 0.00 0.00 0.00 0.00 0.00 0.00 0.00 0.00 0.00 0.00 0.00
0.00 0.00 0.00 0.00 0.00 0.00 0.00 0.00 0.00 0.00 0.00 0.00 0.00 0.00 0.00 0.00 0.00 0.00 0.00 0.00 0.00 0.00 0.00 0.00 0.00 0.00 0.00 0.00 0.00 0.00 0.00 0.00 0.00 0.00 0.00 0.00 0.00 0.00 0.00 0.00 0.00 0.00 0.00 0.00 0.00 0.00 0.00 0.00 0.00
0.00 0.00 0.00 0.00 0.00 0.00 0.00 0.00 0.00 0.00 0.00 0.00 0.00 0.00 0.00 0.00 0.00 0.00 0.00 0.00 0.00 0.00 0.00 0.00 0.00 0.00 0.00 0.00 0.00 0.00 0.00 0.00 0.00 0.00 0.00 0.00 0.00 0.00 0.00 0.00 0.00 0.00 0.00 0.00 0.00 0.00 0.00 0.00 0.00
0.00 0.00 0.00 0.00 0.00 0.00 0.00 0.00 0.00 0.00 0.00 0.00 0.00 0.00 0.00 0.00 0.00 0.00 0.00 0.00 0.00 0.00 0.00 0.00 0.00 0.00 0.00 0.00 0.00 0.00 0.00 0.00 0.00 0.00 0.00 0.00 0.00 0.00 0.00 0.00 0.00 0.00 0.00 0.00 0.00 0.00 0.00 0.00 0.00

GFSSGP_prec_precacc24_033.txt.gz
Total_Precipitation_Accumulation
0.01 0.10 0.32 0.56 0.64 0.60 0.55 0.47 0.28 0.07 0.05 0.03 0.01 0.04 0.14 0.14 0.20 0.17 0.03 0.09 0.13 0.22 0.05 0.26 0.45 0.39 0.12 0.05 0.04 0.01 0.01 0.00 0.00 0.00 0.04 0.02 0.03 0.03 0.07 0.08 0.05 0.03 0.03 0.04 0.03 0.01 0.02 0.02 0.05
0.02 0.27 0.48 0.38 0.41 1.29 0.97 0.28 0.16 0.06 0.04 0.01 0.00 0.01 0.00 0.01 0.03 0.02 0.07 0.13 0.04 0.01 0.02 0.06 0.55 0.29 0.07 0.05 0.03 0.00 0.00 0.00 0.00 0.01 0.04 0.04 0.05 0.06 0.01 0.01 0.02 0.01 0.01 0.02 0.07 0.06 0.04 0.06 0.09
0.08 0.75 1.12 0.78 0.52 0.73 0.32 0.15 0.13 0.03 0.01 0.02 0.01 0.03 0.01 0.02 0.01 0.05 0.06 0.05 0.01 0.01 0.00 0.08 0.18 0.13 0.04 0.04 0.01 0.00 0.00 0.00 0.00 0.01 0.01 0.03 0.02 0.03 0.02 0.02 0.04 0.05 0.02 0.02 0.00 0.02 0.07 0.10 0.11
0.14 1.52 1.39 0.95 0.54 0.13 0.11 0.11 0.14 0.03 0.01 0.02 0.03 0.01 0.00 0.00 0.00 0.01 0.01 0.02 0.01 0.01 0.01 0.05 0.06 0.01 0.04 0.01 0.00 0.00 0.00 0.00 0.00 0.00 0.02 0.02 0.01 0.01 0.02 0.07 0.08 0.07 0.02 0.00 0.00 0.00 0.01 0.10 0.15
0.07 0.61 0.51 0.67 0.32 0.31 0.08 0.17 0.35 0.15 0.04 0.02 0.01 0.01 0.02 0.01 0.00 0.00 0.00 0.01 0.01 0.01 0.00 0.01 0.10 0.05 0.02 0.01 0.00 0.00 0.00 0.00 0.00 0.00 0.00 0.00 0.01 0.02 0.06 0.06 0.05 0.06 0.02 0.02 0.00 0.00 0.02 0.06 0.19
0.13 0.32 0.51 0.14 0.08 0.11 0.07 0.05 0.06 0.14 0.02 0.00 0.00 0.00 0.04 0.01 0.00 0.00 0.00 0.01 0.02 0.01 0.00 0.00 0.03 0.02 0.02 0.03 0.00 0.00 0.00 0.00 0.00 0.00 0.00 0.00 0.00 0.01 0.02 0.01 0.01 0.02 0.00 0.00 0.00 0.01 0.04 0.08 0.11
0.15 1.20 0.85 0.15 0.16 0.09 0.03 0.02 0.02 0.05 0.03 0.00 0.00 0.00 0.03 0.01 0.00 0.00 0.00 0.01 0.01 0.01 0.00 0.00 0.00 0.00 0.03 0.02 0.00 0.00 0.00 0.00 0.00 0.00 0.00 0.00 0.00 0.01 0.00 0.00 0.00 0.00 0.00 0.01 0.01 0.02 0.03 0.06 0.12
0.13 0.48 1.86 0.62 0.09 0.15 0.11 0.01 0.01 0.02 0.03 0.00 0.00 0.00 0.01 0.00 0.00 0.00 0.01 0.01 0.00 0.00 0.01 0.00 0.00 0.00 0.00 0.00 0.00 0.00 0.00 0.00 0.00 0.00 0.01 0.04 0.07 0.04 0.02 0.01 0.01 0.03 0.00 0.02 0.03 0.04 0.06 0.05 0.09
0.17 0.94 1.36 0.40 0.03 0.05 0.11 0.04 0.02 0.02 0.00 0.02 0.01 0.00 0.00 0.00 0.00 0.00 0.01 0.00 0.00 0.00 0.00 0.00 0.00 0.00 0.00 0.00 0.00 0.00 0.00 0.00 0.00 0.01 0.06 0.31 0.31 0.31 0.33 0.07 0.01 0.05 0.05 0.02 0.04 0.04 0.05 0.07 0.08
0.17 0.48 0.33 0.02 0.01 0.05 0.05 0.05 0.01 0.00 0.00 0.01 0.00 0.00 0.00 0.00 0.00 0.00 0.00 0.00 0.00 0.00 0.00 0.00 0.00 0.00 0.00 0.00 0.00 0.00 0.00 0.00 0.00 0.01 0.19 0.80 0.21 0.12 0.12 0.01 0.01 0.01 0.04 0.06 0.08 0.08 0.08 0.10 0.04
0.04 0.17 0.17 0.00 0.00 0.02 0.01 0.02 0.03 0.01 0.00 0.00 0.00 0.00 0.00 0.00 0.00 0.00 0.00 0.00 0.00 0.00 0.00 0.00 0.00 0.00 0.00 0.00 0.00 0.00 0.00 0.00 0.00 0.03 0.26 0.83 0.25 0.10 0.12 0.01 0.01 0.04 0.02 0.02 0.07 0.04 0.01 0.00 0.00
0.00 0.03 0.09 0.00 0.00 0.00 0.01 0.07 0.05 0.00 0.00 0.00 0.00 0.00 0.00 0.00 0.00 0.00 0.00 0.00 0.00 0.00 0.00 0.00 0.00 0.00 0.00 0.00 0.00 0.00 0.00 0.00 0.00 0.01 0.05 0.17 0.27 0.15 0.03 0.03 0.02 0.03 0.05 0.09 0.04 0.02 0.07 0.05 0.00
0.00 0.00 0.00 0.05 0.00 0.00 0.00 0.14 0.10 0.00 0.00 0.00 0.00 0.00 0.00 0.00 0.00 0.00 0.00 0.00 0.00 0.00 0.00 0.00 0.00 0.00 0.00 0.00 0.00 0.00 0.00 0.00 0.00 0.00 0.00 0.11 0.22 0.10 0.04 0.04 0.06 0.04 0.14 0.72 0.09 0.10 0.10 0.03 0.02
0.00 0.00 0.00 0.02 0.00 0.00 0.00 0.00 0.00 0.01 0.00 0.00 0.00 0.00 0.00 0.00 0.00 0.00 0.00 0.00 0.00 0.00 0.00 0.00 0.00 0.00 0.00 0.00 0.00 0.00 0.00 0.00 0.00 0.00 0.00 0.01 0.08 0.08 0.07 0.12 0.09 0.08 0.10 0.22 0.13 0.10 0.23 0.01 0.00
0.00 0.00 0.00 0.00 0.00 0.00 0.00 0.00 0.00 0.01 0.00 0.00 0.00 0.00 0.00 0.00 0.00 0.00 0.00 0.00 0.00 0.00 0.00 0.00 0.00 0.00 0.00 0.00 0.00 0.00 0.00 0.00 0.00 0.00 0.00 0.00 0.02 0.04 0.06 0.07 0.03 0.09 0.20 0.18 0.10 0.09 0.26 0.02 0.00
0.00 0.00 0.00 0.00 0.00 0.00 0.00 0.00 0.00 0.00 0.00 0.00 0.00 0.00 0.00 0.00 0.00 0.00 0.00 0.00 0.00 0.00 0.00 0.00 0.00 0.00 0.00 0.00 0.00 0.00 0.00 0.00 0.00 0.00 0.00 0.00 0.00 0.01 0.06 0.17 0.12 0.11 0.16 0.15 0.10 0.08 0.06 0.00 0.00
0.00 0.00 0.00 0.00 0.00 0.00 0.00 0.00 0.00 0.00 0.00 0.01 0.00 0.00 0.00 0.00 0.00 0.00 0.00 0.00 0.00 0.00 0.00 0.00 0.00 0.00 0.00 0.00 0.00 0.00 0.00 0.00 0.00 0.00 0.00 0.00 0.00 0.05 0.23 0.20 0.18 0.08 0.15 0.09 0.08 0.07 0.03 0.00 0.00
0.00 0.00 0.00 0.00 0.00 0.00 0.00 0.00 0.00 0.00 0.02 0.15 0.08 0.03 0.00 0.00 0.00 0.00 0.00 0.00 0.00 0.00 0.00 0.00 0.00 0.00 0.00 0.00 0.00 0.00 0.00 0.00 0.00 0.00 0.02 0.01 0.00 0.07 0.05 0.15 0.24 0.11 0.07 0.07 0.09 0.06 0.00 0.00 0.00
0.00 0.00 0.00 0.00 0.00 0.00 0.00 0.00 0.00 0.00 0.18 0.47 0.22 0.10 0.02 0.00 0.00 0.00 0.00 0.00 0.00 0.00 0.00 0.00 0.00 0.01 0.01 0.00 0.00 0.00 0.00 0.00 0.00 0.00 0.00 0.00 0.00 0.00 0.05 0.16 0.27 0.10 0.09 0.11 0.09 0.04 0.00 0.00 0.00
0.00 0.00 0.00 0.00 0.00 0.00 0.00 0.00 0.00 0.00 0.06 0.22 0.14 0.08 0.03 0.00 0.00 0.00 0.00 0.00 0.00 0.00 0.00 0.00 0.00 0.00 0.00 0.00 0.00 0.00 0.00 0.00 0.00 0.00 0.00 0.00 0.00 0.01 0.10 0.26 0.15 0.07 0.12 0.13 0.08 0.07 0.04 0.00 0.00
0.00 0.00 0.00 0.00 0.00 0.00 0.00 0.00 0.00 0.00 0.00 0.01 0.06 0.04 0.09 0.00 0.00 0.00 0.00 0.00 0.00 0.00 0.00 0.00 0.00 0.00 0.00 0.00 0.00 0.00 0.00 0.00 0.00 0.00 0.00 0.00 0.00 0.00 0.09 0.18 0.10 0.14 0.11 0.23 0.15 0.04 0.02 0.01 0.00
0.00 0.00 0.00 0.00 0.00 0.00 0.00 0.00 0.00 0.00 0.00 0.00 0.00 0.00 0.07 0.01 0.01 0.00 0.00 0.00 0.00 0.00 0.00 0.00 0.00 0.00 0.00 0.00 0.00 0.00 0.00 0.00 0.00 0.00 0.00 0.00 0.00 0.00 0.02 0.07 0.08 0.06 0.04 0.15 0.17 0.02 0.01 0.00 0.00
0.00 0.00 0.00 0.00 0.00 0.00 0.00 0.00 0.00 0.00 0.00 0.00 0.00 0.00 0.10 0.15 0.01 0.01 0.00 0.00 0.00 0.00 0.00 0.00 0.00 0.00 0.00 0.00 0.00 0.00 0.00 0.00 0.00 0.00 0.00 0.00 0.00 0.00 0.00 0.02 0.11 0.03 0.04 0.06 0.11 0.03 0.00 0.00 0.00
0.00 0.00 0.00 0.00 0.00 0.00 0.00 0.00 0.00 0.00 0.00 0.00 0.00 0.00 0.00 0.00 0.00 0.01 0.00 0.00 0.00 0.00 0.00 0.00 0.00 0.00 0.00 0.00 0.00 0.00 0.00 0.00 0.00 0.00 0.00 0.00 0.00 0.00 0.00 0.01 0.03 0.04 0.01 0.03 0.07 0.03 0.00 0.00 0.00
0.00 0.00 0.00 0.00 0.00 0.00 0.00 0.00 0.00 0.00 0.00 0.00 0.00 0.00 0.00 0.00 0.00 0.01 0.00 0.00 0.00 0.00 0.00 0.00 0.00 0.00 0.00 0.00 0.00 0.00 0.00 0.00 0.00 0.00 0.00 0.00 0.00 0.00 0.00 0.00 0.03 0.01 0.00 0.01 0.01 0.02 0.00 0.00 0.00
0.00 0.00 0.00 0.00 0.00 0.00 0.00 0.00 0.00 0.00 0.00 0.00 0.00 0.00 0.00 0.00 0.00 0.00 0.00 0.00 0.00 0.00 0.00 0.00 0.00 0.00 0.00 0.00 0.00 0.00 0.00 0.00 0.00 0.00 0.00 0.00 0.00 0.00 0.00 0.00 0.00 0.00 0.00 0.00 0.00 0.00 0.00 0.00 0.00
0.00 0.00 0.00 0.00 0.00 0.00 0.00 0.00 0.00 0.00 0.00 0.00 0.00 0.00 0.00 0.00 0.00 0.00 0.00 0.00 0.00 0.00 0.00 0.00 0.00 0.00 0.00 0.00 0.00 0.00 0.00 0.00 0.00 0.00 0.00 0.00 0.00 0.00 0.00 0.00 0.00 0.00 0.00 0.00 0.00 0.00 0.00 0.00 0.00
0.00 0.00 0.00 0.00 0.00 0.00 0.00 0.00 0.00 0.00 0.00 0.00 0.00 0.00 0.00 0.00 0.00 0.00 0.00 0.00 0.00 0.00 0.00 0.00 0.00 0.00 0.00 0.00 0.00 0.00 0.00 0.00 0.00 0.00 0.00 0.00 0.00 0.00 0.00 0.00 0.00 0.00 0.00 0.00 0.00 0.00 0.00 0.00 0.00
0.00 0.00 0.00 0.00 0.00 0.00 0.00 0.00 0.00 0.00 0.00 0.00 0.00 0.00 0.00 0.00 0.00 0.00 0.00 0.00 0.00 0.00 0.00 0.00 0.00 0.00 0.00 0.00 0.00 0.00 0.00 0.00 0.00 0.00 0.00 0.00 0.00 0.00 0.00 0.00 0.00 0.00 0.00 0.00 0.00 0.00 0.00 0.00 0.00
0.00 0.00 0.00 0.00 0.00 0.00 0.00 0.00 0.00 0.00 0.00 0.00 0.00 0.00 0.00 0.00 0.00 0.00 0.00 0.00 0.00 0.00 0.00 0.00 0.00 0.00 0.00 0.00 0.00 0.00 0.00 0.00 0.00 0.00 0.00 0.00 0.00 0.00 0.00 0.00 0.00 0.00 0.00 0.00 0.00 0.00 0.00 0.00 0.00

GFSSGP_prec_precacc24_036.txt.gz
Total_Precipitation_Accumulation
0.01 0.10 0.29 0.47 0.74 0.58 0.54 0.44 0.31 0.08 0.08 0.07 0.02 0.06 0.16 0.14 0.20 0.17 0.03 0.09 0.13 0.22 0.04 0.21 0.40 0.36 0.12 0.05 0.04 0.01 0.01 0.00 0.00 0.00 0.04 0.02 0.03 0.03 0.07 0.08 0.05 0.04 0.03 0.04 0.03 0.01 0.02 0.02 0.05
0.02 0.22 0.44 0.47 0.47 1.43 0.97 0.42 0.23 0.07 0.05 0.03 0.01 0.01 0.00 0.01 0.03 0.03 0.07 0.13 0.04 0.01 0.01 0.04 0.47 0.27 0.06 0.05 0.03 0.01 0.00 0.00 0.00 0.01 0.04 0.04 0.05 0.06 0.01 0.01 0.02 0.01 0.01 0.02 0.07 0.05 0.04 0.06 0.09
0.03 0.36 0.61 0.44 0.67 0.85 0.40 0.34 0.13 0.04 0.01 0.02 0.02 0.03 0.01 0.01 0.01 0.05 0.06 0.05 0.01 0.01 0.00 0.07 0.17 0.12 0.04 0.04 0.01 0.00 0.00 0.00 0.00 0.01 0.01 0.04 0.02 0.03 0.02 0.02 0.04 0.05 0.02 0.02 0.00 0.02 0.07 0.10 0.11
0.03 0.31 0.38 0.55 0.59 0.14 0.10 0.12 0.12 0.05 0.04 0.04 0.03 0.01 0.00 0.00 0.00 0.01 0.01 0.02 0.01 0.01 0.01 0.05 0.06 0.01 0.04 0.01 0.00 0.00 0.00 0.00 0.00 0.00 0.02 0.02 0.01 0.01 0.02 0.07 0.08 0.07 0.02 0.00 0.00 0.00 0.01 0.10 0.16
0.05 0.26 0.33 0.57 0.44 0.29 0.07 0.08 0.14 0.19 0.12 0.05 0.02 0.01 0.02 0.01 0.00 0.00 0.00 0.01 0.01 0.01 0.00 0.01 0.10 0.06 0.03 0.01 0.00 0.00 0.00 0.00 0.00 0.00 0.00 0.00 0.01 0.02 0.06 0.06 0.05 0.06 0.02 0.02 0.00 0.00 0.02 0.07 0.22
0.23 0.37 0.47 0.14 0.09 0.15 0.09 0.10 0.15 0.20 0.14 0.07 0.01 0.00 0.04 0.01 0.00 0.00 0.00 0.01 0.01 0.01 0.00 0.01 0.03 0.03 0.02 0.03 0.00 0.00 0.00 0.00 0.01 0.01 0.00 0.00 0.00 0.01 0.02 0.01 0.01 0.02 0.00 0.00 0.00 0.01 0.04 0.08 0.11
0.19 1.20 0.86 0.16 0.30 0.15 0.13 0.18 0.08 0.09 0.08 0.01 0.00 0.00 0.03 0.01 0.00 0.00 0.00 0.01 0.01 0.01 0.00 0.00 0.00 0.00 0.03 0.02 0.00 0.00 0.00 0.00 0.01 0.00 0.00 0.00 0.00 0.01 0.00 0.00 0.00 0.00 0.00 0.01 0.01 0.02 0.03 0.06 0.09
0.12 0.47 1.88 0.63 0.19 0.95 0.50 0.18 0.10 0.04 0.10 0.01 0.00 0.00 0.01 0.00 0.00 0.00 0.01 0.00 0.00 0.00 0.01 0.00 0.00 0.00 0.00 0.00 0.00 0.00 0.00 0.00 0.00 0.00 0.01 0.04 0.07 0.04 0.01 0.01 0.01 0.03 0.00 0.02 0.03 0.04 0.06 0.06 0.06
0.27 1.14 1.59 0.42 0.14 0.82 0.39 0.18 0.14 0.09 0.02 0.02 0.01 0.00 0.00 0.00 0.00 0.00 0.00 0.01 0.00 0.00 0.00 0.00 0.00 0.00 0.00 0.00 0.00 0.00 0.00 0.00 0.00 0.01 0.06 0.30 0.31 0.30 0.31 0.06 0.00 0.05 0.05 0.02 0.04 0.04 0.05 0.07 0.06
0.23 0.78 0.51 0.03 0.01 0.07 0.21 0.19 0.23 0.07 0.02 0.02 0.00 0.00 0.00 0.00 0.00 0.00 0.00 0.00 0.00 0.00 0.00 0.00 0.00 0.00 0.00 0.00 0.00 0.00 0.00 0.00 0.00 0.01 0.19 0.79 0.20 0.11 0.12 0.00 0.01 0.00 0.04 0.06 0.07 0.08 0.09 0.11 0.04
0.07 0.21 0.17 0.00 0.00 0.02 0.01 0.03 0.12 0.07 0.01 0.00 0.00 0.00 0.00 0.00 0.00 0.00 0.00 0.00 0.00 0.00 0.00 0.00 0.00 0.00 0.00 0.00 0.00 0.00 0.00 0.00 0.00 0.03 0.26 0.81 0.23 0.10 0.12 0.01 0.01 0.00 0.02 0.02 0.06 0.04 0.01 0.00 0.00
0.00 0.03 0.09 0.00 0.00 0.00 0.01 0.07 0.06 0.01 0.00 0.00 0.00 0.00 0.00 0.00 0.00 0.00 0.00 0.00 0.00 0.00 0.00 0.00 0.00 0.00 0.00 0.00 0.00 0.00 0.00 0.00 0.00 0.01 0.05 0.16 0.26 0.14 0.03 0.04 0.02 0.02 0.05 0.09 0.04 0.02 0.07 0.05 0.00
0.00 0.00 0.00 0.05 0.00 0.00 0.00 0.14 0.10 0.00 0.00 0.00 0.00 0.00 0.00 0.00 0.00 0.00 0.00 0.00 0.00 0.00 0.00 0.00 0.00 0.00 0.00 0.00 0.00 0.00 0.00 0.00 0.00 0.00 0.00 0.10 0.21 0.09 0.04 0.04 0.06 0.05 0.15 0.72 0.09 0.10 0.09 0.03 0.02
0.00 0.00 0.00 0.02 0.00 0.01 0.00 0.00 0.00 0.01 0.00 0.00 0.00 0.00 0.00 0.00 0.00 0.00 0.00 0.00 0.00 0.00 0.00 0.00 0.00 0.00 0.00 0.00 0.00 0.00 0.00 0.00 0.00 0.00 0.00 0.01 0.08 0.08 0.07 0.10 0.07 0.07 0.09 0.22 0.14 0.11 0.23 0.01 0.00
0.00 0.00 0.00 0.00 0.01 0.01 0.01 0.00 0.00 0.01 0.00 0.00 0.00 0.00 0.00 0.00 0.00 0.00 0.00 0.00 0.00 0.00 0.00 0.00 0.00 0.00 0.00 0.00 0.00 0.00 0.00 0.00 0.00 0.00 0.00 0.00 0.02 0.04 0.08 0.06 0.04 0.08 0.15 0.13 0.12 0.10 0.26 0.02 0.00
0.00 0.00 0.00 0.00 0.00 0.00 0.01 0.00 0.00 0.02 0.01 0.00 0.00 0.00 0.00 0.00 0.00 0.00 0.00 0.00 0.00 0.00 0.00 0.00 0.00 0.00 0.00 0.00 0.00 0.00 0.00 0.00 0.00 0.00 0.00 0.00 0.00 0.01 0.05 0.17 0.13 0.12 0.19 0.16 0.15 0.09 0.06 0.00 0.00
0.00 0.00 0.00 0.00 0.00 0.00 0.00 0.00 0.00 0.04 0.02 0.01 0.01 0.01 0.00 0.00 0.00 0.00 0.00 0.00 0.00 0.00 0.00 0.00 0.00 0.00 0.00 0.00 0.00 0.00 0.00 0.00 0.00 0.00 0.00 0.00 0.00 0.05 0.23 0.21 0.18 0.09 0.16 0.10 0.09 0.09 0.04 0.00 0.00
0.00 0.00 0.00 0.00 0.00 0.00 0.00 0.00 0.00 0.01 0.02 0.15 0.10 0.05 0.00 0.00 0.00 0.00 0.00 0.00 0.00 0.00 0.00 0.00 0.00 0.00 0.00 0.00 0.00 0.00 0.00 0.00 0.00 0.00 0.02 0.01 0.00 0.07 0.05 0.16 0.26 0.11 0.08 0.08 0.09 0.07 0.00 0.00 0.00
0.00 0.00 0.00 0.00 0.00 0.00 0.00 0.00 0.00 0.00 0.18 0.47 0.22 0.10 0.04 0.00 0.00 0.00 0.00 0.00 0.00 0.00 0.00 0.00 0.00 0.01 0.01 0.00 0.00 0.00 0.00 0.00 0.00 0.00 0.00 0.00 0.00 0.00 0.05 0.16 0.30 0.11 0.09 0.13 0.10 0.04 0.00 0.00 0.00
0.00 0.00 0.00 0.00 0.00 0.00 0.00 0.00 0.00 0.00 0.06 0.22 0.14 0.08 0.03 0.00 0.00 0.00 0.00 0.00 0.00 0.00 0.00 0.00 0.00 0.00 0.00 0.00 0.00 0.00 0.00 0.00 0.00 0.00 0.00 0.00 0.00 0.01 0.10 0.26 0.16 0.07 0.12 0.16 0.08 0.07 0.04 0.00 0.00
0.00 0.00 0.00 0.00 0.00 0.00 0.00 0.00 0.00 0.00 0.00 0.01 0.07 0.05 0.09 0.00 0.00 0.00 0.00 0.00 0.00 0.00 0.00 0.00 0.00 0.00 0.00 0.00 0.00 0.00 0.00 0.00 0.00 0.00 0.00 0.00 0.00 0.00 0.09 0.18 0.10 0.14 0.11 0.23 0.15 0.04 0.02 0.01 0.00
0.00 0.00 0.00 0.00 0.00 0.00 0.00 0.00 0.00 0.00 0.00 0.00 0.00 0.00 0.07 0.01 0.01 0.00 0.00 0.00 0.00 0.00 0.00 0.00 0.00 0.00 0.00 0.00 0.00 0.00 0.00 0.00 0.00 0.00 0.00 0.00 0.00 0.00 0.02 0.07 0.08 0.06 0.05 0.15 0.17 0.02 0.01 0.00 0.00
0.00 0.00 0.00 0.00 0.00 0.00 0.00 0.00 0.00 0.00 0.00 0.00 0.00 0.00 0.10 0.15 0.01 0.01 0.00 0.00 0.00 0.00 0.00 0.00 0.00 0.00 0.00 0.00 0.00 0.00 0.00 0.00 0.00 0.00 0.00 0.00 0.00 0.00 0.00 0.02 0.11 0.03 0.04 0.06 0.11 0.03 0.00 0.00 0.00
0.00 0.00 0.00 0.00 0.00 0.00 0.00 0.00 0.00 0.00 0.00 0.00 0.00 0.00 0.00 0.00 0.00 0.01 0.00 0.00 0.00 0.00 0.00 0.00 0.00 0.00 0.00 0.00 0.00 0.00 0.00 0.00 0.00 0.00 0.00 0.00 0.00 0.00 0.00 0.01 0.03 0.04 0.01 0.03 0.07 0.03 0.00 0.00 0.00
0.00 0.00 0.00 0.00 0.00 0.00 0.00 0.00 0.00 0.00 0.00 0.00 0.00 0.00 0.00 0.00 0.00 0.01 0.00 0.00 0.00 0.00 0.00 0.00 0.00 0.00 0.00 0.00 0.00 0.00 0.00 0.00 0.00 0.00 0.00 0.00 0.00 0.00 0.00 0.00 0.03 0.01 0.00 0.01 0.01 0.02 0.00 0.00 0.00
0.00 0.00 0.00 0.00 0.00 0.00 0.00 0.00 0.00 0.00 0.00 0.00 0.00 0.00 0.00 0.00 0.00 0.00 0.00 0.00 0.00 0.00 0.00 0.00 0.00 0.00 0.00 0.00 0.00 0.00 0.00 0.00 0.00 0.00 0.00 0.00 0.00 0.00 0.00 0.00 0.00 0.00 0.00 0.00 0.00 0.00 0.00 0.00 0.00
0.00 0.00 0.00 0.00 0.00 0.00 0.00 0.00 0.00 0.00 0.00 0.00 0.00 0.00 0.00 0.00 0.00 0.00 0.00 0.00 0.00 0.00 0.00 0.00 0.00 0.00 0.00 0.00 0.00 0.00 0.00 0.00 0.00 0.00 0.00 0.00 0.00 0.00 0.00 0.00 0.00 0.00 0.00 0.00 0.00 0.00 0.00 0.00 0.00
0.00 0.00 0.00 0.00 0.00 0.00 0.00 0.00 0.00 0.00 0.00 0.00 0.00 0.00 0.00 0.00 0.00 0.00 0.00 0.00 0.00 0.00 0.00 0.00 0.00 0.00 0.00 0.00 0.00 0.00 0.00 0.00 0.00 0.00 0.00 0.00 0.00 0.00 0.00 0.00 0.00 0.00 0.00 0.00 0.00 0.00 0.00 0.00 0.00
0.00 0.00 0.00 0.00 0.00 0.00 0.00 0.00 0.00 0.00 0.00 0.00 0.00 0.00 0.00 0.00 0.00 0.00 0.00 0.00 0.00 0.00 0.00 0.00 0.00 0.00 0.00 0.00 0.00 0.00 0.00 0.00 0.00 0.00 0.00 0.00 0.00 0.00 0.00 0.00 0.00 0.00 0.00 0.00 0.00 0.00 0.00 0.00 0.00
0.00 0.00 0.00 0.00 0.00 0.00 0.00 0.00 0.00 0.00 0.00 0.00 0.00 0.00 0.00 0.00 0.00 0.00 0.00 0.00 0.00 0.00 0.00 0.00 0.00 0.00 0.00 0.00 0.00 0.00 0.00 0.00 0.00 0.00 0.00 0.00 0.00 0.00 0.00 0.00 0.00 0.00 0.00 0.00 0.00 0.00 0.00 0.00 0.00

GFSSGP_prec_precacc24_039.txt.gz
Total_Precipitation_Accumulation
0.01 0.09 0.26 0.33 0.94 0.57 0.53 0.43 0.27 0.11 0.10 0.09 0.05 0.06 0.16 0.14 0.20 0.17 0.03 0.09 0.13 0.22 0.04 0.17 0.33 0.29 0.11 0.05 0.04 0.02 0.01 0.00 0.00 0.00 0.04 0.02 0.05 0.03 0.07 0.08 0.05 0.04 0.03 0.03 0.04 0.03 0.01 0.01 0.05
0.02 0.19 0.44 0.64 0.52 1.40 0.93 0.42 0.23 0.08 0.11 0.07 0.04 0.03 0.00 0.01 0.03 0.03 0.07 0.13 0.04 0.01 0.01 0.03 0.40 0.21 0.06 0.05 0.03 0.01 0.00 0.00 0.00 0.01 0.04 0.05 0.07 0.06 0.01 0.01 0.02 0.01 0.01 0.07 0.19 0.17 0.04 0.06 0.07
0.02 0.39 0.87 0.54 0.69 0.84 0.47 0.40 0.20 0.05 0.02 0.03 0.05 0.03 0.01 0.01 0.01 0.05 0.06 0.05 0.01 0.01 0.00 0.06 0.16 0.09 0.04 0.04 0.01 0.00 0.00 0.00 0.00 0.01 0.03 0.07 0.03 0.03 0.02 0.02 0.04 0.05 0.02 0.02 0.01 0.03 0.07 0.05 0.03
0.03 0.37 0.49 0.56 0.61 0.21 0.09 0.16 0.19 0.08 0.16 0.11 0.05 0.01 0.00 0.00 0.00 0.01 0.01 0.02 0.01 0.01 0.01 0.04 0.05 0.01 0.04 0.01 0.01 0.01 0.01 0.01 0.01 0.02 0.02 0.02 0.02 0.01 0.02 0.07 0.08 0.07 0.02 0.00 0.00 0.00 0.01 0.04 0.09
0.05 0.36 0.39 0.57 0.48 0.37 0.10 0.14 0.17 0.31 0.28 0.13 0.02 0.01 0.03 0.01 0.00 0.00 0.00 0.01 0.01 0.01 0.00 0.01 0.09 0.05 0.03 0.01 0.00 0.00 0.01 0.00 0.00 0.01 0.00 0.00 0.01 0.02 0.06 0.06 0.05 0.06 0.02 0.02 0.00 0.00 0.01 0.04 0.16
0.27 0.38 0.45 0.14 0.11 0.17 0.15 0.18 0.21 0.32 0.31 0.16 0.02 0.00 0.04 0.01 0.00 0.00 0.00 0.01 0.01 0.01 0.00 0.01 0.03 0.02 0.02 0.03 0.00 0.01 0.00 0.00 0.01 0.01 0.01 0.01 0.00 0.01 0.02 0.01 0.01 0.02 0.00 0.00 0.00 0.01 0.00 0.02 0.05
0.20 1.19 0.86 0.16 0.31 0.16 0.19 0.21 0.19 0.31 0.20 0.10 0.01 0.00 0.03 0.01 0.00 0.00 0.00 0.01 0.01 0.01 0.00 0.01 0.01 0.00 0.03 0.02 0.00 0.00 0.00 0.00 0.01 0.01 0.01 0.00 0.00 0.00 0.00 0.00 0.00 0.00 0.00 0.01 0.01 0.02 0.02 0.02 0.03
0.11 0.46 1.88 0.64 0.20 0.98 0.51 0.29 0.22 0.19 0.17 0.04 0.00 0.00 0.01 0.00 0.00 0.00 0.01 0.00 0.00 0.00 0.00 0.00 0.00 0.00 0.00 0.00 0.00 0.00 0.00 0.00 0.00 0.00 0.01 0.04 0.07 0.02 0.01 0.02 0.01 0.03 0.00 0.02 0.03 0.04 0.06 0.04 0.04
0.21 1.13 1.59 0.42 0.27 0.94 0.45 0.29 0.20 0.24 0.07 0.02 0.01 0.00 0.00 0.00 0.00 0.00 0.00 0.01 0.00 0.00 0.00 0.00 0.00 0.00 0.00 0.00 0.00 0.00 0.00 0.00 0.00 0.01 0.06 0.30 0.31 0.30 0.31 0.06 0.00 0.05 0.05 0.02 0.04 0.04 0.06 0.04 0.03
0.22 0.78 0.51 0.03 0.03 0.10 0.33 0.45 0.37 0.17 0.03 0.02 0.00 0.00 0.00 0.00 0.00 0.00 0.00 0.00 0.00 0.00 0.00 0.00 0.00 0.00 0.00 0.00 0.00 0.00 0.00 0.00 0.00 0.01 0.19 0.79 0.20 0.11 0.12 0.00 0.01 0.00 0.04 0.06 0.06 0.06 0.06 0.09 0.03
0.09 0.24 0.17 0.00 0.00 0.03 0.05 0.06 0.20 0.09 0.01 0.00 0.00 0.00 0.00 0.00 0.00 0.00 0.00 0.00 0.00 0.00 0.00 0.00 0.00 0.00 0.00 0.00 0.00 0.00 0.00 0.00 0.00 0.03 0.26 0.81 0.23 0.10 0.12 0.01 0.01 0.00 0.02 0.02 0.06 0.05 0.01 0.00 0.00
0.00 0.03 0.09 0.00 0.00 0.00 0.01 0.07 0.07 0.03 0.00 0.00 0.00 0.00 0.00 0.00 0.00 0.00 0.00 0.00 0.00 0.00 0.00 0.00 0.00 0.00 0.00 0.00 0.00 0.00 0.00 0.00 0.00 0.01 0.05 0.16 0.25 0.14 0.03 0.04 0.02 0.02 0.05 0.10 0.05 0.03 0.08 0.05 0.00
0.00 0.00 0.00 0.05 0.00 0.00 0.00 0.14 0.10 0.01 0.00 0.00 0.00 0.00 0.00 0.00 0.00 0.00 0.00 0.00 0.00 0.00 0.00 0.00 0.00 0.00 0.00 0.00 0.00 0.00 0.00 0.00 0.00 0.00 0.00 0.10 0.21 0.10 0.05 0.05 0.06 0.05 0.15 0.72 0.11 0.11 0.09 0.03 0.02
0.00 0.00 0.00 0.02 0.00 0.01 0.00 0.00 0.00 0.01 0.00 0.00 0.00 0.00 0.00 0.00 0.00 0.00 0.00 0.00 0.00 0.00 0.00 0.00 0.00 0.00 0.00 0.00 0.00 0.00 0.00 0.00 0.00 0.00 0.00 0.01 0.09 0.11 0.11 0.11 0.07 0.06 0.08 0.22 0.14 0.10 0.23 0.01 0.00
0.00 0.00 0.00 0.00 0.01 0.01 0.01 0.00 0.00 0.01 0.00 0.00 0.00 0.00 0.00 0.00 0.00 0.00 0.00 0.00 0.00 0.00 0.00 0.00 0.00 0.00 0.00 0.00 0.00 0.00 0.00 0.00 0.00 0.00 0.00 0.00 0.02 0.06 0.09 0.06 0.04 0.08 0.15 0.13 0.13 0.10 0.26 0.02 0.00
0.00 0.00 0.00 0.00 0.00 0.00 0.01 0.00 0.00 0.02 0.01 0.00 0.00 0.00 0.00 0.00 0.00 0.00 0.00 0.00 0.00 0.00 0.00 0.00 0.00 0.00 0.00 0.00 0.00 0.00 0.00 0.00 0.00 0.00 0.00 0.00 0.00 0.01 0.06 0.17 0.13 0.12 0.19 0.17 0.16 0.09 0.06 0.00 0.00
0.00 0.00 0.00 0.00 0.00 0.00 0.00 0.00 0.00 0.04 0.02 0.01 0.01 0.01 0.00 0.00 0.00 0.00 0.00 0.00 0.00 0.00 0.00 0.00 0.00 0.00 0.00 0.00 0.00 0.00 0.00 0.00 0.00 0.00 0.00 0.00 0.00 0.03 0.18 0.21 0.18 0.09 0.17 0.13 0.11 0.09 0.04 0.00 0.00
0.00 0.00 0.00 0.00 0.00 0.00 0.00 0.00 0.00 0.01 0.02 0.15 0.10 0.05 0.00 0.00 0.00 0.00 0.00 0.00 0.00 0.00 0.00 0.00 0.00 0.00 0.00 0.00 0.00 0.00 0.00 0.00 0.00 0.00 0.02 0.01 0.00 0.06 0.03 0.16 0.26 0.11 0.08 0.13 0.13 0.08 0.00 0.00 0.00
0.00 0.00 0.00 0.00 0.00 0.00 0.00 0.00 0.00 0.00 0.18 0.47 0.22 0.10 0.04 0.00 0.00 0.00 0.00 0.00 0.00 0.00 0.00 0.00 0.00 0.01 0.01 0.00 0.00 0.00 0.00 0.00 0.00 0.00 0.00 0.00 0.00 0.00 0.05 0.16 0.30 0.11 0.09 0.13 0.11 0.04 0.00 0.00 0.00
0.00 0.00 0.00 0.00 0.00 0.00 0.00 0.00 0.00 0.00 0.06 0.22 0.14 0.08 0.03 0.00 0.00 0.00 0.00 0.00 0.00 0.00 0.00 0.00 0.00 0.00 0.00 0.00 0.00 0.00 0.00 0.00 0.00 0.00 0.00 0.00 0.00 0.01 0.10 0.26 0.16 0.07 0.12 0.16 0.08 0.07 0.04 0.00 0.00
0.00 0.00 0.00 0.00 0.00 0.00 0.00 0.01 0.02 0.01 0.03 0.01 0.07 0.05 0.09 0.00 0.00 0.00 0.00 0.00 0.00 0.00 0.00 0.00 0.00 0.00 0.00 0.00 0.00 0.00 0.00 0.00 0.00 0.00 0.00 0.00 0.00 0.00 0.09 0.18 0.10 0.14 0.11 0.24 0.15 0.04 0.02 0.01 0.00
0.00 0.00 0.00 0.00 0.00 0.00 0.00 0.00 0.01 0.01 0.00 0.00 0.00 0.00 0.07 0.01 0.01 0.00 0.00 0.00 0.00 0.00 0.00 0.00 0.00 0.00 0.00 0.00 0.00 0.00 0.00 0.00 0.00 0.00 0.00 0.00 0.00 0.00 0.02 0.07 0.08 0.06 0.05 0.16 0.17 0.02 0.01 0.00 0.00
0.00 0.00 0.00 0.00 0.00 0.00 0.00 0.00 0.00 0.00 0.00 0.00 0.00 0.00 0.10 0.15 0.01 0.01 0.00 0.00 0.00 0.00 0.00 0.00 0.00 0.00 0.00 0.00 0.00 0.00 0.00 0.00 0.00 0.00 0.00 0.00 0.00 0.00 0.00 0.02 0.11 0.03 0.04 0.07 0.11 0.03 0.00 0.00 0.00
0.00 0.00 0.00 0.00 0.00 0.00 0.00 0.00 0.00 0.00 0.00 0.00 0.00 0.00 0.00 0.00 0.00 0.01 0.00 0.00 0.00 0.00 0.00 0.00 0.00 0.00 0.00 0.00 0.00 0.00 0.00 0.00 0.00 0.00 0.00 0.00 0.00 0.00 0.00 0.01 0.03 0.04 0.01 0.03 0.07 0.03 0.00 0.00 0.00
0.00 0.00 0.00 0.00 0.00 0.00 0.00 0.00 0.00 0.00 0.00 0.00 0.00 0.00 0.00 0.00 0.00 0.01 0.00 0.00 0.00 0.00 0.00 0.00 0.00 0.00 0.00 0.00 0.00 0.00 0.00 0.00 0.00 0.00 0.00 0.00 0.00 0.00 0.00 0.00 0.03 0.01 0.00 0.01 0.01 0.02 0.00 0.00 0.00
0.00 0.00 0.00 0.00 0.00 0.00 0.00 0.00 0.00 0.00 0.00 0.00 0.00 0.00 0.00 0.00 0.00 0.00 0.00 0.00 0.00 0.00 0.00 0.00 0.00 0.00 0.00 0.00 0.00 0.00 0.00 0.00 0.00 0.00 0.00 0.00 0.00 0.00 0.00 0.00 0.00 0.00 0.00 0.00 0.00 0.00 0.00 0.00 0.00
0.00 0.00 0.00 0.00 0.00 0.00 0.00 0.00 0.00 0.00 0.00 0.00 0.00 0.00 0.00 0.00 0.00 0.00 0.00 0.00 0.00 0.00 0.00 0.00 0.00 0.00 0.00 0.00 0.00 0.00 0.00 0.00 0.00 0.00 0.00 0.00 0.00 0.00 0.00 0.00 0.00 0.00 0.00 0.00 0.00 0.00 0.00 0.00 0.00
0.00 0.00 0.00 0.00 0.00 0.00 0.00 0.00 0.00 0.00 0.00 0.00 0.00 0.00 0.00 0.00 0.00 0.00 0.00 0.00 0.00 0.00 0.00 0.00 0.00 0.00 0.00 0.00 0.00 0.00 0.00 0.00 0.00 0.00 0.00 0.00 0.00 0.00 0.00 0.00 0.00 0.00 0.00 0.00 0.00 0.00 0.00 0.00 0.00
0.00 0.00 0.00 0.00 0.00 0.00 0.00 0.00 0.00 0.00 0.00 0.00 0.00 0.00 0.00 0.00 0.00 0.00 0.00 0.00 0.00 0.00 0.00 0.00 0.00 0.00 0.00 0.00 0.00 0.00 0.00 0.00 0.00 0.00 0.00 0.00 0.00 0.00 0.00 0.00 0.00 0.00 0.00 0.00 0.00 0.00 0.00 0.00 0.00
0.00 0.00 0.00 0.00 0.00 0.00 0.00 0.00 0.00 0.00 0.00 0.00 0.00 0.00 0.00 0.00 0.00 0.00 0.00 0.00 0.00 0.00 0.00 0.00 0.00 0.00 0.00 0.00 0.00 0.00 0.00 0.00 0.00 0.00 0.00 0.00 0.00 0.00 0.00 0.00 0.00 0.00 0.00 0.00 0.00 0.00 0.00 0.00 0.00

GFSSGP_prec_precacc24_042.txt.gz
Total_Precipitation_Accumulation
0.01 0.06 0.25 0.39 1.10 0.58 0.52 0.42 0.29 0.11 0.16 0.11 0.07 0.06 0.16 0.14 0.20 0.17 0.03 0.09 0.13 0.22 0.07 0.12 0.17 0.13 0.07 0.05 0.05 0.02 0.01 0.01 0.01 0.01 0.05 0.04 0.08 0.08 0.07 0.08 0.05 0.04 0.03 0.03 0.04 0.03 0.01 0.00 0.04
0.02 0.19 0.47 0.99 0.85 1.41 0.93 0.44 0.29 0.11 0.13 0.17 0.08 0.04 0.01 0.01 0.03 0.04 0.07 0.13 0.04 0.01 0.04 0.01 0.21 0.15 0.06 0.06 0.03 0.01 0.01 0.01 0.01 0.03 0.05 0.06 0.17 0.12 0.03 0.02 0.02 0.03 0.08 0.13 0.19 0.13 0.01 0.01 0.04
0.02 0.41 1.05 1.15 0.79 0.85 0.49 0.47 0.29 0.13 0.12 0.11 0.11 0.05 0.03 0.01 0.01 0.06 0.06 0.05 0.01 0.01 0.02 0.02 0.10 0.08 0.05 0.05 0.01 0.01 0.01 0.00 0.01 0.02 0.03 0.09 0.09 0.06 0.02 0.02 0.04 0.06 0.03 0.03 0.02 0.01 0.00 0.05 0.14
0.04 0.42 0.60 0.60 0.65 0.23 0.10 0.20 0.26 0.20 0.32 0.28 0.14 0.05 0.02 0.00 0.00 0.01 0.01 0.02 0.02 0.02 0.01 0.01 0.04 0.02 0.04 0.02 0.01 0.01 0.01 0.02 0.02 0.03 0.06 0.09 0.05 0.01 0.02 0.07 0.08 0.07 0.02 0.00 0.00 0.00 0.00 0.02 0.10
0.06 0.44 0.47 0.58 0.50 0.38 0.10 0.22 0.28 0.49 0.45 0.23 0.08 0.03 0.03 0.01 0.00 0.00 0.00 0.01 0.01 0.01 0.00 0.01 0.09 0.06 0.03 0.01 0.00 0.01 0.01 0.03 0.02 0.02 0.03 0.02 0.01 0.02 0.06 0.06 0.05 0.06 0.02 0.00 0.00 0.00 0.00 0.05 0.21
0.29 0.39 0.45 0.14 0.11 0.18 0.17 0.23 0.32 0.43 0.49 0.20 0.03 0.00 0.04 0.01 0.00 0.00 0.00 0.01 0.01 0.01 0.00 0.01 0.03 0.03 0.04 0.03 0.01 0.01 0.00 0.01 0.03 0.05 0.03 0.01 0.00 0.01 0.02 0.01 0.01 0.01 0.00 0.00 0.00 0.01 0.01 0.02 0.10
0.21 1.18 0.86 0.15 0.30 0.17 0.21 0.23 0.26 0.49 0.33 0.12 0.01 0.00 0.03 0.02 0.00 0.00 0.00 0.01 0.01 0.01 0.00 0.01 0.01 0.01 0.03 0.04 0.02 0.01 0.01 0.02 0.01 0.01 0.01 0.00 0.00 0.00 0.00 0.01 0.00 0.00 0.00 0.00 0.00 0.00 0.00 0.03 0.05
0.11 0.44 1.88 0.63 0.20 1.00 0.54 0.35 0.35 0.35 0.19 0.04 0.00 0.00 0.01 0.01 0.00 0.00 0.01 0.00 0.00 0.00 0.00 0.00 0.00 0.00 0.00 0.00 0.01 0.00 0.01 0.00 0.00 0.00 0.01 0.04 0.07 0.04 0.03 0.03 0.02 0.03 0.00 0.01 0.02 0.03 0.02 0.03 0.07
0.20 1.13 1.59 0.42 0.27 0.95 0.49 0.32 0.22 0.29 0.08 0.02 0.01 0.00 0.00 0.00 0.00 0.00 0.00 0.01 0.00 0.00 0.00 0.00 0.00 0.00 0.00 0.00 0.00 0.00 0.00 0.00 0.00 0.01 0.06 0.30 0.25 0.25 0.23 0.04 0.01 0.05 0.05 0.02 0.01 0.02 0.04 0.03 0.03
0.20 0.78 0.51 0.03 0.03 0.11 0.33 0.47 0.42 0.20 0.04 0.02 0.00 0.00 0.00 0.00 0.00 0.00 0.00 0.00 0.00 0.00 0.00 0.00 0.00 0.00 0.00 0.00 0.00 0.00 0.00 0.00 0.00 0.01 0.19 0.79 0.20 0.10 0.12 0.02 0.05 0.02 0.05 0.06 0.04 0.05 0.05 0.08 0.03
0.09 0.25 0.17 0.00 0.00 0.03 0.05 0.07 0.22 0.10 0.01 0.00 0.00 0.00 0.00 0.00 0.00 0.00 0.00 0.00 0.00 0.00 0.00 0.00 0.00 0.00 0.00 0.00 0.00 0.00 0.00 0.00 0.00 0.03 0.26 0.81 0.23 0.10 0.12 0.01 0.05 0.01 0.02 0.02 0.07 0.05 0.01 0.00 0.00
0.01 0.03 0.09 0.00 0.00 0.00 0.01 0.07 0.07 0.03 0.00 0.00 0.00 0.00 0.00 0.00 0.00 0.00 0.00 0.00 0.00 0.00 0.00 0.00 0.00 0.00 0.00 0.00 0.00 0.00 0.00 0.00 0.00 0.01 0.05 0.16 0.25 0.14 0.03 0.04 0.02 0.02 0.05 0.10 0.05 0.03 0.07 0.04 0.00
0.00 0.00 0.01 0.05 0.00 0.00 0.00 0.14 0.10 0.01 0.00 0.00 0.00 0.00 0.00 0.00 0.00 0.00 0.00 0.00 0.00 0.00 0.00 0.00 0.00 0.00 0.00 0.00 0.00 0.00 0.00 0.00 0.00 0.00 0.00 0.10 0.21 0.11 0.05 0.05 0.08 0.05 0.16 0.75 0.12 0.11 0.09 0.02 0.02
0.00 0.00 0.01 0.02 0.00 0.01 0.00 0.00 0.00 0.01 0.00 0.00 0.00 0.00 0.00 0.00 0.00 0.00 0.00 0.00 0.00 0.00 0.00 0.00 0.00 0.00 0.00 0.00 0.00 0.00 0.00 0.00 0.00 0.00 0.00 0.01 0.09 0.17 0.18 0.14 0.07 0.06 0.08 0.22 0.15 0.10 0.23 0.01 0.00
0.00 0.00 0.00 0.00 0.01 0.01 0.01 0.00 0.00 0.01 0.00 0.00 0.00 0.00 0.00 0.00 0.00 0.00 0.00 0.00 0.00 0.00 0.00 0.00 0.00 0.00 0.00 0.00 0.00 0.00 0.00 0.00 0.00 0.00 0.00 0.00 0.01 0.08 0.12 0.11 0.08 0.09 0.15 0.12 0.13 0.10 0.26 0.02 0.00
0.00 0.00 0.00 0.00 0.00 0.00 0.01 0.00 0.00 0.02 0.01 0.00 0.00 0.00 0.00 0.00 0.00 0.00 0.00 0.00 0.00 0.00 0.00 0.00 0.00 0.00 0.00 0.00 0.00 0.00 0.00 0.00 0.00 0.00 0.00 0.00 0.00 0.03 0.10 0.22 0.15 0.13 0.19 0.17 0.16 0.10 0.06 0.00 0.00
0.00 0.00 0.00 0.00 0.00 0.00 0.00 0.00 0.00 0.04 0.02 0.01 0.01 0.01 0.00 0.00 0.00 0.00 0.00 0.00 0.00 0.00 0.00 0.00 0.00 0.00 0.00 0.00 0.00 0.00 0.00 0.00 0.00 0.00 0.00 0.00 0.00 0.01 0.09 0.26 0.24 0.10 0.18 0.13 0.11 0.11 0.04 0.00 0.00
0.00 0.00 0.00 0.00 0.00 0.00 0.00 0.00 0.00 0.01 0.02 0.15 0.10 0.05 0.00 0.00 0.00 0.00 0.00 0.00 0.00 0.00 0.00 0.00 0.00 0.00 0.00 0.00 0.00 0.00 0.00 0.00 0.00 0.00 0.01 0.01 0.00 0.01 0.02 0.24 0.37 0.16 0.12 0.13 0.13 0.08 0.00 0.00 0.00
0.00 0.00 0.00 0.00 0.00 0.00 0.00 0.00 0.00 0.00 0.18 0.47 0.22 0.10 0.04 0.00 0.00 0.00 0.00 0.00 0.00 0.00 0.00 0.00 0.00 0.01 0.01 0.00 0.00 0.00 0.00 0.00 0.00 0.00 0.00 0.00 0.00 0.00 0.05 0.19 0.34 0.16 0.14 0.14 0.12 0.04 0.00 0.00 0.00
0.00 0.00 0.00 0.00 0.00 0.00 0.00 0.00 0.00 0.00 0.06 0.22 0.14 0.08 0.03 0.00 0.00 0.00 0.00 0.00 0.00 0.00 0.00 0.00 0.00 0.00 0.00 0.00 0.00 0.00 0.00 0.00 0.00 0.00 0.00 0.00 0.00 0.01 0.10 0.27 0.17 0.12 0.14 0.16 0.08 0.07 0.04 0.00 0.00
0.00 0.00 0.00 0.00 0.00 0.00 0.00 0.01 0.02 0.01 0.03 0.01 0.07 0.05 0.09 0.00 0.00 0.00 0.00 0.00 0.00 0.00 0.00 0.00 0.00 0.00 0.00 0.00 0.00 0.00 0.00 0.00 0.00 0.00 0.00 0.00 0.00 0.00 0.09 0.18 0.11 0.16 0.13 0.24 0.15 0.04 0.02 0.01 0.00
0.00 0.00 0.00 0.00 0.00 0.00 0.00 0.00 0.01 0.01 0.00 0.00 0.00 0.00 0.07 0.01 0.01 0.00 0.00 0.00 0.00 0.00 0.00 0.00 0.00 0.00 0.00 0.00 0.00 0.00 0.00 0.00 0.00 0.00 0.00 0.00 0.00 0.00 0.02 0.07 0.08 0.06 0.06 0.16 0.17 0.02 0.01 0.00 0.00
0.00 0.00 0.00 0.00 0.00 0.00 0.00 0.00 0.00 0.00 0.00 0.00 0.00 0.00 0.10 0.15 0.01 0.01 0.00 0.00 0.00 0.00 0.00 0.00 0.00 0.00 0.00 0.00 0.00 0.00 0.00 0.00 0.00 0.00 0.00 0.00 0.00 0.00 0.00 0.02 0.11 0.03 0.05 0.10 0.11 0.03 0.00 0.00 0.00
0.00 0.00 0.00 0.00 0.00 0.00 0.00 0.00 0.00 0.00 0.00 0.00 0.00 0.00 0.00 0.00 0.00 0.01 0.00 0.00 0.00 0.00 0.00 0.00 0.00 0.00 0.00 0.00 0.00 0.00 0.00 0.00 0.00 0.00 0.00 0.00 0.00 0.00 0.00 0.01 0.03 0.04 0.01 0.03 0.07 0.03 0.00 0.00 0.00
0.00 0.00 0.00 0.00 0.00 0.00 0.00 0.00 0.00 0.00 0.00 0.00 0.00 0.00 0.00 0.00 0.00 0.01 0.00 0.00 0.00 0.00 0.00 0.00 0.00 0.00 0.00 0.00 0.00 0.00 0.00 0.00 0.00 0.00 0.00 0.00 0.00 0.00 0.00 0.00 0.03 0.01 0.00 0.01 0.01 0.02 0.00 0.00 0.00
0.00 0.00 0.00 0.00 0.00 0.00 0.00 0.00 0.00 0.00 0.00 0.00 0.00 0.00 0.00 0.00 0.00 0.00 0.00 0.00 0.00 0.00 0.00 0.00 0.00 0.00 0.00 0.00 0.00 0.00 0.00 0.00 0.00 0.00 0.00 0.00 0.00 0.00 0.00 0.00 0.00 0.00 0.00 0.00 0.00 0.00 0.00 0.00 0.00
0.00 0.00 0.00 0.00 0.00 0.00 0.00 0.00 0.00 0.00 0.00 0.00 0.00 0.00 0.00 0.00 0.00 0.00 0.00 0.00 0.00 0.00 0.00 0.00 0.00 0.00 0.00 0.00 0.00 0.00 0.00 0.00 0.00 0.00 0.00 0.00 0.00 0.00 0.00 0.00 0.00 0.00 0.00 0.00 0.00 0.00 0.00 0.00 0.00
0.00 0.00 0.00 0.00 0.00 0.00 0.00 0.00 0.00 0.00 0.00 0.00 0.00 0.00 0.00 0.00 0.00 0.00 0.00 0.00 0.00 0.00 0.00 0.00 0.00 0.00 0.00 0.00 0.00 0.00 0.00 0.00 0.00 0.00 0.00 0.00 0.00 0.00 0.00 0.00 0.00 0.00 0.00 0.00 0.00 0.00 0.00 0.00 0.00
0.00 0.00 0.00 0.00 0.00 0.00 0.00 0.00 0.00 0.00 0.00 0.00 0.00 0.00 0.00 0.00 0.00 0.00 0.00 0.00 0.00 0.00 0.00 0.00 0.00 0.00 0.00 0.00 0.00 0.00 0.00 0.00 0.00 0.00 0.00 0.00 0.00 0.00 0.00 0.00 0.00 0.00 0.00 0.00 0.00 0.00 0.00 0.00 0.00
0.00 0.00 0.00 0.00 0.00 0.00 0.00 0.00 0.00 0.00 0.00 0.00 0.00 0.00 0.00 0.00 0.00 0.00 0.00 0.00 0.00 0.00 0.00 0.00 0.00 0.00 0.00 0.00 0.00 0.00 0.00 0.00 0.00 0.00 0.00 0.00 0.00 0.00 0.00 0.00 0.00 0.00 0.00 0.00 0.00 0.00 0.00 0.00 0.00

GFSSGP_prec_precacc24_045.txt.gz
Total_Precipitation_Accumulation
0.01 0.04 0.23 0.40 1.07 0.57 0.52 0.42 0.32 0.12 0.17 0.11 0.07 0.06 0.16 0.14 0.20 0.17 0.02 0.09 0.13 0.22 0.08 0.09 0.14 0.08 0.06 0.05 0.05 0.02 0.01 0.02 0.02 0.05 0.09 0.06 0.09 0.10 0.12 0.09 0.05 0.03 0.05 0.06 0.04 0.03 0.00 0.01 0.06
0.01 0.18 0.48 1.08 1.17 1.45 0.92 0.47 0.33 0.12 0.16 0.19 0.08 0.04 0.01 0.01 0.03 0.04 0.06 0.13 0.04 0.01 0.04 0.01 0.13 0.10 0.07 0.08 0.04 0.02 0.01 0.06 0.09 0.08 0.06 0.07 0.20 0.14 0.05 0.05 0.06 0.07 0.08 0.13 0.17 0.12 0.01 0.01 0.06
0.02 0.41 1.24 1.52 1.03 0.85 0.49 0.49 0.31 0.18 0.20 0.14 0.11 0.05 0.03 0.01 0.01 0.06 0.06 0.05 0.01 0.01 0.03 0.00 0.06 0.08 0.06 0.05 0.02 0.02 0.01 0.01 0.02 0.04 0.08 0.11 0.15 0.13 0.09 0.09 0.05 0.06 0.03 0.02 0.02 0.01 0.00 0.05 0.19
0.04 0.45 0.72 0.89 0.70 0.24 0.12 0.25 0.29 0.25 0.40 0.40 0.20 0.07 0.03 0.00 0.00 0.01 0.01 0.02 0.02 0.02 0.01 0.01 0.04 0.02 0.05 0.02 0.03 0.01 0.01 0.02 0.06 0.05 0.06 0.10 0.10 0.05 0.02 0.03 0.06 0.06 0.02 0.00 0.00 0.00 0.00 0.02 0.11
0.07 0.50 0.58 0.61 0.51 0.39 0.10 0.25 0.30 0.53 0.55 0.41 0.18 0.05 0.04 0.01 0.00 0.00 0.00 0.01 0.01 0.01 0.01 0.01 0.10 0.06 0.04 0.02 0.01 0.01 0.02 0.06 0.05 0.02 0.03 0.03 0.02 0.03 0.06 0.06 0.03 0.05 0.01 0.00 0.00 0.00 0.01 0.07 0.18
0.31 0.41 0.46 0.14 0.11 0.18 0.17 0.22 0.34 0.49 0.63 0.27 0.08 0.02 0.04 0.02 0.00 0.00 0.00 0.01 0.01 0.01 0.00 0.02 0.04 0.03 0.06 0.04 0.02 0.01 0.02 0.02 0.03 0.05 0.03 0.02 0.01 0.01 0.02 0.01 0.00 0.00 0.00 0.00 0.02 0.05 0.05 0.03 0.17
0.22 1.18 0.85 0.15 0.30 0.17 0.22 0.24 0.35 0.58 0.35 0.12 0.02 0.01 0.05 0.03 0.00 0.00 0.00 0.01 0.01 0.01 0.00 0.01 0.01 0.03 0.06 0.06 0.03 0.01 0.02 0.02 0.02 0.01 0.02 0.00 0.00 0.00 0.00 0.01 0.00 0.00 0.00 0.00 0.01 0.02 0.03 0.07 0.10
0.12 0.44 1.88 0.63 0.19 1.00 0.55 0.35 0.47 0.40 0.21 0.04 0.00 0.00 0.02 0.01 0.00 0.00 0.01 0.01 0.00 0.00 0.00 0.00 0.00 0.01 0.01 0.03 0.03 0.02 0.02 0.03 0.01 0.01 0.01 0.02 0.03 0.05 0.03 0.04 0.02 0.01 0.00 0.00 0.02 0.03 0.03 0.05 0.09
0.20 1.13 1.59 0.42 0.27 0.95 0.52 0.32 0.24 0.33 0.09 0.02 0.01 0.00 0.00 0.00 0.00 0.01 0.01 0.01 0.01 0.01 0.00 0.00 0.00 0.00 0.00 0.01 0.02 0.06 0.03 0.00 0.00 0.01 0.06 0.28 0.22 0.24 0.23 0.08 0.03 0.00 0.01 0.03 0.04 0.01 0.03 0.02 0.03
0.20 0.78 0.51 0.03 0.03 0.11 0.34 0.47 0.44 0.24 0.04 0.02 0.00 0.00 0.00 0.00 0.00 0.01 0.00 0.01 0.01 0.00 0.01 0.00 0.00 0.00 0.00 0.00 0.00 0.01 0.00 0.00 0.00 0.01 0.19 0.79 0.16 0.09 0.12 0.06 0.08 0.03 0.05 0.07 0.05 0.04 0.03 0.07 0.03
0.09 0.25 0.17 0.00 0.00 0.03 0.05 0.07 0.22 0.11 0.01 0.00 0.00 0.00 0.00 0.00 0.00 0.00 0.00 0.00 0.00 0.00 0.00 0.00 0.00 0.00 0.00 0.00 0.00 0.00 0.00 0.00 0.00 0.03 0.26 0.81 0.23 0.10 0.12 0.02 0.06 0.01 0.02 0.02 0.07 0.05 0.01 0.00 0.00
0.01 0.04 0.09 0.00 0.00 0.00 0.01 0.07 0.07 0.03 0.00 0.00 0.00 0.00 0.00 0.00 0.00 0.00 0.00 0.00 0.00 0.00 0.00 0.00 0.00 0.00 0.00 0.00 0.00 0.00 0.00 0.00 0.00 0.01 0.05 0.16 0.25 0.14 0.03 0.04 0.02 0.02 0.05 0.10 0.05 0.03 0.05 0.04 0.00
0.00 0.00 0.01 0.05 0.00 0.00 0.00 0.14 0.10 0.01 0.00 0.00 0.00 0.00 0.00 0.00 0.00 0.00 0.00 0.00 0.00 0.00 0.00 0.00 0.00 0.00 0.00 0.00 0.00 0.00 0.00 0.00 0.00 0.00 0.00 0.10 0.21 0.11 0.05 0.05 0.08 0.05 0.16 0.75 0.12 0.11 0.05 0.01 0.02
0.00 0.00 0.01 0.02 0.00 0.01 0.00 0.00 0.00 0.01 0.00 0.00 0.00 0.00 0.00 0.00 0.00 0.00 0.00 0.00 0.00 0.00 0.00 0.00 0.00 0.00 0.00 0.00 0.00 0.00 0.00 0.00 0.00 0.00 0.00 0.01 0.10 0.17 0.21 0.20 0.11 0.07 0.08 0.22 0.15 0.09 0.23 0.01 0.00
0.00 0.00 0.00 0.00 0.01 0.01 0.01 0.00 0.00 0.01 0.00 0.00 0.00 0.00 0.00 0.00 0.00 0.00 0.00 0.00 0.00 0.00 0.00 0.00 0.00 0.00 0.00 0.00 0.00 0.00 0.00 0.00 0.00 0.00 0.00 0.00 0.02 0.09 0.12 0.15 0.15 0.10 0.15 0.09 0.09 0.08 0.25 0.02 0.00
0.00 0.00 0.00 0.00 0.00 0.00 0.01 0.00 0.00 0.02 0.01 0.00 0.00 0.00 0.00 0.00 0.00 0.00 0.00 0.00 0.00 0.00 0.00 0.00 0.00 0.00 0.00 0.00 0.00 0.00 0.00 0.00 0.00 0.00 0.00 0.00 0.00 0.04 0.11 0.22 0.15 0.13 0.19 0.09 0.08 0.05 0.04 0.00 0.00
0.00 0.00 0.00 0.00 0.00 0.00 0.00 0.00 0.00 0.04 0.02 0.01 0.01 0.01 0.00 0.00 0.00 0.00 0.00 0.00 0.00 0.00 0.00 0.00 0.00 0.00 0.00 0.00 0.00 0.00 0.00 0.00 0.00 0.00 0.00 0.00 0.00 0.01 0.07 0.26 0.26 0.10 0.18 0.10 0.07 0.10 0.04 0.00 0.00
0.00 0.00 0.00 0.00 0.00 0.00 0.00 0.00 0.00 0.01 0.02 0.15 0.10 0.05 0.00 0.00 0.00 0.00 0.00 0.00 0.00 0.00 0.00 0.00 0.00 0.00 0.00 0.00 0.00 0.00 0.00 0.00 0.00 0.00 0.00 0.00 0.00 0.00 0.02 0.24 0.36 0.16 0.15 0.14 0.14 0.07 0.00 0.00 0.00
0.00 0.00 0.00 0.00 0.00 0.00 0.00 0.00 0.00 0.00 0.18 0.47 0.22 0.10 0.04 0.00 0.00 0.00 0.00 0.00 0.00 0.00 0.00 0.00 0.00 0.01 0.01 0.00 0.00 0.00 0.00 0.00 0.00 0.00 0.00 0.00 0.00 0.00 0.05 0.19 0.34 0.14 0.14 0.13 0.12 0.04 0.00 0.00 0.00
0.00 0.00 0.00 0.00 0.00 0.00 0.00 0.00 0.00 0.00 0.06 0.22 0.14 0.08 0.03 0.00 0.00 0.00 0.00 0.00 0.00 0.00 0.00 0.00 0.00 0.00 0.00 0.00 0.00 0.00 0.00 0.00 0.00 0.00 0.00 0.00 0.00 0.01 0.10 0.27 0.19 0.14 0.15 0.19 0.09 0.07 0.04 0.00 0.00
0.00 0.00 0.00 0.00 0.00 0.00 0.00 0.01 0.02 0.01 0.03 0.01 0.07 0.05 0.09 0.00 0.00 0.00 0.00 0.00 0.00 0.00 0.00 0.00 0.00 0.00 0.00 0.00 0.00 0.00 0.00 0.00 0.00 0.00 0.00 0.00 0.00 0.00 0.09 0.19 0.12 0.17 0.19 0.31 0.18 0.04 0.02 0.01 0.00
0.00 0.00 0.00 0.00 0.00 0.00 0.00 0.00 0.01 0.01 0.00 0.00 0.00 0.00 0.07 0.01 0.01 0.00 0.00 0.00 0.00 0.00 0.00 0.00 0.00 0.00 0.00 0.00 0.00 0.00 0.00 0.00 0.00 0.00 0.00 0.00 0.00 0.00 0.02 0.07 0.11 0.14 0.09 0.23 0.18 0.02 0.01 0.00 0.00
0.00 0.00 0.00 0.00 0.00 0.00 0.00 0.00 0.00 0.00 0.00 0.00 0.00 0.00 0.10 0.15 0.01 0.01 0.00 0.00 0.00 0.00 0.00 0.00 0.00 0.00 0.00 0.00 0.00 0.00 0.00 0.00 0.00 0.00 0.00 0.00 0.00 0.00 0.00 0.02 0.14 0.10 0.09 0.15 0.12 0.05 0.00 0.00 0.00
0.00 0.00 0.00 0.00 0.00 0.00 0.00 0.00 0.00 0.00 0.00 0.00 0.00 0.00 0.00 0.00 0.00 0.01 0.00 0.00 0.00 0.00 0.00 0.00 0.00 0.00 0.00 0.00 0.00 0.00 0.00 0.00 0.00 0.00 0.00 0.00 0.00 0.00 0.00 0.01 0.03 0.05 0.01 0.04 0.07 0.06 0.02 0.00 0.00
0.00 0.00 0.00 0.00 0.00 0.00 0.00 0.00 0.00 0.00 0.00 0.00 0.00 0.00 0.00 0.00 0.00 0.01 0.00 0.00 0.00 0.00 0.00 0.00 0.00 0.00 0.00 0.00 0.00 0.00 0.00 0.00 0.00 0.00 0.00 0.00 0.00 0.00 0.00 0.00 0.03 0.01 0.00 0.01 0.01 0.03 0.01 0.00 0.00
0.00 0.00 0.00 0.00 0.00 0.00 0.00 0.00 0.00 0.00 0.00 0.00 0.00 0.00 0.00 0.00 0.00 0.00 0.00 0.00 0.00 0.00 0.00 0.00 0.00 0.00 0.00 0.00 0.00 0.00 0.00 0.00 0.00 0.00 0.00 0.00 0.00 0.00 0.00 0.00 0.00 0.00 0.00 0.00 0.00 0.00 0.00 0.00 0.00
0.00 0.00 0.00 0.00 0.00 0.00 0.00 0.00 0.00 0.00 0.00 0.00 0.00 0.00 0.00 0.00 0.00 0.00 0.00 0.00 0.00 0.00 0.00 0.00 0.00 0.00 0.00 0.00 0.00 0.00 0.00 0.00 0.00 0.00 0.00 0.00 0.00 0.00 0.00 0.00 0.00 0.00 0.00 0.00 0.00 0.00 0.00 0.00 0.00
0.00 0.00 0.00 0.00 0.00 0.00 0.00 0.00 0.00 0.00 0.00 0.00 0.00 0.00 0.00 0.00 0.00 0.00 0.00 0.00 0.00 0.00 0.00 0.00 0.00 0.00 0.00 0.00 0.00 0.00 0.00 0.00 0.00 0.00 0.00 0.00 0.00 0.00 0.00 0.00 0.00 0.00 0.00 0.00 0.00 0.00 0.00 0.00 0.00
0.00 0.00 0.00 0.00 0.00 0.00 0.00 0.00 0.00 0.00 0.00 0.00 0.00 0.00 0.00 0.00 0.00 0.00 0.00 0.00 0.00 0.00 0.00 0.00 0.00 0.00 0.00 0.00 0.00 0.00 0.00 0.00 0.00 0.00 0.00 0.00 0.00 0.00 0.00 0.00 0.00 0.00 0.00 0.00 0.00 0.00 0.00 0.00 0.00
0.00 0.00 0.00 0.00 0.00 0.00 0.00 0.00 0.00 0.00 0.00 0.00 0.00 0.00 0.00 0.00 0.00 0.00 0.00 0.00 0.00 0.00 0.00 0.00 0.00 0.00 0.00 0.00 0.00 0.00 0.00 0.00 0.00 0.00 0.00 0.00 0.00 0.00 0.00 0.00 0.00 0.00 0.00 0.00 0.00 0.00 0.00 0.00 0.00

GFSSGP_prec_precacc24_048.txt.gz
Total_Precipitation_Accumulation
0.01 0.02 0.16 0.36 1.02 0.54 0.43 0.41 0.42 0.19 0.18 0.11 0.07 0.06 0.16 0.13 0.21 0.19 0.01 0.08 0.09 0.18 0.06 0.05 0.12 0.05 0.05 0.06 0.04 0.03 0.02 0.02 0.02 0.05 0.10 0.07 0.08 0.10 0.14 0.06 0.06 0.05 0.07 0.05 0.05 0.03 0.01 0.04 0.04
0.00 0.17 0.46 1.12 1.22 1.42 0.89 0.51 0.43 0.15 0.16 0.19 0.08 0.04 0.02 0.01 0.03 0.02 0.05 0.10 0.02 0.01 0.03 0.01 0.09 0.07 0.07 0.08 0.04 0.05 0.02 0.06 0.11 0.13 0.11 0.08 0.17 0.14 0.13 0.06 0.07 0.08 0.10 0.13 0.17 0.12 0.04 0.03 0.09
0.01 0.41 1.30 1.60 1.05 0.83 0.50 0.51 0.34 0.20 0.23 0.14 0.11 0.05 0.03 0.01 0.01 0.05 0.05 0.05 0.01 0.01 0.02 0.01 0.04 0.07 0.06 0.06 0.02 0.04 0.02 0.03 0.06 0.09 0.09 0.12 0.14 0.14 0.10 0.08 0.02 0.01 0.04 0.03 0.02 0.01 0.01 0.07 0.22
0.03 0.48 0.89 1.00 0.71 0.26 0.12 0.26 0.31 0.30 0.44 0.42 0.22 0.06 0.03 0.01 0.00 0.01 0.01 0.02 0.02 0.02 0.00 0.01 0.03 0.03 0.06 0.07 0.04 0.03 0.04 0.05 0.07 0.06 0.06 0.14 0.12 0.11 0.02 0.01 0.00 0.00 0.01 0.00 0.00 0.00 0.00 0.01 0.11
0.08 0.64 0.70 0.71 0.61 0.44 0.11 0.25 0.36 0.66 0.60 0.47 0.22 0.07 0.07 0.02 0.00 0.00 0.00 0.01 0.01 0.01 0.01 0.01 0.11 0.07 0.06 0.04 0.01 0.03 0.04 0.07 0.06 0.04 0.07 0.08 0.06 0.05 0.01 0.00 0.01 0.00 0.00 0.00 0.01 0.00 0.02 0.08 0.20
0.36 0.45 0.49 0.15 0.12 0.18 0.17 0.23 0.37 0.55 0.71 0.33 0.11 0.04 0.05 0.02 0.01 0.00 0.00 0.01 0.01 0.01 0.00 0.02 0.05 0.04 0.07 0.02 0.04 0.03 0.03 0.02 0.04 0.08 0.06 0.04 0.02 0.02 0.02 0.00 0.00 0.00 0.00 0.00 0.02 0.08 0.07 0.04 0.19
0.26 1.21 0.87 0.15 0.30 0.20 0.24 0.24 0.50 0.73 0.36 0.13 0.04 0.01 0.05 0.04 0.01 0.00 0.00 0.01 0.01 0.01 0.00 0.02 0.01 0.05 0.06 0.06 0.04 0.02 0.02 0.02 0.05 0.06 0.05 0.01 0.01 0.00 0.00 0.01 0.00 0.00 0.00 0.00 0.02 0.03 0.03 0.07 0.09
0.13 0.44 1.89 0.63 0.19 1.07 0.56 0.35 0.55 0.50 0.21 0.05 0.01 0.00 0.03 0.02 0.01 0.00 0.01 0.01 0.00 0.00 0.01 0.00 0.01 0.01 0.03 0.04 0.04 0.02 0.03 0.05 0.06 0.01 0.01 0.03 0.03 0.05 0.03 0.03 0.02 0.00 0.00 0.00 0.02 0.03 0.03 0.06 0.12
0.21 1.13 1.61 0.42 0.27 0.96 0.52 0.32 0.25 0.36 0.11 0.03 0.01 0.00 0.00 0.00 0.00 0.01 0.01 0.01 0.01 0.01 0.00 0.00 0.02 0.01 0.08 0.02 0.04 0.07 0.05 0.02 0.01 0.01 0.07 0.29 0.21 0.24 0.23 0.07 0.03 0.01 0.02 0.05 0.05 0.01 0.03 0.02 0.04
0.21 0.78 0.52 0.03 0.03 0.11 0.36 0.48 0.44 0.24 0.04 0.02 0.00 0.00 0.00 0.01 0.01 0.01 0.01 0.01 0.01 0.00 0.01 0.00 0.00 0.00 0.06 0.02 0.03 0.05 0.02 0.00 0.00 0.01 0.19 0.79 0.16 0.09 0.12 0.07 0.11 0.05 0.05 0.06 0.07 0.05 0.03 0.08 0.03
0.09 0.25 0.17 0.00 0.00 0.03 0.06 0.07 0.22 0.11 0.02 0.00 0.00 0.00 0.00 0.00 0.00 0.00 0.00 0.00 0.00 0.00 0.00 0.00 0.00 0.00 0.01 0.02 0.01 0.01 0.00 0.00 0.00 0.03 0.26 0.81 0.23 0.10 0.12 0.02 0.06 0.01 0.02 0.02 0.06 0.05 0.00 0.00 0.00
0.01 0.04 0.09 0.00 0.00 0.00 0.01 0.07 0.07 0.03 0.01 0.00 0.00 0.00 0.00 0.00 0.00 0.00 0.00 0.00 0.00 0.00 0.00 0.00 0.00 0.00 0.00 0.00 0.00 0.00 0.00 0.00 0.00 0.01 0.05 0.16 0.25 0.14 0.03 0.04 0.02 0.02 0.05 0.10 0.05 0.02 0.02 0.02 0.00
0.00 0.01 0.01 0.05 0.00 0.00 0.00 0.14 0.10 0.01 0.00 0.00 0.00 0.00 0.00 0.00 0.00 0.00 0.00 0.00 0.00 0.00 0.00 0.00 0.00 0.00 0.00 0.00 0.00 0.00 0.00 0.00 0.00 0.00 0.00 0.10 0.21 0.10 0.06 0.07 0.08 0.05 0.16 0.75 0.08 0.03 0.01 0.00 0.02
0.00 0.00 0.01 0.02 0.00 0.01 0.00 0.00 0.00 0.01 0.00 0.00 0.00 0.00 0.00 0.00 0.00 0.00 0.00 0.00 0.00 0.00 0.00 0.00 0.00 0.00 0.00 0.00 0.00 0.00 0.00 0.00 0.00 0.00 0.00 0.01 0.10 0.23 0.27 0.25 0.16 0.09 0.07 0.18 0.06 0.02 0.20 0.01 0.00
0.00 0.00 0.00 0.00 0.01 0.01 0.01 0.00 0.00 0.01 0.00 0.00 0.00 0.00 0.00 0.00 0.00 0.00 0.00 0.00 0.00 0.00 0.00 0.00 0.00 0.00 0.00 0.00 0.00 0.00 0.00 0.00 0.00 0.00 0.00 0.00 0.02 0.17 0.20 0.21 0.21 0.13 0.06 0.01 0.04 0.04 0.24 0.02 0.00
0.00 0.00 0.00 0.00 0.00 0.00 0.01 0.01 0.00 0.02 0.01 0.00 0.00 0.00 0.00 0.00 0.00 0.00 0.00 0.00 0.00 0.00 0.00 0.00 0.00 0.00 0.00 0.00 0.00 0.00 0.00 0.00 0.00 0.00 0.00 0.00 0.00 0.10 0.17 0.20 0.13 0.13 0.09 0.05 0.06 0.02 0.01 0.00 0.00
0.00 0.00 0.00 0.00 0.00 0.00 0.00 0.00 0.00 0.04 0.02 0.01 0.01 0.01 0.00 0.00 0.00 0.00 0.00 0.00 0.00 0.00 0.00 0.00 0.00 0.00 0.00 0.00 0.00 0.00 0.00 0.00 0.00 0.00 0.00 0.00 0.00 0.01 0.07 0.18 0.23 0.13 0.20 0.08 0.03 0.04 0.01 0.00 0.00
0.00 0.00 0.00 0.00 0.00 0.01 0.00 0.00 0.00 0.01 0.02 0.15 0.10 0.05 0.00 0.00 0.00 0.00 0.00 0.00 0.00 0.00 0.00 0.00 0.00 0.00 0.00 0.00 0.00 0.00 0.00 0.00 0.00 0.00 0.00 0.00 0.00 0.00 0.03 0.25 0.35 0.20 0.17 0.16 0.07 0.02 0.00 0.00 0.00
0.00 0.00 0.00 0.00 0.00 0.01 0.00 0.00 0.00 0.00 0.18 0.47 0.22 0.10 0.04 0.00 0.00 0.00 0.00 0.00 0.00 0.00 0.00 0.00 0.00 0.01 0.01 0.00 0.00 0.00 0.00 0.00 0.00 0.00 0.00 0.00 0.00 0.00 0.06 0.20 0.30 0.17 0.13 0.11 0.06 0.00 0.00 0.00 0.00
0.00 0.00 0.00 0.00 0.00 0.00 0.00 0.00 0.00 0.00 0.06 0.22 0.14 0.08 0.03 0.00 0.00 0.00 0.00 0.00 0.00 0.00 0.00 0.00 0.00 0.00 0.00 0.00 0.00 0.00 0.00 0.00 0.00 0.00 0.00 0.00 0.00 0.01 0.11 0.24 0.13 0.16 0.18 0.19 0.11 0.05 0.03 0.00 0.00
0.00 0.00 0.00 0.00 0.00 0.00 0.00 0.01 0.02 0.01 0.03 0.01 0.07 0.05 0.09 0.00 0.00 0.00 0.00 0.00 0.00 0.00 0.00 0.00 0.00 0.00 0.00 0.00 0.00 0.00 0.00 0.00 0.00 0.00 0.00 0.00 0.00 0.00 0.10 0.18 0.10 0.19 0.23 0.28 0.16 0.01 0.01 0.01 0.00
0.00 0.00 0.00 0.00 0.00 0.00 0.00 0.00 0.01 0.01 0.00 0.00 0.00 0.00 0.07 0.01 0.01 0.00 0.00 0.00 0.00 0.00 0.00 0.00 0.00 0.00 0.00 0.00 0.00 0.00 0.00 0.00 0.00 0.00 0.00 0.00 0.00 0.00 0.02 0.13 0.16 0.17 0.18 0.24 0.18 0.01 0.01 0.00 0.00
0.00 0.00 0.00 0.00 0.00 0.00 0.00 0.00 0.00 0.00 0.00 0.00 0.00 0.00 0.10 0.15 0.01 0.01 0.00 0.00 0.00 0.00 0.00 0.00 0.00 0.00 0.00 0.00 0.00 0.00 0.00 0.00 0.00 0.00 0.00 0.00 0.00 0.00 0.00 0.05 0.15 0.11 0.11 0.16 0.18 0.10 0.00 0.00 0.00
0.00 0.00 0.00 0.00 0.00 0.00 0.00 0.00 0.00 0.00 0.00 0.00 0.00 0.00 0.00 0.00 0.00 0.01 0.00 0.00 0.00 0.00 0.00 0.00 0.00 0.00 0.00 0.00 0.00 0.00 0.00 0.00 0.00 0.00 0.00 0.00 0.00 0.00 0.00 0.00 0.02 0.05 0.04 0.06 0.12 0.13 0.04 0.00 0.00
0.00 0.00 0.00 0.00 0.00 0.00 0.00 0.00 0.00 0.00 0.00 0.00 0.00 0.00 0.00 0.00 0.00 0.01 0.00 0.00 0.00 0.00 0.00 0.00 0.00 0.00 0.00 0.00 0.00 0.00 0.00 0.00 0.00 0.00 0.00 0.00 0.00 0.00 0.00 0.00 0.03 0.00 0.02 0.02 0.03 0.09 0.07 0.02 0.00
0.00 0.00 0.00 0.00 0.00 0.00 0.00 0.00 0.00 0.00 0.00 0.00 0.00 0.00 0.00 0.00 0.00 0.00 0.00 0.00 0.00 0.00 0.00 0.00 0.00 0.00 0.00 0.00 0.00 0.00 0.00 0.00 0.00 0.00 0.00 0.00 0.00 0.00 0.00 0.00 0.00 0.00 0.00 0.00 0.00 0.01 0.01 0.01 0.00
0.00 0.00 0.00 0.00 0.00 0.00 0.00 0.00 0.00 0.00 0.00 0.00 0.00 0.00 0.00 0.00 0.00 0.00 0.00 0.00 0.00 0.00 0.00 0.00 0.00 0.00 0.00 0.00 0.00 0.00 0.00 0.00 0.00 0.00 0.00 0.00 0.00 0.00 0.00 0.00 0.00 0.00 0.00 0.00 0.00 0.00 0.00 0.00 0.00
0.00 0.00 0.00 0.00 0.00 0.00 0.00 0.00 0.00 0.00 0.00 0.00 0.00 0.00 0.00 0.00 0.00 0.00 0.00 0.00 0.00 0.00 0.00 0.00 0.00 0.00 0.00 0.00 0.00 0.00 0.00 0.00 0.00 0.00 0.00 0.00 0.00 0.00 0.00 0.00 0.00 0.00 0.00 0.00 0.00 0.00 0.00 0.00 0.00
0.00 0.00 0.00 0.00 0.00 0.00 0.00 0.00 0.00 0.00 0.00 0.00 0.00 0.00 0.00 0.00 0.00 0.00 0.00 0.00 0.00 0.00 0.00 0.00 0.00 0.00 0.00 0.00 0.00 0.00 0.00 0.00 0.00 0.00 0.00 0.00 0.00 0.00 0.00 0.00 0.00 0.00 0.00 0.00 0.00 0.00 0.00 0.00 0.00
0.00 0.00 0.00 0.00 0.00 0.00 0.00 0.00 0.00 0.00 0.00 0.00 0.00 0.00 0.00 0.00 0.00 0.00 0.00 0.00 0.00 0.00 0.00 0.00 0.00 0.00 0.00 0.00 0.00 0.00 0.00 0.00 0.00 0.00 0.00 0.00 0.00 0.00 0.00 0.00 0.00 0.00 0.00 0.00 0.00 0.00 0.00 0.00 0.00

GFSSGP_prec_precacc24_051.txt.gz
Total_Precipitation_Accumulation
0.01 0.01 0.05 0.28 0.97 0.49 0.33 0.38 0.42 0.23 0.17 0.11 0.07 0.05 0.12 0.10 0.20 0.16 0.00 0.01 0.00 0.00 0.06 0.05 0.15 0.06 0.06 0.06 0.04 0.03 0.02 0.02 0.02 0.05 0.12 0.10 0.07 0.08 0.09 0.03 0.04 0.06 0.08 0.05 0.02 0.04 0.07 0.05 0.04
0.00 0.09 0.32 1.10 1.20 1.17 0.90 0.52 0.50 0.17 0.17 0.19 0.08 0.03 0.02 0.01 0.03 0.01 0.00 0.00 0.00 0.00 0.03 0.01 0.08 0.07 0.07 0.08 0.05 0.05 0.02 0.06 0.12 0.15 0.13 0.07 0.16 0.12 0.15 0.07 0.07 0.11 0.11 0.13 0.18 0.14 0.08 0.08 0.13
0.00 0.38 1.25 1.65 0.94 0.80 0.61 0.59 0.39 0.21 0.23 0.13 0.11 0.04 0.04 0.02 0.01 0.02 0.02 0.00 0.00 0.00 0.02 0.01 0.03 0.06 0.07 0.06 0.03 0.04 0.02 0.04 0.10 0.14 0.12 0.09 0.14 0.12 0.11 0.09 0.02 0.03 0.04 0.03 0.02 0.01 0.02 0.10 0.23
0.03 0.51 0.97 0.99 0.70 0.28 0.15 0.29 0.34 0.32 0.45 0.42 0.21 0.06 0.04 0.02 0.00 0.01 0.00 0.00 0.00 0.01 0.00 0.01 0.03 0.03 0.05 0.09 0.04 0.03 0.04 0.06 0.08 0.07 0.05 0.13 0.14 0.14 0.04 0.02 0.03 0.01 0.01 0.00 0.01 0.01 0.03 0.01 0.11
0.08 0.80 0.74 0.74 0.75 0.52 0.11 0.26 0.38 0.80 0.65 0.47 0.22 0.08 0.07 0.03 0.00 0.00 0.00 0.00 0.00 0.00 0.00 0.01 0.10 0.07 0.06 0.05 0.01 0.03 0.06 0.09 0.07 0.04 0.07 0.08 0.07 0.07 0.02 0.01 0.01 0.00 0.00 0.00 0.05 0.04 0.04 0.08 0.20
0.43 0.46 0.31 0.23 0.18 0.22 0.23 0.23 0.42 0.83 0.95 0.35 0.12 0.08 0.10 0.03 0.01 0.00 0.00 0.01 0.00 0.00 0.00 0.02 0.06 0.06 0.08 0.02 0.04 0.03 0.03 0.03 0.09 0.11 0.07 0.07 0.04 0.04 0.01 0.00 0.00 0.00 0.00 0.00 0.02 0.13 0.08 0.04 0.19
0.31 1.19 0.79 0.18 0.31 0.25 0.32 0.27 0.57 0.94 0.40 0.15 0.12 0.04 0.07 0.05 0.01 0.00 0.00 0.01 0.00 0.00 0.00 0.02 0.01 0.06 0.08 0.06 0.05 0.04 0.04 0.06 0.09 0.07 0.09 0.04 0.02 0.00 0.00 0.01 0.00 0.00 0.00 0.00 0.02 0.04 0.04 0.07 0.10
0.13 0.46 1.91 0.62 0.20 1.21 0.60 0.37 0.57 0.59 0.28 0.07 0.02 0.02 0.03 0.03 0.01 0.00 0.01 0.01 0.00 0.00 0.01 0.00 0.01 0.01 0.03 0.05 0.06 0.03 0.04 0.06 0.09 0.03 0.03 0.03 0.03 0.05 0.03 0.04 0.02 0.00 0.00 0.00 0.02 0.03 0.03 0.06 0.13
0.21 1.16 1.65 0.43 0.29 1.02 0.52 0.32 0.25 0.37 0.11 0.03 0.01 0.00 0.00 0.00 0.00 0.01 0.01 0.01 0.01 0.01 0.00 0.00 0.02 0.01 0.10 0.02 0.06 0.07 0.07 0.07 0.02 0.02 0.07 0.29 0.17 0.21 0.16 0.07 0.03 0.01 0.02 0.05 0.05 0.01 0.03 0.02 0.04
0.21 0.69 0.45 0.05 0.03 0.14 0.36 0.48 0.44 0.24 0.04 0.02 0.00 0.00 0.00 0.01 0.01 0.01 0.01 0.01 0.01 0.00 0.01 0.00 0.00 0.00 0.07 0.02 0.06 0.08 0.02 0.00 0.00 0.01 0.19 0.69 0.16 0.07 0.08 0.07 0.11 0.05 0.05 0.06 0.07 0.06 0.09 0.27 0.06
0.09 0.19 0.12 0.01 0.00 0.03 0.07 0.08 0.22 0.14 0.03 0.00 0.00 0.00 0.00 0.00 0.00 0.00 0.00 0.00 0.00 0.00 0.00 0.00 0.00 0.00 0.01 0.02 0.01 0.01 0.00 0.00 0.00 0.03 0.26 0.80 0.21 0.07 0.07 0.01 0.05 0.01 0.03 0.01 0.04 0.04 0.07 0.28 0.15
0.01 0.03 0.06 0.01 0.01 0.02 0.11 0.19 0.09 0.04 0.15 0.00 0.00 0.00 0.00 0.00 0.00 0.00 0.00 0.00 0.00 0.00 0.00 0.00 0.00 0.00 0.00 0.00 0.00 0.00 0.00 0.00 0.00 0.01 0.05 0.16 0.22 0.13 0.03 0.04 0.02 0.02 0.05 0.09 0.04 0.02 0.02 0.01 0.01
0.00 0.01 0.01 0.06 0.00 0.01 0.01 0.19 0.13 0.02 0.02 0.00 0.00 0.00 0.00 0.00 0.00 0.00 0.00 0.00 0.00 0.00 0.00 0.00 0.00 0.00 0.00 0.00 0.00 0.00 0.00 0.00 0.00 0.00 0.00 0.10 0.20 0.08 0.06 0.07 0.08 0.05 0.15 0.67 0.08 0.03 0.01 0.00 0.01
0.00 0.00 0.01 0.02 0.01 0.03 0.00 0.02 0.00 0.02 0.00 0.00 0.00 0.00 0.00 0.00 0.00 0.00 0.00 0.00 0.00 0.00 0.00 0.00 0.00 0.00 0.00 0.00 0.00 0.00 0.00 0.00 0.00 0.00 0.00 0.01 0.14 0.23 0.27 0.25 0.15 0.08 0.08 0.12 0.06 0.02 0.15 0.01 0.00
0.00 0.00 0.00 0.00 0.01 0.04 0.01 0.03 0.00 0.02 0.00 0.00 0.00 0.00 0.00 0.00 0.00 0.00 0.00 0.00 0.00 0.00 0.00 0.00 0.00 0.00 0.00 0.00 0.00 0.00 0.00 0.00 0.00 0.00 0.00 0.00 0.08 0.17 0.18 0.21 0.21 0.13 0.06 0.01 0.04 0.04 0.07 0.00 0.00
0.00 0.00 0.00 0.00 0.00 0.00 0.01 0.02 0.00 0.02 0.01 0.00 0.00 0.00 0.00 0.00 0.00 0.00 0.00 0.00 0.00 0.00 0.00 0.00 0.00 0.00 0.00 0.00 0.00 0.00 0.00 0.00 0.00 0.00 0.00 0.00 0.07 0.14 0.18 0.16 0.13 0.11 0.08 0.05 0.05 0.02 0.01 0.00 0.00
0.00 0.00 0.00 0.00 0.00 0.00 0.00 0.10 0.14 0.04 0.02 0.01 0.01 0.01 0.00 0.00 0.00 0.00 0.00 0.00 0.00 0.00 0.00 0.00 0.00 0.00 0.00 0.00 0.00 0.00 0.00 0.00 0.00 0.00 0.00 0.00 0.00 0.02 0.17 0.20 0.23 0.12 0.16 0.08 0.02 0.04 0.01 0.00 0.00
0.00 0.00 0.00 0.00 0.00 0.01 0.01 0.05 0.16 0.01 0.02 0.15 0.10 0.05 0.00 0.00 0.00 0.00 0.00 0.00 0.00 0.00 0.00 0.00 0.00 0.00 0.00 0.00 0.00 0.00 0.00 0.00 0.00 0.00 0.00 0.00 0.00 0.00 0.08 0.24 0.35 0.20 0.14 0.19 0.13 0.02 0.00 0.00 0.00
0.00 0.00 0.00 0.00 0.00 0.01 0.01 0.01 0.14 0.00 0.18 0.47 0.22 0.10 0.04 0.00 0.00 0.00 0.00 0.00 0.00 0.00 0.00 0.00 0.00 0.00 0.00 0.00 0.00 0.00 0.00 0.00 0.00 0.00 0.00 0.00 0.00 0.00 0.08 0.16 0.25 0.17 0.11 0.09 0.05 0.00 0.00 0.00 0.00
0.00 0.00 0.00 0.00 0.00 0.00 0.01 0.01 0.01 0.00 0.06 0.22 0.14 0.08 0.03 0.00 0.00 0.00 0.00 0.00 0.00 0.00 0.00 0.00 0.00 0.00 0.00 0.00 0.00 0.00 0.00 0.00 0.00 0.00 0.00 0.00 0.00 0.01 0.04 0.10 0.13 0.19 0.16 0.16 0.09 0.05 0.02 0.00 0.00
0.00 0.00 0.00 0.00 0.00 0.00 0.01 0.02 0.02 0.02 0.03 0.01 0.07 0.05 0.09 0.00 0.00 0.00 0.00 0.00 0.00 0.00 0.00 0.00 0.00 0.00 0.00 0.00 0.00 0.00 0.00 0.00 0.00 0.00 0.00 0.00 0.00 0.00 0.06 0.08 0.10 0.18 0.20 0.15 0.09 0.01 0.01 0.00 0.00
0.00 0.00 0.00 0.00 0.00 0.00 0.00 0.00 0.01 0.02 0.01 0.00 0.00 0.00 0.07 0.01 0.01 0.00 0.00 0.00 0.00 0.00 0.00 0.00 0.00 0.00 0.00 0.00 0.00 0.00 0.00 0.00 0.00 0.00 0.00 0.00 0.00 0.00 0.01 0.08 0.14 0.16 0.18 0.15 0.09 0.01 0.01 0.00 0.00
0.00 0.00 0.00 0.00 0.00 0.00 0.00 0.00 0.00 0.00 0.01 0.00 0.00 0.00 0.10 0.15 0.01 0.01 0.00 0.00 0.00 0.00 0.00 0.00 0.00 0.00 0.00 0.00 0.00 0.00 0.00 0.00 0.00 0.00 0.00 0.00 0.00 0.00 0.00 0.06 0.10 0.10 0.10 0.15 0.13 0.09 0.00 0.00 0.00
0.00 0.00 0.00 0.00 0.00 0.00 0.00 0.00 0.00 0.00 0.00 0.00 0.00 0.00 0.00 0.00 0.00 0.01 0.00 0.00 0.00 0.00 0.00 0.00 0.00 0.00 0.00 0.00 0.00 0.00 0.00 0.00 0.00 0.00 0.00 0.00 0.00 0.00 0.00 0.00 0.01 0.05 0.04 0.07 0.11 0.12 0.04 0.00 0.00
0.00 0.00 0.00 0.00 0.00 0.00 0.00 0.00 0.00 0.00 0.00 0.00 0.00 0.00 0.00 0.00 0.00 0.01 0.00 0.00 0.00 0.00 0.00 0.00 0.00 0.00 0.00 0.00 0.00 0.00 0.00 0.00 0.00 0.00 0.00 0.00 0.00 0.00 0.00 0.00 0.03 0.00 0.02 0.02 0.05 0.09 0.07 0.02 0.00
0.00 0.00 0.00 0.00 0.00 0.00 0.00 0.00 0.00 0.00 0.00 0.01 0.01 0.00 0.00 0.00 0.00 0.00 0.00 0.00 0.00 0.00 0.00 0.00 0.00 0.00 0.00 0.00 0.00 0.00 0.00 0.00 0.00 0.00 0.00 0.00 0.00 0.00 0.00 0.00 0.00 0.00 0.00 0.00 0.00 0.02 0.01 0.01 0.00
0.00 0.00 0.00 0.00 0.00 0.00 0.00 0.00 0.00 0.00 0.00 0.00 0.00 0.00 0.00 0.00 0.00 0.00 0.00 0.00 0.00 0.00 0.00 0.00 0.00 0.00 0.00 0.00 0.00 0.00 0.00 0.00 0.00 0.00 0.00 0.00 0.00 0.00 0.00 0.00 0.00 0.00 0.00 0.00 0.00 0.01 0.01 0.01 0.00
0.00 0.00 0.00 0.00 0.00 0.00 0.00 0.00 0.00 0.00 0.00 0.00 0.00 0.00 0.00 0.00 0.00 0.00 0.00 0.00 0.00 0.00 0.00 0.00 0.00 0.00 0.00 0.00 0.00 0.00 0.00 0.00 0.00 0.00 0.00 0.00 0.00 0.00 0.00 0.00 0.00 0.00 0.00 0.00 0.00 0.00 0.00 0.00 0.00
0.00 0.00 0.00 0.00 0.00 0.00 0.00 0.00 0.00 0.00 0.00 0.00 0.00 0.00 0.00 0.00 0.00 0.00 0.00 0.00 0.00 0.00 0.00 0.00 0.00 0.00 0.00 0.00 0.00 0.00 0.00 0.00 0.00 0.00 0.00 0.00 0.00 0.00 0.00 0.00 0.00 0.00 0.00 0.00 0.00 0.00 0.00 0.00 0.00
0.00 0.00 0.00 0.00 0.00 0.00 0.00 0.00 0.00 0.00 0.00 0.00 0.00 0.00 0.00 0.00 0.00 0.00 0.00 0.00 0.00 0.00 0.00 0.00 0.00 0.00 0.00 0.00 0.00 0.00 0.00 0.00 0.00 0.00 0.00 0.00 0.00 0.00 0.00 0.00 0.00 0.00 0.00 0.00 0.00 0.00 0.00 0.00 0.00

GFSSGP_prec_precacc24_054.txt.gz
Total_Precipitation_Accumulation
0.01 0.00 0.01 0.21 0.89 0.28 0.24 0.28 0.37 0.23 0.18 0.13 0.07 0.04 0.07 0.08 0.12 0.17 0.00 0.00 0.00 0.00 0.06 0.05 0.22 0.08 0.07 0.07 0.04 0.03 0.02 0.02 0.02 0.05 0.09 0.09 0.06 0.08 0.09 0.03 0.06 0.08 0.07 0.05 0.02 0.04 0.07 0.05 0.04
0.00 0.05 0.19 1.00 1.06 0.69 0.73 0.51 0.50 0.18 0.19 0.19 0.08 0.03 0.02 0.01 0.02 0.01 0.00 0.00 0.00 0.00 0.03 0.01 0.10 0.08 0.07 0.07 0.04 0.05 0.02 0.06 0.12 0.14 0.10 0.07 0.16 0.12 0.17 0.09 0.09 0.12 0.11 0.14 0.19 0.14 0.09 0.08 0.13
0.00 0.32 1.05 1.53 0.76 0.71 0.70 0.68 0.39 0.24 0.24 0.12 0.10 0.06 0.04 0.02 0.00 0.00 0.00 0.00 0.00 0.00 0.02 0.01 0.04 0.05 0.06 0.06 0.05 0.05 0.02 0.04 0.09 0.13 0.12 0.09 0.14 0.12 0.11 0.09 0.04 0.04 0.04 0.03 0.02 0.01 0.02 0.10 0.23
0.01 0.43 0.96 0.86 0.65 0.30 0.15 0.37 0.43 0.34 0.44 0.41 0.20 0.07 0.04 0.02 0.00 0.00 0.00 0.00 0.00 0.01 0.00 0.01 0.02 0.03 0.06 0.09 0.05 0.03 0.04 0.06 0.08 0.07 0.05 0.13 0.14 0.19 0.04 0.02 0.04 0.01 0.02 0.01 0.01 0.01 0.03 0.01 0.11
0.06 0.86 0.74 0.71 0.88 0.64 0.13 0.34 0.38 0.78 0.64 0.48 0.22 0.08 0.08 0.03 0.01 0.00 0.00 0.00 0.00 0.00 0.00 0.01 0.09 0.06 0.05 0.05 0.02 0.03 0.06 0.09 0.07 0.06 0.09 0.14 0.08 0.08 0.03 0.03 0.02 0.00 0.01 0.02 0.05 0.04 0.04 0.08 0.20
0.39 0.36 0.36 0.52 0.30 0.30 0.27 0.26 0.43 0.90 1.05 0.39 0.18 0.11 0.10 0.04 0.01 0.00 0.00 0.00 0.00 0.00 0.00 0.02 0.05 0.05 0.08 0.03 0.05 0.03 0.04 0.05 0.10 0.12 0.10 0.08 0.05 0.05 0.02 0.01 0.00 0.00 0.00 0.00 0.02 0.13 0.08 0.04 0.19
0.25 0.33 0.38 0.28 0.35 0.34 0.47 0.35 0.57 1.11 0.58 0.23 0.27 0.07 0.06 0.05 0.01 0.00 0.00 0.00 0.00 0.00 0.00 0.02 0.01 0.06 0.08 0.08 0.08 0.04 0.06 0.06 0.09 0.07 0.09 0.05 0.02 0.00 0.00 0.01 0.00 0.00 0.00 0.00 0.02 0.04 0.04 0.07 0.10
0.13 0.29 1.35 0.43 0.18 1.31 0.68 0.48 0.57 0.62 0.37 0.14 0.06 0.03 0.03 0.02 0.01 0.00 0.00 0.00 0.00 0.00 0.01 0.00 0.01 0.02 0.03 0.06 0.13 0.04 0.05 0.06 0.09 0.03 0.03 0.03 0.01 0.04 0.03 0.04 0.02 0.00 0.00 0.00 0.02 0.03 0.03 0.06 0.13
0.20 1.11 1.57 0.42 0.30 1.22 0.59 0.35 0.25 0.37 0.12 0.03 0.02 0.01 0.00 0.00 0.00 0.01 0.01 0.01 0.01 0.01 0.00 0.00 0.02 0.01 0.10 0.03 0.08 0.08 0.07 0.07 0.02 0.02 0.06 0.15 0.06 0.04 0.06 0.08 0.03 0.01 0.02 0.05 0.05 0.01 0.04 0.04 0.04
0.21 0.51 0.34 0.06 0.05 0.23 0.44 0.47 0.44 0.24 0.04 0.03 0.01 0.00 0.00 0.01 0.01 0.01 0.01 0.01 0.01 0.00 0.01 0.00 0.00 0.00 0.07 0.02 0.06 0.09 0.02 0.00 0.00 0.01 0.03 0.14 0.06 0.02 0.04 0.06 0.11 0.05 0.05 0.06 0.09 0.07 0.26 0.47 0.15
0.09 0.11 0.01 0.02 0.02 0.06 0.12 0.08 0.22 0.24 0.07 0.01 0.00 0.00 0.00 0.00 0.00 0.00 0.00 0.00 0.00 0.00 0.00 0.00 0.00 0.00 0.01 0.02 0.01 0.01 0.00 0.00 0.00 0.05 0.14 0.20 0.04 0.05 0.07 0.02 0.06 0.04 0.03 0.04 0.27 0.07 0.26 0.82 0.32
0.01 0.01 0.02 0.01 0.03 0.08 0.21 0.23 0.16 0.50 0.72 0.06 0.00 0.00 0.00 0.00 0.00 0.00 0.00 0.00 0.00 0.00 0.00 0.00 0.00 0.01 0.15 0.00 0.00 0.07 0.04 0.00 0.00 0.01 0.05 0.08 0.04 0.06 0.03 0.05 0.04 0.07 0.03 0.04 0.19 0.02 0.04 0.10 0.17
0.00 0.01 0.01 0.01 0.02 0.02 0.01 0.40 0.30 0.12 0.27 0.02 0.00 0.00 0.00 0.00 0.00 0.00 0.00 0.00 0.00 0.00 0.00 0.00 0.00 0.05 0.16 0.01 0.00 0.03 0.00 0.00 0.00 0.00 0.03 0.16 0.08 0.06 0.05 0.08 0.08 0.05 0.04 0.04 0.04 0.03 0.01 0.00 0.00
0.00 0.00 0.00 0.01 0.01 0.03 0.00 0.06 0.01 0.05 0.02 0.00 0.00 0.00 0.00 0.00 0.00 0.00 0.00 0.00 0.00 0.00 0.00 0.00 0.00 0.02 0.04 0.02 0.01 0.00 0.00 0.00 0.00 0.00 0.01 0.12 0.13 0.22 0.27 0.25 0.16 0.11 0.11 0.03 0.03 0.01 0.00 0.00 0.00
0.00 0.00 0.00 0.00 0.01 0.06 0.02 0.03 0.01 0.04 0.03 0.00 0.00 0.00 0.00 0.00 0.00 0.00 0.00 0.00 0.00 0.00 0.00 0.00 0.00 0.00 0.00 0.00 0.00 0.00 0.00 0.00 0.00 0.00 0.00 0.01 0.08 0.17 0.19 0.20 0.21 0.17 0.06 0.01 0.03 0.02 0.00 0.00 0.00
0.00 0.00 0.00 0.00 0.00 0.01 0.01 0.02 0.01 0.26 0.40 0.00 0.00 0.00 0.00 0.00 0.00 0.00 0.00 0.00 0.00 0.00 0.00 0.00 0.00 0.00 0.00 0.00 0.00 0.03 0.00 0.00 0.00 0.00 0.00 0.00 0.07 0.14 0.20 0.18 0.12 0.07 0.07 0.05 0.05 0.02 0.00 0.00 0.00
0.00 0.00 0.00 0.00 0.00 0.00 0.01 0.11 0.23 0.18 0.29 0.01 0.01 0.01 0.00 0.00 0.00 0.00 0.00 0.00 0.00 0.00 0.00 0.00 0.00 0.00 0.00 0.00 0.00 0.01 0.00 0.00 0.00 0.00 0.00 0.00 0.00 0.05 0.35 0.29 0.23 0.10 0.13 0.08 0.03 0.04 0.01 0.00 0.00
0.00 0.00 0.00 0.00 0.00 0.01 0.02 0.06 0.42 0.18 0.10 0.16 0.10 0.05 0.00 0.00 0.00 0.00 0.00 0.00 0.00 0.00 0.00 0.00 0.00 0.00 0.00 0.00 0.00 0.00 0.00 0.00 0.00 0.01 0.00 0.00 0.00 0.05 0.24 0.31 0.33 0.19 0.14 0.24 0.14 0.02 0.00 0.00 0.00
0.00 0.00 0.00 0.00 0.00 0.01 0.01 0.04 0.44 0.27 0.08 0.44 0.22 0.10 0.04 0.00 0.00 0.00 0.00 0.00 0.00 0.00 0.00 0.00 0.00 0.00 0.00 0.00 0.00 0.00 0.00 0.00 0.01 0.00 0.00 0.00 0.00 0.01 0.14 0.18 0.24 0.14 0.10 0.09 0.06 0.00 0.00 0.00 0.00
0.00 0.00 0.00 0.00 0.00 0.00 0.01 0.03 0.09 0.07 0.04 0.21 0.14 0.07 0.03 0.00 0.00 0.00 0.00 0.00 0.00 0.00 0.00 0.00 0.00 0.01 0.00 0.00 0.00 0.00 0.00 0.00 0.00 0.01 0.00 0.00 0.00 0.00 0.02 0.09 0.13 0.16 0.14 0.14 0.09 0.04 0.01 0.00 0.00
0.00 0.00 0.00 0.00 0.00 0.00 0.01 0.03 0.07 0.07 0.14 0.13 0.07 0.05 0.09 0.00 0.00 0.00 0.00 0.00 0.00 0.00 0.00 0.00 0.00 0.00 0.00 0.00 0.00 0.00 0.00 0.00 0.00 0.00 0.00 0.00 0.00 0.00 0.02 0.06 0.13 0.16 0.18 0.11 0.06 0.01 0.00 0.00 0.00
0.00 0.00 0.00 0.00 0.00 0.00 0.00 0.00 0.01 0.03 0.29 0.62 0.07 0.00 0.05 0.01 0.01 0.00 0.00 0.00 0.00 0.00 0.00 0.00 0.00 0.00 0.00 0.00 0.00 0.00 0.00 0.00 0.00 0.00 0.00 0.00 0.00 0.00 0.00 0.07 0.14 0.16 0.19 0.15 0.06 0.01 0.00 0.00 0.00
0.00 0.00 0.00 0.00 0.00 0.00 0.00 0.00 0.00 0.00 0.05 0.46 0.16 0.02 0.09 0.15 0.01 0.01 0.00 0.00 0.00 0.00 0.00 0.00 0.00 0.00 0.00 0.00 0.00 0.00 0.00 0.00 0.00 0.00 0.00 0.01 0.00 0.00 0.00 0.05 0.10 0.09 0.12 0.15 0.11 0.08 0.00 0.01 0.00
0.00 0.00 0.00 0.00 0.00 0.00 0.00 0.00 0.00 0.00 0.00 0.07 0.22 0.10 0.02 0.00 0.00 0.01 0.00 0.00 0.00 0.00 0.00 0.00 0.00 0.00 0.00 0.00 0.00 0.00 0.00 0.00 0.00 0.00 0.00 0.00 0.00 0.00 0.01 0.01 0.02 0.06 0.06 0.10 0.10 0.11 0.03 0.00 0.01
0.00 0.00 0.00 0.00 0.00 0.00 0.00 0.00 0.00 0.00 0.00 0.01 0.07 0.18 0.02 0.00 0.00 0.01 0.00 0.00 0.00 0.00 0.00 0.00 0.00 0.00 0.00 0.00 0.00 0.00 0.00 0.00 0.00 0.00 0.00 0.00 0.00 0.00 0.00 0.01 0.04 0.02 0.03 0.05 0.07 0.11 0.08 0.02 0.00
0.00 0.00 0.00 0.00 0.00 0.00 0.00 0.00 0.00 0.00 0.00 0.01 0.03 0.03 0.06 0.00 0.00 0.00 0.00 0.00 0.00 0.00 0.00 0.00 0.00 0.00 0.00 0.00 0.00 0.00 0.00 0.00 0.00 0.00 0.00 0.00 0.00 0.00 0.00 0.00 0.00 0.01 0.02 0.02 0.04 0.04 0.02 0.02 0.00
0.00 0.00 0.00 0.00 0.00 0.00 0.00 0.00 0.00 0.00 0.00 0.00 0.04 0.07 0.06 0.04 0.00 0.00 0.00 0.00 0.00 0.00 0.00 0.00 0.00 0.00 0.00 0.00 0.00 0.00 0.00 0.00 0.00 0.00 0.00 0.00 0.00 0.00 0.00 0.00 0.00 0.00 0.01 0.01 0.03 0.02 0.03 0.04 0.01
0.00 0.00 0.00 0.00 0.00 0.00 0.00 0.00 0.00 0.00 0.00 0.00 0.00 0.04 0.03 0.14 0.16 0.02 0.00 0.00 0.00 0.00 0.00 0.00 0.00 0.00 0.00 0.00 0.00 0.00 0.00 0.00 0.00 0.00 0.00 0.00 0.00 0.00 0.00 0.00 0.00 0.00 0.00 0.00 0.01 0.00 0.01 0.01 0.01
0.00 0.00 0.00 0.00 0.00 0.00 0.00 0.00 0.00 0.00 0.00 0.00 0.00 0.00 0.00 0.03 0.25 0.25 0.06 0.00 0.00 0.00 0.00 0.00 0.00 0.00 0.00 0.00 0.00 0.00 0.00 0.00 0.00 0.00 0.00 0.00 0.00 0.00 0.00 0.00 0.00 0.00 0.00 0.00 0.00 0.00 0.01 0.01 0.00
0.00 0.00 0.00 0.00 0.00 0.00 0.00 0.00 0.00 0.00 0.00 0.00 0.00 0.00 0.00 0.00 0.07 0.31 0.27 0.01 0.00 0.00 0.00 0.00 0.00 0.00 0.00 0.00 0.00 0.00 0.00 0.00 0.00 0.00 0.00 0.00 0.00 0.00 0.00 0.00 0.00 0.00 0.00 0.00 0.00 0.00 0.00 0.00 0.00

GFSSGP_prec_precacc24_057.txt.gz
Total_Precipitation_Accumulation
0.01 0.00 0.00 0.14 0.76 0.17 0.22 0.33 0.51 0.23 0.15 0.11 0.07 0.02 0.02 0.02 0.09 0.23 0.00 0.00 0.00 0.00 0.06 0.05 0.25 0.16 0.11 0.07 0.04 0.03 0.02 0.02 0.02 0.05 0.09 0.09 0.07 0.08 0.11 0.03 0.07 0.08 0.08 0.05 0.03 0.05 0.07 0.05 0.04
0.00 0.01 0.11 0.90 0.96 0.31 0.37 0.63 0.59 0.25 0.19 0.18 0.08 0.03 0.02 0.01 0.01 0.01 0.00 0.00 0.00 0.00 0.03 0.01 0.12 0.13 0.08 0.05 0.03 0.05 0.02 0.06 0.12 0.15 0.11 0.07 0.16 0.13 0.18 0.09 0.10 0.13 0.12 0.15 0.19 0.14 0.09 0.08 0.13
0.00 0.23 0.94 1.42 0.60 0.29 0.72 1.04 1.03 0.29 0.23 0.12 0.11 0.07 0.04 0.02 0.00 0.00 0.00 0.00 0.00 0.00 0.02 0.01 0.05 0.05 0.04 0.03 0.05 0.05 0.02 0.05 0.10 0.16 0.12 0.09 0.14 0.12 0.11 0.09 0.04 0.04 0.04 0.03 0.02 0.01 0.02 0.10 0.23
0.01 0.36 0.91 0.75 0.56 0.31 0.20 0.62 0.50 0.65 0.46 0.43 0.20 0.07 0.04 0.02 0.00 0.00 0.00 0.00 0.00 0.01 0.00 0.01 0.03 0.03 0.03 0.09 0.06 0.03 0.04 0.06 0.09 0.10 0.05 0.13 0.14 0.19 0.04 0.03 0.04 0.01 0.02 0.01 0.01 0.01 0.03 0.01 0.11
0.05 0.80 0.77 0.64 0.75 0.56 0.26 0.51 0.42 0.91 0.72 0.63 0.23 0.08 0.08 0.03 0.01 0.00 0.00 0.00 0.00 0.00 0.00 0.01 0.09 0.04 0.04 0.05 0.03 0.05 0.06 0.09 0.08 0.07 0.09 0.14 0.08 0.08 0.03 0.03 0.02 0.00 0.01 0.02 0.05 0.04 0.04 0.08 0.20
0.33 0.38 0.45 0.96 0.34 0.28 0.48 0.80 0.47 0.89 1.06 0.40 0.18 0.11 0.10 0.04 0.02 0.00 0.00 0.00 0.00 0.00 0.00 0.02 0.05 0.05 0.08 0.03 0.06 0.04 0.04 0.05 0.10 0.12 0.10 0.08 0.05 0.05 0.02 0.01 0.00 0.00 0.00 0.00 0.02 0.13 0.08 0.04 0.19
0.21 0.37 0.29 0.47 0.29 0.43 0.58 0.61 0.59 1.11 0.60 0.26 0.30 0.07 0.06 0.05 0.01 0.00 0.00 0.00 0.00 0.00 0.00 0.02 0.01 0.06 0.08 0.07 0.09 0.04 0.06 0.07 0.09 0.07 0.09 0.04 0.02 0.00 0.00 0.01 0.00 0.00 0.00 0.00 0.02 0.04 0.04 0.07 0.10
0.09 0.07 0.08 0.12 0.18 1.39 0.66 0.53 0.62 0.63 0.36 0.17 0.07 0.05 0.03 0.02 0.01 0.00 0.00 0.00 0.00 0.00 0.01 0.00 0.01 0.02 0.03 0.06 0.13 0.04 0.05 0.06 0.09 0.03 0.02 0.03 0.01 0.04 0.03 0.05 0.03 0.00 0.00 0.00 0.02 0.03 0.03 0.06 0.13
0.16 0.25 0.36 0.12 0.32 1.47 0.78 0.39 0.23 0.36 0.11 0.02 0.03 0.06 0.00 0.00 0.00 0.01 0.01 0.01 0.01 0.01 0.00 0.00 0.02 0.01 0.10 0.03 0.08 0.08 0.07 0.07 0.02 0.01 0.05 0.10 0.01 0.02 0.03 0.07 0.03 0.01 0.02 0.05 0.05 0.01 0.04 0.04 0.04
0.11 0.32 0.21 0.05 0.05 0.34 1.55 0.65 0.43 0.24 0.04 0.02 0.03 0.04 0.01 0.01 0.01 0.01 0.00 0.01 0.01 0.00 0.01 0.00 0.00 0.00 0.07 0.02 0.06 0.09 0.02 0.02 0.02 0.04 0.05 0.07 0.04 0.03 0.01 0.06 0.11 0.05 0.07 0.09 0.11 0.07 0.26 0.48 0.16
0.06 0.08 0.00 0.02 0.03 0.11 0.69 0.43 0.19 0.23 0.08 0.04 0.04 0.03 0.00 0.00 0.00 0.00 0.00 0.00 0.00 0.00 0.00 0.00 0.00 0.00 0.01 0.02 0.01 0.03 0.01 0.00 0.01 0.04 0.11 0.05 0.02 0.01 0.00 0.01 0.06 0.07 0.06 0.12 0.34 0.09 0.27 0.88 0.36
0.01 0.00 0.00 0.01 0.03 0.11 0.46 1.03 0.19 0.61 1.18 0.19 0.05 0.01 0.00 0.00 0.00 0.00 0.00 0.00 0.00 0.00 0.00 0.00 0.00 0.01 0.15 0.01 0.00 0.09 0.05 0.01 0.00 0.01 0.03 0.04 0.02 0.00 0.01 0.05 0.08 0.15 0.05 0.07 0.24 0.04 0.04 0.16 0.20
0.00 0.01 0.01 0.01 0.02 0.10 0.09 0.33 0.32 0.50 0.46 0.13 0.05 0.00 0.00 0.00 0.00 0.00 0.00 0.00 0.00 0.00 0.00 0.00 0.00 0.05 0.16 0.03 0.03 0.06 0.03 0.05 0.00 0.00 0.04 0.14 0.02 0.02 0.04 0.09 0.05 0.10 0.08 0.07 0.05 0.02 0.02 0.01 0.00
0.00 0.00 0.00 0.00 0.02 0.04 0.05 0.16 0.02 0.09 0.05 0.03 0.04 0.00 0.00 0.00 0.00 0.00 0.00 0.00 0.00 0.00 0.00 0.00 0.00 0.02 0.05 0.03 0.02 0.01 0.01 0.01 0.00 0.00 0.04 0.21 0.13 0.21 0.28 0.23 0.11 0.11 0.11 0.03 0.02 0.02 0.04 0.01 0.00
0.00 0.00 0.00 0.00 0.01 0.06 0.05 0.13 0.08 0.11 0.10 0.04 0.01 0.00 0.00 0.00 0.00 0.00 0.00 0.00 0.00 0.00 0.00 0.00 0.00 0.00 0.01 0.02 0.03 0.01 0.00 0.01 0.00 0.00 0.00 0.02 0.18 0.25 0.22 0.19 0.23 0.16 0.05 0.01 0.03 0.00 0.00 0.00 0.00
0.00 0.00 0.00 0.00 0.00 0.01 0.02 0.08 0.04 0.47 1.24 0.07 0.00 0.00 0.00 0.00 0.00 0.00 0.00 0.00 0.00 0.00 0.00 0.00 0.00 0.00 0.00 0.00 0.01 0.03 0.00 0.00 0.00 0.00 0.01 0.01 0.09 0.16 0.21 0.15 0.13 0.06 0.06 0.04 0.05 0.01 0.00 0.00 0.00
0.00 0.00 0.00 0.00 0.00 0.00 0.02 0.16 0.25 0.30 0.54 0.08 0.00 0.01 0.00 0.00 0.00 0.00 0.00 0.00 0.00 0.00 0.00 0.00 0.00 0.00 0.00 0.00 0.00 0.01 0.00 0.00 0.01 0.00 0.00 0.00 0.00 0.06 0.39 0.32 0.23 0.10 0.13 0.08 0.03 0.04 0.01 0.00 0.00
0.00 0.00 0.00 0.00 0.00 0.01 0.02 0.08 0.43 0.29 0.63 0.18 0.02 0.03 0.00 0.00 0.00 0.00 0.00 0.00 0.00 0.00 0.00 0.00 0.00 0.00 0.00 0.00 0.00 0.00 0.00 0.00 0.00 0.01 0.00 0.00 0.01 0.07 0.28 0.28 0.29 0.19 0.14 0.23 0.14 0.02 0.00 0.00 0.00
0.00 0.00 0.00 0.00 0.00 0.01 0.01 0.05 0.45 0.28 0.21 0.38 0.08 0.03 0.02 0.00 0.00 0.00 0.00 0.00 0.00 0.00 0.00 0.00 0.00 0.00 0.00 0.00 0.00 0.00 0.00 0.00 0.01 0.00 0.00 0.00 0.01 0.01 0.16 0.22 0.20 0.15 0.10 0.08 0.06 0.00 0.00 0.00 0.00
0.00 0.00 0.00 0.00 0.00 0.00 0.01 0.03 0.10 0.07 0.05 0.29 0.39 0.02 0.00 0.00 0.00 0.00 0.00 0.00 0.00 0.00 0.00 0.00 0.00 0.01 0.00 0.00 0.00 0.00 0.00 0.00 0.00 0.02 0.04 0.00 0.00 0.00 0.04 0.09 0.14 0.17 0.12 0.13 0.09 0.04 0.01 0.00 0.00
0.00 0.00 0.00 0.00 0.00 0.00 0.01 0.03 0.07 0.09 0.15 0.28 0.22 0.08 0.03 0.00 0.00 0.00 0.00 0.00 0.00 0.00 0.00 0.00 0.00 0.00 0.00 0.00 0.00 0.00 0.00 0.00 0.00 0.02 0.01 0.00 0.00 0.00 0.02 0.06 0.11 0.15 0.18 0.11 0.06 0.01 0.00 0.00 0.00
0.00 0.00 0.00 0.00 0.00 0.00 0.00 0.00 0.01 0.05 0.31 1.07 0.83 0.15 0.04 0.02 0.00 0.00 0.00 0.00 0.00 0.00 0.00 0.00 0.00 0.00 0.00 0.00 0.00 0.00 0.00 0.00 0.00 0.00 0.00 0.01 0.00 0.00 0.00 0.07 0.14 0.16 0.18 0.15 0.06 0.01 0.00 0.00 0.00
0.00 0.00 0.00 0.00 0.00 0.00 0.00 0.00 0.00 0.00 0.07 0.63 0.91 0.23 0.03 0.01 0.00 0.00 0.00 0.00 0.00 0.00 0.00 0.00 0.00 0.00 0.00 0.00 0.00 0.00 0.00 0.00 0.00 0.00 0.00 0.02 0.01 0.00 0.00 0.05 0.10 0.10 0.12 0.15 0.11 0.08 0.00 0.01 0.00
0.00 0.00 0.00 0.00 0.00 0.00 0.00 0.00 0.00 0.00 0.00 0.07 0.27 0.22 0.11 0.00 0.00 0.00 0.00 0.00 0.00 0.00 0.00 0.00 0.00 0.00 0.00 0.00 0.00 0.00 0.00 0.00 0.00 0.00 0.00 0.00 0.00 0.00 0.01 0.01 0.02 0.07 0.07 0.10 0.10 0.11 0.03 0.01 0.01
0.00 0.00 0.00 0.00 0.00 0.00 0.00 0.00 0.00 0.00 0.00 0.01 0.07 0.21 0.10 0.05 0.00 0.00 0.00 0.00 0.00 0.00 0.00 0.00 0.00 0.00 0.00 0.00 0.00 0.00 0.00 0.00 0.00 0.00 0.00 0.00 0.00 0.00 0.00 0.01 0.04 0.02 0.03 0.06 0.07 0.11 0.09 0.02 0.00
0.00 0.00 0.00 0.00 0.00 0.00 0.00 0.00 0.00 0.00 0.00 0.01 0.04 0.04 0.07 0.06 0.04 0.01 0.00 0.00 0.00 0.00 0.00 0.00 0.00 0.00 0.00 0.00 0.00 0.00 0.00 0.00 0.00 0.00 0.00 0.00 0.00 0.00 0.00 0.00 0.00 0.01 0.02 0.02 0.04 0.04 0.02 0.02 0.00
0.00 0.00 0.00 0.00 0.00 0.00 0.00 0.00 0.00 0.00 0.00 0.00 0.05 0.08 0.12 0.17 0.13 0.05 0.01 0.00 0.00 0.00 0.00 0.00 0.00 0.00 0.00 0.00 0.00 0.00 0.00 0.00 0.00 0.00 0.00 0.00 0.00 0.00 0.00 0.00 0.00 0.00 0.01 0.01 0.03 0.02 0.03 0.04 0.01
0.00 0.00 0.00 0.00 0.00 0.00 0.00 0.00 0.00 0.00 0.00 0.00 0.00 0.04 0.03 0.30 0.45 0.20 0.07 0.02 0.03 0.00 0.00 0.00 0.00 0.00 0.00 0.00 0.00 0.00 0.00 0.00 0.00 0.00 0.00 0.00 0.00 0.00 0.00 0.00 0.00 0.00 0.00 0.00 0.01 0.00 0.01 0.01 0.01
0.00 0.00 0.00 0.00 0.00 0.00 0.00 0.00 0.00 0.00 0.00 0.00 0.00 0.00 0.00 0.03 0.49 0.82 0.32 0.11 0.03 0.02 0.00 0.00 0.00 0.00 0.00 0.00 0.00 0.00 0.00 0.00 0.00 0.00 0.00 0.00 0.00 0.00 0.00 0.00 0.00 0.00 0.00 0.00 0.00 0.00 0.01 0.01 0.00
0.00 0.00 0.00 0.00 0.00 0.00 0.00 0.00 0.00 0.00 0.00 0.00 0.01 0.01 0.00 0.00 0.08 0.59 0.63 0.15 0.01 0.00 0.00 0.00 0.00 0.00 0.00 0.00 0.00 0.00 0.00 0.00 0.00 0.00 0.00 0.00 0.00 0.00 0.00 0.00 0.00 0.00 0.00 0.00 0.00 0.00 0.00 0.00 0.00

GFSSGP_prec_precacc24_060.txt.gz
Total_Precipitation_Accumulation
0.01 0.00 0.00 0.13 0.60 0.16 0.24 0.46 0.63 0.39 0.14 0.07 0.06 0.00 0.01 0.02 0.10 0.23 0.00 0.00 0.00 0.00 0.05 0.04 0.23 0.16 0.12 0.07 0.07 0.04 0.02 0.02 0.02 0.05 0.09 0.09 0.08 0.10 0.13 0.03 0.07 0.09 0.08 0.05 0.04 0.06 0.07 0.05 0.04
0.00 0.00 0.09 0.80 0.90 0.15 0.39 0.85 0.91 0.29 0.17 0.17 0.07 0.03 0.04 0.01 0.01 0.01 0.00 0.00 0.00 0.00 0.03 0.01 0.11 0.14 0.09 0.05 0.04 0.06 0.02 0.07 0.13 0.15 0.11 0.08 0.19 0.14 0.19 0.10 0.11 0.14 0.15 0.16 0.20 0.15 0.09 0.08 0.13
0.00 0.14 0.80 1.35 0.45 0.19 0.70 1.12 1.30 0.32 0.26 0.12 0.10 0.07 0.05 0.02 0.00 0.00 0.00 0.00 0.00 0.00 0.02 0.01 0.04 0.07 0.04 0.03 0.05 0.05 0.02 0.05 0.10 0.16 0.13 0.11 0.15 0.12 0.11 0.09 0.04 0.04 0.04 0.03 0.02 0.01 0.02 0.10 0.23
0.00 0.30 0.79 0.68 0.47 0.36 0.31 0.65 0.49 0.94 0.57 0.47 0.24 0.07 0.04 0.02 0.00 0.00 0.00 0.00 0.00 0.01 0.00 0.01 0.03 0.03 0.03 0.10 0.06 0.03 0.04 0.06 0.09 0.10 0.07 0.14 0.15 0.20 0.05 0.03 0.05 0.01 0.02 0.01 0.01 0.01 0.03 0.01 0.10
0.04 0.67 0.68 0.45 0.76 0.60 0.49 0.60 0.42 1.27 0.87 0.83 0.30 0.09 0.08 0.03 0.01 0.00 0.00 0.00 0.00 0.00 0.00 0.01 0.09 0.05 0.04 0.06 0.03 0.05 0.06 0.09 0.08 0.07 0.09 0.14 0.08 0.08 0.03 0.03 0.02 0.00 0.01 0.02 0.05 0.04 0.04 0.07 0.17
0.23 0.32 0.46 0.99 0.39 0.34 1.09 1.08 0.53 0.81 0.99 0.38 0.19 0.11 0.09 0.04 0.02 0.00 0.00 0.00 0.00 0.00 0.00 0.01 0.05 0.05 0.08 0.03 0.06 0.05 0.04 0.05 0.10 0.11 0.10 0.09 0.05 0.05 0.02 0.01 0.00 0.00 0.00 0.00 0.02 0.13 0.09 0.07 0.19
0.16 0.37 0.29 0.53 0.23 0.60 0.85 0.68 0.75 1.15 0.59 0.25 0.30 0.07 0.06 0.05 0.01 0.00 0.00 0.00 0.00 0.00 0.00 0.01 0.02 0.07 0.09 0.08 0.09 0.04 0.06 0.07 0.08 0.06 0.09 0.04 0.02 0.00 0.00 0.00 0.00 0.00 0.00 0.00 0.02 0.04 0.05 0.07 0.11
0.06 0.07 0.06 0.18 0.11 0.80 0.61 0.58 0.77 0.74 0.38 0.16 0.07 0.05 0.03 0.02 0.01 0.00 0.00 0.00 0.00 0.00 0.01 0.00 0.01 0.02 0.03 0.06 0.13 0.04 0.05 0.06 0.09 0.03 0.02 0.03 0.01 0.04 0.03 0.05 0.03 0.00 0.00 0.00 0.02 0.03 0.05 0.10 0.17
0.02 0.04 0.11 0.11 0.21 0.79 0.65 0.51 0.30 0.34 0.13 0.03 0.04 0.07 0.00 0.00 0.00 0.01 0.01 0.01 0.01 0.01 0.00 0.00 0.02 0.01 0.10 0.03 0.08 0.08 0.07 0.07 0.02 0.01 0.06 0.12 0.02 0.02 0.03 0.08 0.03 0.01 0.02 0.05 0.05 0.02 0.06 0.06 0.06
0.03 0.02 0.03 0.04 0.05 0.36 1.41 0.62 0.23 0.18 0.09 0.03 0.08 0.05 0.01 0.01 0.01 0.01 0.00 0.00 0.01 0.00 0.01 0.00 0.00 0.00 0.07 0.02 0.06 0.09 0.02 0.02 0.03 0.05 0.06 0.07 0.04 0.03 0.01 0.06 0.11 0.05 0.07 0.09 0.11 0.07 0.26 0.47 0.16
0.03 0.04 0.00 0.02 0.04 0.21 0.85 0.55 0.12 0.18 0.07 0.04 0.06 0.05 0.00 0.00 0.00 0.00 0.00 0.00 0.00 0.00 0.00 0.00 0.00 0.00 0.01 0.02 0.01 0.03 0.01 0.01 0.02 0.04 0.12 0.05 0.02 0.01 0.01 0.01 0.06 0.07 0.06 0.12 0.34 0.09 0.27 0.88 0.36
0.01 0.00 0.00 0.01 0.05 0.18 0.64 1.59 0.23 0.61 1.18 0.23 0.13 0.02 0.00 0.00 0.00 0.00 0.00 0.00 0.00 0.00 0.00 0.00 0.00 0.01 0.15 0.01 0.00 0.09 0.05 0.02 0.00 0.01 0.03 0.04 0.02 0.01 0.02 0.05 0.08 0.15 0.05 0.07 0.23 0.04 0.04 0.17 0.21
0.00 0.01 0.01 0.01 0.03 0.14 0.24 0.44 0.34 0.55 0.47 0.21 0.16 0.02 0.00 0.00 0.00 0.00 0.00 0.00 0.00 0.00 0.00 0.00 0.00 0.05 0.16 0.03 0.05 0.07 0.03 0.05 0.00 0.00 0.04 0.14 0.03 0.02 0.05 0.10 0.07 0.10 0.08 0.08 0.05 0.02 0.02 0.01 0.00
0.00 0.00 0.00 0.00 0.02 0.07 0.10 0.20 0.04 0.10 0.06 0.12 0.10 0.01 0.00 0.00 0.00 0.00 0.00 0.00 0.00 0.00 0.00 0.00 0.00 0.02 0.05 0.03 0.03 0.02 0.01 0.01 0.00 0.00 0.04 0.21 0.13 0.23 0.29 0.22 0.13 0.09 0.11 0.03 0.01 0.02 0.04 0.01 0.00
0.00 0.00 0.00 0.00 0.02 0.07 0.14 0.35 0.15 0.12 0.12 0.10 0.04 0.00 0.00 0.00 0.00 0.00 0.00 0.00 0.00 0.00 0.00 0.00 0.00 0.00 0.01 0.02 0.03 0.01 0.00 0.01 0.00 0.00 0.00 0.02 0.18 0.28 0.24 0.20 0.23 0.16 0.04 0.01 0.01 0.00 0.00 0.00 0.00
0.00 0.00 0.00 0.00 0.01 0.01 0.04 0.20 0.10 0.47 1.29 0.11 0.01 0.00 0.00 0.00 0.00 0.00 0.00 0.00 0.00 0.00 0.00 0.00 0.00 0.00 0.00 0.00 0.01 0.03 0.00 0.00 0.00 0.00 0.01 0.02 0.10 0.20 0.22 0.15 0.13 0.05 0.02 0.02 0.01 0.01 0.00 0.00 0.00
0.00 0.00 0.00 0.00 0.00 0.01 0.06 0.18 0.25 0.27 0.58 0.09 0.02 0.00 0.00 0.00 0.00 0.00 0.00 0.00 0.00 0.00 0.00 0.00 0.00 0.00 0.00 0.00 0.01 0.01 0.00 0.00 0.01 0.00 0.00 0.01 0.01 0.06 0.39 0.33 0.23 0.10 0.12 0.07 0.02 0.02 0.00 0.00 0.00
0.00 0.00 0.00 0.00 0.00 0.01 0.02 0.09 0.45 0.30 0.63 0.19 0.02 0.00 0.00 0.00 0.00 0.00 0.00 0.00 0.00 0.00 0.00 0.00 0.00 0.00 0.00 0.00 0.00 0.00 0.00 0.00 0.01 0.01 0.00 0.00 0.02 0.08 0.28 0.29 0.28 0.18 0.14 0.23 0.14 0.01 0.00 0.00 0.00
0.00 0.00 0.00 0.00 0.00 0.01 0.01 0.06 0.45 0.30 0.22 0.38 0.08 0.04 0.00 0.00 0.00 0.00 0.00 0.00 0.00 0.00 0.00 0.00 0.00 0.00 0.00 0.00 0.00 0.00 0.00 0.00 0.01 0.02 0.00 0.00 0.03 0.03 0.16 0.21 0.17 0.14 0.09 0.07 0.04 0.00 0.00 0.00 0.00
0.00 0.00 0.00 0.00 0.00 0.00 0.01 0.04 0.12 0.11 0.07 0.30 0.49 0.04 0.03 0.00 0.00 0.00 0.00 0.00 0.00 0.00 0.00 0.00 0.00 0.01 0.00 0.00 0.00 0.00 0.00 0.00 0.00 0.04 0.07 0.00 0.00 0.01 0.04 0.09 0.13 0.17 0.12 0.10 0.09 0.04 0.01 0.00 0.00
0.00 0.00 0.00 0.00 0.00 0.00 0.02 0.11 0.16 0.20 0.17 0.31 0.75 0.25 0.08 0.01 0.00 0.00 0.00 0.00 0.00 0.00 0.00 0.00 0.00 0.00 0.00 0.00 0.00 0.00 0.00 0.00 0.00 0.03 0.02 0.00 0.00 0.00 0.02 0.06 0.11 0.15 0.18 0.10 0.06 0.01 0.00 0.00 0.00
0.00 0.00 0.00 0.00 0.00 0.00 0.00 0.02 0.06 0.07 0.31 1.10 1.00 0.37 0.08 0.02 0.00 0.00 0.00 0.00 0.00 0.00 0.00 0.00 0.00 0.00 0.00 0.00 0.00 0.00 0.00 0.00 0.00 0.00 0.00 0.01 0.00 0.00 0.00 0.07 0.14 0.16 0.17 0.15 0.06 0.01 0.00 0.00 0.00
0.00 0.00 0.00 0.00 0.00 0.00 0.00 0.00 0.00 0.00 0.07 0.64 0.95 0.26 0.04 0.01 0.00 0.00 0.00 0.00 0.00 0.00 0.00 0.00 0.00 0.00 0.00 0.00 0.00 0.00 0.00 0.00 0.00 0.00 0.00 0.02 0.01 0.00 0.00 0.05 0.11 0.10 0.12 0.15 0.11 0.08 0.00 0.01 0.00
0.00 0.00 0.00 0.00 0.00 0.00 0.00 0.00 0.00 0.00 0.00 0.07 0.27 0.22 0.11 0.00 0.00 0.00 0.00 0.00 0.00 0.00 0.00 0.00 0.00 0.00 0.00 0.00 0.00 0.00 0.00 0.00 0.00 0.00 0.00 0.00 0.00 0.01 0.01 0.01 0.02 0.07 0.07 0.10 0.10 0.11 0.03 0.01 0.01
0.00 0.00 0.00 0.00 0.00 0.00 0.00 0.00 0.00 0.00 0.00 0.01 0.07 0.21 0.10 0.05 0.01 0.00 0.00 0.00 0.00 0.00 0.00 0.00 0.00 0.00 0.00 0.00 0.00 0.00 0.00 0.00 0.00 0.00 0.00 0.00 0.00 0.00 0.00 0.01 0.04 0.02 0.03 0.06 0.07 0.11 0.09 0.02 0.00
0.00 0.00 0.00 0.00 0.00 0.00 0.00 0.00 0.00 0.00 0.00 0.01 0.04 0.05 0.10 0.07 0.08 0.04 0.00 0.00 0.00 0.00 0.00 0.00 0.00 0.00 0.00 0.00 0.00 0.00 0.00 0.00 0.00 0.00 0.00 0.00 0.00 0.00 0.00 0.00 0.00 0.01 0.02 0.02 0.04 0.04 0.02 0.02 0.00
0.00 0.00 0.00 0.00 0.00 0.00 0.00 0.00 0.00 0.00 0.00 0.00 0.05 0.08 0.13 0.18 0.15 0.09 0.01 0.01 0.00 0.00 0.00 0.00 0.00 0.00 0.00 0.00 0.00 0.00 0.00 0.00 0.00 0.00 0.00 0.00 0.00 0.00 0.00 0.00 0.00 0.00 0.01 0.01 0.03 0.02 0.03 0.04 0.01
0.00 0.00 0.00 0.00 0.00 0.00 0.00 0.00 0.00 0.00 0.00 0.00 0.00 0.04 0.03 0.30 0.45 0.21 0.08 0.03 0.06 0.02 0.00 0.00 0.00 0.00 0.00 0.00 0.00 0.00 0.00 0.00 0.00 0.00 0.00 0.00 0.00 0.00 0.00 0.00 0.00 0.00 0.00 0.00 0.01 0.00 0.01 0.01 0.01
0.00 0.00 0.00 0.00 0.00 0.00 0.00 0.00 0.00 0.00 0.00 0.00 0.00 0.00 0.00 0.03 0.49 0.83 0.32 0.11 0.04 0.05 0.00 0.00 0.00 0.00 0.00 0.00 0.00 0.00 0.00 0.00 0.00 0.00 0.00 0.00 0.00 0.00 0.00 0.00 0.00 0.00 0.00 0.00 0.00 0.00 0.01 0.01 0.00
0.00 0.00 0.00 0.00 0.00 0.00 0.00 0.00 0.00 0.00 0.00 0.00 0.02 0.02 0.01 0.06 0.13 0.61 0.63 0.15 0.01 0.00 0.00 0.00 0.00 0.00 0.00 0.00 0.00 0.00 0.00 0.00 0.00 0.00 0.00 0.00 0.00 0.00 0.00 0.00 0.00 0.00 0.00 0.00 0.00 0.00 0.00 0.00 0.00

GFSSGP_prec_precacc24_063.txt.gz
Total_Precipitation_Accumulation
0.01 0.00 0.00 0.12 0.33 0.14 0.24 0.52 0.64 0.39 0.12 0.08 0.04 0.00 0.01 0.02 0.11 0.24 0.00 0.00 0.00 0.00 0.05 0.04 0.22 0.16 0.14 0.07 0.07 0.04 0.02 0.02 0.02 0.05 0.09 0.09 0.07 0.09 0.13 0.03 0.07 0.09 0.09 0.07 0.04 0.04 0.07 0.05 0.05
0.00 0.00 0.06 0.64 0.84 0.15 0.46 0.92 1.19 0.41 0.13 0.17 0.04 0.01 0.07 0.02 0.07 0.01 0.00 0.00 0.00 0.00 0.03 0.01 0.11 0.15 0.10 0.05 0.04 0.05 0.02 0.07 0.13 0.15 0.11 0.08 0.17 0.14 0.19 0.11 0.11 0.15 0.15 0.11 0.08 0.03 0.08 0.09 0.12
0.00 0.04 0.52 1.25 0.43 0.19 0.63 1.17 1.62 0.52 0.27 0.13 0.10 0.11 0.11 0.09 0.04 0.00 0.00 0.00 0.00 0.00 0.02 0.01 0.04 0.07 0.04 0.04 0.05 0.05 0.02 0.05 0.10 0.16 0.12 0.08 0.15 0.12 0.11 0.10 0.04 0.04 0.04 0.03 0.01 0.00 0.02 0.10 0.21
0.00 0.20 0.62 0.64 0.39 0.40 0.53 0.68 0.50 1.14 0.59 0.52 0.31 0.16 0.13 0.13 0.01 0.00 0.00 0.00 0.00 0.01 0.00 0.01 0.03 0.03 0.03 0.10 0.06 0.03 0.04 0.06 0.09 0.11 0.07 0.14 0.15 0.20 0.06 0.04 0.06 0.02 0.02 0.02 0.01 0.01 0.03 0.02 0.08
0.03 0.57 0.62 0.45 0.75 0.58 0.55 0.62 0.50 1.56 1.01 0.95 0.30 0.09 0.08 0.05 0.01 0.00 0.00 0.00 0.00 0.00 0.00 0.00 0.08 0.05 0.05 0.07 0.04 0.05 0.06 0.10 0.09 0.07 0.09 0.15 0.08 0.08 0.05 0.04 0.02 0.01 0.01 0.03 0.05 0.05 0.09 0.17 0.27
0.17 0.31 0.48 1.04 0.50 0.41 1.08 1.15 0.62 0.76 0.86 0.30 0.19 0.11 0.09 0.04 0.02 0.00 0.00 0.00 0.00 0.00 0.00 0.01 0.05 0.05 0.10 0.05 0.07 0.05 0.04 0.06 0.10 0.11 0.12 0.08 0.06 0.05 0.02 0.01 0.00 0.00 0.00 0.00 0.02 0.15 0.17 0.13 0.21
0.14 0.38 0.31 0.61 0.33 0.70 1.04 0.76 0.83 1.03 0.47 0.16 0.29 0.07 0.06 0.05 0.01 0.00 0.00 0.00 0.00 0.00 0.00 0.01 0.01 0.07 0.09 0.10 0.10 0.04 0.06 0.06 0.08 0.07 0.10 0.05 0.02 0.01 0.00 0.00 0.00 0.00 0.00 0.00 0.03 0.06 0.05 0.07 0.11
0.03 0.07 0.08 0.24 0.12 0.91 0.80 0.56 0.78 0.70 0.36 0.14 0.07 0.05 0.03 0.02 0.01 0.00 0.00 0.01 0.00 0.00 0.01 0.00 0.01 0.02 0.03 0.07 0.13 0.04 0.05 0.06 0.09 0.03 0.02 0.03 0.01 0.04 0.03 0.04 0.02 0.00 0.00 0.00 0.04 0.08 0.05 0.09 0.15
0.01 0.05 0.12 0.11 0.09 0.74 0.61 0.50 0.36 0.27 0.09 0.03 0.06 0.07 0.00 0.00 0.00 0.01 0.01 0.01 0.01 0.01 0.00 0.00 0.02 0.01 0.10 0.03 0.09 0.08 0.07 0.07 0.02 0.01 0.06 0.14 0.02 0.02 0.03 0.08 0.03 0.01 0.02 0.05 0.07 0.04 0.05 0.05 0.05
0.04 0.08 0.05 0.04 0.05 0.40 1.33 0.40 0.17 0.11 0.15 0.13 0.09 0.05 0.01 0.01 0.01 0.01 0.00 0.00 0.01 0.00 0.01 0.00 0.00 0.00 0.07 0.02 0.06 0.09 0.02 0.02 0.03 0.05 0.07 0.07 0.04 0.03 0.01 0.06 0.11 0.05 0.08 0.12 0.12 0.07 0.25 0.47 0.16
0.01 0.02 0.00 0.02 0.04 0.21 0.84 0.52 0.04 0.15 0.09 0.08 0.07 0.05 0.00 0.00 0.00 0.00 0.00 0.00 0.00 0.00 0.00 0.00 0.00 0.00 0.01 0.02 0.01 0.03 0.01 0.01 0.02 0.04 0.12 0.05 0.02 0.01 0.01 0.01 0.06 0.08 0.09 0.16 0.34 0.07 0.27 0.88 0.36
0.01 0.00 0.00 0.01 0.05 0.20 0.64 1.59 0.22 0.60 1.18 0.24 0.15 0.02 0.00 0.00 0.00 0.00 0.00 0.00 0.00 0.00 0.00 0.00 0.00 0.01 0.15 0.01 0.00 0.09 0.05 0.02 0.00 0.01 0.04 0.04 0.02 0.01 0.02 0.05 0.08 0.15 0.05 0.06 0.22 0.03 0.03 0.17 0.21
0.00 0.01 0.01 0.01 0.03 0.14 0.25 0.45 0.33 0.58 0.47 0.28 0.23 0.02 0.00 0.00 0.00 0.00 0.00 0.00 0.00 0.00 0.00 0.00 0.00 0.05 0.16 0.03 0.05 0.07 0.03 0.05 0.00 0.00 0.04 0.14 0.03 0.02 0.05 0.09 0.08 0.11 0.08 0.07 0.02 0.02 0.02 0.01 0.00
0.00 0.00 0.00 0.00 0.02 0.07 0.10 0.20 0.04 0.10 0.11 0.23 0.17 0.02 0.00 0.00 0.00 0.00 0.00 0.00 0.00 0.00 0.00 0.00 0.00 0.02 0.05 0.03 0.03 0.02 0.01 0.01 0.00 0.00 0.04 0.21 0.14 0.21 0.26 0.23 0.14 0.09 0.11 0.03 0.01 0.02 0.04 0.01 0.00
0.00 0.00 0.00 0.00 0.02 0.07 0.14 0.35 0.15 0.22 0.14 0.19 0.11 0.01 0.00 0.00 0.00 0.00 0.00 0.00 0.00 0.00 0.00 0.00 0.00 0.00 0.01 0.02 0.03 0.01 0.00 0.02 0.00 0.00 0.00 0.02 0.18 0.26 0.23 0.21 0.23 0.16 0.04 0.01 0.00 0.00 0.00 0.00 0.00
0.00 0.00 0.00 0.00 0.01 0.01 0.04 0.21 0.11 0.53 1.29 0.15 0.08 0.01 0.00 0.00 0.00 0.00 0.00 0.00 0.00 0.00 0.00 0.00 0.00 0.00 0.00 0.01 0.01 0.03 0.00 0.00 0.00 0.00 0.01 0.06 0.11 0.20 0.21 0.15 0.13 0.05 0.02 0.00 0.00 0.01 0.00 0.00 0.00
0.00 0.00 0.00 0.00 0.01 0.03 0.07 0.18 0.25 0.28 0.58 0.11 0.05 0.02 0.00 0.00 0.00 0.00 0.00 0.00 0.00 0.00 0.00 0.00 0.00 0.00 0.00 0.00 0.01 0.01 0.00 0.00 0.01 0.00 0.02 0.06 0.01 0.07 0.39 0.33 0.23 0.10 0.10 0.04 0.00 0.02 0.00 0.00 0.00
0.00 0.00 0.00 0.00 0.01 0.02 0.03 0.09 0.45 0.30 0.63 0.19 0.05 0.02 0.00 0.00 0.00 0.00 0.00 0.00 0.00 0.00 0.00 0.00 0.00 0.00 0.00 0.00 0.01 0.00 0.00 0.00 0.01 0.01 0.04 0.07 0.08 0.13 0.29 0.29 0.27 0.18 0.13 0.18 0.10 0.00 0.00 0.00 0.00
0.00 0.00 0.00 0.00 0.00 0.01 0.01 0.06 0.45 0.30 0.23 0.39 0.09 0.04 0.00 0.00 0.00 0.00 0.00 0.00 0.00 0.00 0.00 0.00 0.00 0.00 0.00 0.00 0.00 0.00 0.00 0.00 0.01 0.04 0.05 0.06 0.05 0.04 0.17 0.21 0.17 0.14 0.09 0.06 0.04 0.00 0.00 0.00 0.00
0.00 0.00 0.00 0.00 0.00 0.00 0.01 0.04 0.13 0.18 0.10 0.30 0.49 0.04 0.03 0.00 0.00 0.00 0.00 0.00 0.00 0.00 0.00 0.00 0.00 0.01 0.00 0.00 0.00 0.00 0.00 0.01 0.02 0.06 0.09 0.02 0.07 0.05 0.04 0.09 0.13 0.17 0.12 0.10 0.09 0.04 0.01 0.00 0.00
0.00 0.00 0.00 0.00 0.00 0.00 0.02 0.12 0.22 0.39 0.18 0.31 0.75 0.25 0.08 0.01 0.00 0.00 0.00 0.00 0.00 0.00 0.00 0.00 0.00 0.00 0.00 0.00 0.00 0.00 0.00 0.00 0.01 0.05 0.02 0.00 0.01 0.01 0.02 0.06 0.11 0.15 0.18 0.10 0.06 0.01 0.00 0.00 0.00
0.00 0.00 0.00 0.00 0.00 0.00 0.00 0.03 0.11 0.17 0.31 1.10 1.00 0.37 0.08 0.02 0.00 0.00 0.00 0.00 0.00 0.00 0.00 0.00 0.00 0.00 0.00 0.00 0.00 0.00 0.00 0.00 0.00 0.01 0.01 0.01 0.01 0.00 0.03 0.07 0.14 0.16 0.17 0.15 0.06 0.01 0.00 0.00 0.00
0.00 0.00 0.00 0.00 0.00 0.00 0.00 0.00 0.00 0.01 0.07 0.64 0.95 0.26 0.04 0.01 0.00 0.00 0.00 0.00 0.00 0.00 0.00 0.00 0.00 0.00 0.00 0.00 0.00 0.00 0.00 0.00 0.00 0.00 0.01 0.02 0.02 0.00 0.03 0.09 0.11 0.10 0.12 0.14 0.11 0.08 0.00 0.01 0.00
0.00 0.00 0.00 0.00 0.00 0.00 0.00 0.00 0.00 0.00 0.00 0.07 0.27 0.22 0.11 0.00 0.00 0.00 0.00 0.00 0.00 0.00 0.00 0.00 0.00 0.00 0.00 0.00 0.00 0.00 0.00 0.00 0.00 0.00 0.00 0.00 0.00 0.01 0.02 0.02 0.03 0.07 0.07 0.10 0.10 0.11 0.03 0.01 0.01
0.00 0.00 0.00 0.00 0.00 0.00 0.00 0.00 0.00 0.00 0.00 0.01 0.07 0.21 0.10 0.05 0.01 0.00 0.00 0.00 0.00 0.00 0.00 0.00 0.00 0.00 0.00 0.00 0.00 0.00 0.00 0.00 0.00 0.00 0.00 0.00 0.00 0.00 0.00 0.01 0.04 0.02 0.03 0.06 0.07 0.13 0.09 0.02 0.00
0.00 0.00 0.00 0.00 0.00 0.00 0.00 0.00 0.00 0.00 0.00 0.01 0.04 0.05 0.10 0.07 0.08 0.04 0.00 0.00 0.00 0.00 0.00 0.00 0.00 0.00 0.00 0.00 0.00 0.00 0.00 0.00 0.00 0.00 0.00 0.00 0.00 0.00 0.00 0.00 0.00 0.01 0.02 0.02 0.04 0.05 0.03 0.02 0.00
0.00 0.00 0.00 0.00 0.00 0.00 0.00 0.00 0.00 0.00 0.00 0.00 0.05 0.08 0.13 0.18 0.15 0.09 0.01 0.01 0.00 0.00 0.00 0.00 0.00 0.00 0.00 0.00 0.00 0.00 0.00 0.00 0.00 0.00 0.00 0.00 0.00 0.00 0.00 0.01 0.00 0.00 0.01 0.01 0.03 0.02 0.03 0.04 0.01
0.00 0.00 0.00 0.00 0.00 0.00 0.00 0.00 0.00 0.00 0.00 0.00 0.00 0.04 0.03 0.30 0.45 0.21 0.08 0.03 0.06 0.02 0.00 0.00 0.00 0.00 0.00 0.00 0.00 0.00 0.00 0.00 0.00 0.00 0.00 0.00 0.00 0.00 0.00 0.00 0.02 0.01 0.00 0.00 0.01 0.00 0.01 0.01 0.01
0.00 0.00 0.00 0.00 0.00 0.00 0.00 0.00 0.00 0.00 0.00 0.00 0.00 0.00 0.00 0.03 0.49 0.83 0.33 0.14 0.05 0.05 0.01 0.00 0.00 0.00 0.00 0.00 0.00 0.00 0.00 0.00 0.00 0.00 0.00 0.00 0.00 0.00 0.00 0.00 0.00 0.01 0.00 0.00 0.00 0.00 0.01 0.01 0.00
0.00 0.00 0.00 0.00 0.00 0.00 0.00 0.00 0.00 0.00 0.00 0.00 0.02 0.02 0.01 0.06 0.13 0.61 0.73 0.36 0.14 0.07 0.04 0.03 0.01 0.00 0.00 0.00 0.00 0.00 0.00 0.00 0.00 0.00 0.00 0.00 0.00 0.00 0.01 0.00 0.00 0.00 0.00 0.00 0.00 0.00 0.00 0.00 0.00

GFSSGP_prec_precacc24_066.txt.gz
Total_Precipitation_Accumulation
0.00 0.00 0.00 0.05 0.13 0.08 0.24 0.51 0.66 0.43 0.08 0.09 0.02 0.00 0.01 0.02 0.11 0.24 0.00 0.00 0.00 0.00 0.01 0.04 0.23 0.16 0.16 0.07 0.05 0.04 0.02 0.01 0.02 0.04 0.09 0.08 0.04 0.05 0.13 0.05 0.07 0.09 0.11 0.06 0.05 0.06 0.09 0.08 0.07
0.00 0.00 0.03 0.29 0.52 0.14 0.51 0.96 1.20 0.55 0.17 0.18 0.01 0.01 0.07 0.03 0.07 0.01 0.00 0.00 0.00 0.00 0.01 0.01 0.11 0.16 0.17 0.06 0.04 0.05 0.02 0.05 0.12 0.14 0.10 0.07 0.08 0.08 0.18 0.12 0.12 0.13 0.13 0.15 0.04 0.04 0.10 0.09 0.10
0.00 0.03 0.34 0.63 0.33 0.18 0.69 1.25 1.78 0.73 0.25 0.13 0.06 0.16 0.13 0.15 0.06 0.00 0.00 0.00 0.00 0.00 0.01 0.01 0.05 0.07 0.05 0.06 0.05 0.04 0.02 0.05 0.10 0.15 0.11 0.06 0.09 0.10 0.12 0.10 0.06 0.04 0.04 0.07 0.01 0.01 0.05 0.05 0.11
0.00 0.15 0.50 0.57 0.35 0.43 0.74 0.74 0.60 1.28 0.55 0.45 0.27 0.18 0.19 0.20 0.01 0.00 0.00 0.00 0.00 0.00 0.00 0.01 0.04 0.02 0.03 0.10 0.06 0.03 0.05 0.05 0.09 0.10 0.05 0.07 0.12 0.20 0.06 0.06 0.08 0.02 0.02 0.02 0.01 0.03 0.05 0.03 0.16
0.02 0.50 0.55 0.46 0.92 0.67 0.65 0.61 1.04 2.26 1.09 1.04 0.27 0.10 0.12 0.07 0.01 0.00 0.00 0.00 0.00 0.00 0.00 0.01 0.08 0.04 0.04 0.07 0.07 0.07 0.08 0.07 0.11 0.07 0.07 0.14 0.08 0.11 0.09 0.08 0.09 0.07 0.02 0.03 0.06 0.07 0.10 0.17 0.27
0.16 0.30 0.49 1.09 0.58 0.46 1.13 1.19 0.90 0.92 0.70 0.28 0.23 0.15 0.10 0.04 0.02 0.00 0.00 0.00 0.00 0.00 0.00 0.01 0.04 0.05 0.09 0.05 0.07 0.07 0.06 0.05 0.08 0.08 0.10 0.08 0.06 0.15 0.15 0.05 0.02 0.01 0.00 0.00 0.03 0.15 0.16 0.20 0.19
0.13 0.38 0.31 0.61 0.34 0.73 1.06 0.99 0.89 0.89 0.34 0.14 0.31 0.07 0.06 0.05 0.01 0.00 0.00 0.00 0.00 0.00 0.00 0.01 0.01 0.09 0.09 0.09 0.11 0.11 0.10 0.05 0.08 0.07 0.09 0.05 0.04 0.10 0.13 0.03 0.01 0.00 0.00 0.00 0.03 0.06 0.05 0.08 0.09
0.02 0.07 0.08 0.25 0.12 0.94 0.79 0.58 0.75 0.58 0.36 0.15 0.07 0.05 0.03 0.02 0.01 0.00 0.00 0.01 0.02 0.00 0.01 0.01 0.00 0.02 0.03 0.07 0.14 0.05 0.04 0.05 0.10 0.04 0.02 0.04 0.02 0.09 0.04 0.04 0.05 0.01 0.00 0.00 0.03 0.06 0.04 0.11 0.12
0.01 0.05 0.12 0.11 0.09 0.77 0.59 0.58 0.40 0.27 0.09 0.03 0.06 0.07 0.00 0.00 0.00 0.01 0.01 0.01 0.01 0.01 0.00 0.00 0.02 0.02 0.10 0.03 0.09 0.08 0.07 0.07 0.02 0.01 0.06 0.14 0.02 0.00 0.02 0.08 0.05 0.01 0.02 0.05 0.06 0.06 0.12 0.08 0.04
0.04 0.09 0.06 0.04 0.05 0.40 1.34 0.49 0.23 0.10 0.15 0.13 0.10 0.05 0.01 0.01 0.01 0.01 0.01 0.01 0.00 0.00 0.01 0.00 0.00 0.00 0.07 0.02 0.07 0.09 0.02 0.02 0.03 0.05 0.07 0.07 0.04 0.02 0.02 0.06 0.07 0.04 0.07 0.10 0.12 0.07 0.25 0.47 0.16
0.00 0.01 0.00 0.02 0.04 0.21 0.87 0.53 0.04 0.16 0.09 0.11 0.07 0.05 0.00 0.00 0.00 0.00 0.00 0.00 0.00 0.00 0.00 0.00 0.00 0.00 0.01 0.02 0.01 0.03 0.01 0.01 0.02 0.04 0.12 0.05 0.02 0.01 0.03 0.05 0.04 0.08 0.10 0.16 0.34 0.07 0.27 0.88 0.36
0.00 0.00 0.00 0.01 0.05 0.20 0.64 1.59 0.22 0.60 1.19 0.28 0.17 0.02 0.00 0.00 0.00 0.00 0.00 0.00 0.00 0.00 0.00 0.00 0.00 0.01 0.15 0.01 0.00 0.09 0.05 0.02 0.01 0.01 0.04 0.04 0.02 0.01 0.02 0.05 0.07 0.15 0.05 0.06 0.22 0.03 0.04 0.20 0.22
0.00 0.00 0.01 0.01 0.03 0.14 0.25 0.45 0.34 0.58 0.48 0.29 0.25 0.04 0.01 0.01 0.00 0.01 0.01 0.00 0.00 0.00 0.00 0.00 0.00 0.05 0.16 0.03 0.05 0.07 0.03 0.05 0.00 0.00 0.04 0.14 0.03 0.01 0.04 0.09 0.07 0.10 0.07 0.05 0.02 0.02 0.02 0.01 0.01
0.00 0.00 0.00 0.00 0.02 0.07 0.10 0.20 0.05 0.11 0.17 0.33 0.24 0.03 0.00 0.00 0.00 0.00 0.01 0.00 0.00 0.00 0.00 0.00 0.00 0.02 0.05 0.03 0.03 0.02 0.01 0.01 0.00 0.00 0.06 0.22 0.13 0.22 0.24 0.21 0.15 0.09 0.08 0.01 0.01 0.01 0.04 0.01 0.00
0.00 0.00 0.00 0.00 0.02 0.07 0.14 0.36 0.16 0.23 0.20 0.29 0.12 0.01 0.00 0.00 0.00 0.00 0.00 0.00 0.00 0.00 0.00 0.00 0.00 0.00 0.01 0.02 0.03 0.01 0.00 0.02 0.00 0.01 0.04 0.05 0.21 0.30 0.26 0.20 0.20 0.14 0.03 0.01 0.00 0.00 0.00 0.00 0.00
0.00 0.00 0.00 0.00 0.01 0.01 0.05 0.23 0.13 0.53 1.35 0.20 0.08 0.01 0.00 0.00 0.00 0.00 0.00 0.00 0.00 0.00 0.00 0.00 0.00 0.00 0.00 0.01 0.01 0.03 0.00 0.00 0.00 0.00 0.01 0.15 0.26 0.24 0.19 0.13 0.11 0.04 0.01 0.00 0.00 0.00 0.00 0.00 0.00
0.00 0.00 0.00 0.00 0.01 0.05 0.11 0.20 0.25 0.28 0.59 0.11 0.05 0.02 0.00 0.00 0.00 0.00 0.00 0.00 0.00 0.00 0.00 0.00 0.00 0.00 0.00 0.00 0.01 0.01 0.00 0.00 0.01 0.00 0.03 0.14 0.13 0.13 0.48 0.28 0.16 0.09 0.10 0.04 0.00 0.00 0.00 0.00 0.00
0.00 0.00 0.00 0.00 0.01 0.03 0.03 0.09 0.45 0.30 0.63 0.19 0.05 0.02 0.00 0.00 0.00 0.00 0.00 0.00 0.00 0.00 0.00 0.00 0.00 0.00 0.00 0.00 0.01 0.00 0.00 0.00 0.01 0.01 0.04 0.12 0.12 0.22 0.37 0.21 0.17 0.13 0.10 0.17 0.10 0.00 0.00 0.00 0.00
0.00 0.00 0.00 0.00 0.00 0.01 0.01 0.06 0.45 0.30 0.23 0.39 0.10 0.04 0.00 0.00 0.00 0.00 0.00 0.00 0.00 0.00 0.00 0.00 0.00 0.00 0.00 0.00 0.00 0.00 0.00 0.00 0.01 0.04 0.06 0.09 0.06 0.08 0.19 0.21 0.13 0.10 0.05 0.06 0.03 0.00 0.00 0.00 0.00
0.00 0.00 0.00 0.00 0.00 0.00 0.01 0.04 0.13 0.18 0.14 0.31 0.49 0.04 0.03 0.00 0.00 0.00 0.00 0.00 0.00 0.00 0.00 0.00 0.00 0.01 0.00 0.00 0.00 0.00 0.00 0.01 0.02 0.06 0.09 0.03 0.09 0.13 0.04 0.10 0.12 0.13 0.11 0.10 0.09 0.04 0.01 0.00 0.00
0.00 0.00 0.00 0.00 0.00 0.00 0.02 0.12 0.22 0.39 0.20 0.32 0.75 0.25 0.08 0.01 0.00 0.00 0.00 0.00 0.00 0.00 0.00 0.00 0.00 0.00 0.00 0.00 0.00 0.00 0.00 0.00 0.01 0.05 0.04 0.00 0.01 0.05 0.04 0.07 0.10 0.14 0.16 0.10 0.06 0.01 0.00 0.00 0.00
0.00 0.00 0.00 0.00 0.00 0.00 0.00 0.03 0.11 0.17 0.31 1.10 1.00 0.37 0.08 0.02 0.00 0.00 0.00 0.00 0.00 0.00 0.00 0.00 0.00 0.00 0.00 0.00 0.00 0.00 0.00 0.00 0.00 0.01 0.01 0.01 0.01 0.02 0.05 0.07 0.14 0.16 0.16 0.14 0.06 0.01 0.00 0.00 0.00
0.00 0.00 0.00 0.00 0.00 0.00 0.00 0.00 0.00 0.01 0.07 0.64 0.95 0.26 0.04 0.01 0.00 0.00 0.00 0.00 0.00 0.00 0.00 0.00 0.00 0.00 0.00 0.00 0.00 0.00 0.00 0.00 0.00 0.00 0.01 0.02 0.02 0.00 0.07 0.10 0.16 0.12 0.11 0.11 0.10 0.08 0.00 0.01 0.00
0.00 0.00 0.00 0.00 0.00 0.00 0.00 0.00 0.00 0.00 0.00 0.07 0.27 0.22 0.11 0.00 0.00 0.00 0.00 0.00 0.00 0.00 0.00 0.00 0.00 0.00 0.00 0.00 0.00 0.00 0.00 0.00 0.00 0.00 0.00 0.00 0.01 0.02 0.03 0.03 0.09 0.11 0.07 0.10 0.10 0.11 0.03 0.01 0.01
0.00 0.00 0.00 0.00 0.00 0.00 0.00 0.00 0.00 0.00 0.00 0.01 0.07 0.21 0.10 0.05 0.01 0.00 0.00 0.00 0.00 0.00 0.00 0.00 0.00 0.00 0.00 0.00 0.00 0.00 0.00 0.00 0.00 0.00 0.00 0.00 0.00 0.00 0.00 0.01 0.07 0.04 0.04 0.06 0.08 0.13 0.09 0.02 0.00
0.00 0.00 0.00 0.00 0.00 0.00 0.00 0.00 0.00 0.00 0.00 0.01 0.04 0.05 0.10 0.07 0.08 0.04 0.00 0.00 0.00 0.00 0.00 0.00 0.00 0.00 0.00 0.00 0.00 0.00 0.00 0.00 0.00 0.00 0.00 0.00 0.00 0.00 0.01 0.03 0.02 0.04 0.02 0.02 0.05 0.06 0.04 0.02 0.00
0.00 0.00 0.00 0.00 0.00 0.00 0.00 0.00 0.00 0.00 0.00 0.00 0.05 0.08 0.13 0.18 0.15 0.09 0.01 0.01 0.00 0.00 0.00 0.00 0.00 0.00 0.00 0.00 0.00 0.00 0.00 0.00 0.00 0.00 0.00 0.00 0.00 0.00 0.01 0.04 0.04 0.02 0.02 0.02 0.05 0.03 0.05 0.07 0.01
0.00 0.00 0.00 0.00 0.00 0.00 0.00 0.00 0.00 0.00 0.00 0.00 0.00 0.04 0.03 0.30 0.45 0.21 0.08 0.03 0.06 0.02 0.00 0.00 0.00 0.00 0.00 0.00 0.00 0.00 0.00 0.00 0.00 0.00 0.00 0.00 0.00 0.00 0.00 0.01 0.04 0.04 0.03 0.02 0.01 0.01 0.01 0.01 0.01
0.00 0.00 0.00 0.00 0.00 0.00 0.00 0.00 0.00 0.00 0.00 0.00 0.00 0.00 0.00 0.03 0.49 0.84 0.38 0.17 0.07 0.06 0.01 0.00 0.00 0.00 0.00 0.00 0.00 0.00 0.00 0.00 0.00 0.00 0.00 0.00 0.00 0.00 0.00 0.00 0.02 0.02 0.03 0.02 0.01 0.00 0.01 0.01 0.00
0.00 0.00 0.00 0.00 0.00 0.00 0.00 0.00 0.00 0.00 0.00 0.00 0.02 0.02 0.01 0.06 0.13 0.61 0.77 0.45 0.19 0.09 0.05 0.03 0.01 0.00 0.00 0.00 0.00 0.00 0.00 0.00 0.00 0.00 0.00 0.00 0.00 0.00 0.01 0.00 0.00 0.00 0.00 0.02 0.00 0.01 0.00 0.00 0.00

GFSSGP_prec_precacc24_069.txt.gz
Total_Precipitation_Accumulation
0.00 0.00 0.00 0.03 0.10 0.06 0.24 0.56 0.76 0.54 0.08 0.09 0.02 0.00 0.01 0.02 0.11 0.24 0.00 0.00 0.00 0.00 0.00 0.04 0.22 0.14 0.16 0.06 0.05 0.03 0.02 0.01 0.01 0.01 0.05 0.07 0.04 0.03 0.11 0.03 0.08 0.10 0.08 0.04 0.05 0.08 0.16 0.13 0.10
0.00 0.00 0.01 0.19 0.20 0.10 0.54 1.00 1.27 0.62 0.21 0.17 0.01 0.00 0.07 0.03 0.07 0.01 0.00 0.00 0.00 0.00 0.00 0.01 0.11 0.15 0.16 0.04 0.03 0.05 0.01 0.01 0.05 0.10 0.12 0.09 0.10 0.11 0.22 0.11 0.09 0.11 0.14 0.15 0.05 0.09 0.15 0.13 0.14
0.00 0.02 0.15 0.26 0.08 0.18 0.77 1.40 1.94 0.80 0.25 0.12 0.06 0.17 0.13 0.16 0.06 0.00 0.00 0.00 0.00 0.00 0.00 0.00 0.05 0.08 0.04 0.05 0.04 0.03 0.02 0.04 0.08 0.14 0.09 0.07 0.06 0.06 0.10 0.08 0.06 0.03 0.06 0.09 0.01 0.02 0.06 0.06 0.12
0.00 0.13 0.38 0.26 0.29 0.44 0.84 0.98 0.83 1.38 0.64 0.35 0.21 0.18 0.18 0.21 0.01 0.00 0.00 0.00 0.00 0.00 0.00 0.00 0.02 0.03 0.03 0.09 0.04 0.03 0.05 0.06 0.06 0.09 0.04 0.06 0.07 0.17 0.08 0.08 0.10 0.03 0.03 0.05 0.02 0.03 0.06 0.09 0.20
0.01 0.44 0.44 0.43 0.94 0.76 0.79 0.72 1.71 2.65 1.19 0.89 0.16 0.09 0.12 0.07 0.01 0.00 0.00 0.00 0.00 0.00 0.00 0.00 0.07 0.05 0.04 0.06 0.06 0.06 0.07 0.05 0.08 0.06 0.08 0.14 0.09 0.14 0.18 0.10 0.16 0.11 0.02 0.03 0.06 0.07 0.09 0.17 0.29
0.14 0.29 0.49 1.10 0.59 0.54 1.19 1.32 1.50 1.36 0.59 0.23 0.24 0.15 0.10 0.04 0.01 0.00 0.00 0.00 0.00 0.00 0.00 0.00 0.05 0.05 0.07 0.05 0.06 0.08 0.05 0.05 0.08 0.07 0.10 0.08 0.06 0.17 0.18 0.14 0.06 0.01 0.01 0.00 0.01 0.14 0.19 0.28 0.20
0.11 0.38 0.31 0.61 0.35 0.81 1.11 1.05 0.93 0.84 0.31 0.14 0.32 0.07 0.06 0.03 0.01 0.00 0.00 0.00 0.00 0.00 0.00 0.00 0.01 0.07 0.08 0.08 0.12 0.13 0.12 0.05 0.08 0.07 0.09 0.05 0.05 0.13 0.20 0.07 0.02 0.00 0.01 0.00 0.02 0.12 0.08 0.14 0.11
0.01 0.07 0.08 0.25 0.12 0.99 0.81 0.67 0.71 0.54 0.34 0.15 0.07 0.05 0.03 0.01 0.00 0.00 0.00 0.01 0.02 0.00 0.00 0.00 0.00 0.03 0.04 0.09 0.15 0.06 0.03 0.04 0.09 0.03 0.02 0.05 0.04 0.09 0.05 0.05 0.05 0.01 0.00 0.00 0.04 0.12 0.14 0.27 0.22
0.00 0.05 0.12 0.11 0.09 0.79 0.59 0.66 0.42 0.22 0.08 0.03 0.06 0.07 0.00 0.00 0.00 0.00 0.01 0.01 0.01 0.00 0.00 0.00 0.03 0.02 0.12 0.06 0.11 0.03 0.04 0.07 0.02 0.01 0.06 0.14 0.01 0.00 0.02 0.04 0.04 0.01 0.01 0.01 0.02 0.09 0.20 0.19 0.11
0.04 0.09 0.06 0.04 0.05 0.41 1.38 0.59 0.32 0.07 0.15 0.13 0.10 0.05 0.01 0.01 0.00 0.00 0.00 0.00 0.00 0.00 0.01 0.00 0.00 0.00 0.07 0.03 0.09 0.07 0.02 0.02 0.03 0.05 0.07 0.07 0.04 0.02 0.02 0.03 0.04 0.03 0.03 0.05 0.08 0.06 0.26 0.48 0.18
0.00 0.01 0.00 0.02 0.04 0.21 0.91 0.65 0.09 0.15 0.11 0.12 0.07 0.05 0.01 0.00 0.00 0.00 0.00 0.00 0.00 0.00 0.00 0.00 0.00 0.00 0.01 0.02 0.01 0.03 0.01 0.01 0.02 0.04 0.12 0.05 0.02 0.01 0.03 0.05 0.03 0.08 0.10 0.16 0.34 0.08 0.27 0.88 0.36
0.00 0.00 0.00 0.01 0.05 0.20 0.64 1.59 0.23 0.61 1.25 0.30 0.17 0.02 0.00 0.00 0.00 0.00 0.00 0.00 0.00 0.00 0.00 0.00 0.00 0.01 0.15 0.01 0.00 0.09 0.05 0.02 0.01 0.01 0.04 0.04 0.02 0.01 0.02 0.05 0.07 0.15 0.05 0.06 0.22 0.03 0.04 0.20 0.22
0.00 0.00 0.01 0.01 0.03 0.14 0.25 0.45 0.34 0.59 0.54 0.30 0.25 0.04 0.01 0.01 0.00 0.01 0.01 0.00 0.00 0.00 0.00 0.00 0.00 0.05 0.16 0.03 0.05 0.07 0.03 0.05 0.00 0.00 0.04 0.14 0.03 0.01 0.04 0.09 0.07 0.10 0.07 0.04 0.02 0.02 0.02 0.01 0.01
0.00 0.00 0.00 0.00 0.02 0.07 0.10 0.20 0.06 0.14 0.18 0.37 0.28 0.03 0.00 0.00 0.00 0.00 0.01 0.00 0.00 0.00 0.00 0.00 0.00 0.02 0.05 0.03 0.03 0.02 0.01 0.01 0.00 0.00 0.06 0.22 0.12 0.23 0.22 0.15 0.11 0.08 0.07 0.01 0.01 0.01 0.04 0.01 0.00
0.00 0.00 0.00 0.00 0.02 0.07 0.14 0.36 0.16 0.26 0.32 0.33 0.16 0.02 0.00 0.00 0.00 0.00 0.00 0.00 0.00 0.00 0.00 0.00 0.00 0.00 0.01 0.02 0.03 0.01 0.00 0.02 0.00 0.01 0.04 0.05 0.20 0.30 0.28 0.17 0.15 0.12 0.03 0.01 0.00 0.00 0.00 0.00 0.00
0.00 0.00 0.00 0.00 0.01 0.01 0.06 0.24 0.16 0.59 1.46 0.23 0.10 0.01 0.00 0.00 0.00 0.00 0.00 0.00 0.00 0.00 0.00 0.00 0.00 0.00 0.00 0.01 0.01 0.03 0.00 0.00 0.00 0.00 0.01 0.16 0.26 0.24 0.21 0.16 0.15 0.04 0.01 0.00 0.00 0.00 0.00 0.00 0.00
0.00 0.00 0.00 0.00 0.01 0.05 0.12 0.21 0.28 0.30 0.61 0.15 0.09 0.03 0.00 0.00 0.00 0.00 0.00 0.00 0.00 0.00 0.00 0.00 0.00 0.00 0.00 0.00 0.01 0.01 0.00 0.00 0.01 0.00 0.03 0.14 0.13 0.13 0.49 0.29 0.16 0.09 0.09 0.04 0.00 0.00 0.00 0.00 0.00
0.00 0.00 0.00 0.00 0.01 0.02 0.03 0.09 0.45 0.30 0.65 0.23 0.10 0.02 0.00 0.00 0.00 0.00 0.00 0.00 0.00 0.00 0.00 0.00 0.00 0.00 0.00 0.00 0.01 0.00 0.00 0.00 0.01 0.01 0.04 0.12 0.12 0.22 0.38 0.20 0.17 0.12 0.07 0.16 0.08 0.00 0.00 0.00 0.00
0.00 0.00 0.00 0.00 0.00 0.00 0.01 0.06 0.45 0.30 0.23 0.39 0.10 0.05 0.00 0.00 0.00 0.00 0.00 0.00 0.00 0.00 0.00 0.00 0.00 0.00 0.00 0.00 0.00 0.00 0.00 0.00 0.01 0.04 0.06 0.11 0.07 0.08 0.19 0.23 0.11 0.09 0.04 0.06 0.02 0.00 0.00 0.00 0.00
0.00 0.00 0.00 0.00 0.00 0.00 0.01 0.04 0.13 0.18 0.14 0.31 0.49 0.04 0.03 0.00 0.00 0.00 0.00 0.00 0.00 0.00 0.00 0.00 0.00 0.01 0.00 0.00 0.00 0.00 0.00 0.01 0.02 0.06 0.09 0.04 0.10 0.15 0.04 0.10 0.08 0.10 0.09 0.07 0.08 0.04 0.01 0.00 0.00
0.00 0.00 0.00 0.00 0.00 0.00 0.02 0.12 0.22 0.39 0.20 0.32 0.75 0.25 0.08 0.01 0.00 0.00 0.00 0.00 0.00 0.00 0.00 0.00 0.00 0.00 0.00 0.00 0.00 0.00 0.00 0.00 0.01 0.05 0.04 0.00 0.02 0.07 0.04 0.06 0.10 0.13 0.10 0.03 0.02 0.01 0.00 0.00 0.00
0.00 0.00 0.00 0.00 0.00 0.00 0.00 0.03 0.11 0.17 0.31 1.10 1.00 0.37 0.08 0.02 0.00 0.00 0.00 0.00 0.00 0.00 0.00 0.00 0.00 0.00 0.00 0.00 0.00 0.00 0.00 0.00 0.00 0.01 0.01 0.01 0.01 0.04 0.06 0.07 0.11 0.08 0.13 0.07 0.05 0.01 0.00 0.00 0.00
0.00 0.00 0.00 0.00 0.00 0.00 0.00 0.00 0.00 0.01 0.07 0.64 0.95 0.26 0.04 0.01 0.00 0.00 0.00 0.00 0.00 0.00 0.00 0.00 0.00 0.00 0.00 0.00 0.00 0.00 0.00 0.00 0.00 0.00 0.01 0.02 0.02 0.04 0.08 0.10 0.14 0.06 0.07 0.06 0.09 0.06 0.00 0.01 0.00
0.00 0.00 0.00 0.00 0.00 0.00 0.00 0.00 0.00 0.00 0.00 0.08 0.27 0.22 0.11 0.00 0.00 0.00 0.00 0.00 0.00 0.00 0.00 0.00 0.00 0.00 0.00 0.00 0.00 0.00 0.00 0.00 0.00 0.00 0.00 0.00 0.01 0.07 0.03 0.03 0.11 0.10 0.07 0.11 0.10 0.08 0.02 0.01 0.01
0.00 0.00 0.00 0.00 0.00 0.00 0.00 0.00 0.00 0.00 0.00 0.01 0.07 0.21 0.10 0.05 0.01 0.00 0.00 0.00 0.00 0.00 0.00 0.00 0.00 0.00 0.00 0.00 0.00 0.00 0.00 0.00 0.00 0.00 0.00 0.00 0.00 0.01 0.01 0.01 0.08 0.06 0.04 0.09 0.08 0.13 0.08 0.01 0.00
0.00 0.00 0.00 0.00 0.00 0.00 0.00 0.00 0.00 0.00 0.00 0.01 0.04 0.05 0.10 0.07 0.08 0.04 0.00 0.00 0.00 0.00 0.00 0.00 0.00 0.00 0.00 0.00 0.00 0.00 0.00 0.00 0.00 0.00 0.00 0.00 0.00 0.00 0.02 0.03 0.07 0.07 0.02 0.03 0.06 0.06 0.04 0.02 0.00
0.00 0.00 0.00 0.00 0.00 0.00 0.00 0.00 0.00 0.00 0.00 0.00 0.05 0.08 0.13 0.18 0.15 0.09 0.01 0.01 0.00 0.00 0.00 0.00 0.00 0.00 0.00 0.00 0.00 0.00 0.00 0.00 0.00 0.00 0.00 0.00 0.00 0.00 0.01 0.04 0.04 0.03 0.04 0.03 0.05 0.03 0.05 0.07 0.01
0.00 0.00 0.00 0.00 0.00 0.00 0.00 0.00 0.00 0.00 0.00 0.00 0.00 0.04 0.03 0.30 0.45 0.21 0.08 0.04 0.06 0.02 0.00 0.00 0.00 0.00 0.00 0.00 0.00 0.00 0.00 0.00 0.00 0.00 0.00 0.00 0.00 0.00 0.00 0.01 0.04 0.04 0.04 0.03 0.02 0.01 0.01 0.01 0.01
0.00 0.00 0.00 0.00 0.00 0.00 0.00 0.00 0.00 0.00 0.00 0.00 0.00 0.00 0.00 0.03 0.49 0.84 0.38 0.20 0.10 0.06 0.01 0.00 0.00 0.00 0.00 0.00 0.00 0.00 0.00 0.00 0.00 0.00 0.00 0.00 0.00 0.00 0.00 0.00 0.02 0.02 0.03 0.02 0.02 0.00 0.01 0.01 0.00
0.00 0.00 0.00 0.00 0.00 0.00 0.00 0.00 0.00 0.00 0.00 0.00 0.02 0.02 0.01 0.06 0.13 0.61 0.77 0.47 0.21 0.10 0.05 0.03 0.01 0.00 0.00 0.00 0.00 0.00 0.00 0.00 0.00 0.00 0.00 0.00 0.00 0.00 0.01 0.00 0.00 0.00 0.00 0.02 0.01 0.06 0.00 0.00 0.00

GFSSGP_prec_precacc24_072.txt.gz
Total_Precipitation_Accumulation
0.00 0.00 0.00 0.01 0.07 0.06 0.31 0.60 0.71 0.50 0.08 0.09 0.02 0.00 0.01 0.02 0.10 0.23 0.00 0.00 0.00 0.00 0.00 0.04 0.22 0.13 0.14 0.05 0.05 0.03 0.01 0.01 0.02 0.02 0.04 0.05 0.04 0.03 0.09 0.04 0.07 0.07 0.06 0.05 0.05 0.08 0.20 0.10 0.10
0.00 0.00 0.00 0.15 0.13 0.09 0.57 1.06 1.24 0.67 0.24 0.17 0.01 0.00 0.07 0.03 0.07 0.01 0.00 0.00 0.00 0.00 0.00 0.00 0.10 0.14 0.14 0.04 0.02 0.02 0.02 0.02 0.04 0.06 0.07 0.07 0.11 0.10 0.15 0.10 0.11 0.12 0.12 0.16 0.05 0.09 0.15 0.12 0.13
0.00 0.01 0.09 0.19 0.06 0.20 0.78 1.73 2.13 0.82 0.22 0.12 0.06 0.16 0.13 0.15 0.06 0.00 0.00 0.00 0.00 0.00 0.00 0.00 0.04 0.07 0.04 0.04 0.04 0.02 0.02 0.03 0.05 0.11 0.08 0.07 0.06 0.06 0.10 0.08 0.06 0.05 0.05 0.09 0.01 0.04 0.08 0.14 0.16
0.00 0.12 0.23 0.10 0.30 0.46 0.88 1.15 0.88 1.40 0.61 0.34 0.20 0.18 0.18 0.20 0.01 0.00 0.00 0.00 0.00 0.00 0.00 0.00 0.02 0.02 0.03 0.04 0.04 0.01 0.04 0.05 0.08 0.11 0.05 0.03 0.07 0.13 0.09 0.09 0.11 0.03 0.05 0.07 0.03 0.06 0.14 0.20 0.30
0.01 0.34 0.37 0.41 0.96 0.81 0.84 0.78 1.73 2.61 1.20 0.83 0.13 0.07 0.09 0.07 0.01 0.00 0.00 0.00 0.00 0.00 0.00 0.00 0.08 0.05 0.02 0.04 0.07 0.06 0.07 0.06 0.11 0.07 0.06 0.12 0.08 0.11 0.18 0.10 0.16 0.11 0.05 0.05 0.05 0.08 0.17 0.24 0.33
0.09 0.26 0.57 1.16 0.67 0.60 1.21 1.34 1.55 1.34 0.52 0.18 0.22 0.12 0.08 0.03 0.01 0.00 0.00 0.00 0.00 0.00 0.00 0.00 0.04 0.06 0.05 0.04 0.06 0.07 0.04 0.06 0.08 0.05 0.10 0.06 0.05 0.15 0.17 0.14 0.06 0.01 0.01 0.00 0.01 0.15 0.28 0.41 0.28
0.08 0.42 0.36 0.63 0.43 0.86 1.14 1.07 0.78 0.70 0.32 0.14 0.31 0.07 0.05 0.02 0.00 0.00 0.00 0.00 0.00 0.00 0.00 0.00 0.01 0.06 0.05 0.09 0.13 0.13 0.12 0.05 0.06 0.03 0.06 0.04 0.04 0.13 0.21 0.07 0.02 0.01 0.03 0.09 0.11 0.22 0.25 0.28 0.12
0.00 0.08 0.09 0.25 0.17 0.97 0.83 0.69 0.66 0.48 0.36 0.14 0.06 0.05 0.02 0.00 0.00 0.00 0.00 0.01 0.02 0.00 0.00 0.00 0.00 0.03 0.04 0.10 0.16 0.06 0.04 0.04 0.05 0.04 0.05 0.14 0.07 0.10 0.05 0.05 0.05 0.01 0.07 0.09 0.13 0.17 0.19 0.33 0.22
0.00 0.09 0.11 0.11 0.11 0.82 0.60 0.71 0.52 0.23 0.06 0.02 0.06 0.07 0.00 0.00 0.00 0.00 0.00 0.01 0.01 0.00 0.00 0.00 0.01 0.01 0.10 0.13 0.14 0.03 0.06 0.09 0.01 0.03 0.12 0.19 0.02 0.00 0.02 0.04 0.04 0.00 0.01 0.00 0.04 0.13 0.22 0.24 0.13
0.05 0.17 0.06 0.04 0.05 0.46 1.44 0.67 0.39 0.09 0.15 0.13 0.10 0.05 0.01 0.00 0.00 0.00 0.00 0.00 0.00 0.00 0.00 0.00 0.00 0.00 0.01 0.03 0.09 0.04 0.01 0.02 0.03 0.05 0.07 0.07 0.04 0.02 0.02 0.03 0.01 0.00 0.03 0.07 0.07 0.08 0.28 0.50 0.21
0.00 0.07 0.00 0.02 0.04 0.22 0.99 0.70 0.21 0.17 0.10 0.12 0.07 0.05 0.00 0.00 0.00 0.00 0.00 0.00 0.00 0.00 0.00 0.00 0.00 0.00 0.01 0.03 0.01 0.02 0.01 0.01 0.02 0.04 0.12 0.05 0.02 0.01 0.03 0.05 0.02 0.08 0.10 0.17 0.34 0.08 0.27 0.88 0.36
0.02 0.00 0.00 0.01 0.05 0.20 0.64 1.64 0.33 0.72 1.29 0.30 0.17 0.02 0.00 0.00 0.00 0.00 0.00 0.00 0.00 0.00 0.00 0.00 0.00 0.02 0.15 0.02 0.00 0.09 0.05 0.02 0.01 0.01 0.04 0.04 0.02 0.01 0.02 0.05 0.07 0.15 0.05 0.06 0.22 0.03 0.04 0.20 0.22
0.00 0.00 0.01 0.01 0.03 0.14 0.25 0.46 0.38 0.69 0.54 0.30 0.25 0.04 0.01 0.01 0.00 0.01 0.01 0.00 0.00 0.00 0.00 0.00 0.00 0.05 0.17 0.03 0.05 0.07 0.03 0.05 0.00 0.00 0.04 0.14 0.03 0.01 0.03 0.07 0.07 0.10 0.07 0.04 0.02 0.02 0.02 0.01 0.01
0.00 0.00 0.00 0.00 0.02 0.07 0.10 0.20 0.09 0.18 0.18 0.38 0.28 0.03 0.00 0.00 0.00 0.00 0.01 0.00 0.00 0.00 0.00 0.00 0.00 0.02 0.05 0.03 0.03 0.02 0.01 0.01 0.00 0.00 0.06 0.23 0.12 0.17 0.16 0.10 0.06 0.06 0.07 0.01 0.01 0.01 0.04 0.01 0.00
0.00 0.00 0.00 0.00 0.02 0.07 0.15 0.40 0.21 0.27 0.34 0.34 0.16 0.02 0.00 0.00 0.00 0.00 0.00 0.00 0.00 0.00 0.00 0.00 0.00 0.00 0.01 0.02 0.03 0.01 0.00 0.02 0.00 0.01 0.04 0.05 0.20 0.25 0.19 0.10 0.08 0.09 0.03 0.01 0.00 0.00 0.00 0.00 0.00
0.00 0.00 0.00 0.00 0.01 0.01 0.08 0.37 0.19 0.60 1.48 0.23 0.11 0.01 0.00 0.00 0.00 0.00 0.00 0.00 0.00 0.00 0.00 0.00 0.00 0.00 0.00 0.01 0.01 0.03 0.00 0.00 0.00 0.00 0.01 0.16 0.30 0.29 0.23 0.14 0.13 0.02 0.01 0.00 0.00 0.00 0.00 0.00 0.00
0.00 0.00 0.00 0.00 0.01 0.05 0.12 0.24 0.33 0.30 0.61 0.15 0.10 0.03 0.00 0.00 0.00 0.00 0.00 0.00 0.00 0.00 0.00 0.00 0.00 0.00 0.00 0.00 0.01 0.01 0.00 0.00 0.01 0.00 0.03 0.14 0.14 0.23 0.58 0.33 0.12 0.02 0.05 0.02 0.00 0.00 0.00 0.00 0.00
0.00 0.00 0.00 0.00 0.01 0.02 0.03 0.09 0.45 0.30 0.65 0.24 0.10 0.02 0.00 0.00 0.00 0.00 0.00 0.00 0.00 0.00 0.00 0.00 0.00 0.00 0.00 0.00 0.01 0.00 0.00 0.00 0.01 0.01 0.04 0.13 0.13 0.30 0.45 0.22 0.09 0.04 0.02 0.10 0.08 0.00 0.00 0.00 0.00
0.00 0.00 0.00 0.00 0.00 0.00 0.01 0.06 0.45 0.30 0.23 0.39 0.11 0.05 0.00 0.00 0.00 0.00 0.00 0.00 0.00 0.00 0.00 0.00 0.00 0.00 0.00 0.00 0.00 0.00 0.00 0.00 0.01 0.04 0.06 0.11 0.08 0.11 0.23 0.21 0.06 0.04 0.02 0.02 0.00 0.00 0.00 0.00 0.00
0.00 0.00 0.00 0.00 0.00 0.00 0.01 0.04 0.13 0.18 0.14 0.31 0.49 0.04 0.03 0.00 0.00 0.00 0.00 0.00 0.00 0.00 0.00 0.00 0.00 0.01 0.00 0.00 0.00 0.00 0.00 0.01 0.03 0.06 0.09 0.04 0.10 0.19 0.06 0.07 0.05 0.06 0.02 0.00 0.00 0.00 0.01 0.00 0.00
0.00 0.00 0.00 0.00 0.00 0.00 0.02 0.12 0.22 0.39 0.20 0.32 0.75 0.25 0.08 0.01 0.00 0.00 0.00 0.00 0.00 0.00 0.00 0.00 0.00 0.00 0.00 0.00 0.00 0.00 0.00 0.02 0.07 0.06 0.04 0.02 0.06 0.08 0.04 0.02 0.05 0.04 0.03 0.00 0.00 0.00 0.00 0.00 0.00
0.00 0.00 0.00 0.00 0.00 0.00 0.00 0.03 0.11 0.17 0.32 1.11 1.01 0.37 0.08 0.02 0.00 0.00 0.00 0.00 0.00 0.00 0.00 0.00 0.00 0.00 0.00 0.00 0.00 0.00 0.00 0.00 0.01 0.01 0.01 0.02 0.04 0.05 0.06 0.01 0.02 0.02 0.03 0.02 0.01 0.00 0.00 0.00 0.00
0.00 0.00 0.00 0.00 0.00 0.00 0.00 0.00 0.00 0.01 0.07 0.65 0.95 0.26 0.04 0.01 0.00 0.00 0.00 0.00 0.00 0.00 0.00 0.00 0.00 0.00 0.00 0.00 0.00 0.00 0.00 0.00 0.02 0.01 0.09 0.08 0.07 0.07 0.08 0.05 0.07 0.03 0.03 0.05 0.03 0.01 0.00 0.01 0.00
0.00 0.00 0.00 0.00 0.00 0.00 0.00 0.00 0.00 0.00 0.00 0.08 0.27 0.23 0.11 0.00 0.00 0.00 0.00 0.00 0.00 0.00 0.00 0.00 0.00 0.00 0.00 0.00 0.00 0.00 0.00 0.00 0.00 0.02 0.08 0.05 0.04 0.10 0.06 0.06 0.12 0.09 0.07 0.12 0.06 0.01 0.02 0.01 0.01
0.00 0.00 0.00 0.00 0.00 0.00 0.00 0.00 0.00 0.00 0.00 0.01 0.07 0.21 0.10 0.05 0.01 0.00 0.00 0.00 0.00 0.00 0.00 0.00 0.00 0.00 0.00 0.00 0.00 0.00 0.00 0.01 0.03 0.06 0.02 0.00 0.00 0.01 0.04 0.11 0.22 0.10 0.07 0.12 0.10 0.08 0.03 0.01 0.00
0.00 0.00 0.00 0.00 0.00 0.00 0.00 0.00 0.00 0.00 0.00 0.01 0.04 0.05 0.10 0.07 0.08 0.04 0.00 0.00 0.00 0.00 0.00 0.00 0.00 0.00 0.00 0.00 0.00 0.00 0.00 0.00 0.00 0.00 0.00 0.00 0.00 0.00 0.04 0.10 0.12 0.09 0.03 0.04 0.10 0.06 0.03 0.01 0.00
0.00 0.00 0.00 0.00 0.00 0.00 0.00 0.00 0.00 0.00 0.00 0.00 0.05 0.08 0.13 0.18 0.15 0.09 0.01 0.01 0.00 0.00 0.00 0.00 0.00 0.00 0.00 0.00 0.00 0.00 0.00 0.00 0.00 0.00 0.00 0.00 0.00 0.00 0.01 0.05 0.09 0.06 0.07 0.05 0.06 0.05 0.07 0.07 0.01
0.00 0.00 0.00 0.00 0.00 0.00 0.00 0.00 0.00 0.00 0.00 0.00 0.00 0.04 0.03 0.30 0.45 0.21 0.08 0.04 0.06 0.02 0.00 0.00 0.00 0.00 0.00 0.00 0.00 0.00 0.00 0.00 0.00 0.00 0.00 0.00 0.00 0.00 0.00 0.03 0.08 0.10 0.07 0.07 0.02 0.01 0.01 0.01 0.00
0.00 0.00 0.00 0.00 0.00 0.00 0.00 0.00 0.00 0.00 0.00 0.00 0.00 0.00 0.00 0.04 0.50 0.84 0.40 0.21 0.10 0.06 0.01 0.00 0.00 0.00 0.00 0.00 0.00 0.00 0.00 0.00 0.00 0.00 0.00 0.00 0.00 0.00 0.01 0.06 0.08 0.07 0.05 0.02 0.04 0.02 0.01 0.01 0.00
0.00 0.00 0.00 0.00 0.00 0.00 0.00 0.00 0.00 0.00 0.00 0.00 0.02 0.02 0.01 0.06 0.14 0.63 0.78 0.50 0.23 0.11 0.05 0.03 0.01 0.00 0.00 0.00 0.00 0.00 0.00 0.00 0.00 0.00 0.00 0.00 0.00 0.00 0.02 0.07 0.05 0.05 0.01 0.02 0.05 0.07 0.01 0.01 0.00

GFSSGP_prec_precacc24_075.txt.gz
Total_Precipitation_Accumulation
0.00 0.00 0.00 0.00 0.05 0.06 0.38 0.61 0.79 0.50 0.08 0.09 0.02 0.00 0.00 0.01 0.09 0.20 0.00 0.00 0.00 0.00 0.00 0.03 0.18 0.11 0.15 0.07 0.05 0.03 0.01 0.03 0.10 0.04 0.03 0.04 0.03 0.03 0.11 0.04 0.06 0.06 0.05 0.05 0.06 0.07 0.17 0.10 0.09
0.00 0.00 0.00 0.08 0.11 0.12 0.50 1.05 1.26 0.74 0.23 0.17 0.01 0.00 0.06 0.02 0.07 0.01 0.00 0.00 0.00 0.00 0.00 0.00 0.09 0.13 0.15 0.05 0.02 0.02 0.07 0.06 0.10 0.06 0.07 0.07 0.11 0.10 0.14 0.08 0.10 0.09 0.12 0.16 0.06 0.09 0.12 0.08 0.14
0.00 0.00 0.06 0.17 0.07 0.25 0.71 1.64 2.18 0.86 0.22 0.12 0.06 0.16 0.11 0.14 0.06 0.00 0.00 0.00 0.00 0.00 0.00 0.00 0.04 0.07 0.05 0.06 0.02 0.04 0.07 0.03 0.02 0.06 0.05 0.07 0.06 0.05 0.08 0.08 0.06 0.03 0.05 0.09 0.03 0.07 0.08 0.16 0.20
0.00 0.13 0.23 0.16 0.36 0.53 0.86 1.13 0.87 1.40 0.61 0.34 0.20 0.17 0.17 0.19 0.01 0.00 0.00 0.00 0.00 0.00 0.00 0.00 0.02 0.02 0.03 0.05 0.03 0.03 0.05 0.05 0.08 0.10 0.04 0.03 0.04 0.08 0.08 0.08 0.08 0.03 0.06 0.08 0.05 0.06 0.12 0.23 0.30
0.03 0.32 0.49 0.56 1.00 0.88 0.90 0.80 1.75 2.47 1.17 0.86 0.14 0.06 0.08 0.06 0.00 0.00 0.00 0.00 0.00 0.00 0.00 0.01 0.10 0.06 0.03 0.08 0.17 0.16 0.05 0.05 0.12 0.06 0.07 0.12 0.07 0.07 0.17 0.10 0.16 0.12 0.06 0.05 0.02 0.06 0.20 0.26 0.34
0.08 0.26 0.64 1.13 0.75 0.63 1.19 1.39 1.56 1.04 0.29 0.16 0.22 0.09 0.03 0.02 0.00 0.00 0.00 0.00 0.00 0.00 0.00 0.00 0.06 0.06 0.04 0.06 0.15 0.11 0.05 0.06 0.05 0.03 0.10 0.04 0.03 0.13 0.17 0.14 0.07 0.02 0.01 0.00 0.03 0.15 0.38 0.54 0.31
0.11 0.49 0.40 0.67 0.55 0.91 1.09 1.04 0.71 0.49 0.36 0.19 0.24 0.05 0.03 0.01 0.00 0.00 0.00 0.00 0.00 0.00 0.00 0.00 0.01 0.05 0.04 0.11 0.19 0.14 0.11 0.02 0.02 0.02 0.03 0.01 0.03 0.13 0.21 0.08 0.03 0.03 0.03 0.11 0.14 0.24 0.33 0.34 0.11
0.00 0.14 0.11 0.26 0.28 0.88 0.82 0.69 0.65 0.46 0.37 0.14 0.06 0.06 0.01 0.00 0.00 0.00 0.00 0.01 0.02 0.00 0.00 0.00 0.00 0.03 0.04 0.11 0.18 0.08 0.03 0.04 0.02 0.02 0.06 0.17 0.07 0.10 0.06 0.06 0.08 0.10 0.11 0.12 0.14 0.18 0.20 0.33 0.21
0.02 0.19 0.08 0.11 0.11 0.77 0.60 0.74 0.58 0.23 0.06 0.04 0.08 0.07 0.00 0.00 0.00 0.00 0.00 0.01 0.01 0.01 0.00 0.00 0.01 0.01 0.15 0.15 0.14 0.04 0.08 0.04 0.01 0.04 0.12 0.28 0.03 0.00 0.04 0.04 0.05 0.09 0.10 0.01 0.04 0.13 0.23 0.24 0.13
0.09 0.32 0.05 0.03 0.05 0.42 1.44 0.68 0.46 0.10 0.17 0.15 0.10 0.05 0.01 0.00 0.00 0.00 0.00 0.00 0.00 0.00 0.00 0.00 0.01 0.00 0.01 0.03 0.07 0.01 0.01 0.02 0.03 0.05 0.08 0.10 0.04 0.02 0.02 0.03 0.01 0.01 0.04 0.07 0.07 0.08 0.24 0.33 0.16
0.03 0.14 0.01 0.02 0.04 0.22 0.99 0.69 0.21 0.15 0.12 0.14 0.07 0.05 0.00 0.00 0.00 0.00 0.00 0.00 0.00 0.00 0.00 0.00 0.00 0.01 0.02 0.04 0.00 0.02 0.01 0.01 0.02 0.04 0.11 0.05 0.02 0.01 0.03 0.05 0.02 0.08 0.08 0.17 0.35 0.07 0.20 0.61 0.21
0.05 0.02 0.01 0.01 0.04 0.17 0.55 1.52 0.33 0.76 1.17 0.31 0.17 0.02 0.00 0.00 0.00 0.00 0.00 0.00 0.00 0.00 0.00 0.00 0.00 0.02 0.16 0.02 0.00 0.09 0.05 0.02 0.01 0.01 0.04 0.04 0.02 0.01 0.02 0.05 0.07 0.15 0.05 0.05 0.22 0.03 0.04 0.19 0.21
0.01 0.01 0.00 0.00 0.03 0.13 0.24 0.41 0.39 0.76 0.53 0.30 0.25 0.04 0.01 0.01 0.00 0.01 0.01 0.00 0.00 0.00 0.00 0.00 0.00 0.05 0.17 0.03 0.05 0.07 0.03 0.05 0.00 0.00 0.04 0.14 0.02 0.01 0.03 0.07 0.07 0.10 0.07 0.04 0.02 0.02 0.02 0.01 0.01
0.00 0.00 0.00 0.00 0.01 0.05 0.10 0.19 0.16 0.28 0.19 0.38 0.28 0.03 0.00 0.00 0.00 0.00 0.01 0.00 0.00 0.00 0.00 0.00 0.00 0.02 0.06 0.03 0.03 0.02 0.01 0.01 0.00 0.00 0.06 0.23 0.08 0.16 0.15 0.10 0.06 0.06 0.06 0.00 0.00 0.02 0.04 0.01 0.00
0.00 0.00 0.00 0.00 0.01 0.04 0.16 0.50 0.29 0.28 0.34 0.34 0.16 0.02 0.00 0.00 0.00 0.00 0.00 0.00 0.00 0.00 0.00 0.00 0.00 0.00 0.01 0.02 0.03 0.01 0.00 0.02 0.00 0.02 0.04 0.05 0.17 0.25 0.19 0.10 0.08 0.09 0.03 0.01 0.00 0.00 0.00 0.00 0.00
0.00 0.00 0.00 0.00 0.01 0.01 0.13 0.61 0.26 0.60 1.48 0.23 0.11 0.01 0.00 0.00 0.00 0.00 0.00 0.00 0.00 0.00 0.00 0.00 0.00 0.00 0.00 0.01 0.01 0.03 0.00 0.00 0.00 0.00 0.01 0.16 0.25 0.25 0.22 0.14 0.13 0.02 0.01 0.00 0.00 0.00 0.00 0.00 0.00
0.00 0.00 0.00 0.00 0.01 0.05 0.16 0.23 0.21 0.30 0.61 0.15 0.11 0.03 0.00 0.00 0.00 0.00 0.00 0.00 0.00 0.00 0.00 0.00 0.00 0.00 0.00 0.00 0.01 0.01 0.00 0.00 0.01 0.00 0.03 0.14 0.14 0.22 0.47 0.30 0.10 0.02 0.05 0.02 0.00 0.00 0.00 0.00 0.00
0.00 0.00 0.00 0.00 0.01 0.02 0.03 0.25 0.29 0.30 0.65 0.24 0.10 0.05 0.01 0.00 0.00 0.00 0.00 0.00 0.00 0.00 0.00 0.00 0.00 0.00 0.00 0.00 0.01 0.00 0.00 0.00 0.01 0.01 0.05 0.13 0.15 0.32 0.40 0.20 0.09 0.04 0.02 0.06 0.02 0.00 0.00 0.00 0.00
0.00 0.00 0.00 0.00 0.00 0.00 0.00 0.06 0.31 0.30 0.23 0.39 0.11 0.06 0.01 0.01 0.00 0.00 0.00 0.00 0.00 0.00 0.00 0.00 0.00 0.00 0.00 0.00 0.00 0.00 0.00 0.00 0.01 0.05 0.06 0.11 0.10 0.14 0.21 0.19 0.06 0.04 0.02 0.01 0.00 0.00 0.00 0.00 0.00
0.00 0.00 0.00 0.00 0.00 0.00 0.00 0.03 0.12 0.18 0.14 0.31 0.49 0.07 0.04 0.01 0.00 0.00 0.00 0.00 0.00 0.00 0.00 0.00 0.00 0.01 0.00 0.00 0.00 0.00 0.00 0.01 0.04 0.07 0.09 0.04 0.11 0.20 0.07 0.07 0.04 0.03 0.00 0.00 0.00 0.00 0.01 0.00 0.00
0.00 0.00 0.00 0.00 0.00 0.00 0.01 0.11 0.21 0.38 0.20 0.32 0.76 0.26 0.10 0.02 0.01 0.00 0.00 0.00 0.00 0.00 0.00 0.00 0.00 0.00 0.00 0.00 0.00 0.00 0.02 0.05 0.12 0.08 0.04 0.02 0.14 0.09 0.04 0.02 0.04 0.04 0.03 0.00 0.00 0.00 0.01 0.00 0.00
0.00 0.00 0.00 0.00 0.00 0.00 0.00 0.03 0.11 0.16 0.31 1.11 1.01 0.37 0.08 0.03 0.01 0.00 0.00 0.00 0.00 0.00 0.00 0.00 0.00 0.00 0.00 0.00 0.00 0.00 0.00 0.00 0.01 0.01 0.01 0.02 0.05 0.06 0.06 0.00 0.02 0.02 0.03 0.03 0.01 0.00 0.01 0.00 0.00
0.00 0.00 0.00 0.00 0.00 0.00 0.00 0.00 0.02 0.02 0.07 0.65 0.96 0.27 0.05 0.01 0.00 0.01 0.00 0.00 0.01 0.00 0.00 0.00 0.00 0.00 0.00 0.00 0.01 0.00 0.00 0.01 0.02 0.01 0.11 0.10 0.07 0.07 0.08 0.05 0.07 0.03 0.03 0.04 0.01 0.00 0.00 0.01 0.00
0.00 0.00 0.00 0.00 0.00 0.00 0.00 0.00 0.01 0.01 0.04 0.08 0.27 0.23 0.11 0.02 0.01 0.03 0.00 0.00 0.00 0.00 0.00 0.00 0.00 0.00 0.00 0.00 0.00 0.00 0.00 0.01 0.00 0.07 0.11 0.06 0.04 0.10 0.06 0.06 0.15 0.14 0.09 0.10 0.04 0.00 0.02 0.02 0.01
0.00 0.00 0.00 0.00 0.00 0.00 0.00 0.00 0.00 0.00 0.00 0.00 0.07 0.23 0.11 0.08 0.02 0.01 0.01 0.00 0.00 0.00 0.00 0.00 0.00 0.00 0.00 0.00 0.00 0.00 0.00 0.01 0.04 0.09 0.02 0.00 0.00 0.01 0.04 0.11 0.23 0.12 0.07 0.12 0.08 0.07 0.03 0.01 0.00
0.00 0.00 0.00 0.00 0.00 0.00 0.00 0.00 0.00 0.00 0.00 0.00 0.03 0.05 0.11 0.07 0.08 0.04 0.01 0.00 0.00 0.00 0.00 0.00 0.00 0.00 0.00 0.00 0.00 0.00 0.00 0.00 0.00 0.00 0.00 0.00 0.00 0.01 0.04 0.10 0.12 0.09 0.03 0.04 0.10 0.04 0.03 0.01 0.00
0.00 0.00 0.00 0.00 0.00 0.00 0.00 0.00 0.00 0.00 0.00 0.00 0.05 0.08 0.13 0.19 0.17 0.09 0.01 0.01 0.01 0.00 0.00 0.00 0.00 0.00 0.00 0.00 0.00 0.00 0.00 0.00 0.00 0.00 0.00 0.00 0.00 0.02 0.01 0.05 0.09 0.06 0.07 0.05 0.08 0.05 0.06 0.06 0.01
0.00 0.00 0.00 0.00 0.00 0.00 0.00 0.00 0.00 0.00 0.00 0.00 0.00 0.04 0.05 0.39 0.59 0.38 0.15 0.08 0.07 0.03 0.00 0.00 0.00 0.00 0.00 0.00 0.00 0.00 0.00 0.00 0.00 0.00 0.00 0.00 0.00 0.00 0.06 0.04 0.09 0.10 0.07 0.08 0.03 0.02 0.01 0.01 0.00
0.00 0.00 0.00 0.00 0.00 0.00 0.00 0.00 0.00 0.00 0.00 0.00 0.00 0.00 0.01 0.14 0.66 1.04 0.71 0.42 0.19 0.11 0.03 0.00 0.00 0.00 0.00 0.00 0.00 0.00 0.00 0.00 0.00 0.00 0.00 0.00 0.00 0.00 0.03 0.07 0.08 0.08 0.05 0.02 0.05 0.02 0.01 0.01 0.00
0.00 0.00 0.00 0.00 0.00 0.00 0.00 0.00 0.00 0.00 0.00 0.00 0.02 0.02 0.02 0.11 0.30 0.83 1.09 0.81 0.51 0.27 0.17 0.12 0.02 0.00 0.00 0.00 0.00 0.00 0.00 0.00 0.00 0.00 0.00 0.00 0.00 0.00 0.04 0.07 0.05 0.05 0.01 0.02 0.05 0.07 0.01 0.01 0.00

GFSSGP_prec_precacc24_078.txt.gz
Total_Precipitation_Accumulation
0.00 0.00 0.00 0.00 0.03 0.11 0.49 0.68 0.89 0.51 0.07 0.06 0.01 0.00 0.00 0.02 0.09 0.17 0.00 0.00 0.00 0.00 0.00 0.03 0.12 0.12 0.14 0.05 0.05 0.03 0.03 0.04 0.12 0.04 0.03 0.04 0.04 0.06 0.11 0.04 0.07 0.06 0.07 0.06 0.06 0.07 0.17 0.10 0.09
0.00 0.00 0.00 0.03 0.07 0.33 0.74 1.14 1.36 0.74 0.21 0.16 0.01 0.01 0.06 0.02 0.07 0.01 0.00 0.00 0.00 0.00 0.00 0.00 0.07 0.12 0.15 0.05 0.02 0.03 0.08 0.07 0.12 0.07 0.11 0.08 0.11 0.12 0.12 0.08 0.09 0.10 0.13 0.16 0.06 0.09 0.12 0.08 0.15
0.00 0.00 0.06 0.17 0.11 0.38 0.68 1.53 2.18 0.84 0.21 0.12 0.05 0.14 0.11 0.14 0.06 0.00 0.00 0.00 0.00 0.00 0.00 0.00 0.04 0.06 0.06 0.07 0.02 0.04 0.09 0.10 0.09 0.09 0.05 0.07 0.06 0.05 0.09 0.08 0.06 0.04 0.07 0.11 0.07 0.10 0.09 0.16 0.21
0.00 0.13 0.23 0.28 0.51 0.66 0.88 1.04 0.82 1.38 0.61 0.34 0.20 0.17 0.17 0.18 0.01 0.00 0.00 0.00 0.00 0.00 0.00 0.00 0.02 0.02 0.03 0.04 0.04 0.07 0.05 0.06 0.09 0.10 0.05 0.05 0.07 0.06 0.07 0.09 0.08 0.05 0.07 0.08 0.05 0.07 0.15 0.23 0.30
0.03 0.35 0.65 0.77 1.10 0.85 0.89 0.79 1.75 2.50 1.19 0.87 0.17 0.05 0.07 0.05 0.00 0.00 0.00 0.00 0.00 0.01 0.00 0.01 0.10 0.06 0.04 0.08 0.19 0.18 0.06 0.05 0.12 0.05 0.06 0.06 0.07 0.07 0.16 0.09 0.19 0.13 0.06 0.03 0.02 0.06 0.22 0.26 0.34
0.11 0.34 0.69 0.99 0.71 0.58 1.15 1.39 1.56 0.97 0.23 0.16 0.20 0.06 0.03 0.01 0.00 0.00 0.00 0.00 0.01 0.00 0.00 0.00 0.06 0.06 0.04 0.06 0.17 0.12 0.04 0.04 0.05 0.02 0.07 0.03 0.03 0.13 0.17 0.15 0.08 0.02 0.01 0.01 0.03 0.15 0.40 0.54 0.31
0.18 0.65 0.40 0.74 0.56 0.85 0.95 0.96 0.71 0.31 0.19 0.15 0.09 0.02 0.03 0.01 0.00 0.00 0.00 0.00 0.01 0.00 0.00 0.00 0.01 0.05 0.03 0.12 0.19 0.14 0.09 0.01 0.02 0.02 0.02 0.00 0.03 0.13 0.22 0.09 0.04 0.03 0.03 0.11 0.14 0.24 0.33 0.34 0.11
0.04 0.24 0.16 0.35 0.33 0.78 0.73 0.57 0.64 0.44 0.33 0.10 0.06 0.05 0.01 0.00 0.00 0.00 0.00 0.01 0.03 0.02 0.00 0.00 0.00 0.03 0.05 0.12 0.13 0.07 0.02 0.04 0.02 0.02 0.09 0.21 0.07 0.10 0.08 0.07 0.09 0.11 0.11 0.12 0.14 0.18 0.20 0.33 0.21
0.04 0.28 0.09 0.13 0.10 0.56 0.52 0.71 0.59 0.25 0.10 0.10 0.10 0.07 0.00 0.00 0.00 0.00 0.00 0.01 0.03 0.03 0.01 0.00 0.01 0.03 0.19 0.15 0.12 0.03 0.08 0.04 0.01 0.07 0.20 0.38 0.05 0.01 0.08 0.07 0.05 0.09 0.10 0.01 0.04 0.13 0.23 0.22 0.12
0.27 0.37 0.06 0.05 0.03 0.33 1.36 0.69 0.47 0.11 0.23 0.16 0.15 0.05 0.01 0.00 0.00 0.00 0.00 0.00 0.00 0.01 0.01 0.00 0.01 0.00 0.01 0.03 0.07 0.00 0.01 0.03 0.04 0.06 0.23 0.16 0.03 0.02 0.02 0.03 0.01 0.03 0.04 0.07 0.06 0.07 0.10 0.11 0.06
0.26 0.17 0.03 0.02 0.03 0.19 0.94 0.69 0.22 0.15 0.12 0.14 0.09 0.05 0.00 0.00 0.00 0.00 0.00 0.00 0.00 0.00 0.00 0.00 0.01 0.01 0.02 0.04 0.00 0.02 0.01 0.03 0.02 0.01 0.04 0.03 0.02 0.00 0.03 0.04 0.01 0.04 0.09 0.16 0.12 0.04 0.04 0.07 0.04
0.09 0.03 0.02 0.02 0.02 0.12 0.45 1.44 0.25 0.34 0.62 0.26 0.18 0.02 0.00 0.00 0.00 0.00 0.00 0.00 0.00 0.00 0.00 0.00 0.00 0.01 0.02 0.02 0.00 0.02 0.01 0.02 0.01 0.01 0.02 0.03 0.02 0.01 0.06 0.04 0.07 0.09 0.13 0.50 0.15 0.03 0.02 0.10 0.05
0.10 0.03 0.00 0.00 0.01 0.12 0.26 0.18 0.17 0.68 0.31 0.29 0.25 0.04 0.01 0.01 0.00 0.01 0.01 0.00 0.00 0.00 0.00 0.00 0.00 0.01 0.01 0.02 0.05 0.03 0.03 0.05 0.00 0.00 0.01 0.02 0.02 0.01 0.03 0.10 0.06 0.11 0.09 0.10 0.04 0.03 0.02 0.01 0.00
0.01 0.04 0.00 0.00 0.01 0.05 0.10 0.17 0.21 0.33 0.16 0.39 0.28 0.03 0.00 0.00 0.00 0.00 0.01 0.00 0.00 0.00 0.00 0.00 0.00 0.00 0.01 0.01 0.02 0.02 0.02 0.01 0.00 0.00 0.06 0.14 0.06 0.15 0.15 0.11 0.06 0.02 0.04 0.02 0.02 0.03 0.04 0.01 0.00
0.00 0.01 0.00 0.00 0.01 0.02 0.16 0.58 0.32 0.27 0.31 0.34 0.16 0.02 0.00 0.00 0.00 0.00 0.00 0.00 0.00 0.00 0.00 0.00 0.00 0.00 0.01 0.02 0.03 0.01 0.00 0.02 0.00 0.02 0.09 0.17 0.21 0.26 0.22 0.10 0.06 0.02 0.01 0.00 0.03 0.01 0.00 0.00 0.01
0.00 0.00 0.00 0.00 0.01 0.01 0.16 0.85 0.35 0.37 1.09 0.23 0.11 0.01 0.00 0.00 0.00 0.00 0.00 0.00 0.00 0.00 0.00 0.00 0.00 0.00 0.00 0.01 0.01 0.00 0.00 0.01 0.00 0.01 0.01 0.18 0.29 0.26 0.28 0.12 0.13 0.02 0.00 0.00 0.02 0.01 0.01 0.00 0.00
0.00 0.00 0.00 0.01 0.01 0.04 0.18 0.51 0.24 0.17 0.35 0.15 0.11 0.03 0.00 0.00 0.00 0.00 0.00 0.00 0.00 0.00 0.00 0.00 0.00 0.00 0.00 0.00 0.01 0.00 0.01 0.02 0.02 0.04 0.11 0.16 0.15 0.19 0.30 0.20 0.10 0.02 0.01 0.01 0.02 0.00 0.00 0.00 0.00
0.00 0.00 0.00 0.01 0.01 0.02 0.03 0.67 0.66 0.16 0.57 0.24 0.10 0.05 0.01 0.00 0.00 0.00 0.00 0.00 0.00 0.00 0.00 0.00 0.00 0.00 0.00 0.00 0.02 0.00 0.01 0.05 0.05 0.04 0.18 0.17 0.17 0.27 0.25 0.13 0.07 0.04 0.01 0.00 0.00 0.00 0.01 0.02 0.00
0.00 0.00 0.00 0.00 0.00 0.00 0.01 0.14 0.24 0.04 0.19 0.39 0.11 0.06 0.03 0.01 0.01 0.00 0.00 0.00 0.00 0.00 0.00 0.00 0.00 0.00 0.00 0.00 0.00 0.00 0.00 0.00 0.01 0.08 0.09 0.15 0.15 0.13 0.13 0.12 0.04 0.09 0.06 0.00 0.00 0.00 0.00 0.00 0.00
0.00 0.00 0.00 0.01 0.01 0.00 0.03 0.05 0.19 0.13 0.13 0.31 0.49 0.08 0.05 0.02 0.01 0.00 0.00 0.00 0.01 0.00 0.00 0.00 0.00 0.00 0.00 0.00 0.00 0.00 0.00 0.02 0.06 0.11 0.12 0.05 0.12 0.20 0.06 0.06 0.02 0.04 0.03 0.00 0.00 0.00 0.00 0.00 0.00
0.00 0.00 0.00 0.00 0.02 0.00 0.01 0.11 0.19 0.33 0.10 0.20 0.75 0.27 0.13 0.03 0.03 0.00 0.00 0.00 0.02 0.01 0.00 0.00 0.00 0.00 0.00 0.00 0.00 0.01 0.06 0.12 0.26 0.24 0.07 0.02 0.14 0.09 0.03 0.02 0.01 0.00 0.01 0.00 0.00 0.00 0.02 0.01 0.00
0.00 0.00 0.00 0.00 0.00 0.00 0.00 0.03 0.11 0.15 0.04 0.51 0.95 0.37 0.09 0.03 0.02 0.01 0.00 0.01 0.01 0.01 0.00 0.00 0.00 0.00 0.00 0.00 0.00 0.01 0.02 0.02 0.03 0.02 0.02 0.03 0.05 0.06 0.06 0.00 0.00 0.01 0.04 0.03 0.00 0.00 0.00 0.00 0.00
0.00 0.00 0.00 0.00 0.00 0.00 0.00 0.00 0.03 0.10 0.14 0.25 0.81 0.26 0.08 0.01 0.00 0.01 0.01 0.00 0.01 0.00 0.00 0.00 0.00 0.00 0.00 0.00 0.03 0.01 0.01 0.16 0.13 0.04 0.24 0.16 0.08 0.07 0.08 0.05 0.07 0.04 0.05 0.04 0.01 0.00 0.00 0.00 0.00
0.00 0.00 0.00 0.00 0.00 0.00 0.00 0.00 0.01 0.24 0.35 0.19 0.06 0.13 0.22 0.06 0.03 0.03 0.00 0.01 0.00 0.00 0.00 0.00 0.00 0.00 0.00 0.00 0.01 0.02 0.04 0.20 0.23 0.16 0.19 0.10 0.04 0.10 0.05 0.05 0.15 0.15 0.14 0.07 0.02 0.00 0.02 0.01 0.00
0.00 0.00 0.00 0.00 0.00 0.00 0.00 0.00 0.00 0.06 0.44 0.36 0.02 0.05 0.12 0.10 0.08 0.03 0.01 0.01 0.00 0.00 0.00 0.00 0.00 0.00 0.00 0.00 0.00 0.00 0.02 0.07 0.23 0.33 0.04 0.02 0.03 0.01 0.05 0.12 0.22 0.13 0.10 0.10 0.06 0.04 0.01 0.01 0.00
0.00 0.00 0.00 0.00 0.00 0.00 0.00 0.00 0.00 0.00 0.02 0.06 0.01 0.02 0.05 0.08 0.11 0.16 0.01 0.02 0.00 0.00 0.00 0.00 0.00 0.00 0.00 0.00 0.01 0.02 0.02 0.02 0.02 0.13 0.01 0.04 0.07 0.04 0.13 0.15 0.13 0.08 0.02 0.02 0.07 0.04 0.02 0.01 0.00
0.00 0.00 0.00 0.00 0.00 0.00 0.00 0.00 0.00 0.00 0.00 0.00 0.01 0.01 0.08 0.27 0.29 0.18 0.04 0.02 0.06 0.00 0.00 0.00 0.00 0.00 0.00 0.00 0.00 0.00 0.00 0.00 0.01 0.01 0.00 0.00 0.03 0.11 0.19 0.13 0.09 0.07 0.07 0.05 0.07 0.05 0.06 0.05 0.00
0.00 0.00 0.00 0.00 0.00 0.00 0.00 0.00 0.00 0.00 0.00 0.00 0.00 0.00 0.02 0.29 0.86 0.92 0.37 0.16 0.12 0.04 0.01 0.00 0.00 0.00 0.00 0.00 0.00 0.00 0.00 0.01 0.00 0.01 0.00 0.00 0.02 0.14 0.35 0.37 0.13 0.11 0.08 0.10 0.05 0.03 0.02 0.02 0.01
0.00 0.00 0.00 0.00 0.00 0.00 0.00 0.01 0.00 0.00 0.00 0.00 0.00 0.00 0.01 0.13 0.67 1.53 1.45 0.68 0.36 0.19 0.12 0.09 0.02 0.00 0.00 0.00 0.00 0.00 0.00 0.00 0.00 0.00 0.00 0.00 0.00 0.04 0.24 0.74 0.14 0.14 0.06 0.03 0.06 0.09 0.05 0.03 0.01
0.00 0.00 0.00 0.00 0.00 0.00 0.00 0.03 0.00 0.00 0.00 0.00 0.02 0.02 0.02 0.12 0.32 0.73 1.30 1.25 0.94 0.50 0.30 0.27 0.14 0.04 0.01 0.00 0.01 0.00 0.00 0.00 0.00 0.00 0.00 0.00 0.00 0.01 0.06 0.10 0.12 0.12 0.04 0.07 0.10 0.09 0.04 0.06 0.01

GFSSGP_prec_precacc24_081.txt.gz
Total_Precipitation_Accumulation
0.00 0.00 0.00 0.00 0.03 0.39 1.28 0.68 0.98 0.58 0.10 0.06 0.01 0.00 0.00 0.03 0.08 0.13 0.00 0.00 0.00 0.00 0.00 0.03 0.08 0.03 0.06 0.03 0.03 0.02 0.03 0.04 0.12 0.04 0.03 0.04 0.03 0.05 0.09 0.04 0.07 0.07 0.09 0.08 0.06 0.07 0.17 0.10 0.09
0.00 0.00 0.00 0.02 0.07 0.76 1.26 1.03 1.22 0.67 0.23 0.16 0.02 0.01 0.06 0.03 0.09 0.01 0.00 0.00 0.00 0.00 0.00 0.00 0.06 0.07 0.11 0.05 0.02 0.03 0.08 0.07 0.12 0.06 0.10 0.07 0.11 0.11 0.10 0.08 0.09 0.11 0.19 0.20 0.09 0.09 0.12 0.08 0.15
0.00 0.00 0.06 0.16 0.16 0.86 0.81 1.15 1.50 0.78 0.22 0.12 0.05 0.13 0.11 0.14 0.06 0.00 0.00 0.00 0.00 0.00 0.00 0.00 0.03 0.05 0.06 0.07 0.02 0.04 0.08 0.10 0.09 0.06 0.05 0.07 0.07 0.05 0.09 0.09 0.06 0.09 0.08 0.13 0.14 0.11 0.09 0.16 0.21
0.00 0.13 0.22 0.40 0.72 1.06 0.85 0.75 0.70 1.10 0.60 0.34 0.20 0.16 0.17 0.18 0.01 0.00 0.00 0.00 0.00 0.00 0.00 0.00 0.02 0.01 0.02 0.03 0.04 0.07 0.06 0.09 0.09 0.10 0.07 0.05 0.09 0.07 0.08 0.09 0.09 0.06 0.07 0.08 0.05 0.07 0.15 0.23 0.30
0.03 0.37 0.70 0.86 1.12 0.79 0.76 0.63 1.70 2.36 1.15 0.76 0.16 0.05 0.07 0.05 0.00 0.00 0.00 0.00 0.00 0.01 0.00 0.01 0.10 0.06 0.04 0.08 0.18 0.16 0.06 0.05 0.11 0.06 0.06 0.07 0.08 0.08 0.18 0.10 0.20 0.13 0.06 0.03 0.02 0.06 0.22 0.26 0.34
0.12 0.38 0.70 0.65 0.65 0.51 0.90 0.84 1.51 0.99 0.25 0.15 0.19 0.06 0.02 0.01 0.00 0.00 0.00 0.00 0.01 0.01 0.00 0.00 0.07 0.06 0.04 0.06 0.16 0.11 0.04 0.05 0.06 0.02 0.07 0.03 0.03 0.13 0.17 0.15 0.08 0.02 0.01 0.01 0.03 0.15 0.40 0.54 0.31
0.26 0.78 0.42 0.68 0.50 0.70 0.82 0.69 0.68 0.34 0.19 0.13 0.06 0.02 0.03 0.00 0.00 0.00 0.00 0.00 0.01 0.00 0.00 0.00 0.01 0.05 0.03 0.12 0.19 0.14 0.09 0.02 0.02 0.02 0.02 0.01 0.03 0.14 0.22 0.09 0.04 0.03 0.03 0.11 0.14 0.24 0.33 0.34 0.11
0.09 0.41 0.27 0.37 0.32 0.57 0.66 0.52 0.62 0.45 0.34 0.09 0.07 0.04 0.01 0.00 0.00 0.01 0.00 0.02 0.03 0.02 0.00 0.00 0.00 0.03 0.05 0.12 0.13 0.07 0.03 0.04 0.02 0.02 0.11 0.22 0.07 0.10 0.08 0.06 0.09 0.11 0.11 0.12 0.14 0.18 0.20 0.33 0.21
0.11 0.48 0.13 0.12 0.08 0.29 0.23 0.64 0.62 0.38 0.17 0.17 0.12 0.01 0.00 0.00 0.00 0.00 0.01 0.02 0.04 0.05 0.02 0.00 0.01 0.03 0.19 0.15 0.12 0.03 0.10 0.16 0.14 0.18 0.24 0.43 0.07 0.02 0.08 0.07 0.05 0.09 0.10 0.01 0.04 0.13 0.23 0.22 0.12
0.87 0.45 0.11 0.07 0.03 0.17 0.21 0.48 0.49 0.40 0.28 0.18 0.14 0.01 0.00 0.00 0.00 0.00 0.00 0.00 0.01 0.03 0.04 0.01 0.01 0.00 0.01 0.03 0.07 0.00 0.02 0.07 0.13 0.22 0.34 0.16 0.06 0.01 0.02 0.03 0.01 0.03 0.03 0.09 0.08 0.09 0.10 0.11 0.06
1.02 0.30 0.10 0.03 0.01 0.12 0.35 0.34 0.29 0.40 0.18 0.13 0.05 0.01 0.00 0.00 0.00 0.00 0.00 0.00 0.00 0.00 0.00 0.01 0.01 0.01 0.02 0.04 0.00 0.00 0.00 0.04 0.04 0.01 0.02 0.03 0.04 0.02 0.06 0.08 0.03 0.02 0.08 0.15 0.18 0.16 0.08 0.01 0.00
0.21 0.12 0.07 0.07 0.02 0.09 0.19 0.63 0.23 0.58 0.21 0.14 0.13 0.01 0.00 0.00 0.00 0.00 0.00 0.00 0.00 0.00 0.00 0.00 0.00 0.01 0.02 0.02 0.01 0.00 0.00 0.01 0.01 0.00 0.02 0.01 0.02 0.13 0.17 0.14 0.09 0.04 0.11 0.48 0.14 0.05 0.02 0.05 0.02
0.17 0.09 0.02 0.04 0.03 0.05 0.21 0.14 0.13 0.33 0.14 0.19 0.20 0.04 0.01 0.01 0.00 0.01 0.01 0.00 0.00 0.00 0.00 0.00 0.00 0.01 0.02 0.00 0.02 0.01 0.00 0.00 0.00 0.01 0.02 0.06 0.05 0.03 0.06 0.15 0.15 0.12 0.10 0.10 0.05 0.03 0.01 0.00 0.00
0.08 0.09 0.03 0.04 0.02 0.05 0.09 0.19 0.23 0.29 0.14 0.36 0.24 0.03 0.00 0.00 0.00 0.00 0.01 0.00 0.00 0.00 0.00 0.00 0.00 0.00 0.00 0.00 0.01 0.02 0.01 0.00 0.00 0.01 0.05 0.07 0.05 0.14 0.12 0.11 0.12 0.03 0.09 0.06 0.04 0.02 0.01 0.00 0.00
0.02 0.09 0.03 0.01 0.01 0.02 0.16 0.70 0.34 0.21 0.25 0.32 0.15 0.02 0.00 0.00 0.00 0.00 0.00 0.00 0.00 0.00 0.00 0.00 0.00 0.00 0.00 0.00 0.00 0.01 0.00 0.02 0.01 0.03 0.17 0.21 0.16 0.18 0.21 0.09 0.08 0.06 0.03 0.01 0.08 0.03 0.00 0.00 0.01
0.00 0.01 0.02 0.00 0.01 0.01 0.17 0.97 0.49 0.19 0.29 0.21 0.11 0.01 0.00 0.00 0.00 0.00 0.00 0.00 0.00 0.00 0.00 0.00 0.00 0.00 0.00 0.00 0.01 0.00 0.01 0.02 0.02 0.10 0.06 0.19 0.31 0.24 0.25 0.12 0.08 0.02 0.03 0.02 0.06 0.06 0.03 0.00 0.00
0.00 0.00 0.00 0.03 0.01 0.04 0.17 0.58 0.85 0.13 0.14 0.10 0.11 0.03 0.00 0.00 0.00 0.00 0.00 0.00 0.00 0.00 0.00 0.00 0.00 0.00 0.00 0.00 0.01 0.00 0.02 0.04 0.06 0.11 0.22 0.20 0.15 0.19 0.27 0.13 0.05 0.01 0.01 0.01 0.03 0.00 0.00 0.01 0.00
0.00 0.00 0.00 0.01 0.02 0.02 0.05 0.70 1.37 0.58 0.06 0.09 0.10 0.05 0.01 0.00 0.00 0.00 0.00 0.00 0.00 0.00 0.00 0.00 0.00 0.00 0.00 0.00 0.02 0.01 0.02 0.08 0.10 0.09 0.29 0.22 0.20 0.26 0.23 0.10 0.06 0.04 0.01 0.00 0.01 0.00 0.01 0.03 0.00
0.00 0.00 0.00 0.01 0.01 0.03 0.10 0.19 0.57 0.29 0.05 0.01 0.02 0.04 0.03 0.01 0.00 0.00 0.00 0.00 0.00 0.00 0.00 0.00 0.00 0.00 0.00 0.00 0.00 0.00 0.01 0.01 0.06 0.16 0.22 0.23 0.22 0.14 0.11 0.09 0.04 0.12 0.06 0.00 0.00 0.00 0.00 0.00 0.00
0.00 0.00 0.00 0.02 0.02 0.04 0.08 0.06 0.19 0.13 0.10 0.02 0.10 0.05 0.05 0.02 0.01 0.00 0.00 0.00 0.01 0.00 0.00 0.00 0.00 0.00 0.00 0.00 0.00 0.00 0.01 0.04 0.10 0.23 0.25 0.08 0.17 0.21 0.05 0.08 0.01 0.07 0.04 0.00 0.00 0.00 0.00 0.00 0.00
0.00 0.00 0.00 0.00 0.02 0.04 0.07 0.17 0.25 0.36 0.10 0.05 0.54 0.19 0.10 0.03 0.03 0.00 0.00 0.00 0.02 0.01 0.00 0.00 0.00 0.00 0.00 0.00 0.00 0.03 0.09 0.18 0.34 0.29 0.12 0.05 0.14 0.10 0.03 0.01 0.02 0.00 0.00 0.00 0.00 0.00 0.02 0.01 0.00
0.00 0.00 0.00 0.00 0.00 0.00 0.02 0.08 0.19 0.18 0.03 0.10 0.20 0.23 0.04 0.01 0.02 0.01 0.00 0.01 0.01 0.01 0.00 0.00 0.00 0.00 0.00 0.00 0.01 0.02 0.04 0.06 0.06 0.06 0.08 0.06 0.05 0.06 0.06 0.01 0.02 0.01 0.04 0.03 0.00 0.00 0.00 0.00 0.00
0.00 0.00 0.00 0.00 0.00 0.00 0.00 0.01 0.04 0.17 0.40 0.37 0.16 0.09 0.06 0.01 0.02 0.01 0.01 0.00 0.01 0.00 0.00 0.00 0.00 0.00 0.00 0.00 0.04 0.02 0.01 0.17 0.15 0.09 0.37 0.17 0.09 0.08 0.08 0.05 0.07 0.03 0.05 0.04 0.01 0.00 0.00 0.00 0.00
0.00 0.00 0.00 0.00 0.00 0.00 0.00 0.00 0.02 0.28 0.46 0.55 0.34 0.11 0.14 0.07 0.07 0.04 0.02 0.01 0.00 0.00 0.00 0.00 0.00 0.00 0.00 0.00 0.01 0.03 0.04 0.21 0.26 0.20 0.26 0.11 0.05 0.10 0.04 0.05 0.16 0.15 0.14 0.07 0.02 0.00 0.01 0.01 0.00
0.00 0.00 0.00 0.00 0.00 0.00 0.00 0.00 0.02 0.08 0.49 0.57 0.45 0.14 0.09 0.08 0.13 0.05 0.01 0.02 0.01 0.00 0.00 0.00 0.00 0.00 0.00 0.00 0.00 0.04 0.05 0.11 0.27 0.34 0.04 0.06 0.14 0.07 0.07 0.14 0.24 0.13 0.10 0.10 0.06 0.05 0.01 0.01 0.00
0.00 0.00 0.00 0.00 0.00 0.00 0.00 0.00 0.00 0.00 0.02 0.09 0.06 0.06 0.14 0.11 0.16 0.24 0.10 0.03 0.01 0.03 0.00 0.00 0.00 0.00 0.00 0.00 0.01 0.03 0.07 0.05 0.04 0.15 0.05 0.11 0.16 0.07 0.14 0.17 0.16 0.10 0.02 0.02 0.07 0.04 0.02 0.01 0.00
0.00 0.00 0.00 0.00 0.00 0.00 0.00 0.00 0.02 0.04 0.05 0.02 0.04 0.06 0.08 0.32 0.41 0.29 0.13 0.06 0.08 0.06 0.00 0.00 0.00 0.00 0.00 0.00 0.01 0.01 0.01 0.02 0.02 0.04 0.05 0.02 0.08 0.12 0.20 0.15 0.13 0.10 0.09 0.05 0.07 0.05 0.06 0.05 0.00
0.00 0.00 0.00 0.00 0.00 0.00 0.02 0.03 0.09 0.08 0.06 0.05 0.01 0.00 0.03 0.21 0.96 1.25 0.82 0.30 0.19 0.16 0.06 0.09 0.04 0.01 0.01 0.00 0.01 0.03 0.01 0.03 0.03 0.05 0.03 0.01 0.05 0.21 0.41 0.44 0.16 0.14 0.10 0.10 0.05 0.04 0.03 0.02 0.01
0.00 0.00 0.00 0.00 0.00 0.00 0.03 0.07 0.08 0.10 0.05 0.01 0.00 0.00 0.02 0.16 0.57 1.37 1.73 1.41 0.56 0.39 0.21 0.33 0.33 0.24 0.11 0.04 0.05 0.05 0.05 0.02 0.02 0.03 0.02 0.04 0.07 0.12 0.27 0.80 0.15 0.16 0.09 0.04 0.06 0.09 0.05 0.03 0.01
0.00 0.00 0.00 0.00 0.00 0.00 0.02 0.06 0.05 0.08 0.02 0.00 0.02 0.02 0.02 0.14 0.36 0.47 0.98 1.27 1.23 0.97 0.54 0.62 0.99 0.42 0.23 0.16 0.16 0.09 0.05 0.05 0.07 0.02 0.01 0.00 0.02 0.03 0.08 0.11 0.12 0.13 0.05 0.10 0.13 0.10 0.04 0.07 0.01

GFSSGP_prec_precacc24_084.txt.gz
Total_Precipitation_Accumulation
0.00 0.00 0.00 0.00 0.04 0.60 1.60 0.69 0.95 0.46 0.12 0.06 0.02 0.00 0.00 0.03 0.08 0.13 0.00 0.00 0.00 0.00 0.00 0.04 0.09 0.03 0.05 0.03 0.01 0.01 0.03 0.04 0.11 0.04 0.03 0.04 0.04 0.05 0.08 0.05 0.08 0.08 0.11 0.09 0.06 0.06 0.17 0.12 0.13
0.00 0.00 0.00 0.02 0.07 1.06 1.83 0.78 0.92 0.72 0.27 0.17 0.05 0.01 0.05 0.03 0.09 0.01 0.00 0.00 0.00 0.00 0.00 0.00 0.06 0.05 0.11 0.04 0.01 0.02 0.08 0.07 0.12 0.06 0.10 0.06 0.08 0.11 0.11 0.07 0.09 0.12 0.19 0.19 0.09 0.09 0.12 0.09 0.17
0.00 0.00 0.06 0.19 0.27 1.30 0.86 0.91 1.25 0.84 0.24 0.12 0.05 0.13 0.10 0.14 0.06 0.00 0.00 0.00 0.00 0.00 0.00 0.00 0.03 0.03 0.05 0.06 0.02 0.04 0.08 0.10 0.09 0.06 0.05 0.06 0.06 0.05 0.10 0.09 0.07 0.09 0.08 0.13 0.14 0.11 0.09 0.16 0.24
0.00 0.12 0.25 0.63 0.96 2.00 0.92 0.70 0.77 0.84 0.48 0.28 0.16 0.16 0.17 0.18 0.01 0.00 0.00 0.00 0.00 0.00 0.00 0.00 0.02 0.01 0.02 0.03 0.03 0.07 0.06 0.09 0.09 0.09 0.06 0.06 0.09 0.07 0.08 0.10 0.09 0.06 0.07 0.08 0.05 0.07 0.15 0.24 0.34
0.04 0.37 0.70 0.93 1.13 0.81 0.55 0.53 1.71 1.95 0.91 0.53 0.09 0.05 0.07 0.05 0.00 0.00 0.00 0.00 0.00 0.01 0.00 0.01 0.10 0.06 0.03 0.07 0.18 0.16 0.06 0.05 0.11 0.07 0.07 0.08 0.08 0.08 0.18 0.10 0.20 0.14 0.06 0.03 0.02 0.06 0.25 0.31 0.41
0.14 0.38 0.71 0.79 0.63 0.42 0.27 0.54 1.41 0.97 0.19 0.11 0.18 0.06 0.03 0.01 0.00 0.00 0.00 0.00 0.01 0.01 0.00 0.00 0.06 0.06 0.04 0.06 0.16 0.10 0.04 0.07 0.06 0.02 0.07 0.03 0.03 0.14 0.17 0.15 0.08 0.02 0.01 0.01 0.03 0.15 0.41 0.58 0.37
0.28 0.78 0.45 0.66 0.42 0.47 0.45 0.49 0.53 0.27 0.15 0.13 0.06 0.02 0.03 0.00 0.00 0.00 0.00 0.00 0.01 0.00 0.00 0.00 0.01 0.05 0.03 0.12 0.19 0.14 0.09 0.03 0.02 0.02 0.02 0.01 0.03 0.14 0.22 0.09 0.04 0.03 0.03 0.11 0.14 0.24 0.32 0.35 0.11
0.12 0.43 0.31 0.37 0.32 0.36 0.32 0.31 0.45 0.33 0.26 0.09 0.07 0.04 0.02 0.00 0.00 0.01 0.00 0.02 0.03 0.02 0.00 0.00 0.00 0.03 0.05 0.12 0.13 0.07 0.03 0.04 0.02 0.03 0.11 0.22 0.07 0.09 0.08 0.06 0.09 0.11 0.11 0.12 0.14 0.17 0.18 0.30 0.16
0.16 0.57 0.18 0.18 0.07 0.18 0.08 0.45 0.54 0.36 0.14 0.16 0.11 0.01 0.00 0.00 0.00 0.01 0.01 0.02 0.04 0.05 0.02 0.00 0.01 0.03 0.19 0.15 0.12 0.03 0.10 0.17 0.15 0.17 0.23 0.43 0.07 0.03 0.08 0.06 0.04 0.09 0.10 0.01 0.04 0.12 0.20 0.20 0.09
0.96 0.50 0.14 0.13 0.05 0.14 0.18 0.39 0.55 0.46 0.31 0.22 0.10 0.01 0.00 0.00 0.00 0.00 0.00 0.00 0.01 0.03 0.04 0.01 0.01 0.00 0.01 0.03 0.07 0.00 0.02 0.06 0.12 0.21 0.34 0.16 0.06 0.02 0.02 0.03 0.01 0.03 0.03 0.09 0.08 0.09 0.10 0.11 0.06
1.08 0.39 0.13 0.04 0.01 0.02 0.19 0.22 0.34 0.48 0.32 0.16 0.02 0.00 0.00 0.00 0.00 0.00 0.00 0.00 0.00 0.00 0.00 0.01 0.01 0.01 0.02 0.04 0.00 0.00 0.00 0.03 0.02 0.01 0.02 0.02 0.04 0.03 0.08 0.13 0.10 0.07 0.08 0.15 0.18 0.16 0.08 0.01 0.00
0.22 0.23 0.20 0.10 0.01 0.01 0.01 0.11 0.23 0.74 0.27 0.10 0.05 0.00 0.00 0.00 0.00 0.00 0.00 0.00 0.00 0.00 0.00 0.01 0.00 0.01 0.02 0.02 0.01 0.00 0.00 0.00 0.00 0.00 0.02 0.01 0.02 0.13 0.19 0.15 0.10 0.04 0.11 0.48 0.14 0.05 0.02 0.03 0.01
0.21 0.13 0.18 0.07 0.03 0.01 0.11 0.11 0.13 0.32 0.16 0.11 0.09 0.02 0.01 0.01 0.00 0.01 0.01 0.00 0.00 0.00 0.01 0.01 0.00 0.01 0.02 0.00 0.00 0.00 0.00 0.00 0.00 0.01 0.04 0.07 0.04 0.03 0.07 0.15 0.15 0.12 0.10 0.11 0.05 0.03 0.01 0.00 0.00
0.11 0.11 0.26 0.23 0.12 0.06 0.12 0.20 0.23 0.30 0.14 0.27 0.19 0.03 0.00 0.00 0.00 0.00 0.01 0.00 0.00 0.00 0.00 0.00 0.00 0.00 0.00 0.00 0.00 0.00 0.01 0.00 0.00 0.01 0.05 0.07 0.05 0.13 0.11 0.11 0.09 0.03 0.09 0.06 0.05 0.02 0.01 0.00 0.00
0.04 0.09 0.06 0.07 0.11 0.08 0.13 0.57 0.32 0.20 0.23 0.27 0.13 0.02 0.00 0.00 0.00 0.00 0.00 0.00 0.00 0.00 0.00 0.00 0.00 0.00 0.00 0.00 0.00 0.01 0.00 0.02 0.01 0.04 0.19 0.22 0.16 0.16 0.17 0.07 0.08 0.09 0.04 0.01 0.09 0.03 0.00 0.00 0.01
0.05 0.02 0.05 0.02 0.02 0.02 0.19 1.01 0.62 0.24 0.25 0.17 0.10 0.01 0.00 0.00 0.00 0.00 0.00 0.00 0.00 0.00 0.00 0.00 0.00 0.00 0.00 0.00 0.01 0.00 0.01 0.02 0.03 0.11 0.07 0.19 0.33 0.21 0.24 0.11 0.09 0.05 0.05 0.04 0.06 0.06 0.03 0.00 0.00
0.00 0.00 0.01 0.06 0.03 0.05 0.21 0.68 1.37 0.25 0.12 0.12 0.10 0.03 0.00 0.00 0.00 0.00 0.00 0.00 0.00 0.00 0.00 0.00 0.00 0.00 0.00 0.00 0.00 0.00 0.02 0.04 0.07 0.13 0.24 0.19 0.17 0.20 0.29 0.16 0.06 0.01 0.02 0.01 0.03 0.00 0.00 0.01 0.00
0.00 0.00 0.00 0.03 0.05 0.13 0.14 0.73 1.45 0.68 0.12 0.11 0.09 0.04 0.01 0.00 0.00 0.00 0.00 0.00 0.00 0.00 0.00 0.00 0.00 0.00 0.00 0.00 0.02 0.01 0.02 0.08 0.10 0.10 0.31 0.32 0.24 0.25 0.26 0.11 0.07 0.04 0.01 0.00 0.01 0.01 0.01 0.03 0.00
0.00 0.00 0.00 0.01 0.03 0.10 0.19 0.22 0.56 0.27 0.05 0.03 0.02 0.02 0.02 0.01 0.00 0.00 0.00 0.00 0.00 0.00 0.00 0.00 0.00 0.00 0.00 0.00 0.00 0.00 0.04 0.01 0.07 0.14 0.25 0.33 0.26 0.16 0.16 0.10 0.06 0.12 0.07 0.00 0.01 0.01 0.00 0.00 0.00
0.00 0.00 0.00 0.02 0.02 0.04 0.18 0.14 0.19 0.13 0.15 0.08 0.01 0.03 0.02 0.02 0.01 0.00 0.00 0.00 0.01 0.00 0.00 0.00 0.00 0.00 0.00 0.00 0.01 0.01 0.02 0.05 0.12 0.21 0.24 0.14 0.18 0.21 0.07 0.09 0.02 0.07 0.04 0.01 0.01 0.00 0.00 0.00 0.00
0.00 0.00 0.00 0.00 0.02 0.04 0.10 0.12 0.16 0.27 0.15 0.12 0.03 0.02 0.05 0.02 0.04 0.00 0.00 0.00 0.02 0.01 0.00 0.00 0.00 0.00 0.00 0.00 0.01 0.04 0.10 0.19 0.38 0.29 0.12 0.06 0.15 0.12 0.10 0.02 0.02 0.01 0.01 0.01 0.01 0.01 0.02 0.01 0.00
0.00 0.00 0.00 0.00 0.00 0.00 0.04 0.10 0.18 0.20 0.10 0.13 0.06 0.01 0.02 0.02 0.04 0.03 0.00 0.01 0.01 0.01 0.00 0.00 0.00 0.00 0.00 0.00 0.01 0.02 0.05 0.07 0.06 0.06 0.09 0.06 0.06 0.07 0.10 0.04 0.04 0.02 0.04 0.03 0.00 0.01 0.00 0.00 0.00
0.00 0.00 0.00 0.00 0.00 0.00 0.00 0.03 0.04 0.27 0.51 0.50 0.22 0.08 0.09 0.03 0.06 0.04 0.02 0.01 0.01 0.00 0.00 0.00 0.00 0.00 0.00 0.00 0.04 0.02 0.01 0.18 0.16 0.10 0.44 0.18 0.10 0.09 0.09 0.06 0.08 0.03 0.05 0.04 0.01 0.00 0.00 0.00 0.00
0.00 0.00 0.00 0.00 0.00 0.00 0.00 0.00 0.02 0.29 0.47 0.63 0.41 0.18 0.19 0.08 0.09 0.06 0.03 0.01 0.01 0.00 0.00 0.00 0.00 0.00 0.00 0.00 0.01 0.03 0.04 0.21 0.28 0.22 0.37 0.17 0.06 0.11 0.06 0.05 0.16 0.15 0.14 0.07 0.02 0.01 0.01 0.01 0.00
0.00 0.00 0.00 0.00 0.00 0.00 0.00 0.00 0.02 0.08 0.49 0.58 0.46 0.15 0.09 0.07 0.14 0.06 0.02 0.02 0.01 0.00 0.00 0.00 0.00 0.00 0.00 0.00 0.00 0.04 0.05 0.11 0.27 0.37 0.05 0.07 0.14 0.06 0.07 0.14 0.25 0.13 0.10 0.10 0.06 0.05 0.01 0.01 0.00
0.00 0.00 0.00 0.00 0.00 0.00 0.00 0.00 0.00 0.02 0.11 0.18 0.09 0.04 0.11 0.12 0.16 0.26 0.13 0.04 0.02 0.06 0.00 0.00 0.00 0.00 0.00 0.00 0.01 0.03 0.07 0.06 0.05 0.15 0.05 0.11 0.18 0.08 0.14 0.17 0.17 0.12 0.02 0.02 0.07 0.04 0.02 0.01 0.00
0.00 0.00 0.00 0.00 0.00 0.00 0.00 0.00 0.02 0.07 0.13 0.03 0.04 0.06 0.07 0.32 0.40 0.32 0.18 0.11 0.16 0.13 0.02 0.00 0.00 0.00 0.00 0.00 0.01 0.01 0.01 0.02 0.02 0.04 0.07 0.03 0.10 0.12 0.21 0.15 0.13 0.10 0.10 0.05 0.07 0.05 0.06 0.05 0.00
0.00 0.00 0.00 0.00 0.00 0.00 0.07 0.07 0.12 0.10 0.08 0.06 0.02 0.01 0.04 0.24 0.97 1.36 0.97 0.40 0.20 0.24 0.15 0.17 0.07 0.01 0.02 0.01 0.02 0.03 0.02 0.03 0.03 0.06 0.03 0.03 0.05 0.21 0.41 0.44 0.16 0.14 0.10 0.10 0.05 0.04 0.03 0.02 0.01
0.00 0.00 0.00 0.00 0.00 0.00 0.05 0.10 0.12 0.15 0.10 0.05 0.04 0.04 0.05 0.25 0.66 1.46 1.84 1.64 0.72 0.51 0.45 0.69 0.55 0.42 0.26 0.16 0.13 0.11 0.08 0.03 0.02 0.03 0.03 0.06 0.07 0.13 0.27 0.83 0.15 0.16 0.09 0.04 0.06 0.09 0.05 0.03 0.01
0.00 0.00 0.00 0.00 0.00 0.00 0.02 0.07 0.08 0.23 0.16 0.07 0.03 0.03 0.05 0.17 0.41 0.55 1.06 1.35 1.29 1.06 0.71 0.90 1.40 0.60 0.31 0.19 0.21 0.19 0.20 0.17 0.12 0.02 0.01 0.04 0.02 0.03 0.08 0.11 0.12 0.13 0.05 0.10 0.13 0.10 0.04 0.07 0.01

GFSSGP_prec_precacc24_087.txt.gz
Total_Precipitation_Accumulation
0.00 0.00 0.00 0.00 0.04 0.62 1.66 0.65 0.95 0.47 0.11 0.03 0.01 0.00 0.00 0.03 0.07 0.12 0.00 0.00 0.00 0.00 0.00 0.04 0.09 0.02 0.04 0.04 0.01 0.05 0.05 0.05 0.12 0.04 0.03 0.05 0.05 0.06 0.09 0.06 0.11 0.12 0.11 0.07 0.04 0.06 0.19 0.14 0.14
0.00 0.00 0.00 0.01 0.07 1.21 1.99 0.70 0.72 0.65 0.27 0.13 0.04 0.01 0.02 0.02 0.04 0.00 0.00 0.00 0.00 0.00 0.00 0.00 0.05 0.05 0.13 0.07 0.02 0.04 0.11 0.11 0.14 0.07 0.10 0.06 0.10 0.12 0.13 0.08 0.10 0.14 0.20 0.20 0.09 0.10 0.14 0.11 0.17
0.00 0.00 0.06 0.20 0.31 1.39 0.88 0.89 1.13 0.67 0.23 0.09 0.02 0.09 0.05 0.07 0.02 0.00 0.00 0.00 0.00 0.00 0.00 0.00 0.04 0.05 0.07 0.08 0.03 0.05 0.08 0.10 0.11 0.09 0.07 0.13 0.08 0.07 0.10 0.09 0.08 0.10 0.09 0.13 0.16 0.13 0.13 0.17 0.24
0.00 0.13 0.29 0.83 1.46 1.95 0.72 0.66 0.76 0.79 0.36 0.15 0.06 0.08 0.08 0.08 0.00 0.00 0.00 0.00 0.00 0.00 0.00 0.01 0.02 0.01 0.03 0.03 0.03 0.07 0.06 0.12 0.11 0.12 0.05 0.06 0.14 0.07 0.08 0.10 0.08 0.07 0.08 0.08 0.06 0.09 0.16 0.22 0.31
0.04 0.40 0.74 1.45 1.38 0.75 0.47 0.45 1.69 1.61 0.62 0.32 0.09 0.04 0.06 0.03 0.00 0.00 0.00 0.00 0.00 0.01 0.00 0.01 0.10 0.06 0.03 0.05 0.17 0.16 0.06 0.07 0.12 0.12 0.09 0.08 0.10 0.09 0.18 0.09 0.19 0.13 0.06 0.03 0.02 0.06 0.21 0.21 0.31
0.14 0.42 0.77 1.38 0.58 0.32 0.22 0.41 1.28 0.91 0.16 0.10 0.17 0.06 0.03 0.01 0.00 0.00 0.00 0.00 0.01 0.01 0.00 0.00 0.06 0.06 0.01 0.04 0.16 0.10 0.04 0.07 0.06 0.02 0.08 0.04 0.04 0.16 0.17 0.15 0.08 0.02 0.01 0.01 0.05 0.16 0.34 0.53 0.36
0.28 0.81 0.50 0.62 0.32 0.35 0.19 0.39 0.35 0.17 0.15 0.13 0.06 0.02 0.03 0.01 0.00 0.00 0.00 0.00 0.01 0.00 0.00 0.00 0.01 0.04 0.03 0.10 0.18 0.14 0.09 0.03 0.02 0.01 0.03 0.02 0.05 0.14 0.22 0.14 0.12 0.03 0.03 0.12 0.17 0.26 0.36 0.41 0.17
0.13 0.44 0.36 0.34 0.30 0.22 0.12 0.28 0.33 0.22 0.21 0.08 0.07 0.04 0.02 0.00 0.00 0.01 0.00 0.02 0.02 0.02 0.00 0.00 0.00 0.03 0.05 0.11 0.13 0.07 0.03 0.04 0.02 0.02 0.11 0.22 0.07 0.09 0.10 0.11 0.16 0.12 0.11 0.12 0.12 0.18 0.27 0.40 0.25
0.17 0.57 0.18 0.19 0.07 0.11 0.06 0.40 0.46 0.29 0.13 0.16 0.09 0.01 0.00 0.00 0.00 0.01 0.01 0.02 0.04 0.05 0.02 0.00 0.01 0.03 0.19 0.15 0.12 0.03 0.10 0.17 0.15 0.17 0.23 0.40 0.07 0.12 0.11 0.06 0.05 0.09 0.10 0.01 0.03 0.09 0.19 0.20 0.11
0.94 0.45 0.12 0.12 0.04 0.06 0.15 0.41 0.51 0.44 0.24 0.12 0.09 0.01 0.00 0.00 0.00 0.00 0.00 0.00 0.01 0.03 0.04 0.01 0.01 0.00 0.01 0.03 0.09 0.06 0.02 0.06 0.12 0.21 0.33 0.15 0.06 0.02 0.02 0.03 0.01 0.03 0.03 0.06 0.07 0.09 0.10 0.10 0.06
1.08 0.39 0.13 0.04 0.01 0.01 0.17 0.28 0.39 0.51 0.33 0.12 0.02 0.00 0.00 0.00 0.00 0.00 0.00 0.00 0.00 0.00 0.00 0.01 0.01 0.01 0.02 0.04 0.01 0.00 0.00 0.03 0.02 0.01 0.02 0.02 0.04 0.03 0.08 0.14 0.11 0.09 0.07 0.10 0.18 0.16 0.08 0.01 0.00
0.22 0.26 0.22 0.10 0.01 0.01 0.01 0.12 0.27 0.77 0.31 0.09 0.03 0.00 0.00 0.00 0.00 0.00 0.00 0.00 0.00 0.00 0.00 0.01 0.00 0.01 0.02 0.02 0.01 0.00 0.00 0.00 0.00 0.00 0.01 0.01 0.02 0.13 0.19 0.15 0.10 0.04 0.11 0.48 0.14 0.05 0.06 0.06 0.02
0.22 0.14 0.19 0.07 0.04 0.04 0.15 0.12 0.14 0.32 0.16 0.04 0.02 0.02 0.01 0.01 0.00 0.01 0.01 0.00 0.00 0.00 0.01 0.01 0.00 0.01 0.02 0.00 0.00 0.00 0.00 0.00 0.00 0.01 0.04 0.07 0.04 0.03 0.10 0.15 0.14 0.11 0.10 0.11 0.07 0.03 0.01 0.00 0.00
0.20 0.14 0.34 0.28 0.14 0.15 0.21 0.25 0.25 0.31 0.10 0.17 0.11 0.02 0.00 0.00 0.00 0.00 0.01 0.00 0.00 0.00 0.00 0.00 0.00 0.00 0.00 0.00 0.00 0.00 0.01 0.00 0.00 0.01 0.05 0.08 0.03 0.11 0.10 0.09 0.08 0.02 0.09 0.08 0.08 0.03 0.01 0.00 0.00
0.04 0.09 0.08 0.15 0.18 0.21 0.21 0.75 0.39 0.12 0.21 0.18 0.06 0.01 0.00 0.00 0.00 0.00 0.00 0.00 0.00 0.00 0.00 0.00 0.00 0.00 0.00 0.00 0.00 0.01 0.00 0.00 0.01 0.04 0.19 0.23 0.17 0.16 0.18 0.07 0.07 0.09 0.04 0.02 0.09 0.03 0.00 0.00 0.01
0.05 0.02 0.06 0.10 0.21 0.22 0.31 1.13 0.71 0.19 0.25 0.13 0.03 0.00 0.00 0.00 0.00 0.00 0.00 0.00 0.00 0.00 0.00 0.00 0.00 0.00 0.00 0.00 0.00 0.00 0.01 0.02 0.03 0.11 0.07 0.15 0.33 0.22 0.24 0.12 0.09 0.05 0.05 0.04 0.06 0.06 0.03 0.00 0.00
0.00 0.02 0.01 0.13 0.10 0.19 0.33 0.72 1.55 0.26 0.12 0.11 0.07 0.02 0.00 0.00 0.00 0.00 0.00 0.00 0.00 0.00 0.00 0.00 0.00 0.00 0.00 0.00 0.00 0.00 0.02 0.04 0.07 0.13 0.22 0.15 0.16 0.19 0.30 0.16 0.06 0.01 0.02 0.02 0.03 0.00 0.00 0.01 0.00
0.02 0.03 0.00 0.05 0.15 0.40 0.29 0.73 1.45 0.68 0.13 0.11 0.06 0.03 0.02 0.00 0.00 0.00 0.00 0.00 0.00 0.00 0.00 0.00 0.00 0.00 0.00 0.00 0.01 0.01 0.03 0.08 0.11 0.10 0.28 0.25 0.21 0.23 0.26 0.11 0.09 0.05 0.02 0.00 0.02 0.01 0.01 0.03 0.00
0.00 0.00 0.00 0.01 0.06 0.34 0.29 0.25 0.56 0.27 0.04 0.02 0.02 0.02 0.03 0.01 0.00 0.00 0.00 0.00 0.00 0.00 0.00 0.00 0.00 0.00 0.00 0.00 0.00 0.01 0.09 0.03 0.09 0.13 0.21 0.27 0.27 0.21 0.16 0.10 0.06 0.13 0.08 0.00 0.03 0.01 0.00 0.00 0.00
0.00 0.00 0.00 0.03 0.12 0.16 0.26 0.20 0.18 0.06 0.16 0.10 0.02 0.03 0.02 0.02 0.01 0.00 0.00 0.00 0.01 0.00 0.00 0.00 0.00 0.00 0.00 0.00 0.01 0.01 0.05 0.05 0.10 0.20 0.23 0.12 0.12 0.23 0.07 0.09 0.02 0.07 0.04 0.01 0.01 0.00 0.00 0.00 0.00
0.00 0.00 0.00 0.02 0.08 0.10 0.17 0.16 0.09 0.08 0.17 0.22 0.05 0.02 0.05 0.02 0.04 0.00 0.00 0.00 0.02 0.01 0.00 0.00 0.00 0.00 0.00 0.00 0.01 0.04 0.10 0.20 0.37 0.27 0.11 0.06 0.14 0.12 0.12 0.02 0.03 0.02 0.01 0.01 0.01 0.01 0.02 0.01 0.00
0.00 0.00 0.00 0.00 0.01 0.01 0.04 0.09 0.13 0.10 0.12 0.19 0.14 0.02 0.03 0.03 0.04 0.04 0.00 0.01 0.01 0.01 0.00 0.00 0.00 0.00 0.00 0.00 0.01 0.04 0.06 0.07 0.06 0.06 0.09 0.07 0.06 0.08 0.07 0.03 0.04 0.02 0.04 0.04 0.00 0.01 0.00 0.00 0.00
0.00 0.00 0.00 0.00 0.00 0.00 0.00 0.03 0.04 0.27 0.51 0.52 0.26 0.09 0.09 0.03 0.07 0.05 0.02 0.03 0.04 0.00 0.00 0.00 0.00 0.00 0.00 0.00 0.04 0.02 0.02 0.18 0.16 0.10 0.44 0.18 0.09 0.09 0.09 0.03 0.07 0.03 0.05 0.04 0.02 0.01 0.00 0.00 0.00
0.00 0.00 0.00 0.00 0.00 0.00 0.00 0.00 0.02 0.29 0.47 0.63 0.41 0.19 0.20 0.09 0.11 0.08 0.04 0.05 0.04 0.01 0.00 0.00 0.00 0.00 0.00 0.00 0.01 0.03 0.04 0.21 0.28 0.22 0.39 0.17 0.06 0.11 0.07 0.04 0.16 0.16 0.14 0.07 0.02 0.01 0.01 0.01 0.00
0.00 0.00 0.00 0.00 0.00 0.00 0.00 0.00 0.02 0.08 0.49 0.58 0.46 0.19 0.16 0.13 0.18 0.08 0.04 0.05 0.06 0.01 0.00 0.00 0.00 0.00 0.00 0.00 0.00 0.04 0.05 0.11 0.27 0.37 0.06 0.09 0.15 0.06 0.07 0.14 0.25 0.13 0.10 0.10 0.06 0.02 0.01 0.01 0.00
0.00 0.00 0.00 0.00 0.00 0.00 0.00 0.00 0.00 0.03 0.14 0.21 0.17 0.06 0.14 0.14 0.17 0.27 0.19 0.10 0.11 0.10 0.00 0.00 0.00 0.00 0.00 0.00 0.01 0.03 0.07 0.06 0.05 0.15 0.05 0.12 0.18 0.08 0.14 0.17 0.17 0.12 0.02 0.02 0.07 0.03 0.01 0.01 0.00
0.00 0.00 0.00 0.00 0.00 0.00 0.00 0.00 0.02 0.10 0.17 0.07 0.07 0.07 0.08 0.33 0.40 0.33 0.19 0.15 0.18 0.18 0.02 0.00 0.00 0.00 0.00 0.00 0.01 0.01 0.01 0.02 0.02 0.04 0.07 0.05 0.10 0.13 0.21 0.15 0.13 0.10 0.10 0.05 0.07 0.05 0.06 0.05 0.00
0.00 0.00 0.00 0.00 0.00 0.00 0.07 0.07 0.12 0.13 0.12 0.12 0.11 0.09 0.07 0.26 0.98 1.37 0.98 0.41 0.24 0.38 0.20 0.19 0.08 0.02 0.03 0.01 0.02 0.03 0.02 0.03 0.03 0.06 0.03 0.08 0.09 0.25 0.42 0.45 0.16 0.15 0.11 0.10 0.05 0.04 0.03 0.02 0.01
0.00 0.00 0.00 0.00 0.00 0.00 0.05 0.11 0.12 0.16 0.13 0.07 0.05 0.09 0.10 0.28 0.73 1.59 1.96 1.74 0.75 0.67 0.56 0.77 0.65 0.54 0.40 0.18 0.14 0.11 0.08 0.03 0.05 0.03 0.03 0.07 0.12 0.16 0.28 0.84 0.15 0.15 0.09 0.04 0.06 0.09 0.05 0.03 0.01
0.00 0.00 0.00 0.00 0.00 0.00 0.02 0.07 0.08 0.24 0.16 0.08 0.05 0.05 0.08 0.23 0.49 0.65 1.08 1.37 1.34 1.09 0.78 1.01 1.63 0.81 0.44 0.24 0.22 0.19 0.20 0.17 0.15 0.06 0.03 0.07 0.03 0.05 0.15 0.12 0.12 0.13 0.05 0.10 0.13 0.10 0.04 0.07 0.01

GFSSGP_prec_precacc24_090.txt.gz
Total_Precipitation_Accumulation
0.00 0.00 0.00 0.00 0.04 0.62 1.67 0.64 0.90 0.43 0.09 0.00 0.01 0.00 0.00 0.03 0.07 0.11 0.00 0.00 0.00 0.00 0.00 0.12 0.13 0.02 0.02 0.04 0.02 0.08 0.05 0.05 0.12 0.08 0.04 0.06 0.08 0.08 0.10 0.06 0.11 0.13 0.09 0.09 0.04 0.05 0.17 0.11 0.11
0.00 0.00 0.00 0.02 0.11 1.27 1.93 0.63 0.66 0.50 0.20 0.02 0.04 0.01 0.01 0.01 0.04 0.00 0.00 0.00 0.00 0.00 0.00 0.00 0.04 0.04 0.08 0.07 0.02 0.05 0.12 0.14 0.14 0.09 0.12 0.08 0.13 0.13 0.13 0.09 0.15 0.20 0.22 0.13 0.09 0.09 0.11 0.09 0.17
0.00 0.00 0.07 0.21 0.35 1.46 0.85 0.80 0.93 0.39 0.16 0.02 0.04 0.02 0.02 0.01 0.00 0.00 0.00 0.00 0.00 0.00 0.00 0.00 0.03 0.07 0.07 0.08 0.08 0.05 0.09 0.11 0.12 0.09 0.08 0.14 0.09 0.08 0.11 0.20 0.17 0.21 0.19 0.11 0.17 0.13 0.10 0.16 0.23
0.00 0.14 0.33 1.07 1.73 1.91 0.54 0.61 0.60 0.54 0.22 0.05 0.02 0.01 0.00 0.00 0.00 0.00 0.00 0.00 0.00 0.00 0.00 0.01 0.01 0.01 0.03 0.03 0.05 0.07 0.05 0.12 0.11 0.13 0.07 0.07 0.15 0.08 0.12 0.15 0.13 0.12 0.10 0.09 0.06 0.09 0.14 0.20 0.21
0.04 0.44 0.99 1.73 1.30 0.65 0.41 0.43 1.09 0.76 0.37 0.14 0.07 0.02 0.02 0.01 0.00 0.00 0.00 0.00 0.00 0.01 0.00 0.01 0.10 0.07 0.06 0.08 0.18 0.20 0.06 0.08 0.09 0.12 0.12 0.10 0.12 0.09 0.19 0.12 0.17 0.09 0.06 0.03 0.01 0.04 0.19 0.21 0.26
0.15 0.45 0.84 1.35 0.50 0.27 0.19 0.35 0.92 0.64 0.14 0.08 0.13 0.01 0.02 0.00 0.00 0.00 0.00 0.00 0.01 0.01 0.00 0.00 0.10 0.09 0.05 0.06 0.20 0.14 0.08 0.09 0.10 0.06 0.12 0.08 0.06 0.08 0.05 0.11 0.08 0.02 0.01 0.02 0.05 0.15 0.34 0.48 0.32
0.29 0.84 0.60 0.65 0.31 0.32 0.18 0.18 0.25 0.13 0.14 0.13 0.04 0.01 0.03 0.00 0.00 0.00 0.00 0.00 0.01 0.00 0.00 0.00 0.01 0.02 0.04 0.10 0.20 0.12 0.07 0.03 0.04 0.06 0.05 0.06 0.06 0.09 0.18 0.18 0.14 0.03 0.03 0.15 0.18 0.28 0.39 0.46 0.20
0.14 0.47 0.44 0.35 0.30 0.18 0.11 0.24 0.23 0.19 0.18 0.07 0.06 0.04 0.01 0.00 0.00 0.01 0.00 0.01 0.00 0.02 0.00 0.00 0.00 0.03 0.05 0.11 0.12 0.07 0.04 0.04 0.02 0.04 0.15 0.25 0.09 0.12 0.14 0.18 0.18 0.11 0.12 0.14 0.15 0.23 0.32 0.41 0.27
0.20 0.59 0.20 0.21 0.07 0.07 0.05 0.29 0.41 0.25 0.12 0.16 0.09 0.01 0.00 0.00 0.00 0.01 0.00 0.02 0.03 0.05 0.02 0.00 0.01 0.02 0.19 0.15 0.11 0.03 0.10 0.17 0.16 0.23 0.29 0.41 0.10 0.26 0.17 0.07 0.03 0.09 0.10 0.08 0.12 0.14 0.21 0.25 0.16
0.93 0.44 0.12 0.12 0.03 0.06 0.14 0.30 0.41 0.42 0.23 0.12 0.08 0.01 0.00 0.00 0.00 0.00 0.00 0.00 0.01 0.03 0.04 0.01 0.01 0.00 0.01 0.05 0.11 0.06 0.02 0.06 0.12 0.21 0.33 0.15 0.06 0.03 0.01 0.01 0.01 0.03 0.02 0.08 0.11 0.09 0.10 0.11 0.11
1.09 0.39 0.13 0.04 0.01 0.01 0.14 0.27 0.37 0.50 0.32 0.10 0.01 0.00 0.00 0.00 0.00 0.00 0.00 0.00 0.00 0.00 0.00 0.01 0.01 0.01 0.02 0.06 0.01 0.00 0.00 0.03 0.02 0.01 0.02 0.02 0.04 0.03 0.06 0.11 0.10 0.08 0.06 0.11 0.18 0.16 0.08 0.01 0.00
0.22 0.26 0.22 0.10 0.01 0.01 0.01 0.14 0.27 0.78 0.30 0.05 0.00 0.00 0.00 0.00 0.00 0.00 0.00 0.00 0.00 0.00 0.00 0.01 0.00 0.01 0.02 0.02 0.01 0.00 0.00 0.00 0.00 0.00 0.01 0.01 0.02 0.13 0.19 0.14 0.10 0.04 0.11 0.48 0.17 0.09 0.06 0.03 0.00
0.23 0.21 0.20 0.07 0.04 0.05 0.16 0.12 0.13 0.33 0.18 0.03 0.00 0.00 0.00 0.00 0.00 0.00 0.00 0.00 0.00 0.00 0.01 0.01 0.00 0.01 0.02 0.00 0.00 0.00 0.00 0.00 0.00 0.01 0.04 0.07 0.04 0.05 0.12 0.15 0.14 0.12 0.11 0.11 0.10 0.06 0.01 0.00 0.00
0.21 0.22 0.40 0.28 0.18 0.22 0.25 0.30 0.26 0.34 0.20 0.09 0.04 0.00 0.00 0.00 0.00 0.00 0.00 0.00 0.00 0.00 0.00 0.00 0.00 0.00 0.00 0.00 0.00 0.00 0.01 0.00 0.00 0.01 0.03 0.08 0.03 0.03 0.05 0.08 0.07 0.02 0.10 0.08 0.11 0.03 0.01 0.00 0.00
0.05 0.10 0.11 0.17 0.29 0.47 0.30 0.88 0.45 0.16 0.24 0.08 0.04 0.01 0.00 0.00 0.00 0.00 0.00 0.00 0.00 0.00 0.00 0.00 0.00 0.00 0.00 0.00 0.00 0.01 0.00 0.00 0.02 0.02 0.15 0.21 0.14 0.09 0.12 0.03 0.06 0.09 0.04 0.03 0.12 0.03 0.00 0.00 0.01
0.05 0.02 0.07 0.16 0.33 0.50 0.51 1.26 0.73 0.24 0.22 0.08 0.03 0.00 0.00 0.00 0.00 0.00 0.00 0.00 0.00 0.00 0.00 0.00 0.00 0.00 0.00 0.00 0.00 0.00 0.01 0.02 0.03 0.11 0.07 0.07 0.18 0.15 0.22 0.09 0.09 0.05 0.06 0.08 0.07 0.06 0.03 0.00 0.00
0.02 0.06 0.02 0.23 0.23 0.31 0.35 0.80 1.56 0.29 0.12 0.11 0.06 0.02 0.00 0.01 0.00 0.00 0.00 0.00 0.00 0.00 0.00 0.00 0.00 0.00 0.00 0.00 0.00 0.00 0.02 0.04 0.07 0.13 0.22 0.07 0.05 0.13 0.19 0.13 0.05 0.01 0.02 0.04 0.03 0.00 0.00 0.01 0.00
0.04 0.11 0.05 0.09 0.19 0.53 0.41 0.80 1.45 0.68 0.13 0.11 0.06 0.03 0.02 0.01 0.00 0.00 0.00 0.00 0.00 0.00 0.00 0.00 0.00 0.00 0.00 0.00 0.01 0.01 0.03 0.12 0.13 0.10 0.28 0.20 0.16 0.15 0.18 0.10 0.08 0.05 0.02 0.00 0.02 0.01 0.01 0.03 0.00
0.00 0.02 0.03 0.02 0.07 0.52 0.47 0.43 0.61 0.27 0.03 0.03 0.01 0.02 0.03 0.01 0.00 0.00 0.00 0.00 0.00 0.00 0.00 0.00 0.00 0.00 0.00 0.00 0.00 0.01 0.09 0.05 0.10 0.13 0.22 0.27 0.26 0.17 0.14 0.08 0.06 0.12 0.08 0.00 0.03 0.01 0.00 0.00 0.00
0.00 0.00 0.01 0.07 0.25 0.35 0.61 0.38 0.26 0.07 0.12 0.10 0.01 0.03 0.02 0.02 0.01 0.00 0.00 0.00 0.01 0.00 0.00 0.00 0.00 0.00 0.00 0.00 0.01 0.01 0.05 0.05 0.10 0.20 0.23 0.12 0.11 0.15 0.07 0.08 0.02 0.07 0.04 0.01 0.01 0.00 0.00 0.00 0.00
0.00 0.00 0.00 0.03 0.16 0.27 0.40 0.29 0.13 0.09 0.17 0.28 0.05 0.03 0.05 0.02 0.04 0.00 0.00 0.00 0.02 0.01 0.00 0.00 0.00 0.00 0.00 0.00 0.01 0.04 0.10 0.20 0.37 0.27 0.10 0.06 0.13 0.08 0.10 0.01 0.03 0.02 0.01 0.01 0.01 0.01 0.02 0.01 0.00
0.00 0.00 0.00 0.00 0.01 0.05 0.13 0.16 0.13 0.10 0.15 0.20 0.14 0.02 0.03 0.03 0.04 0.04 0.00 0.01 0.01 0.01 0.00 0.00 0.00 0.00 0.00 0.00 0.01 0.04 0.06 0.09 0.07 0.05 0.09 0.07 0.06 0.06 0.06 0.03 0.04 0.02 0.05 0.04 0.00 0.01 0.00 0.00 0.00
0.00 0.00 0.00 0.00 0.00 0.00 0.02 0.03 0.04 0.27 0.51 0.52 0.26 0.09 0.09 0.03 0.07 0.05 0.02 0.03 0.04 0.00 0.00 0.00 0.00 0.00 0.00 0.00 0.04 0.02 0.02 0.18 0.16 0.09 0.44 0.17 0.10 0.09 0.06 0.02 0.02 0.02 0.05 0.04 0.02 0.01 0.00 0.00 0.00
0.00 0.00 0.00 0.00 0.00 0.00 0.00 0.00 0.02 0.29 0.47 0.63 0.41 0.19 0.20 0.09 0.11 0.09 0.05 0.05 0.04 0.01 0.00 0.00 0.00 0.00 0.00 0.00 0.01 0.03 0.04 0.22 0.29 0.22 0.39 0.17 0.05 0.10 0.06 0.04 0.09 0.12 0.14 0.07 0.02 0.01 0.01 0.01 0.00
0.00 0.00 0.00 0.00 0.00 0.00 0.00 0.00 0.02 0.08 0.49 0.58 0.46 0.20 0.20 0.13 0.19 0.09 0.05 0.07 0.08 0.02 0.00 0.00 0.00 0.00 0.00 0.00 0.00 0.04 0.05 0.11 0.28 0.38 0.08 0.10 0.15 0.06 0.07 0.14 0.21 0.11 0.10 0.09 0.05 0.02 0.01 0.01 0.00
0.00 0.00 0.00 0.00 0.00 0.00 0.00 0.00 0.00 0.03 0.14 0.21 0.17 0.10 0.17 0.18 0.19 0.29 0.22 0.15 0.19 0.14 0.00 0.00 0.00 0.00 0.00 0.00 0.01 0.03 0.07 0.06 0.06 0.15 0.07 0.13 0.18 0.08 0.12 0.14 0.16 0.08 0.02 0.02 0.06 0.02 0.00 0.00 0.00
0.00 0.00 0.00 0.00 0.00 0.00 0.00 0.00 0.02 0.10 0.17 0.07 0.07 0.08 0.11 0.36 0.42 0.34 0.21 0.21 0.29 0.24 0.04 0.00 0.00 0.00 0.01 0.00 0.01 0.01 0.01 0.02 0.02 0.04 0.07 0.06 0.10 0.13 0.20 0.16 0.16 0.10 0.09 0.04 0.06 0.04 0.04 0.02 0.00
0.00 0.00 0.00 0.00 0.00 0.00 0.07 0.07 0.12 0.13 0.12 0.14 0.13 0.11 0.12 0.30 1.00 1.38 1.05 0.47 0.37 0.51 0.25 0.19 0.08 0.04 0.07 0.03 0.02 0.03 0.02 0.03 0.03 0.06 0.05 0.10 0.09 0.27 0.47 0.46 0.16 0.19 0.09 0.10 0.05 0.04 0.03 0.02 0.01
0.00 0.00 0.00 0.00 0.00 0.00 0.05 0.11 0.12 0.16 0.13 0.07 0.07 0.17 0.18 0.34 0.76 1.61 2.02 1.73 0.89 0.86 0.57 0.79 0.71 0.65 0.60 0.36 0.16 0.11 0.08 0.03 0.05 0.03 0.03 0.07 0.15 0.20 0.41 0.91 0.13 0.16 0.10 0.03 0.06 0.09 0.05 0.03 0.01
0.00 0.00 0.00 0.00 0.00 0.00 0.02 0.07 0.08 0.24 0.16 0.08 0.05 0.09 0.13 0.28 0.51 0.65 1.06 1.29 1.38 1.27 0.86 1.04 1.72 0.97 0.74 0.50 0.32 0.21 0.21 0.17 0.19 0.08 0.06 0.08 0.08 0.15 0.28 0.19 0.16 0.14 0.07 0.08 0.13 0.11 0.08 0.10 0.02

GFSSGP_prec_precacc24_093.txt.gz
Total_Precipitation_Accumulation
0.00 0.00 0.00 0.00 0.04 0.62 1.67 0.58 0.77 0.31 0.08 0.00 0.01 0.00 0.00 0.03 0.07 0.11 0.00 0.00 0.00 0.00 0.00 0.12 0.13 0.02 0.02 0.05 0.04 0.09 0.05 0.05 0.12 0.09 0.05 0.05 0.09 0.10 0.12 0.12 0.14 0.12 0.09 0.09 0.04 0.03 0.11 0.08 0.10
0.00 0.00 0.00 0.02 0.13 1.29 1.91 0.56 0.56 0.42 0.13 0.02 0.04 0.01 0.01 0.02 0.03 0.00 0.00 0.00 0.00 0.00 0.00 0.00 0.02 0.03 0.08 0.07 0.03 0.06 0.14 0.14 0.15 0.12 0.10 0.07 0.11 0.12 0.10 0.07 0.14 0.19 0.21 0.13 0.08 0.04 0.08 0.06 0.11
0.00 0.00 0.07 0.21 0.38 1.47 0.77 0.63 0.75 0.27 0.08 0.00 0.03 0.01 0.02 0.02 0.01 0.00 0.00 0.00 0.00 0.00 0.00 0.00 0.02 0.05 0.07 0.10 0.12 0.10 0.12 0.12 0.15 0.15 0.08 0.15 0.10 0.11 0.09 0.15 0.15 0.20 0.16 0.09 0.21 0.19 0.12 0.17 0.17
0.00 0.14 0.38 1.12 1.75 1.89 0.44 0.32 0.33 0.40 0.06 0.03 0.02 0.01 0.00 0.00 0.00 0.00 0.00 0.00 0.00 0.00 0.00 0.01 0.01 0.01 0.02 0.05 0.07 0.08 0.08 0.14 0.13 0.13 0.10 0.10 0.19 0.10 0.12 0.14 0.11 0.13 0.11 0.12 0.16 0.23 0.22 0.15 0.15
0.04 0.50 1.51 1.83 1.30 0.56 0.29 0.31 0.43 0.34 0.17 0.11 0.07 0.02 0.01 0.00 0.00 0.00 0.00 0.00 0.00 0.01 0.00 0.01 0.10 0.06 0.06 0.08 0.18 0.22 0.10 0.11 0.12 0.18 0.16 0.14 0.15 0.10 0.20 0.16 0.15 0.07 0.07 0.04 0.06 0.08 0.24 0.20 0.20
0.16 0.50 0.96 1.35 0.49 0.20 0.14 0.22 0.31 0.14 0.12 0.06 0.06 0.00 0.01 0.00 0.00 0.00 0.00 0.00 0.01 0.01 0.00 0.01 0.13 0.09 0.05 0.06 0.21 0.16 0.08 0.11 0.10 0.10 0.15 0.10 0.11 0.14 0.13 0.15 0.09 0.02 0.00 0.02 0.07 0.15 0.30 0.39 0.22
0.30 0.89 0.69 0.66 0.30 0.24 0.13 0.11 0.13 0.09 0.14 0.13 0.02 0.01 0.02 0.01 0.00 0.00 0.00 0.00 0.01 0.00 0.00 0.02 0.05 0.05 0.05 0.11 0.20 0.12 0.04 0.05 0.05 0.08 0.07 0.12 0.16 0.22 0.23 0.24 0.14 0.03 0.03 0.15 0.18 0.20 0.34 0.39 0.14
0.16 0.55 0.52 0.36 0.30 0.15 0.09 0.17 0.16 0.18 0.18 0.07 0.06 0.04 0.01 0.00 0.00 0.01 0.00 0.01 0.00 0.02 0.00 0.00 0.01 0.04 0.05 0.09 0.14 0.05 0.04 0.07 0.02 0.06 0.19 0.28 0.09 0.14 0.17 0.22 0.19 0.11 0.12 0.14 0.14 0.17 0.23 0.26 0.16
0.24 0.63 0.25 0.23 0.07 0.06 0.02 0.21 0.36 0.24 0.12 0.16 0.09 0.01 0.00 0.00 0.00 0.01 0.00 0.02 0.03 0.05 0.02 0.00 0.00 0.02 0.19 0.13 0.10 0.04 0.11 0.20 0.17 0.24 0.32 0.41 0.10 0.29 0.27 0.08 0.03 0.09 0.10 0.08 0.13 0.12 0.16 0.17 0.10
0.92 0.45 0.12 0.13 0.03 0.05 0.09 0.20 0.30 0.41 0.23 0.12 0.08 0.01 0.00 0.00 0.00 0.00 0.00 0.00 0.01 0.03 0.04 0.01 0.01 0.00 0.02 0.07 0.09 0.06 0.02 0.07 0.12 0.21 0.33 0.15 0.08 0.08 0.01 0.00 0.01 0.04 0.05 0.10 0.11 0.11 0.09 0.10 0.12
1.09 0.39 0.13 0.04 0.01 0.01 0.09 0.16 0.32 0.49 0.31 0.08 0.01 0.00 0.00 0.00 0.00 0.00 0.00 0.00 0.00 0.00 0.00 0.00 0.01 0.01 0.10 0.13 0.01 0.00 0.00 0.03 0.02 0.01 0.02 0.02 0.04 0.03 0.06 0.11 0.11 0.10 0.07 0.12 0.18 0.16 0.08 0.01 0.00
0.23 0.27 0.22 0.10 0.01 0.01 0.02 0.14 0.26 0.78 0.24 0.03 0.00 0.00 0.00 0.00 0.00 0.00 0.00 0.00 0.00 0.00 0.00 0.01 0.00 0.01 0.03 0.02 0.01 0.00 0.00 0.00 0.00 0.00 0.01 0.01 0.02 0.13 0.19 0.14 0.10 0.04 0.11 0.49 0.17 0.09 0.06 0.03 0.00
0.24 0.23 0.20 0.07 0.04 0.05 0.16 0.14 0.13 0.34 0.13 0.02 0.00 0.00 0.00 0.00 0.00 0.00 0.00 0.00 0.00 0.00 0.01 0.01 0.00 0.01 0.02 0.00 0.00 0.00 0.00 0.00 0.00 0.01 0.04 0.07 0.04 0.05 0.12 0.15 0.14 0.12 0.11 0.12 0.10 0.06 0.01 0.00 0.00
0.22 0.23 0.40 0.28 0.18 0.23 0.30 0.31 0.26 0.34 0.21 0.05 0.00 0.00 0.00 0.00 0.00 0.00 0.00 0.00 0.00 0.00 0.00 0.00 0.00 0.00 0.00 0.00 0.00 0.00 0.01 0.00 0.00 0.01 0.03 0.08 0.03 0.03 0.04 0.08 0.07 0.02 0.10 0.08 0.11 0.03 0.01 0.00 0.00
0.09 0.12 0.12 0.21 0.39 0.62 0.40 0.94 0.46 0.15 0.17 0.04 0.00 0.00 0.00 0.00 0.00 0.00 0.00 0.00 0.00 0.00 0.00 0.00 0.00 0.00 0.00 0.00 0.00 0.01 0.00 0.00 0.02 0.02 0.15 0.21 0.14 0.08 0.11 0.02 0.04 0.09 0.04 0.03 0.12 0.03 0.00 0.00 0.01
0.15 0.02 0.09 0.21 0.43 0.75 0.63 1.41 0.74 0.20 0.17 0.05 0.01 0.00 0.00 0.00 0.00 0.00 0.00 0.00 0.00 0.00 0.00 0.00 0.00 0.00 0.00 0.00 0.00 0.00 0.01 0.02 0.03 0.11 0.07 0.06 0.18 0.14 0.19 0.06 0.04 0.05 0.06 0.08 0.07 0.06 0.03 0.00 0.00
0.07 0.09 0.07 0.31 0.40 0.43 0.48 1.03 1.62 0.44 0.20 0.08 0.02 0.01 0.00 0.01 0.00 0.00 0.00 0.00 0.00 0.00 0.00 0.00 0.00 0.00 0.00 0.00 0.00 0.00 0.02 0.04 0.07 0.13 0.22 0.06 0.05 0.12 0.16 0.11 0.05 0.01 0.02 0.04 0.03 0.00 0.00 0.01 0.00
0.06 0.12 0.07 0.16 0.25 0.57 0.56 0.89 1.49 0.81 0.16 0.07 0.01 0.02 0.02 0.01 0.00 0.00 0.00 0.00 0.00 0.00 0.00 0.00 0.00 0.00 0.00 0.00 0.01 0.01 0.03 0.12 0.13 0.10 0.28 0.20 0.16 0.15 0.17 0.09 0.08 0.05 0.02 0.00 0.02 0.01 0.01 0.03 0.00
0.01 0.03 0.09 0.07 0.08 0.62 0.64 0.53 0.69 0.29 0.05 0.03 0.01 0.01 0.03 0.01 0.00 0.00 0.00 0.00 0.00 0.00 0.00 0.00 0.00 0.00 0.00 0.00 0.00 0.01 0.09 0.05 0.10 0.13 0.22 0.25 0.25 0.17 0.14 0.06 0.06 0.12 0.08 0.00 0.03 0.01 0.00 0.00 0.00
0.00 0.00 0.02 0.12 0.32 0.48 0.88 0.58 0.34 0.13 0.15 0.10 0.01 0.03 0.02 0.02 0.01 0.00 0.00 0.00 0.01 0.00 0.00 0.00 0.00 0.00 0.00 0.00 0.01 0.01 0.05 0.05 0.10 0.20 0.23 0.10 0.09 0.13 0.07 0.08 0.02 0.07 0.04 0.01 0.01 0.00 0.00 0.00 0.00
0.00 0.00 0.00 0.06 0.30 0.48 0.59 0.57 0.18 0.12 0.21 0.28 0.05 0.03 0.05 0.02 0.04 0.00 0.00 0.00 0.02 0.01 0.00 0.00 0.00 0.00 0.00 0.00 0.01 0.04 0.10 0.20 0.37 0.27 0.10 0.06 0.13 0.06 0.10 0.01 0.03 0.02 0.01 0.01 0.01 0.01 0.02 0.01 0.00
0.00 0.00 0.00 0.00 0.03 0.16 0.20 0.31 0.15 0.10 0.15 0.20 0.14 0.02 0.03 0.03 0.04 0.04 0.00 0.01 0.01 0.01 0.00 0.00 0.00 0.00 0.00 0.00 0.01 0.07 0.08 0.12 0.08 0.05 0.09 0.07 0.06 0.04 0.04 0.03 0.04 0.02 0.05 0.04 0.00 0.01 0.00 0.00 0.00
0.00 0.00 0.00 0.00 0.00 0.04 0.07 0.09 0.05 0.27 0.51 0.52 0.26 0.09 0.09 0.03 0.07 0.05 0.02 0.03 0.04 0.00 0.00 0.00 0.00 0.00 0.00 0.00 0.04 0.03 0.05 0.20 0.17 0.09 0.44 0.17 0.09 0.06 0.05 0.02 0.02 0.02 0.05 0.03 0.02 0.01 0.00 0.00 0.00
0.00 0.00 0.00 0.00 0.00 0.00 0.00 0.00 0.02 0.29 0.47 0.62 0.41 0.19 0.20 0.09 0.11 0.09 0.05 0.05 0.04 0.01 0.00 0.00 0.00 0.00 0.00 0.00 0.01 0.03 0.06 0.27 0.31 0.24 0.40 0.17 0.05 0.05 0.06 0.04 0.07 0.12 0.14 0.06 0.02 0.01 0.01 0.01 0.00
0.00 0.00 0.00 0.00 0.00 0.00 0.00 0.00 0.02 0.08 0.49 0.58 0.46 0.20 0.20 0.14 0.19 0.08 0.05 0.07 0.09 0.02 0.00 0.00 0.00 0.00 0.00 0.00 0.00 0.04 0.05 0.12 0.38 0.46 0.08 0.10 0.17 0.09 0.06 0.14 0.21 0.09 0.10 0.06 0.05 0.03 0.03 0.01 0.00
0.00 0.00 0.00 0.00 0.00 0.00 0.00 0.00 0.00 0.03 0.14 0.21 0.17 0.10 0.19 0.22 0.20 0.29 0.22 0.16 0.22 0.16 0.01 0.00 0.00 0.00 0.00 0.00 0.01 0.03 0.07 0.06 0.09 0.21 0.10 0.14 0.22 0.13 0.16 0.20 0.15 0.07 0.02 0.02 0.06 0.02 0.01 0.00 0.00
0.00 0.00 0.00 0.00 0.00 0.00 0.00 0.00 0.02 0.10 0.17 0.07 0.07 0.08 0.11 0.39 0.48 0.38 0.22 0.22 0.29 0.28 0.05 0.00 0.00 0.00 0.01 0.00 0.01 0.03 0.01 0.02 0.03 0.05 0.08 0.06 0.10 0.14 0.21 0.21 0.23 0.13 0.08 0.03 0.06 0.04 0.04 0.02 0.00
0.00 0.00 0.00 0.00 0.00 0.00 0.07 0.07 0.12 0.13 0.12 0.14 0.13 0.11 0.12 0.30 1.01 1.42 1.10 0.49 0.38 0.53 0.33 0.22 0.09 0.06 0.12 0.05 0.07 0.15 0.10 0.08 0.04 0.08 0.05 0.11 0.09 0.28 0.49 0.47 0.18 0.22 0.10 0.11 0.05 0.04 0.03 0.02 0.01
0.00 0.00 0.00 0.00 0.00 0.00 0.05 0.11 0.12 0.16 0.13 0.07 0.06 0.17 0.18 0.34 0.76 1.63 2.06 1.75 0.89 0.89 0.61 0.80 0.72 0.65 0.63 0.51 0.23 0.16 0.15 0.09 0.08 0.05 0.03 0.09 0.18 0.21 0.42 0.92 0.13 0.19 0.18 0.06 0.09 0.12 0.06 0.03 0.01
0.00 0.00 0.00 0.00 0.00 0.00 0.02 0.07 0.08 0.24 0.16 0.08 0.05 0.11 0.13 0.28 0.52 0.68 1.09 1.30 1.38 1.29 0.87 1.06 1.73 1.05 0.81 0.64 0.61 0.34 0.27 0.23 0.23 0.10 0.06 0.08 0.09 0.16 0.28 0.21 0.17 0.19 0.16 0.16 0.17 0.08 0.09 0.13 0.05

GFSSGP_prec_precacc24_096.txt.gz
Total_Precipitation_Accumulation
0.00 0.00 0.00 0.00 0.05 0.63 1.60 0.49 0.71 0.28 0.07 0.00 0.01 0.00 0.00 0.03 0.07 0.09 0.00 0.00 0.00 0.00 0.00 0.13 0.13 0.02 0.03 0.11 0.05 0.09 0.05 0.05 0.11 0.09 0.05 0.06 0.09 0.10 0.12 0.12 0.15 0.14 0.11 0.10 0.06 0.04 0.07 0.08 0.10
0.00 0.00 0.00 0.02 0.15 1.27 1.84 0.44 0.49 0.33 0.10 0.02 0.04 0.01 0.01 0.04 0.03 0.00 0.00 0.00 0.00 0.01 0.00 0.00 0.03 0.04 0.09 0.09 0.04 0.07 0.13 0.15 0.16 0.13 0.10 0.09 0.11 0.11 0.10 0.08 0.13 0.22 0.23 0.13 0.08 0.04 0.05 0.05 0.09
0.00 0.00 0.06 0.18 0.38 1.46 0.70 0.29 0.53 0.23 0.08 0.00 0.03 0.01 0.02 0.03 0.01 0.00 0.00 0.00 0.00 0.02 0.00 0.01 0.06 0.09 0.09 0.11 0.12 0.10 0.12 0.12 0.17 0.14 0.08 0.15 0.11 0.13 0.08 0.16 0.18 0.22 0.19 0.15 0.31 0.23 0.09 0.07 0.10
0.00 0.11 0.38 1.12 1.70 1.86 0.39 0.15 0.27 0.34 0.05 0.03 0.02 0.04 0.00 0.00 0.00 0.00 0.00 0.00 0.00 0.00 0.00 0.02 0.07 0.09 0.08 0.08 0.07 0.08 0.08 0.13 0.11 0.12 0.11 0.10 0.20 0.10 0.14 0.17 0.16 0.19 0.13 0.13 0.16 0.21 0.14 0.04 0.05
0.03 0.47 1.46 1.71 1.18 0.45 0.23 0.26 0.34 0.25 0.11 0.10 0.08 0.07 0.01 0.00 0.00 0.00 0.00 0.00 0.00 0.01 0.01 0.02 0.10 0.07 0.06 0.08 0.17 0.22 0.09 0.09 0.09 0.19 0.16 0.15 0.22 0.21 0.28 0.17 0.16 0.12 0.08 0.04 0.07 0.08 0.16 0.12 0.13
0.18 0.65 0.91 1.28 0.40 0.13 0.11 0.20 0.21 0.10 0.10 0.06 0.06 0.00 0.01 0.00 0.00 0.00 0.00 0.00 0.01 0.01 0.00 0.01 0.12 0.08 0.06 0.07 0.20 0.16 0.09 0.10 0.10 0.13 0.21 0.22 0.34 0.19 0.16 0.17 0.10 0.02 0.01 0.04 0.07 0.13 0.19 0.24 0.11
0.34 0.97 0.72 0.64 0.22 0.16 0.07 0.10 0.13 0.08 0.13 0.12 0.01 0.01 0.01 0.01 0.00 0.00 0.00 0.00 0.01 0.00 0.00 0.02 0.04 0.07 0.07 0.13 0.21 0.12 0.05 0.07 0.05 0.12 0.13 0.16 0.20 0.25 0.25 0.26 0.14 0.03 0.00 0.06 0.09 0.09 0.18 0.24 0.12
0.18 0.71 0.57 0.36 0.25 0.10 0.06 0.15 0.13 0.14 0.17 0.07 0.06 0.03 0.01 0.00 0.00 0.01 0.00 0.01 0.00 0.02 0.00 0.01 0.02 0.05 0.05 0.08 0.14 0.05 0.03 0.08 0.05 0.06 0.18 0.20 0.07 0.14 0.22 0.24 0.19 0.10 0.05 0.05 0.05 0.11 0.18 0.17 0.12
0.25 0.74 0.29 0.23 0.05 0.01 0.01 0.17 0.26 0.20 0.12 0.16 0.09 0.01 0.00 0.00 0.00 0.02 0.00 0.02 0.03 0.05 0.02 0.00 0.00 0.02 0.16 0.08 0.06 0.04 0.09 0.20 0.20 0.22 0.28 0.41 0.11 0.35 0.35 0.11 0.03 0.08 0.09 0.08 0.10 0.08 0.14 0.12 0.08
0.95 0.46 0.17 0.14 0.03 0.00 0.01 0.10 0.23 0.39 0.23 0.12 0.08 0.01 0.00 0.00 0.00 0.00 0.00 0.00 0.01 0.03 0.04 0.01 0.01 0.00 0.02 0.06 0.06 0.07 0.03 0.07 0.14 0.21 0.33 0.16 0.11 0.18 0.01 0.00 0.01 0.04 0.05 0.08 0.09 0.08 0.08 0.07 0.09
1.09 0.41 0.18 0.05 0.01 0.00 0.01 0.10 0.19 0.47 0.31 0.08 0.01 0.00 0.00 0.00 0.00 0.00 0.00 0.00 0.00 0.00 0.00 0.00 0.01 0.01 0.09 0.11 0.01 0.00 0.00 0.03 0.02 0.01 0.02 0.02 0.04 0.03 0.06 0.11 0.11 0.10 0.07 0.11 0.17 0.16 0.08 0.01 0.01
0.21 0.26 0.23 0.10 0.01 0.01 0.02 0.09 0.16 0.66 0.20 0.03 0.00 0.00 0.00 0.00 0.00 0.00 0.00 0.00 0.00 0.00 0.00 0.01 0.00 0.03 0.03 0.01 0.01 0.00 0.00 0.00 0.00 0.00 0.01 0.01 0.02 0.13 0.19 0.14 0.10 0.04 0.11 0.49 0.17 0.09 0.06 0.03 0.00
0.24 0.24 0.20 0.07 0.04 0.05 0.17 0.13 0.09 0.24 0.13 0.02 0.00 0.00 0.00 0.00 0.00 0.00 0.00 0.00 0.00 0.00 0.01 0.01 0.00 0.01 0.01 0.00 0.00 0.00 0.00 0.00 0.00 0.01 0.04 0.07 0.04 0.05 0.12 0.15 0.14 0.12 0.11 0.12 0.10 0.06 0.01 0.00 0.00
0.23 0.23 0.40 0.29 0.19 0.23 0.30 0.31 0.23 0.30 0.21 0.04 0.00 0.00 0.00 0.00 0.00 0.00 0.00 0.00 0.00 0.00 0.00 0.00 0.00 0.00 0.00 0.00 0.00 0.00 0.01 0.00 0.00 0.01 0.03 0.07 0.03 0.03 0.04 0.08 0.07 0.02 0.10 0.08 0.11 0.03 0.01 0.00 0.00
0.16 0.12 0.13 0.26 0.46 0.68 0.42 0.91 0.41 0.13 0.16 0.03 0.00 0.00 0.00 0.00 0.00 0.00 0.00 0.00 0.00 0.00 0.00 0.00 0.00 0.00 0.00 0.00 0.00 0.01 0.00 0.00 0.02 0.02 0.15 0.21 0.14 0.05 0.10 0.02 0.04 0.09 0.04 0.03 0.12 0.03 0.00 0.00 0.01
0.23 0.09 0.16 0.35 0.54 0.86 0.69 1.32 0.73 0.21 0.15 0.05 0.00 0.00 0.00 0.00 0.00 0.00 0.00 0.00 0.00 0.00 0.00 0.00 0.00 0.00 0.00 0.00 0.01 0.00 0.01 0.02 0.03 0.11 0.07 0.06 0.14 0.04 0.11 0.03 0.02 0.05 0.06 0.08 0.07 0.06 0.03 0.00 0.00
0.20 0.21 0.19 0.42 0.52 0.65 0.80 1.11 1.69 0.55 0.23 0.08 0.01 0.00 0.00 0.01 0.00 0.00 0.00 0.00 0.00 0.00 0.00 0.00 0.00 0.00 0.00 0.00 0.00 0.00 0.02 0.04 0.07 0.13 0.22 0.06 0.03 0.02 0.07 0.06 0.03 0.01 0.02 0.04 0.03 0.00 0.00 0.01 0.00
0.09 0.17 0.13 0.25 0.33 0.76 0.94 1.08 1.64 1.09 0.31 0.09 0.01 0.02 0.02 0.01 0.00 0.00 0.00 0.00 0.00 0.00 0.00 0.00 0.00 0.00 0.01 0.01 0.01 0.01 0.03 0.12 0.13 0.10 0.27 0.19 0.16 0.06 0.09 0.04 0.04 0.05 0.02 0.00 0.02 0.01 0.01 0.03 0.00
0.01 0.05 0.14 0.11 0.13 0.88 0.97 0.78 0.86 0.45 0.21 0.06 0.00 0.01 0.03 0.01 0.00 0.00 0.00 0.00 0.00 0.00 0.00 0.00 0.00 0.01 0.03 0.01 0.00 0.01 0.09 0.05 0.10 0.13 0.22 0.25 0.25 0.14 0.08 0.04 0.05 0.12 0.08 0.00 0.03 0.01 0.00 0.00 0.00
0.00 0.01 0.03 0.16 0.47 0.63 1.07 0.72 0.47 0.35 0.29 0.12 0.01 0.03 0.02 0.02 0.01 0.00 0.00 0.00 0.01 0.00 0.00 0.00 0.00 0.01 0.01 0.01 0.04 0.03 0.05 0.05 0.09 0.20 0.23 0.10 0.09 0.09 0.04 0.06 0.02 0.07 0.04 0.01 0.01 0.00 0.00 0.00 0.00
0.00 0.00 0.00 0.11 0.37 0.55 0.69 0.64 0.26 0.25 0.49 0.37 0.05 0.03 0.05 0.02 0.04 0.00 0.00 0.00 0.02 0.01 0.00 0.00 0.00 0.00 0.00 0.00 0.03 0.22 0.16 0.21 0.32 0.25 0.10 0.05 0.09 0.05 0.10 0.01 0.03 0.02 0.01 0.01 0.01 0.01 0.02 0.01 0.00
0.00 0.00 0.00 0.00 0.07 0.26 0.22 0.37 0.23 0.15 0.33 0.28 0.16 0.02 0.03 0.03 0.04 0.04 0.00 0.01 0.01 0.01 0.00 0.00 0.00 0.00 0.00 0.00 0.03 0.15 0.23 0.27 0.18 0.05 0.09 0.06 0.03 0.03 0.04 0.03 0.04 0.02 0.05 0.04 0.00 0.01 0.00 0.00 0.00
0.00 0.00 0.00 0.00 0.01 0.08 0.09 0.09 0.09 0.30 0.52 0.53 0.26 0.08 0.09 0.03 0.07 0.05 0.02 0.03 0.04 0.00 0.00 0.00 0.00 0.00 0.00 0.00 0.05 0.05 0.10 0.30 0.20 0.09 0.44 0.16 0.07 0.03 0.05 0.02 0.02 0.02 0.05 0.03 0.02 0.01 0.00 0.00 0.00
0.00 0.00 0.00 0.00 0.00 0.02 0.01 0.01 0.03 0.29 0.47 0.63 0.41 0.19 0.20 0.09 0.11 0.09 0.05 0.05 0.04 0.01 0.00 0.00 0.00 0.00 0.00 0.00 0.01 0.04 0.14 0.35 0.50 0.41 0.40 0.13 0.03 0.02 0.03 0.01 0.06 0.11 0.11 0.03 0.01 0.02 0.00 0.00 0.00
0.00 0.00 0.00 0.00 0.00 0.00 0.00 0.00 0.02 0.08 0.49 0.58 0.46 0.19 0.20 0.14 0.19 0.08 0.05 0.07 0.09 0.02 0.00 0.00 0.00 0.00 0.00 0.00 0.00 0.04 0.10 0.23 0.45 0.55 0.20 0.12 0.27 0.16 0.03 0.08 0.10 0.05 0.05 0.02 0.01 0.06 0.05 0.00 0.00
0.00 0.00 0.00 0.00 0.00 0.00 0.00 0.00 0.00 0.03 0.14 0.21 0.17 0.10 0.19 0.22 0.20 0.29 0.22 0.16 0.22 0.16 0.01 0.00 0.00 0.00 0.00 0.01 0.01 0.03 0.09 0.10 0.19 0.27 0.23 0.22 0.28 0.16 0.16 0.16 0.11 0.05 0.01 0.01 0.01 0.01 0.01 0.02 0.01
0.00 0.00 0.00 0.00 0.00 0.00 0.00 0.00 0.02 0.10 0.17 0.07 0.07 0.08 0.11 0.39 0.48 0.38 0.22 0.22 0.29 0.28 0.06 0.00 0.00 0.00 0.01 0.01 0.01 0.05 0.09 0.06 0.07 0.22 0.17 0.14 0.20 0.16 0.25 0.20 0.19 0.12 0.06 0.02 0.04 0.03 0.02 0.02 0.00
0.00 0.00 0.00 0.00 0.00 0.00 0.07 0.07 0.12 0.13 0.12 0.14 0.13 0.11 0.12 0.30 1.03 1.45 1.10 0.49 0.38 0.54 0.37 0.24 0.09 0.07 0.13 0.05 0.10 0.22 0.15 0.13 0.09 0.15 0.15 0.18 0.10 0.33 0.62 0.53 0.19 0.19 0.09 0.12 0.09 0.04 0.03 0.02 0.01
0.00 0.00 0.00 0.00 0.00 0.00 0.05 0.11 0.12 0.16 0.13 0.07 0.06 0.17 0.18 0.34 0.75 1.63 2.05 1.74 0.89 0.89 0.62 0.92 0.79 0.70 0.63 0.51 0.23 0.24 0.22 0.11 0.11 0.12 0.12 0.17 0.22 0.23 0.49 0.98 0.15 0.27 0.26 0.14 0.17 0.16 0.07 0.03 0.01
0.00 0.00 0.00 0.00 0.00 0.00 0.02 0.07 0.08 0.24 0.16 0.08 0.05 0.11 0.13 0.29 0.52 0.69 1.12 1.28 1.36 1.28 0.87 1.09 1.82 1.15 0.85 0.67 0.62 0.34 0.30 0.28 0.24 0.11 0.11 0.16 0.16 0.25 0.35 0.18 0.22 0.34 0.17 0.20 0.17 0.11 0.12 0.14 0.06

GFSSGP_prec_precacc24_099.txt.gz
Total_Precipitation_Accumulation
0.00 0.00 0.00 0.00 0.09 0.61 1.47 0.43 0.60 0.23 0.07 0.00 0.01 0.00 0.00 0.03 0.04 0.05 0.00 0.00 0.00 0.00 0.00 0.13 0.13 0.02 0.06 0.13 0.05 0.09 0.05 0.03 0.03 0.07 0.06 0.05 0.09 0.12 0.12 0.12 0.18 0.16 0.11 0.11 0.09 0.10 0.07 0.08 0.10
0.00 0.00 0.00 0.02 0.20 1.23 1.80 0.42 0.38 0.24 0.09 0.02 0.04 0.01 0.02 0.04 0.03 0.00 0.00 0.00 0.01 0.02 0.01 0.00 0.03 0.09 0.16 0.11 0.06 0.06 0.08 0.11 0.09 0.11 0.09 0.08 0.12 0.13 0.11 0.08 0.14 0.22 0.23 0.13 0.07 0.02 0.04 0.05 0.05
0.00 0.00 0.06 0.14 0.41 1.40 0.64 0.27 0.41 0.18 0.08 0.00 0.04 0.02 0.02 0.03 0.01 0.00 0.00 0.00 0.02 0.04 0.00 0.01 0.09 0.14 0.11 0.12 0.16 0.09 0.07 0.11 0.17 0.15 0.08 0.15 0.14 0.18 0.09 0.17 0.21 0.26 0.27 0.22 0.36 0.25 0.09 0.04 0.05
0.00 0.07 0.31 1.03 1.63 1.79 0.37 0.11 0.24 0.31 0.05 0.02 0.02 0.05 0.00 0.00 0.00 0.00 0.00 0.02 0.03 0.01 0.00 0.03 0.12 0.16 0.15 0.07 0.08 0.06 0.07 0.11 0.10 0.12 0.11 0.11 0.21 0.10 0.16 0.20 0.19 0.23 0.15 0.12 0.16 0.21 0.13 0.02 0.05
0.01 0.33 1.25 1.54 1.00 0.31 0.17 0.23 0.30 0.22 0.09 0.09 0.08 0.10 0.01 0.00 0.00 0.00 0.01 0.02 0.01 0.01 0.01 0.03 0.14 0.08 0.09 0.04 0.07 0.12 0.09 0.08 0.08 0.19 0.17 0.20 0.25 0.21 0.30 0.21 0.23 0.19 0.10 0.05 0.08 0.06 0.12 0.10 0.13
0.13 0.63 0.77 1.24 0.27 0.06 0.08 0.14 0.15 0.09 0.09 0.05 0.05 0.00 0.01 0.00 0.01 0.01 0.00 0.00 0.01 0.01 0.01 0.01 0.10 0.07 0.06 0.05 0.12 0.13 0.09 0.10 0.08 0.14 0.23 0.24 0.44 0.22 0.20 0.19 0.12 0.03 0.01 0.04 0.05 0.09 0.07 0.11 0.08
0.40 0.95 0.78 0.61 0.08 0.06 0.04 0.09 0.12 0.07 0.05 0.06 0.00 0.00 0.01 0.01 0.01 0.01 0.00 0.00 0.01 0.00 0.01 0.02 0.04 0.07 0.07 0.10 0.15 0.10 0.06 0.09 0.05 0.12 0.14 0.16 0.21 0.25 0.26 0.25 0.13 0.01 0.01 0.04 0.05 0.06 0.09 0.18 0.12
0.28 0.86 0.61 0.36 0.12 0.05 0.04 0.15 0.12 0.06 0.09 0.06 0.05 0.00 0.01 0.00 0.00 0.01 0.00 0.01 0.00 0.02 0.01 0.01 0.02 0.07 0.06 0.07 0.11 0.04 0.04 0.10 0.05 0.06 0.16 0.19 0.07 0.14 0.22 0.23 0.16 0.02 0.00 0.02 0.04 0.11 0.17 0.17 0.12
0.26 0.93 0.36 0.23 0.01 0.01 0.01 0.14 0.19 0.20 0.11 0.15 0.07 0.00 0.00 0.00 0.00 0.02 0.00 0.02 0.03 0.04 0.02 0.00 0.00 0.02 0.10 0.06 0.05 0.02 0.06 0.22 0.23 0.23 0.35 0.52 0.11 0.35 0.35 0.11 0.02 0.00 0.00 0.07 0.10 0.08 0.13 0.12 0.08
1.01 0.54 0.26 0.16 0.04 0.00 0.01 0.08 0.17 0.39 0.21 0.11 0.08 0.01 0.00 0.00 0.00 0.00 0.00 0.00 0.01 0.03 0.04 0.01 0.01 0.00 0.02 0.06 0.07 0.07 0.04 0.07 0.16 0.21 0.36 0.20 0.11 0.22 0.01 0.00 0.01 0.03 0.05 0.08 0.09 0.08 0.05 0.06 0.09
1.11 0.61 0.25 0.06 0.02 0.00 0.00 0.10 0.19 0.47 0.29 0.07 0.01 0.00 0.00 0.00 0.00 0.00 0.00 0.00 0.00 0.00 0.00 0.00 0.01 0.01 0.09 0.10 0.01 0.00 0.00 0.03 0.02 0.05 0.07 0.03 0.04 0.03 0.06 0.11 0.11 0.10 0.07 0.12 0.17 0.15 0.08 0.01 0.01
0.20 0.28 0.24 0.11 0.01 0.01 0.03 0.09 0.15 0.62 0.17 0.02 0.00 0.00 0.00 0.00 0.00 0.00 0.00 0.00 0.00 0.00 0.00 0.01 0.00 0.04 0.02 0.01 0.01 0.00 0.00 0.00 0.00 0.01 0.01 0.01 0.02 0.13 0.19 0.14 0.10 0.04 0.11 0.49 0.16 0.09 0.06 0.03 0.00
0.26 0.26 0.22 0.10 0.05 0.05 0.17 0.13 0.06 0.16 0.12 0.02 0.00 0.00 0.00 0.00 0.00 0.00 0.00 0.00 0.00 0.00 0.01 0.01 0.00 0.02 0.01 0.00 0.00 0.00 0.00 0.00 0.00 0.01 0.04 0.07 0.04 0.05 0.12 0.15 0.14 0.12 0.11 0.12 0.10 0.06 0.01 0.00 0.00
0.26 0.26 0.42 0.32 0.20 0.24 0.31 0.30 0.16 0.19 0.21 0.04 0.00 0.00 0.00 0.00 0.00 0.00 0.00 0.00 0.00 0.00 0.00 0.00 0.00 0.00 0.00 0.00 0.00 0.00 0.01 0.00 0.00 0.01 0.03 0.06 0.03 0.03 0.04 0.08 0.07 0.03 0.10 0.08 0.11 0.03 0.01 0.00 0.00
0.24 0.16 0.18 0.33 0.46 0.68 0.41 0.81 0.36 0.11 0.16 0.03 0.00 0.00 0.00 0.00 0.00 0.00 0.00 0.00 0.00 0.00 0.00 0.00 0.00 0.00 0.00 0.00 0.00 0.01 0.00 0.00 0.02 0.02 0.15 0.21 0.11 0.05 0.10 0.02 0.04 0.09 0.04 0.03 0.12 0.03 0.00 0.00 0.00
0.32 0.19 0.24 0.44 0.56 0.87 0.67 1.17 0.71 0.21 0.15 0.05 0.00 0.00 0.00 0.00 0.00 0.00 0.00 0.00 0.00 0.00 0.00 0.00 0.00 0.00 0.00 0.00 0.01 0.00 0.00 0.02 0.03 0.11 0.07 0.06 0.13 0.04 0.11 0.03 0.02 0.05 0.06 0.08 0.07 0.06 0.03 0.00 0.00
0.36 0.39 0.34 0.56 0.59 0.68 0.82 1.13 1.78 0.56 0.22 0.08 0.01 0.00 0.00 0.01 0.00 0.00 0.00 0.00 0.00 0.00 0.00 0.00 0.00 0.00 0.00 0.00 0.00 0.00 0.02 0.04 0.07 0.12 0.21 0.06 0.03 0.02 0.07 0.06 0.03 0.01 0.02 0.04 0.03 0.00 0.00 0.01 0.00
0.16 0.36 0.29 0.39 0.41 0.80 1.00 1.01 1.74 1.13 0.32 0.09 0.01 0.00 0.01 0.01 0.00 0.00 0.00 0.00 0.00 0.00 0.00 0.00 0.00 0.00 0.03 0.03 0.01 0.01 0.04 0.12 0.13 0.09 0.27 0.19 0.13 0.05 0.09 0.04 0.04 0.05 0.02 0.00 0.02 0.01 0.01 0.03 0.00
0.07 0.29 0.61 0.24 0.16 1.16 1.16 0.95 1.11 0.74 0.35 0.07 0.00 0.00 0.01 0.00 0.00 0.00 0.00 0.00 0.00 0.00 0.00 0.00 0.01 0.04 0.09 0.05 0.00 0.01 0.09 0.05 0.09 0.13 0.22 0.25 0.22 0.11 0.08 0.04 0.05 0.12 0.08 0.00 0.03 0.01 0.00 0.00 0.00
0.00 0.15 0.78 0.49 0.52 0.69 1.28 0.89 0.80 0.94 0.62 0.17 0.02 0.00 0.01 0.01 0.01 0.00 0.00 0.00 0.00 0.00 0.00 0.00 0.01 0.05 0.05 0.03 0.05 0.04 0.05 0.05 0.08 0.20 0.23 0.10 0.08 0.08 0.04 0.06 0.02 0.07 0.04 0.01 0.01 0.00 0.00 0.00 0.00
0.00 0.04 0.53 0.59 0.45 0.68 0.92 0.94 0.43 0.59 0.95 0.49 0.06 0.02 0.04 0.01 0.03 0.00 0.00 0.00 0.01 0.01 0.00 0.00 0.00 0.02 0.01 0.02 0.07 0.25 0.21 0.29 0.34 0.24 0.10 0.05 0.01 0.03 0.10 0.01 0.04 0.02 0.01 0.01 0.01 0.01 0.02 0.00 0.00
0.00 0.01 0.29 0.39 0.10 0.36 0.35 0.48 0.28 0.21 0.71 0.53 0.20 0.02 0.02 0.03 0.04 0.04 0.00 0.00 0.01 0.01 0.00 0.00 0.00 0.01 0.01 0.01 0.04 0.18 0.40 0.46 0.27 0.08 0.13 0.07 0.03 0.03 0.04 0.03 0.04 0.02 0.04 0.04 0.00 0.01 0.00 0.00 0.00
0.00 0.00 0.12 0.11 0.04 0.10 0.12 0.14 0.11 0.31 0.73 0.80 0.28 0.09 0.07 0.04 0.07 0.05 0.01 0.03 0.03 0.00 0.00 0.00 0.00 0.00 0.00 0.00 0.07 0.08 0.10 0.31 0.22 0.17 0.51 0.19 0.07 0.03 0.05 0.02 0.02 0.02 0.05 0.03 0.02 0.01 0.00 0.00 0.00
0.00 0.00 0.00 0.00 0.01 0.07 0.02 0.01 0.03 0.29 0.51 0.81 0.46 0.22 0.21 0.08 0.10 0.06 0.05 0.05 0.04 0.01 0.00 0.00 0.00 0.00 0.00 0.00 0.02 0.07 0.22 0.36 0.61 0.57 0.51 0.13 0.03 0.02 0.03 0.01 0.02 0.06 0.09 0.03 0.01 0.02 0.00 0.00 0.00
0.00 0.00 0.00 0.00 0.02 0.00 0.00 0.00 0.02 0.08 0.51 0.64 0.49 0.19 0.20 0.13 0.18 0.08 0.05 0.07 0.09 0.02 0.00 0.00 0.00 0.00 0.00 0.00 0.00 0.05 0.13 0.28 0.47 0.58 0.23 0.20 0.30 0.19 0.07 0.11 0.11 0.04 0.05 0.02 0.01 0.06 0.06 0.00 0.00
0.00 0.00 0.00 0.00 0.00 0.00 0.00 0.00 0.00 0.03 0.14 0.21 0.17 0.11 0.19 0.22 0.21 0.29 0.21 0.17 0.23 0.16 0.01 0.00 0.00 0.00 0.00 0.02 0.02 0.05 0.10 0.10 0.20 0.28 0.24 0.22 0.33 0.15 0.19 0.16 0.11 0.05 0.01 0.01 0.01 0.01 0.01 0.02 0.01
0.00 0.00 0.00 0.00 0.00 0.01 0.01 0.00 0.02 0.10 0.17 0.07 0.07 0.08 0.11 0.38 0.47 0.38 0.22 0.23 0.30 0.29 0.06 0.02 0.00 0.01 0.03 0.03 0.04 0.11 0.14 0.07 0.10 0.29 0.17 0.15 0.22 0.29 0.29 0.20 0.19 0.12 0.06 0.01 0.03 0.01 0.02 0.04 0.01
0.00 0.00 0.00 0.00 0.00 0.00 0.07 0.07 0.12 0.13 0.12 0.14 0.13 0.11 0.10 0.22 0.89 1.28 1.03 0.45 0.38 0.55 0.41 0.26 0.10 0.07 0.14 0.07 0.12 0.24 0.15 0.13 0.09 0.15 0.15 0.22 0.13 0.64 0.73 0.52 0.18 0.19 0.09 0.12 0.09 0.03 0.03 0.02 0.01
0.00 0.00 0.00 0.00 0.00 0.00 0.06 0.11 0.12 0.16 0.13 0.07 0.06 0.17 0.17 0.24 0.59 1.43 1.74 1.54 0.80 0.84 0.63 0.94 0.81 0.70 0.66 0.55 0.29 0.35 0.22 0.11 0.11 0.12 0.12 0.17 0.23 0.31 0.52 0.97 0.14 0.26 0.26 0.14 0.16 0.16 0.08 0.03 0.01
0.00 0.00 0.00 0.00 0.00 0.00 0.02 0.08 0.08 0.24 0.16 0.08 0.05 0.11 0.13 0.27 0.38 0.49 0.81 0.97 1.08 1.15 0.77 1.01 1.85 1.24 0.90 0.71 0.69 0.44 0.31 0.30 0.27 0.13 0.11 0.16 0.17 0.26 0.42 0.25 0.33 0.35 0.17 0.20 0.23 0.11 0.13 0.14 0.06

GFSSGP_prec_precacc24_102.txt.gz
Total_Precipitation_Accumulation
0.00 0.00 0.00 0.02 0.19 0.64 1.28 0.31 0.43 0.20 0.07 0.00 0.01 0.00 0.00 0.02 0.01 0.02 0.01 0.02 0.00 0.00 0.00 0.13 0.13 0.01 0.10 0.13 0.06 0.11 0.06 0.03 0.04 0.09 0.06 0.06 0.09 0.11 0.13 0.18 0.20 0.17 0.13 0.12 0.11 0.11 0.06 0.08 0.10
0.00 0.00 0.00 0.14 0.30 1.06 1.48 0.31 0.27 0.21 0.09 0.02 0.04 0.00 0.02 0.04 0.03 0.00 0.00 0.00 0.02 0.03 0.01 0.00 0.03 0.11 0.17 0.11 0.08 0.07 0.10 0.12 0.09 0.12 0.07 0.09 0.15 0.13 0.13 0.12 0.16 0.23 0.23 0.12 0.07 0.02 0.04 0.05 0.04
0.00 0.00 0.07 0.16 0.39 1.22 0.51 0.25 0.37 0.17 0.08 0.01 0.12 0.02 0.02 0.03 0.01 0.00 0.00 0.00 0.02 0.05 0.00 0.01 0.10 0.15 0.11 0.13 0.17 0.10 0.09 0.06 0.13 0.14 0.10 0.18 0.17 0.21 0.12 0.22 0.25 0.28 0.27 0.22 0.33 0.22 0.09 0.04 0.04
0.00 0.06 0.23 0.96 1.44 1.59 0.33 0.11 0.20 0.29 0.04 0.02 0.03 0.05 0.00 0.00 0.00 0.00 0.00 0.03 0.03 0.01 0.00 0.03 0.12 0.16 0.15 0.08 0.06 0.04 0.10 0.12 0.10 0.11 0.12 0.13 0.20 0.10 0.22 0.21 0.21 0.22 0.15 0.12 0.17 0.21 0.12 0.02 0.05
0.01 0.20 1.05 1.44 0.79 0.18 0.16 0.16 0.27 0.18 0.06 0.05 0.04 0.10 0.01 0.00 0.00 0.00 0.01 0.02 0.01 0.00 0.01 0.03 0.15 0.09 0.09 0.05 0.05 0.10 0.10 0.10 0.08 0.19 0.19 0.26 0.27 0.23 0.30 0.21 0.22 0.18 0.09 0.05 0.08 0.07 0.10 0.10 0.13
0.10 0.46 0.67 1.17 0.18 0.03 0.07 0.12 0.14 0.07 0.04 0.02 0.01 0.00 0.01 0.00 0.02 0.01 0.01 0.04 0.01 0.01 0.01 0.01 0.10 0.07 0.06 0.06 0.09 0.13 0.10 0.11 0.08 0.13 0.23 0.25 0.53 0.23 0.23 0.20 0.11 0.03 0.01 0.03 0.05 0.09 0.05 0.11 0.08
0.41 0.78 0.79 0.38 0.03 0.04 0.03 0.09 0.13 0.08 0.04 0.01 0.00 0.00 0.01 0.01 0.01 0.01 0.02 0.01 0.01 0.00 0.01 0.02 0.04 0.07 0.07 0.09 0.13 0.11 0.06 0.09 0.05 0.12 0.14 0.16 0.22 0.25 0.26 0.24 0.12 0.01 0.02 0.04 0.05 0.06 0.09 0.18 0.12
0.36 1.05 0.75 0.32 0.04 0.03 0.03 0.15 0.12 0.04 0.03 0.02 0.02 0.00 0.01 0.00 0.00 0.01 0.01 0.01 0.01 0.00 0.03 0.02 0.02 0.08 0.06 0.05 0.10 0.04 0.04 0.10 0.05 0.06 0.19 0.18 0.07 0.17 0.21 0.23 0.15 0.01 0.00 0.02 0.04 0.11 0.17 0.17 0.12
0.30 1.84 0.58 0.46 0.01 0.01 0.01 0.13 0.19 0.18 0.07 0.08 0.04 0.00 0.00 0.00 0.00 0.02 0.00 0.02 0.00 0.02 0.01 0.01 0.00 0.02 0.06 0.05 0.05 0.02 0.06 0.24 0.23 0.20 0.27 0.47 0.09 0.35 0.35 0.11 0.02 0.00 0.00 0.07 0.10 0.08 0.14 0.13 0.08
0.95 0.84 0.35 0.22 0.06 0.01 0.01 0.08 0.16 0.38 0.16 0.09 0.02 0.00 0.00 0.00 0.00 0.00 0.00 0.00 0.01 0.02 0.04 0.01 0.01 0.00 0.02 0.06 0.07 0.07 0.06 0.09 0.20 0.25 0.23 0.14 0.10 0.22 0.01 0.00 0.01 0.01 0.05 0.08 0.09 0.07 0.08 0.29 0.20
0.94 1.30 0.51 0.16 0.06 0.01 0.01 0.10 0.19 0.37 0.26 0.05 0.00 0.00 0.00 0.00 0.00 0.00 0.00 0.00 0.00 0.00 0.00 0.00 0.00 0.01 0.08 0.10 0.01 0.00 0.00 0.03 0.12 0.16 0.10 0.03 0.04 0.03 0.06 0.11 0.13 0.12 0.10 0.23 0.16 0.14 0.05 0.12 0.06
0.18 0.33 0.28 0.16 0.07 0.02 0.03 0.09 0.15 0.58 0.16 0.01 0.00 0.00 0.00 0.00 0.00 0.00 0.00 0.00 0.00 0.00 0.00 0.01 0.00 0.03 0.01 0.01 0.01 0.00 0.00 0.00 0.16 0.14 0.02 0.01 0.02 0.12 0.15 0.14 0.28 0.29 0.10 0.50 0.09 0.09 0.06 0.03 0.00
0.21 0.26 0.25 0.19 0.09 0.07 0.15 0.12 0.04 0.14 0.10 0.01 0.00 0.00 0.00 0.00 0.00 0.00 0.00 0.00 0.00 0.00 0.01 0.01 0.00 0.02 0.01 0.00 0.00 0.00 0.00 0.00 0.00 0.01 0.04 0.07 0.04 0.05 0.12 0.13 0.21 0.20 0.10 0.09 0.07 0.06 0.02 0.00 0.00
0.27 0.26 0.45 0.34 0.26 0.26 0.31 0.28 0.10 0.11 0.21 0.03 0.00 0.00 0.00 0.00 0.00 0.00 0.00 0.00 0.00 0.00 0.00 0.00 0.00 0.00 0.00 0.00 0.00 0.00 0.00 0.00 0.00 0.01 0.03 0.11 0.03 0.04 0.08 0.15 0.08 0.07 0.08 0.06 0.09 0.10 0.07 0.00 0.00
0.24 0.17 0.24 0.44 0.52 0.69 0.41 0.74 0.32 0.10 0.15 0.03 0.00 0.00 0.00 0.00 0.00 0.00 0.00 0.00 0.00 0.00 0.00 0.00 0.00 0.00 0.00 0.00 0.00 0.00 0.00 0.00 0.01 0.02 0.13 0.16 0.07 0.09 0.22 0.08 0.04 0.09 0.04 0.03 0.09 0.03 0.00 0.00 0.00
0.37 0.25 0.31 0.59 0.62 0.88 0.66 1.00 0.62 0.20 0.15 0.05 0.00 0.00 0.00 0.00 0.00 0.00 0.00 0.00 0.00 0.00 0.00 0.00 0.00 0.00 0.00 0.00 0.01 0.00 0.00 0.01 0.03 0.10 0.07 0.04 0.08 0.07 0.05 0.02 0.01 0.05 0.06 0.07 0.05 0.05 0.02 0.00 0.00
0.50 0.49 0.42 0.70 0.64 0.69 0.82 0.96 1.68 0.54 0.22 0.08 0.01 0.00 0.00 0.01 0.00 0.00 0.00 0.00 0.00 0.00 0.00 0.00 0.00 0.00 0.00 0.00 0.00 0.00 0.01 0.02 0.06 0.08 0.13 0.05 0.03 0.02 0.06 0.06 0.01 0.01 0.03 0.04 0.02 0.00 0.00 0.01 0.00
0.34 0.56 0.42 0.54 0.64 0.81 1.03 0.70 1.15 1.10 0.31 0.09 0.01 0.00 0.01 0.00 0.00 0.00 0.00 0.00 0.00 0.00 0.00 0.00 0.00 0.00 0.04 0.03 0.01 0.01 0.04 0.07 0.08 0.05 0.14 0.15 0.11 0.05 0.09 0.04 0.04 0.05 0.03 0.01 0.02 0.01 0.00 0.01 0.00
0.38 0.54 0.93 0.67 0.39 1.17 1.16 0.93 1.01 0.75 0.35 0.07 0.00 0.00 0.00 0.00 0.00 0.00 0.00 0.00 0.00 0.00 0.00 0.00 0.01 0.04 0.10 0.05 0.01 0.02 0.09 0.04 0.09 0.09 0.18 0.21 0.18 0.11 0.07 0.03 0.05 0.25 0.06 0.00 0.03 0.01 0.00 0.00 0.00
0.03 0.24 1.18 1.35 1.03 0.92 1.26 0.87 0.72 1.26 0.67 0.18 0.03 0.00 0.00 0.00 0.00 0.00 0.00 0.00 0.00 0.00 0.00 0.00 0.03 0.06 0.06 0.04 0.07 0.08 0.06 0.05 0.08 0.14 0.20 0.10 0.07 0.07 0.03 0.05 0.04 0.09 0.01 0.00 0.01 0.00 0.00 0.00 0.00
0.00 0.05 0.83 1.80 1.51 1.18 0.96 1.03 0.58 0.92 1.27 0.58 0.08 0.01 0.03 0.01 0.01 0.00 0.00 0.00 0.00 0.00 0.00 0.00 0.02 0.07 0.03 0.08 0.11 0.31 0.25 0.30 0.27 0.13 0.09 0.05 0.01 0.03 0.09 0.03 0.25 0.07 0.08 0.05 0.01 0.01 0.00 0.00 0.00
0.01 0.07 0.34 1.12 1.25 0.75 0.40 0.55 0.47 0.41 0.91 0.69 0.22 0.02 0.03 0.04 0.03 0.03 0.00 0.00 0.00 0.00 0.00 0.00 0.01 0.08 0.04 0.07 0.10 0.22 0.44 0.50 0.31 0.17 0.34 0.21 0.03 0.03 0.04 0.04 0.09 0.08 0.32 0.26 0.01 0.01 0.00 0.00 0.00
0.00 0.00 0.17 0.62 0.83 0.52 0.18 0.16 0.14 0.24 0.64 0.93 0.33 0.11 0.05 0.04 0.07 0.06 0.01 0.03 0.03 0.00 0.00 0.00 0.00 0.01 0.02 0.03 0.19 0.13 0.11 0.17 0.17 0.24 0.62 0.25 0.09 0.03 0.05 0.02 0.02 0.02 0.10 0.09 0.08 0.02 0.00 0.00 0.01
0.00 0.00 0.00 0.24 0.82 0.32 0.04 0.02 0.05 0.06 0.20 0.72 0.52 0.37 0.10 0.06 0.09 0.07 0.05 0.04 0.04 0.01 0.00 0.00 0.00 0.00 0.01 0.01 0.03 0.15 0.25 0.25 0.47 0.73 0.60 0.20 0.11 0.03 0.03 0.00 0.02 0.04 0.22 0.18 0.02 0.03 0.00 0.00 0.01
0.00 0.00 0.02 0.11 0.31 0.18 0.06 0.01 0.03 0.02 0.06 0.30 0.49 0.30 0.23 0.13 0.14 0.07 0.05 0.06 0.08 0.02 0.00 0.00 0.00 0.00 0.00 0.00 0.00 0.05 0.14 0.28 0.35 0.43 0.27 0.27 0.42 0.42 0.11 0.13 0.10 0.02 0.03 0.03 0.02 0.08 0.06 0.00 0.00
0.00 0.00 0.00 0.02 0.04 0.11 0.07 0.03 0.00 0.03 0.12 0.16 0.17 0.12 0.39 0.25 0.22 0.21 0.23 0.19 0.24 0.16 0.01 0.06 0.02 0.02 0.00 0.02 0.02 0.03 0.08 0.08 0.20 0.20 0.31 0.40 0.45 0.41 0.20 0.18 0.13 0.05 0.01 0.01 0.01 0.00 0.01 0.03 0.01
0.00 0.00 0.00 0.00 0.01 0.03 0.08 0.07 0.02 0.10 0.17 0.07 0.07 0.08 0.18 0.30 0.40 0.31 0.21 0.27 0.52 0.38 0.19 0.04 0.08 0.06 0.06 0.03 0.04 0.11 0.14 0.07 0.11 0.31 0.18 0.18 0.30 0.47 0.66 0.24 0.21 0.12 0.05 0.01 0.01 0.00 0.01 0.10 0.18
0.00 0.00 0.00 0.00 0.00 0.02 0.10 0.11 0.13 0.13 0.12 0.14 0.13 0.11 0.10 0.19 0.53 0.78 0.87 0.43 0.43 0.66 0.83 0.44 0.14 0.11 0.20 0.08 0.12 0.24 0.15 0.12 0.09 0.14 0.16 0.29 0.36 1.56 1.18 0.28 0.16 0.18 0.08 0.10 0.06 0.01 0.02 0.03 0.06
0.00 0.00 0.00 0.00 0.00 0.00 0.07 0.15 0.13 0.16 0.13 0.07 0.06 0.17 0.17 0.22 0.37 0.78 1.02 1.35 0.64 0.78 0.57 0.88 0.80 0.71 0.67 0.55 0.38 0.47 0.28 0.12 0.12 0.12 0.12 0.18 0.31 0.55 0.44 0.44 0.14 0.21 0.26 0.14 0.16 0.11 0.06 0.06 0.04
0.00 0.00 0.00 0.00 0.00 0.00 0.01 0.09 0.19 0.35 0.17 0.08 0.05 0.11 0.13 0.26 0.31 0.35 0.40 0.66 0.66 0.94 0.65 0.85 1.74 1.20 0.90 0.72 0.70 0.48 0.62 0.43 0.30 0.19 0.17 0.18 0.18 0.29 0.47 0.29 0.35 0.36 0.21 0.24 0.23 0.09 0.11 0.13 0.07

GFSSGP_prec_precacc24_105.txt.gz
Total_Precipitation_Accumulation
0.00 0.00 0.02 0.13 0.25 0.41 0.43 0.21 0.16 0.11 0.03 0.00 0.00 0.00 0.00 0.01 0.00 0.00 0.05 0.12 0.01 0.00 0.00 0.13 0.13 0.00 0.10 0.13 0.06 0.11 0.06 0.03 0.04 0.09 0.07 0.06 0.09 0.11 0.12 0.18 0.21 0.17 0.11 0.10 0.11 0.10 0.06 0.08 0.10
0.00 0.02 0.05 0.63 0.37 0.63 0.87 0.20 0.24 0.21 0.05 0.02 0.03 0.00 0.02 0.02 0.01 0.00 0.01 0.01 0.02 0.04 0.01 0.00 0.02 0.10 0.16 0.11 0.08 0.07 0.10 0.12 0.09 0.12 0.08 0.10 0.16 0.14 0.14 0.13 0.16 0.21 0.16 0.07 0.02 0.02 0.04 0.04 0.04
0.00 0.03 0.11 0.44 0.34 0.71 0.26 0.22 0.37 0.16 0.07 0.01 0.12 0.02 0.02 0.03 0.01 0.00 0.01 0.01 0.04 0.07 0.00 0.01 0.10 0.15 0.11 0.13 0.17 0.11 0.10 0.07 0.14 0.15 0.10 0.19 0.17 0.22 0.13 0.21 0.25 0.24 0.27 0.20 0.26 0.21 0.09 0.04 0.04
0.00 0.06 0.19 0.84 1.18 1.12 0.28 0.11 0.19 0.26 0.04 0.00 0.02 0.05 0.00 0.00 0.00 0.00 0.03 0.03 0.03 0.01 0.00 0.03 0.12 0.16 0.16 0.09 0.08 0.06 0.13 0.11 0.12 0.12 0.12 0.14 0.20 0.09 0.22 0.20 0.20 0.21 0.15 0.12 0.17 0.21 0.12 0.02 0.05
0.01 0.16 0.98 1.34 0.64 0.09 0.12 0.12 0.24 0.14 0.01 0.01 0.04 0.10 0.00 0.00 0.00 0.00 0.02 0.03 0.00 0.00 0.01 0.03 0.15 0.10 0.09 0.06 0.11 0.13 0.12 0.11 0.11 0.21 0.20 0.26 0.27 0.22 0.29 0.21 0.21 0.18 0.10 0.06 0.08 0.07 0.10 0.10 0.13
0.10 0.40 0.82 1.18 0.15 0.02 0.07 0.10 0.13 0.04 0.01 0.01 0.01 0.00 0.01 0.00 0.02 0.01 0.04 0.07 0.01 0.00 0.01 0.01 0.10 0.08 0.07 0.06 0.11 0.14 0.11 0.12 0.08 0.14 0.24 0.27 0.54 0.22 0.24 0.21 0.12 0.03 0.01 0.03 0.05 0.09 0.05 0.11 0.08
0.37 0.70 0.82 0.23 0.02 0.02 0.03 0.09 0.12 0.04 0.00 0.01 0.00 0.00 0.01 0.01 0.01 0.02 0.03 0.05 0.01 0.00 0.01 0.02 0.04 0.07 0.07 0.09 0.13 0.11 0.06 0.07 0.05 0.13 0.14 0.16 0.22 0.25 0.28 0.25 0.12 0.01 0.02 0.04 0.05 0.06 0.09 0.18 0.12
0.38 1.23 1.00 0.40 0.03 0.03 0.03 0.15 0.09 0.01 0.01 0.00 0.00 0.00 0.01 0.00 0.00 0.01 0.02 0.02 0.01 0.00 0.03 0.02 0.02 0.08 0.06 0.05 0.10 0.04 0.04 0.10 0.05 0.07 0.21 0.19 0.11 0.24 0.31 0.29 0.16 0.01 0.00 0.02 0.04 0.11 0.17 0.17 0.12
0.33 1.80 0.78 0.93 0.01 0.01 0.01 0.14 0.16 0.04 0.00 0.01 0.01 0.00 0.00 0.00 0.00 0.01 0.00 0.00 0.00 0.00 0.00 0.01 0.00 0.02 0.06 0.05 0.05 0.03 0.05 0.14 0.14 0.15 0.32 0.48 0.10 0.34 0.38 0.15 0.05 0.00 0.00 0.08 0.10 0.08 0.14 0.13 0.08
0.54 1.36 0.62 0.53 0.10 0.01 0.01 0.08 0.14 0.10 0.11 0.06 0.00 0.00 0.00 0.00 0.00 0.00 0.00 0.00 0.00 0.01 0.04 0.01 0.00 0.00 0.02 0.06 0.07 0.07 0.08 0.12 0.23 0.17 0.18 0.17 0.10 0.23 0.02 0.04 0.09 0.12 0.13 0.15 0.14 0.12 0.09 0.30 0.20
0.31 1.92 0.79 0.27 0.25 0.02 0.01 0.09 0.11 0.13 0.19 0.03 0.00 0.00 0.00 0.00 0.00 0.00 0.00 0.00 0.00 0.00 0.01 0.00 0.00 0.01 0.08 0.10 0.01 0.00 0.01 0.03 0.15 0.27 0.18 0.07 0.06 0.02 0.05 0.17 0.26 0.25 0.19 0.24 0.09 0.08 0.04 0.13 0.06
0.10 0.32 0.92 0.58 0.46 0.05 0.04 0.08 0.10 0.24 0.11 0.01 0.00 0.00 0.00 0.00 0.00 0.00 0.00 0.00 0.00 0.00 0.00 0.01 0.00 0.03 0.01 0.00 0.00 0.00 0.00 0.00 0.18 0.15 0.05 0.03 0.01 0.08 0.18 0.09 0.52 0.47 0.32 0.58 0.08 0.07 0.05 0.03 0.00
0.17 0.23 0.46 0.60 0.24 0.11 0.13 0.11 0.03 0.12 0.07 0.00 0.00 0.00 0.00 0.00 0.00 0.00 0.00 0.00 0.00 0.00 0.01 0.01 0.00 0.02 0.00 0.00 0.00 0.00 0.01 0.00 0.01 0.05 0.06 0.06 0.03 0.15 0.19 0.10 0.44 0.29 0.13 0.14 0.07 0.05 0.01 0.00 0.00
0.25 0.29 0.50 0.70 0.76 0.36 0.27 0.18 0.07 0.10 0.21 0.03 0.00 0.00 0.00 0.00 0.00 0.00 0.00 0.00 0.00 0.00 0.00 0.00 0.00 0.00 0.00 0.00 0.00 0.00 0.00 0.00 0.00 0.07 0.09 0.09 0.02 0.05 0.08 0.12 0.07 0.11 0.07 0.04 0.07 0.10 0.07 0.00 0.00
0.26 0.16 0.24 0.51 0.84 0.78 0.42 0.53 0.23 0.08 0.14 0.01 0.00 0.00 0.00 0.00 0.00 0.00 0.00 0.00 0.00 0.00 0.00 0.00 0.00 0.00 0.00 0.00 0.00 0.00 0.00 0.00 0.00 0.01 0.07 0.19 0.03 0.09 0.23 0.10 0.04 0.07 0.06 0.03 0.04 0.00 0.00 0.00 0.00
0.39 0.29 0.45 0.81 1.13 0.95 0.65 0.82 0.45 0.18 0.13 0.01 0.00 0.00 0.00 0.00 0.00 0.00 0.00 0.00 0.00 0.00 0.00 0.00 0.00 0.00 0.00 0.00 0.01 0.00 0.00 0.00 0.01 0.01 0.03 0.04 0.07 0.08 0.08 0.02 0.01 0.05 0.04 0.08 0.01 0.00 0.00 0.00 0.01
0.60 0.59 0.59 1.05 1.33 0.86 0.83 0.86 1.05 0.47 0.18 0.05 0.00 0.00 0.00 0.01 0.00 0.00 0.00 0.00 0.00 0.00 0.00 0.00 0.00 0.00 0.00 0.00 0.01 0.03 0.02 0.00 0.01 0.01 0.02 0.00 0.02 0.04 0.04 0.05 0.01 0.01 0.03 0.06 0.01 0.00 0.00 0.00 0.00
0.41 0.73 0.64 0.86 1.40 1.34 1.08 0.69 0.46 0.57 0.27 0.05 0.00 0.00 0.01 0.00 0.00 0.00 0.00 0.00 0.00 0.00 0.00 0.00 0.00 0.00 0.04 0.06 0.04 0.05 0.05 0.05 0.04 0.00 0.02 0.10 0.07 0.05 0.07 0.06 0.05 0.03 0.04 0.02 0.01 0.01 0.00 0.00 0.00
0.39 0.64 1.08 1.10 1.57 1.94 1.24 0.90 0.74 0.51 0.32 0.06 0.00 0.00 0.00 0.00 0.00 0.00 0.00 0.00 0.00 0.00 0.00 0.00 0.01 0.04 0.10 0.06 0.01 0.02 0.09 0.04 0.03 0.02 0.05 0.13 0.09 0.09 0.07 0.07 0.07 0.41 0.08 0.00 0.03 0.01 0.00 0.00 0.00
0.06 0.29 1.31 1.54 1.74 1.48 1.49 0.93 0.77 1.29 0.67 0.18 0.03 0.01 0.00 0.00 0.00 0.00 0.00 0.00 0.00 0.00 0.00 0.00 0.03 0.06 0.06 0.05 0.07 0.09 0.06 0.03 0.03 0.02 0.04 0.06 0.02 0.07 0.03 0.07 0.07 0.11 0.04 0.01 0.01 0.00 0.01 0.00 0.00
0.03 0.08 0.85 1.90 1.75 1.80 1.37 1.10 0.56 0.92 1.29 0.57 0.08 0.01 0.03 0.01 0.01 0.00 0.00 0.00 0.00 0.00 0.00 0.00 0.02 0.09 0.04 0.09 0.11 0.30 0.22 0.25 0.24 0.10 0.07 0.02 0.01 0.03 0.09 0.09 0.31 0.11 0.11 0.05 0.02 0.04 0.01 0.01 0.00
0.08 0.13 0.38 1.14 1.39 1.40 1.20 0.80 0.49 0.41 0.93 0.67 0.21 0.01 0.03 0.04 0.03 0.03 0.00 0.00 0.00 0.00 0.00 0.00 0.01 0.10 0.07 0.07 0.09 0.22 0.42 0.49 0.31 0.16 0.32 0.19 0.03 0.03 0.04 0.05 0.09 0.11 0.36 0.27 0.02 0.04 0.01 0.01 0.00
0.04 0.03 0.18 0.62 0.94 0.89 0.69 0.50 0.25 0.21 0.39 0.64 0.24 0.07 0.06 0.04 0.05 0.06 0.01 0.03 0.03 0.00 0.00 0.00 0.00 0.03 0.03 0.04 0.19 0.16 0.13 0.20 0.21 0.21 0.51 0.24 0.09 0.03 0.05 0.02 0.02 0.05 0.14 0.10 0.09 0.05 0.01 0.02 0.02
0.01 0.03 0.03 0.25 0.90 0.54 0.18 0.17 0.12 0.02 0.09 0.35 0.19 0.28 0.10 0.04 0.06 0.07 0.04 0.04 0.04 0.01 0.00 0.00 0.00 0.00 0.01 0.01 0.05 0.16 0.27 0.29 0.49 0.71 0.55 0.21 0.15 0.05 0.05 0.01 0.01 0.04 0.22 0.21 0.05 0.03 0.01 0.01 0.03
0.00 0.01 0.10 0.16 0.45 0.42 0.11 0.12 0.17 0.00 0.02 0.09 0.06 0.18 0.20 0.11 0.09 0.07 0.06 0.07 0.08 0.02 0.00 0.00 0.00 0.00 0.00 0.00 0.00 0.01 0.14 0.28 0.36 0.42 0.30 0.26 0.36 0.48 0.17 0.16 0.10 0.03 0.03 0.05 0.05 0.09 0.06 0.00 0.00
0.00 0.00 0.01 0.04 0.09 0.16 0.13 0.31 0.09 0.04 0.12 0.12 0.11 0.10 0.30 0.17 0.13 0.12 0.15 0.20 0.29 0.13 0.02 0.06 0.02 0.02 0.00 0.02 0.02 0.01 0.03 0.05 0.20 0.21 0.45 0.44 0.49 0.65 0.26 0.26 0.13 0.07 0.04 0.02 0.01 0.00 0.01 0.03 0.01
0.00 0.00 0.00 0.01 0.04 0.07 0.23 0.40 0.10 0.07 0.12 0.05 0.03 0.03 0.12 0.12 0.16 0.16 0.12 0.35 0.73 0.46 0.25 0.07 0.08 0.07 0.06 0.03 0.03 0.10 0.13 0.06 0.10 0.32 0.29 0.32 0.38 0.62 0.69 0.28 0.18 0.10 0.04 0.00 0.01 0.01 0.01 0.10 0.18
0.00 0.00 0.00 0.00 0.00 0.05 0.23 0.61 0.25 0.05 0.06 0.09 0.11 0.11 0.09 0.11 0.14 0.27 0.35 0.33 0.59 0.91 0.97 0.56 0.17 0.14 0.21 0.08 0.11 0.21 0.14 0.11 0.08 0.14 0.22 0.35 0.41 1.51 1.13 0.25 0.17 0.16 0.06 0.10 0.06 0.01 0.01 0.03 0.06
0.00 0.00 0.00 0.00 0.00 0.00 0.08 0.14 0.09 0.08 0.08 0.07 0.07 0.17 0.17 0.19 0.24 0.40 0.48 0.57 0.53 0.74 0.62 1.26 0.56 0.50 0.57 0.52 0.44 0.57 0.28 0.13 0.11 0.11 0.12 0.17 0.31 0.50 0.43 0.42 0.23 0.21 0.24 0.14 0.16 0.10 0.07 0.06 0.04
0.00 0.00 0.00 0.00 0.00 0.00 0.00 0.09 0.19 0.31 0.17 0.09 0.07 0.14 0.18 0.25 0.28 0.37 0.37 0.71 0.55 0.52 0.48 0.62 0.94 0.90 0.79 0.69 0.74 0.50 0.67 0.54 0.32 0.22 0.19 0.21 0.18 0.27 0.46 0.30 0.37 0.38 0.22 0.22 0.21 0.11 0.13 0.14 0.08

GFSSGP_prec_precacc24_108.txt.gz
Total_Precipitation_Accumulation
0.00 0.00 0.04 0.18 0.27 0.22 0.09 0.07 0.02 0.04 0.00 0.00 0.00 0.00 0.00 0.01 0.00 0.00 0.07 0.14 0.01 0.00 0.00 0.12 0.12 0.00 0.10 0.13 0.07 0.14 0.07 0.07 0.07 0.09 0.08 0.06 0.07 0.10 0.12 0.18 0.20 0.16 0.08 0.09 0.10 0.10 0.07 0.06 0.06
0.00 0.06 0.08 0.65 0.36 0.33 0.24 0.08 0.14 0.09 0.01 0.00 0.00 0.00 0.01 0.02 0.00 0.00 0.02 0.01 0.02 0.04 0.01 0.00 0.02 0.10 0.16 0.11 0.09 0.08 0.13 0.16 0.10 0.12 0.09 0.11 0.18 0.16 0.12 0.12 0.15 0.19 0.14 0.07 0.02 0.02 0.03 0.04 0.01
0.00 0.06 0.12 0.45 0.23 0.25 0.14 0.19 0.32 0.06 0.02 0.00 0.11 0.02 0.02 0.03 0.01 0.00 0.03 0.04 0.06 0.07 0.00 0.01 0.10 0.15 0.11 0.13 0.17 0.11 0.11 0.08 0.15 0.16 0.13 0.22 0.21 0.24 0.13 0.21 0.24 0.24 0.27 0.20 0.26 0.21 0.09 0.03 0.02
0.00 0.06 0.16 0.61 0.93 0.11 0.09 0.09 0.10 0.19 0.02 0.00 0.02 0.05 0.00 0.00 0.00 0.01 0.07 0.09 0.04 0.01 0.00 0.03 0.12 0.16 0.16 0.09 0.08 0.06 0.14 0.12 0.13 0.13 0.15 0.15 0.21 0.09 0.22 0.19 0.20 0.21 0.15 0.12 0.17 0.21 0.11 0.01 0.01
0.00 0.16 0.97 1.24 0.50 0.00 0.07 0.11 0.17 0.11 0.01 0.01 0.04 0.10 0.01 0.01 0.00 0.00 0.03 0.03 0.00 0.00 0.01 0.03 0.15 0.10 0.10 0.06 0.11 0.14 0.12 0.12 0.13 0.21 0.19 0.26 0.27 0.22 0.29 0.21 0.22 0.19 0.10 0.06 0.08 0.07 0.07 0.05 0.04
0.08 0.40 0.84 1.01 0.09 0.00 0.06 0.06 0.05 0.02 0.01 0.01 0.01 0.00 0.01 0.00 0.02 0.01 0.04 0.07 0.01 0.01 0.01 0.01 0.10 0.08 0.07 0.06 0.11 0.14 0.12 0.10 0.08 0.15 0.25 0.27 0.55 0.23 0.25 0.22 0.12 0.03 0.01 0.03 0.05 0.09 0.03 0.04 0.02
0.35 0.71 0.84 0.19 0.01 0.02 0.03 0.06 0.06 0.03 0.00 0.01 0.00 0.00 0.01 0.01 0.02 0.02 0.04 0.05 0.01 0.00 0.01 0.02 0.04 0.07 0.08 0.09 0.14 0.12 0.07 0.08 0.06 0.15 0.16 0.21 0.24 0.25 0.27 0.25 0.12 0.01 0.02 0.04 0.05 0.06 0.09 0.16 0.11
0.37 1.26 1.04 0.35 0.01 0.03 0.03 0.12 0.03 0.00 0.01 0.00 0.00 0.00 0.00 0.00 0.02 0.00 0.02 0.03 0.01 0.00 0.03 0.02 0.02 0.08 0.06 0.06 0.11 0.04 0.04 0.10 0.06 0.09 0.23 0.24 0.12 0.24 0.31 0.29 0.16 0.01 0.00 0.02 0.04 0.11 0.17 0.17 0.12
0.39 1.80 0.84 0.91 0.01 0.01 0.01 0.08 0.04 0.01 0.00 0.00 0.00 0.00 0.00 0.00 0.00 0.00 0.01 0.01 0.08 0.01 0.00 0.01 0.00 0.02 0.06 0.05 0.06 0.07 0.09 0.17 0.16 0.16 0.35 0.53 0.13 0.37 0.40 0.17 0.06 0.00 0.01 0.09 0.10 0.08 0.14 0.13 0.08
0.60 2.01 0.97 0.52 0.09 0.01 0.01 0.06 0.05 0.02 0.01 0.01 0.00 0.00 0.00 0.00 0.00 0.00 0.00 0.00 0.06 0.03 0.04 0.01 0.00 0.00 0.02 0.06 0.08 0.10 0.11 0.15 0.24 0.18 0.19 0.18 0.14 0.26 0.08 0.12 0.12 0.12 0.13 0.15 0.14 0.12 0.09 0.30 0.20
0.41 2.13 0.95 0.31 0.26 0.02 0.01 0.08 0.05 0.03 0.04 0.00 0.00 0.00 0.00 0.00 0.00 0.00 0.00 0.00 0.01 0.00 0.01 0.00 0.00 0.01 0.08 0.10 0.01 0.00 0.01 0.04 0.15 0.29 0.19 0.07 0.08 0.02 0.05 0.13 0.19 0.21 0.19 0.25 0.09 0.08 0.05 0.14 0.06
0.22 0.35 0.86 0.58 0.49 0.06 0.04 0.03 0.04 0.08 0.06 0.00 0.00 0.00 0.00 0.00 0.00 0.00 0.00 0.00 0.00 0.00 0.00 0.00 0.00 0.03 0.01 0.00 0.00 0.00 0.01 0.02 0.19 0.22 0.07 0.05 0.00 0.08 0.15 0.08 0.51 0.46 0.32 0.59 0.09 0.08 0.05 0.03 0.00
0.21 0.34 0.53 0.74 0.27 0.19 0.14 0.04 0.02 0.08 0.05 0.01 0.00 0.00 0.00 0.00 0.00 0.00 0.00 0.00 0.00 0.00 0.00 0.00 0.00 0.02 0.01 0.04 0.02 0.05 0.03 0.00 0.02 0.05 0.08 0.08 0.03 0.16 0.17 0.09 0.43 0.30 0.12 0.13 0.07 0.05 0.01 0.00 0.00
0.23 0.34 0.57 1.10 0.86 0.56 0.28 0.16 0.06 0.09 0.20 0.03 0.00 0.00 0.00 0.00 0.00 0.00 0.00 0.00 0.00 0.00 0.00 0.00 0.00 0.00 0.00 0.01 0.01 0.03 0.02 0.00 0.00 0.08 0.13 0.09 0.03 0.05 0.08 0.13 0.08 0.12 0.07 0.04 0.07 0.10 0.07 0.00 0.00
0.24 0.35 0.59 0.98 1.44 1.36 0.54 0.53 0.19 0.08 0.15 0.01 0.00 0.00 0.00 0.00 0.00 0.00 0.00 0.00 0.00 0.00 0.00 0.00 0.00 0.00 0.00 0.00 0.04 0.01 0.01 0.00 0.02 0.02 0.11 0.21 0.03 0.09 0.22 0.10 0.05 0.09 0.08 0.05 0.05 0.01 0.00 0.00 0.00
0.36 0.42 0.66 1.07 1.50 1.77 0.87 0.75 0.27 0.11 0.10 0.00 0.00 0.00 0.00 0.00 0.00 0.00 0.00 0.00 0.00 0.00 0.00 0.00 0.00 0.00 0.00 0.00 0.01 0.00 0.00 0.00 0.00 0.01 0.02 0.04 0.03 0.08 0.09 0.05 0.12 0.25 0.68 0.15 0.07 0.02 0.00 0.00 0.01
0.63 0.70 0.74 1.62 1.87 1.93 1.10 0.86 0.53 0.34 0.15 0.01 0.00 0.00 0.00 0.01 0.00 0.00 0.00 0.00 0.00 0.00 0.00 0.00 0.00 0.00 0.00 0.00 0.02 0.03 0.03 0.01 0.00 0.00 0.00 0.00 0.01 0.06 0.03 0.04 0.05 0.15 0.09 0.11 0.02 0.02 0.00 0.00 0.00
0.41 0.77 0.78 1.07 1.98 1.83 1.41 0.77 0.37 0.45 0.21 0.02 0.00 0.00 0.01 0.00 0.00 0.00 0.00 0.00 0.00 0.00 0.00 0.00 0.00 0.00 0.04 0.06 0.06 0.08 0.06 0.05 0.04 0.00 0.00 0.01 0.03 0.06 0.08 0.05 0.05 0.06 0.04 0.03 0.01 0.00 0.00 0.00 0.00
0.39 0.71 1.19 1.26 1.84 2.41 1.80 1.01 0.81 0.51 0.32 0.05 0.00 0.00 0.00 0.00 0.00 0.00 0.00 0.00 0.00 0.00 0.00 0.00 0.01 0.04 0.10 0.06 0.02 0.03 0.07 0.05 0.04 0.03 0.02 0.03 0.04 0.08 0.04 0.05 0.05 0.41 0.07 0.00 0.02 0.00 0.00 0.00 0.00
0.11 0.37 1.35 1.56 1.85 1.74 2.00 1.13 0.84 1.30 0.61 0.12 0.02 0.01 0.00 0.00 0.00 0.00 0.00 0.00 0.00 0.00 0.00 0.00 0.03 0.06 0.06 0.05 0.07 0.09 0.06 0.02 0.02 0.06 0.04 0.01 0.00 0.05 0.03 0.07 0.06 0.11 0.04 0.01 0.00 0.00 0.01 0.00 0.00
0.07 0.11 0.87 1.91 1.77 1.81 1.49 1.55 0.65 0.92 1.23 0.47 0.06 0.01 0.02 0.00 0.00 0.00 0.00 0.00 0.00 0.00 0.00 0.00 0.02 0.09 0.04 0.09 0.10 0.29 0.21 0.24 0.21 0.12 0.08 0.01 0.02 0.03 0.05 0.11 0.31 0.11 0.11 0.04 0.02 0.04 0.02 0.01 0.00
0.10 0.14 0.40 1.15 1.39 1.41 1.28 1.11 0.82 0.42 0.89 0.61 0.19 0.01 0.02 0.03 0.00 0.00 0.00 0.00 0.00 0.00 0.00 0.00 0.01 0.10 0.07 0.07 0.09 0.21 0.41 0.48 0.31 0.17 0.32 0.19 0.03 0.03 0.01 0.02 0.07 0.10 0.36 0.27 0.03 0.06 0.03 0.01 0.00
0.04 0.03 0.18 0.62 0.94 0.90 0.78 0.72 0.53 0.33 0.30 0.49 0.14 0.05 0.02 0.02 0.01 0.02 0.00 0.02 0.03 0.00 0.00 0.00 0.00 0.03 0.03 0.04 0.20 0.16 0.13 0.19 0.20 0.21 0.45 0.23 0.08 0.02 0.04 0.00 0.01 0.05 0.14 0.10 0.09 0.06 0.06 0.02 0.02
0.01 0.04 0.04 0.25 0.90 0.56 0.25 0.34 0.32 0.21 0.12 0.28 0.12 0.20 0.05 0.04 0.04 0.06 0.03 0.03 0.04 0.01 0.00 0.00 0.00 0.00 0.01 0.01 0.05 0.16 0.27 0.29 0.52 0.73 0.43 0.16 0.14 0.04 0.04 0.00 0.01 0.04 0.22 0.21 0.05 0.03 0.02 0.03 0.04
0.00 0.01 0.11 0.18 0.46 0.43 0.12 0.15 0.28 0.02 0.02 0.08 0.05 0.18 0.20 0.11 0.07 0.06 0.06 0.07 0.08 0.02 0.00 0.00 0.00 0.00 0.00 0.00 0.00 0.01 0.15 0.28 0.37 0.40 0.31 0.25 0.35 0.48 0.17 0.16 0.09 0.03 0.03 0.05 0.05 0.09 0.06 0.01 0.03
0.00 0.00 0.01 0.05 0.11 0.19 0.17 0.34 0.13 0.02 0.02 0.03 0.08 0.10 0.31 0.15 0.08 0.07 0.12 0.20 0.28 0.11 0.02 0.06 0.02 0.02 0.00 0.02 0.02 0.01 0.04 0.06 0.19 0.21 0.47 0.44 0.46 0.65 0.26 0.26 0.12 0.06 0.04 0.02 0.01 0.01 0.01 0.03 0.02
0.00 0.00 0.00 0.01 0.04 0.08 0.27 0.45 0.13 0.05 0.04 0.03 0.03 0.03 0.12 0.12 0.15 0.09 0.06 0.30 0.65 0.40 0.24 0.07 0.08 0.07 0.06 0.03 0.03 0.10 0.13 0.06 0.10 0.32 0.29 0.32 0.36 0.61 0.69 0.28 0.18 0.10 0.04 0.01 0.01 0.01 0.01 0.10 0.18
0.00 0.00 0.00 0.01 0.00 0.05 0.19 0.70 0.30 0.03 0.04 0.08 0.11 0.11 0.07 0.09 0.13 0.16 0.20 0.22 0.55 1.01 0.96 0.55 0.16 0.13 0.19 0.07 0.11 0.21 0.13 0.10 0.07 0.13 0.22 0.33 0.41 1.51 1.13 0.25 0.17 0.16 0.06 0.10 0.08 0.02 0.01 0.03 0.06
0.00 0.00 0.00 0.00 0.00 0.00 0.06 0.15 0.06 0.03 0.03 0.03 0.03 0.14 0.13 0.10 0.15 0.31 0.37 0.38 0.37 0.96 0.60 1.07 0.43 0.34 0.42 0.42 0.36 0.51 0.25 0.12 0.11 0.11 0.11 0.15 0.31 0.49 0.42 0.40 0.23 0.21 0.24 0.14 0.16 0.10 0.07 0.06 0.04
0.00 0.00 0.00 0.00 0.00 0.00 0.00 0.08 0.16 0.15 0.03 0.02 0.05 0.12 0.14 0.16 0.20 0.27 0.30 0.64 0.50 0.52 0.42 0.44 0.66 0.89 0.92 0.92 1.00 0.58 0.62 0.52 0.32 0.24 0.19 0.17 0.18 0.27 0.46 0.30 0.37 0.38 0.22 0.23 0.21 0.12 0.14 0.15 0.09

GFSSGP_prec_precacc24_111.txt.gz
Total_Precipitation_Accumulation
0.00 0.00 0.04 0.19 0.27 0.20 0.02 0.00 0.00 0.00 0.00 0.00 0.00 0.00 0.00 0.01 0.00 0.00 0.07 0.14 0.01 0.00 0.01 0.11 0.13 0.01 0.11 0.13 0.07 0.11 0.08 0.10 0.10 0.13 0.09 0.06 0.07 0.12 0.17 0.19 0.18 0.12 0.08 0.09 0.10 0.12 0.07 0.05 0.05
0.00 0.06 0.08 0.65 0.36 0.18 0.02 0.02 0.02 0.00 0.00 0.00 0.00 0.00 0.01 0.02 0.00 0.00 0.02 0.01 0.02 0.04 0.02 0.01 0.02 0.10 0.14 0.09 0.09 0.07 0.11 0.12 0.09 0.13 0.09 0.12 0.19 0.21 0.15 0.11 0.13 0.16 0.12 0.07 0.02 0.01 0.04 0.02 0.02
0.00 0.06 0.12 0.43 0.18 0.15 0.06 0.07 0.05 0.01 0.01 0.00 0.11 0.02 0.02 0.03 0.00 0.00 0.03 0.04 0.06 0.07 0.00 0.01 0.08 0.13 0.09 0.11 0.16 0.12 0.14 0.11 0.14 0.14 0.13 0.17 0.22 0.23 0.13 0.21 0.24 0.23 0.26 0.20 0.23 0.19 0.07 0.03 0.01
0.00 0.05 0.11 0.40 0.43 0.04 0.05 0.05 0.01 0.01 0.00 0.00 0.02 0.05 0.00 0.00 0.00 0.01 0.07 0.09 0.04 0.01 0.00 0.03 0.12 0.17 0.15 0.09 0.10 0.10 0.16 0.11 0.13 0.10 0.16 0.16 0.16 0.09 0.21 0.18 0.20 0.19 0.14 0.12 0.17 0.19 0.11 0.01 0.00
0.00 0.12 0.92 0.69 0.21 0.00 0.06 0.09 0.07 0.03 0.00 0.01 0.04 0.11 0.01 0.01 0.00 0.00 0.03 0.03 0.00 0.00 0.01 0.03 0.15 0.10 0.10 0.07 0.15 0.16 0.13 0.11 0.12 0.16 0.17 0.25 0.25 0.21 0.27 0.21 0.21 0.19 0.10 0.06 0.08 0.06 0.07 0.04 0.04
0.08 0.36 0.75 0.36 0.02 0.00 0.05 0.03 0.03 0.01 0.01 0.01 0.01 0.00 0.01 0.00 0.02 0.01 0.04 0.07 0.01 0.01 0.01 0.01 0.11 0.08 0.09 0.07 0.13 0.16 0.12 0.12 0.08 0.16 0.23 0.27 0.54 0.21 0.24 0.22 0.13 0.03 0.01 0.03 0.04 0.05 0.02 0.04 0.08
0.34 0.68 0.78 0.15 0.01 0.01 0.02 0.03 0.05 0.03 0.00 0.01 0.00 0.00 0.01 0.02 0.04 0.02 0.04 0.05 0.01 0.01 0.01 0.02 0.04 0.08 0.09 0.09 0.15 0.14 0.08 0.10 0.08 0.15 0.14 0.20 0.22 0.25 0.27 0.21 0.04 0.01 0.02 0.03 0.01 0.02 0.05 0.11 0.06
0.36 1.25 0.97 0.32 0.01 0.02 0.02 0.07 0.01 0.00 0.01 0.00 0.00 0.00 0.00 0.01 0.13 0.07 0.02 0.03 0.03 0.05 0.04 0.02 0.02 0.08 0.06 0.06 0.12 0.04 0.04 0.11 0.05 0.10 0.23 0.24 0.12 0.24 0.29 0.24 0.09 0.00 0.00 0.02 0.03 0.05 0.08 0.07 0.03
0.43 1.81 0.86 0.90 0.01 0.01 0.00 0.03 0.01 0.01 0.00 0.00 0.00 0.00 0.00 0.00 0.04 0.02 0.01 0.01 0.10 0.03 0.01 0.01 0.00 0.02 0.06 0.05 0.07 0.15 0.10 0.17 0.16 0.19 0.40 0.60 0.13 0.29 0.37 0.17 0.06 0.00 0.01 0.09 0.10 0.08 0.13 0.12 0.06
0.63 2.06 1.02 0.54 0.09 0.01 0.00 0.02 0.01 0.01 0.01 0.01 0.00 0.00 0.00 0.00 0.00 0.01 0.01 0.00 0.09 0.04 0.04 0.01 0.00 0.00 0.02 0.06 0.07 0.09 0.11 0.16 0.25 0.20 0.21 0.18 0.14 0.26 0.08 0.12 0.12 0.12 0.13 0.15 0.15 0.15 0.13 0.31 0.20
0.42 2.23 1.03 0.32 0.26 0.02 0.01 0.02 0.00 0.01 0.01 0.00 0.00 0.00 0.00 0.00 0.00 0.01 0.02 0.01 0.02 0.01 0.01 0.00 0.00 0.01 0.08 0.10 0.00 0.00 0.01 0.04 0.16 0.30 0.19 0.07 0.08 0.02 0.04 0.12 0.18 0.18 0.18 0.25 0.08 0.07 0.05 0.14 0.06
0.26 0.42 0.91 0.59 0.49 0.05 0.06 0.04 0.00 0.03 0.01 0.00 0.00 0.00 0.00 0.00 0.00 0.01 0.00 0.00 0.00 0.00 0.00 0.00 0.00 0.03 0.01 0.00 0.03 0.01 0.02 0.02 0.19 0.22 0.07 0.05 0.00 0.08 0.15 0.08 0.51 0.46 0.32 0.59 0.10 0.07 0.01 0.00 0.00
0.24 0.43 0.61 0.76 0.27 0.17 0.12 0.05 0.01 0.04 0.04 0.01 0.00 0.00 0.00 0.00 0.00 0.00 0.00 0.00 0.00 0.00 0.00 0.00 0.00 0.02 0.01 0.04 0.02 0.12 0.06 0.00 0.02 0.06 0.08 0.08 0.04 0.15 0.15 0.08 0.42 0.30 0.12 0.14 0.06 0.05 0.01 0.00 0.00
0.15 0.37 0.59 1.10 0.87 0.47 0.20 0.16 0.07 0.08 0.20 0.03 0.00 0.00 0.00 0.00 0.00 0.00 0.01 0.00 0.00 0.00 0.00 0.00 0.00 0.00 0.00 0.04 0.08 0.06 0.02 0.00 0.00 0.11 0.13 0.10 0.05 0.05 0.08 0.13 0.08 0.14 0.08 0.02 0.04 0.10 0.07 0.00 0.00
0.25 0.42 0.70 1.05 1.49 1.36 0.59 0.42 0.14 0.08 0.18 0.01 0.00 0.00 0.00 0.00 0.00 0.00 0.00 0.00 0.00 0.00 0.00 0.00 0.00 0.00 0.00 0.02 0.05 0.02 0.01 0.01 0.02 0.04 0.10 0.21 0.03 0.09 0.24 0.13 0.07 0.09 0.08 0.04 0.04 0.01 0.00 0.00 0.00
0.38 0.50 0.82 1.06 1.51 1.86 0.93 0.72 0.19 0.12 0.12 0.00 0.00 0.00 0.00 0.00 0.00 0.00 0.00 0.00 0.00 0.00 0.00 0.00 0.00 0.00 0.00 0.00 0.01 0.00 0.00 0.03 0.00 0.01 0.03 0.04 0.03 0.07 0.09 0.06 0.12 0.25 0.69 0.15 0.06 0.02 0.00 0.00 0.01
0.63 0.70 0.86 2.32 2.34 2.22 1.38 1.36 0.42 0.38 0.17 0.02 0.00 0.00 0.00 0.01 0.00 0.00 0.00 0.00 0.00 0.00 0.00 0.00 0.00 0.00 0.00 0.00 0.02 0.03 0.03 0.02 0.00 0.01 0.03 0.00 0.01 0.08 0.04 0.04 0.08 0.16 0.09 0.10 0.03 0.04 0.00 0.00 0.00
0.40 0.78 0.85 1.45 2.75 2.26 1.73 1.32 0.46 0.49 0.25 0.03 0.00 0.00 0.01 0.00 0.00 0.00 0.00 0.00 0.00 0.00 0.00 0.00 0.00 0.00 0.04 0.06 0.07 0.09 0.06 0.05 0.03 0.02 0.02 0.01 0.02 0.04 0.09 0.06 0.06 0.08 0.07 0.04 0.01 0.00 0.00 0.00 0.00
0.39 0.71 1.24 1.34 2.08 2.83 2.35 1.47 1.04 0.57 0.35 0.06 0.00 0.00 0.00 0.00 0.00 0.00 0.00 0.00 0.00 0.00 0.00 0.00 0.01 0.04 0.10 0.06 0.02 0.03 0.02 0.02 0.03 0.06 0.07 0.07 0.04 0.05 0.07 0.06 0.05 0.41 0.07 0.00 0.00 0.00 0.00 0.00 0.00
0.11 0.37 1.38 1.57 1.86 1.74 2.27 1.53 1.33 1.38 0.62 0.09 0.01 0.01 0.00 0.00 0.00 0.00 0.00 0.00 0.00 0.00 0.00 0.00 0.03 0.06 0.06 0.05 0.07 0.08 0.03 0.03 0.04 0.07 0.08 0.04 0.03 0.03 0.04 0.07 0.06 0.11 0.04 0.01 0.01 0.00 0.01 0.00 0.00
0.12 0.13 0.88 1.90 1.72 1.75 1.47 1.84 0.99 1.02 1.21 0.38 0.04 0.01 0.02 0.00 0.00 0.00 0.00 0.00 0.00 0.00 0.00 0.00 0.02 0.09 0.04 0.09 0.10 0.29 0.21 0.25 0.21 0.12 0.08 0.03 0.02 0.02 0.03 0.11 0.30 0.10 0.11 0.04 0.03 0.03 0.01 0.01 0.00
0.15 0.15 0.40 1.15 1.39 1.41 1.29 1.28 1.06 0.56 0.92 0.57 0.11 0.01 0.01 0.02 0.00 0.00 0.00 0.00 0.00 0.00 0.00 0.00 0.01 0.10 0.07 0.07 0.09 0.20 0.41 0.48 0.31 0.21 0.34 0.18 0.02 0.02 0.01 0.03 0.07 0.10 0.35 0.26 0.03 0.06 0.03 0.01 0.00
0.04 0.04 0.18 0.62 0.94 0.90 0.78 0.73 0.61 0.52 0.39 0.50 0.11 0.04 0.02 0.02 0.01 0.02 0.00 0.00 0.00 0.00 0.00 0.00 0.00 0.03 0.03 0.04 0.20 0.16 0.13 0.19 0.20 0.22 0.45 0.23 0.08 0.01 0.01 0.00 0.01 0.05 0.14 0.10 0.09 0.05 0.06 0.02 0.02
0.02 0.04 0.04 0.25 0.90 0.56 0.25 0.34 0.33 0.29 0.20 0.29 0.14 0.20 0.04 0.03 0.02 0.04 0.01 0.00 0.00 0.00 0.00 0.00 0.00 0.00 0.01 0.01 0.05 0.16 0.27 0.29 0.52 0.73 0.41 0.15 0.14 0.03 0.02 0.00 0.01 0.03 0.22 0.21 0.04 0.04 0.03 0.03 0.04
0.01 0.02 0.11 0.18 0.46 0.43 0.12 0.15 0.28 0.03 0.06 0.14 0.08 0.15 0.13 0.06 0.04 0.04 0.03 0.04 0.02 0.00 0.00 0.00 0.00 0.00 0.00 0.00 0.00 0.01 0.15 0.28 0.36 0.40 0.30 0.23 0.35 0.48 0.17 0.16 0.09 0.03 0.03 0.05 0.05 0.09 0.06 0.01 0.03
0.00 0.00 0.01 0.05 0.11 0.21 0.19 0.35 0.14 0.01 0.00 0.03 0.03 0.10 0.29 0.14 0.08 0.06 0.06 0.13 0.19 0.07 0.02 0.06 0.02 0.02 0.00 0.02 0.02 0.01 0.04 0.06 0.19 0.21 0.47 0.43 0.46 0.65 0.26 0.26 0.12 0.06 0.04 0.02 0.01 0.01 0.01 0.03 0.02
0.01 0.00 0.00 0.01 0.04 0.08 0.27 0.45 0.13 0.03 0.00 0.00 0.01 0.02 0.13 0.11 0.16 0.08 0.05 0.25 0.62 0.34 0.24 0.07 0.08 0.07 0.06 0.03 0.03 0.10 0.13 0.06 0.10 0.32 0.33 0.36 0.36 0.61 0.68 0.28 0.18 0.10 0.04 0.01 0.01 0.01 0.01 0.10 0.18
0.00 0.00 0.00 0.01 0.00 0.05 0.19 0.70 0.30 0.01 0.00 0.02 0.01 0.03 0.05 0.07 0.13 0.15 0.19 0.21 0.51 0.87 0.91 0.53 0.15 0.12 0.19 0.07 0.11 0.21 0.13 0.10 0.07 0.13 0.25 0.38 0.43 1.47 1.12 0.23 0.16 0.14 0.05 0.10 0.08 0.02 0.01 0.03 0.06
0.00 0.00 0.00 0.00 0.00 0.00 0.06 0.15 0.06 0.02 0.00 0.01 0.02 0.09 0.08 0.07 0.10 0.19 0.25 0.24 0.33 0.80 0.47 0.98 0.33 0.22 0.29 0.39 0.36 0.51 0.25 0.12 0.09 0.11 0.11 0.14 0.26 0.46 0.41 0.39 0.23 0.21 0.24 0.14 0.16 0.10 0.07 0.06 0.04
0.00 0.00 0.00 0.00 0.00 0.00 0.00 0.08 0.16 0.15 0.02 0.01 0.03 0.10 0.11 0.12 0.12 0.17 0.19 0.41 0.32 0.42 0.32 0.31 0.44 0.69 0.85 0.95 1.13 0.74 0.74 0.59 0.31 0.21 0.18 0.14 0.18 0.25 0.38 0.28 0.37 0.38 0.23 0.24 0.21 0.12 0.14 0.15 0.09

GFSSGP_prec_precacc24_114.txt.gz
Total_Precipitation_Accumulation
0.00 0.00 0.04 0.19 0.27 0.20 0.01 0.00 0.00 0.00 0.00 0.00 0.00 0.00 0.00 0.01 0.00 0.00 0.07 0.14 0.01 0.00 0.03 0.28 0.26 0.27 0.29 0.16 0.07 0.09 0.08 0.09 0.10 0.09 0.08 0.04 0.03 0.10 0.17 0.21 0.23 0.13 0.09 0.10 0.12 0.13 0.07 0.05 0.05
0.00 0.09 0.08 0.65 0.32 0.11 0.01 0.00 0.00 0.00 0.00 0.00 0.00 0.00 0.01 0.02 0.00 0.00 0.02 0.01 0.02 0.04 0.03 0.10 0.09 0.15 0.15 0.08 0.08 0.06 0.10 0.09 0.09 0.11 0.08 0.12 0.21 0.25 0.16 0.09 0.07 0.10 0.06 0.05 0.04 0.08 0.08 0.07 0.12
0.00 0.06 0.12 0.42 0.14 0.07 0.01 0.00 0.00 0.00 0.00 0.00 0.08 0.02 0.00 0.02 0.00 0.00 0.03 0.04 0.06 0.07 0.00 0.01 0.08 0.11 0.08 0.10 0.12 0.13 0.14 0.10 0.13 0.13 0.13 0.19 0.25 0.24 0.11 0.09 0.13 0.13 0.17 0.17 0.23 0.25 0.32 0.20 0.24
0.00 0.04 0.08 0.16 0.16 0.02 0.01 0.00 0.00 0.00 0.00 0.00 0.01 0.05 0.00 0.00 0.00 0.01 0.07 0.09 0.04 0.01 0.00 0.03 0.12 0.17 0.15 0.09 0.09 0.10 0.16 0.11 0.12 0.09 0.14 0.17 0.16 0.08 0.19 0.15 0.15 0.14 0.11 0.11 0.17 0.20 0.17 0.13 0.08
0.00 0.09 0.66 0.39 0.11 0.00 0.01 0.03 0.03 0.01 0.00 0.01 0.03 0.10 0.01 0.01 0.00 0.00 0.03 0.03 0.00 0.00 0.01 0.03 0.21 0.13 0.10 0.06 0.12 0.11 0.13 0.11 0.12 0.16 0.14 0.23 0.23 0.18 0.24 0.19 0.20 0.18 0.09 0.06 0.09 0.06 0.07 0.06 0.06
0.07 0.33 0.66 0.34 0.01 0.00 0.00 0.01 0.00 0.00 0.01 0.01 0.00 0.00 0.01 0.00 0.02 0.01 0.04 0.07 0.01 0.01 0.01 0.01 0.15 0.13 0.13 0.07 0.09 0.10 0.09 0.11 0.05 0.13 0.18 0.23 0.51 0.20 0.26 0.24 0.13 0.03 0.01 0.03 0.03 0.05 0.02 0.07 0.13
0.34 0.65 0.68 0.12 0.00 0.00 0.00 0.00 0.00 0.00 0.00 0.01 0.00 0.00 0.01 0.02 0.04 0.02 0.04 0.05 0.01 0.01 0.01 0.02 0.05 0.08 0.12 0.09 0.12 0.08 0.07 0.11 0.05 0.10 0.14 0.17 0.22 0.22 0.19 0.14 0.02 0.00 0.01 0.00 0.00 0.00 0.01 0.03 0.03
0.34 1.22 0.91 0.31 0.01 0.01 0.01 0.03 0.00 0.00 0.01 0.00 0.00 0.00 0.00 0.01 0.13 0.07 0.02 0.03 0.05 0.07 0.05 0.02 0.02 0.08 0.06 0.07 0.13 0.04 0.05 0.11 0.05 0.08 0.19 0.22 0.10 0.15 0.22 0.16 0.04 0.00 0.00 0.00 0.00 0.00 0.02 0.02 0.00
0.40 1.80 0.84 0.88 0.01 0.01 0.00 0.03 0.00 0.01 0.00 0.00 0.00 0.00 0.00 0.00 0.04 0.02 0.01 0.01 0.10 0.03 0.02 0.01 0.00 0.02 0.07 0.09 0.16 0.20 0.11 0.18 0.17 0.17 0.37 0.60 0.10 0.15 0.30 0.16 0.05 0.00 0.01 0.02 0.01 0.01 0.04 0.03 0.01
0.64 2.06 1.04 0.54 0.09 0.02 0.00 0.02 0.00 0.01 0.01 0.01 0.00 0.00 0.00 0.00 0.00 0.01 0.01 0.00 0.09 0.04 0.04 0.01 0.00 0.00 0.03 0.11 0.14 0.15 0.14 0.22 0.29 0.22 0.22 0.18 0.14 0.25 0.08 0.12 0.12 0.12 0.13 0.14 0.13 0.14 0.12 0.30 0.15
0.47 2.25 1.07 0.33 0.27 0.06 0.05 0.02 0.00 0.01 0.01 0.00 0.00 0.00 0.00 0.00 0.00 0.01 0.02 0.01 0.02 0.01 0.01 0.00 0.00 0.01 0.12 0.11 0.00 0.00 0.02 0.05 0.17 0.30 0.19 0.07 0.08 0.02 0.04 0.11 0.18 0.17 0.17 0.24 0.08 0.07 0.05 0.14 0.06
0.30 0.46 0.94 0.88 0.59 0.06 0.09 0.02 0.00 0.01 0.01 0.00 0.00 0.00 0.00 0.00 0.00 0.01 0.00 0.00 0.00 0.00 0.00 0.00 0.00 0.03 0.03 0.02 0.06 0.02 0.02 0.02 0.19 0.22 0.07 0.06 0.00 0.08 0.15 0.08 0.51 0.46 0.32 0.58 0.07 0.03 0.00 0.00 0.00
0.26 0.42 0.67 0.94 0.28 0.16 0.14 0.05 0.02 0.02 0.01 0.00 0.00 0.00 0.00 0.00 0.01 0.01 0.00 0.00 0.00 0.00 0.00 0.00 0.00 0.02 0.01 0.04 0.02 0.12 0.06 0.00 0.03 0.06 0.09 0.09 0.04 0.14 0.13 0.08 0.42 0.29 0.12 0.13 0.03 0.01 0.01 0.00 0.00
0.14 0.31 0.58 1.11 0.83 0.42 0.17 0.12 0.06 0.04 0.04 0.00 0.00 0.00 0.00 0.00 0.00 0.00 0.01 0.00 0.00 0.00 0.00 0.00 0.00 0.00 0.00 0.04 0.08 0.06 0.02 0.01 0.02 0.11 0.13 0.10 0.05 0.05 0.07 0.13 0.08 0.14 0.08 0.01 0.01 0.10 0.07 0.00 0.00
0.26 0.44 0.85 1.14 1.41 1.13 0.55 0.34 0.18 0.04 0.10 0.00 0.00 0.00 0.00 0.00 0.00 0.00 0.00 0.00 0.00 0.00 0.00 0.00 0.00 0.00 0.00 0.02 0.05 0.02 0.01 0.01 0.02 0.04 0.10 0.21 0.04 0.09 0.24 0.12 0.07 0.08 0.08 0.04 0.02 0.01 0.00 0.00 0.00
0.38 0.52 0.88 1.06 1.48 1.65 0.79 0.63 0.27 0.09 0.09 0.00 0.00 0.00 0.00 0.00 0.00 0.00 0.00 0.00 0.00 0.00 0.00 0.00 0.00 0.00 0.00 0.01 0.01 0.01 0.00 0.05 0.00 0.01 0.02 0.03 0.03 0.07 0.10 0.06 0.12 0.25 0.68 0.11 0.05 0.02 0.00 0.00 0.01
0.61 0.66 0.88 2.24 2.38 2.36 1.54 1.38 0.50 0.41 0.18 0.03 0.00 0.00 0.00 0.00 0.00 0.00 0.00 0.00 0.00 0.00 0.00 0.00 0.00 0.00 0.00 0.01 0.02 0.03 0.03 0.04 0.00 0.01 0.03 0.00 0.02 0.09 0.04 0.04 0.08 0.16 0.09 0.09 0.02 0.05 0.00 0.00 0.00
0.38 0.70 0.81 1.45 2.82 2.37 1.96 1.53 0.64 0.54 0.29 0.06 0.00 0.00 0.00 0.00 0.00 0.00 0.00 0.00 0.00 0.00 0.00 0.00 0.00 0.00 0.04 0.07 0.07 0.09 0.06 0.04 0.00 0.03 0.05 0.04 0.04 0.05 0.08 0.06 0.06 0.08 0.07 0.04 0.01 0.00 0.00 0.00 0.00
0.39 0.70 1.22 1.34 2.10 2.80 2.42 1.59 1.19 0.60 0.37 0.07 0.00 0.00 0.00 0.00 0.00 0.00 0.00 0.00 0.00 0.00 0.00 0.00 0.01 0.04 0.10 0.06 0.02 0.03 0.02 0.01 0.02 0.07 0.08 0.10 0.07 0.06 0.08 0.06 0.05 0.41 0.07 0.00 0.00 0.00 0.00 0.00 0.00
0.11 0.37 1.37 1.53 1.74 1.56 2.08 1.58 1.50 1.50 0.65 0.10 0.01 0.01 0.00 0.00 0.00 0.00 0.00 0.00 0.00 0.00 0.00 0.00 0.03 0.06 0.06 0.05 0.07 0.08 0.03 0.03 0.04 0.09 0.09 0.06 0.10 0.07 0.05 0.07 0.06 0.11 0.04 0.01 0.01 0.00 0.01 0.00 0.00
0.13 0.14 0.88 1.88 1.64 1.59 1.26 1.81 1.30 1.23 1.30 0.33 0.04 0.01 0.02 0.00 0.00 0.00 0.00 0.00 0.00 0.00 0.00 0.00 0.02 0.09 0.04 0.09 0.10 0.29 0.21 0.25 0.21 0.12 0.10 0.05 0.06 0.09 0.05 0.11 0.30 0.10 0.11 0.04 0.03 0.03 0.01 0.01 0.00
0.16 0.16 0.40 1.15 1.38 1.36 1.20 1.22 1.28 0.92 1.06 0.60 0.11 0.01 0.01 0.02 0.00 0.00 0.00 0.00 0.00 0.00 0.00 0.00 0.01 0.10 0.07 0.07 0.09 0.20 0.41 0.47 0.31 0.22 0.35 0.18 0.03 0.05 0.03 0.03 0.07 0.10 0.35 0.26 0.03 0.06 0.03 0.01 0.00
0.04 0.06 0.22 0.62 0.94 0.90 0.76 0.73 0.68 0.84 0.62 0.54 0.11 0.04 0.02 0.02 0.01 0.02 0.00 0.00 0.00 0.00 0.00 0.00 0.00 0.03 0.03 0.04 0.20 0.16 0.13 0.18 0.20 0.22 0.45 0.23 0.07 0.01 0.01 0.00 0.01 0.05 0.14 0.10 0.09 0.05 0.06 0.02 0.02
0.02 0.05 0.05 0.25 0.90 0.56 0.25 0.34 0.33 0.40 0.33 0.32 0.14 0.20 0.04 0.03 0.02 0.03 0.00 0.00 0.00 0.00 0.00 0.00 0.00 0.00 0.01 0.01 0.05 0.16 0.27 0.28 0.52 0.73 0.41 0.15 0.14 0.03 0.02 0.01 0.01 0.03 0.22 0.21 0.04 0.04 0.03 0.03 0.04
0.01 0.02 0.13 0.19 0.46 0.43 0.12 0.15 0.28 0.03 0.10 0.15 0.09 0.15 0.09 0.05 0.03 0.03 0.02 0.02 0.00 0.00 0.00 0.00 0.00 0.00 0.00 0.00 0.00 0.01 0.15 0.28 0.36 0.39 0.28 0.22 0.34 0.48 0.17 0.16 0.10 0.03 0.03 0.05 0.05 0.09 0.06 0.01 0.03
0.01 0.01 0.02 0.05 0.11 0.21 0.19 0.35 0.14 0.01 0.00 0.03 0.03 0.05 0.26 0.11 0.06 0.05 0.04 0.08 0.11 0.02 0.01 0.06 0.02 0.02 0.00 0.02 0.02 0.01 0.04 0.06 0.19 0.20 0.46 0.41 0.46 0.65 0.26 0.25 0.12 0.06 0.04 0.02 0.01 0.01 0.01 0.03 0.02
0.02 0.01 0.03 0.02 0.04 0.08 0.27 0.45 0.13 0.03 0.00 0.00 0.02 0.02 0.10 0.08 0.15 0.08 0.04 0.19 0.52 0.28 0.23 0.07 0.08 0.07 0.06 0.03 0.03 0.10 0.13 0.06 0.10 0.32 0.33 0.39 0.48 0.63 0.68 0.23 0.12 0.09 0.03 0.01 0.01 0.01 0.01 0.10 0.18
0.00 0.03 0.02 0.02 0.03 0.06 0.19 0.70 0.30 0.01 0.00 0.00 0.01 0.02 0.00 0.04 0.11 0.13 0.11 0.15 0.38 0.74 0.86 0.53 0.15 0.10 0.15 0.05 0.10 0.21 0.14 0.11 0.13 0.13 0.23 0.42 0.52 1.49 1.12 0.26 0.15 0.08 0.04 0.09 0.08 0.02 0.01 0.03 0.06
0.00 0.01 0.02 0.01 0.01 0.01 0.06 0.15 0.06 0.02 0.00 0.00 0.00 0.01 0.00 0.00 0.07 0.16 0.15 0.22 0.20 0.62 0.47 0.97 0.28 0.11 0.09 0.21 0.34 0.51 0.25 0.12 0.10 0.12 0.20 0.19 0.24 0.42 0.29 0.33 0.23 0.27 0.20 0.13 0.16 0.12 0.07 0.06 0.04
0.00 0.00 0.00 0.00 0.00 0.00 0.00 0.08 0.16 0.15 0.02 0.01 0.02 0.05 0.06 0.06 0.10 0.17 0.17 0.40 0.25 0.21 0.24 0.28 0.34 0.53 0.55 0.70 1.03 0.72 0.74 0.59 0.28 0.19 0.19 0.17 0.14 0.15 0.25 0.21 0.33 0.41 0.24 0.25 0.23 0.11 0.11 0.13 0.09

GFSSGP_prec_precacc24_117.txt.gz
Total_Precipitation_Accumulation
0.00 0.00 0.06 0.20 0.27 0.19 0.00 0.00 0.00 0.00 0.00 0.00 0.00 0.00 0.00 0.01 0.00 0.00 0.07 0.14 0.01 0.00 0.04 0.31 0.26 0.29 0.39 0.25 0.07 0.09 0.09 0.09 0.09 0.07 0.07 0.04 0.04 0.09 0.19 0.19 0.20 0.13 0.09 0.12 0.12 0.12 0.07 0.03 0.02
0.00 0.09 0.08 0.65 0.30 0.09 0.01 0.00 0.00 0.00 0.00 0.00 0.00 0.00 0.01 0.02 0.00 0.00 0.02 0.01 0.02 0.04 0.04 0.15 0.14 0.23 0.35 0.17 0.10 0.05 0.09 0.10 0.07 0.08 0.08 0.12 0.24 0.24 0.14 0.09 0.08 0.12 0.10 0.14 0.13 0.13 0.14 0.09 0.13
0.00 0.06 0.11 0.42 0.11 0.06 0.00 0.00 0.00 0.00 0.00 0.00 0.08 0.02 0.00 0.01 0.00 0.00 0.03 0.04 0.06 0.07 0.00 0.05 0.11 0.15 0.17 0.10 0.10 0.08 0.12 0.09 0.10 0.09 0.13 0.21 0.31 0.21 0.09 0.09 0.14 0.14 0.20 0.27 0.38 0.34 0.42 0.28 0.32
0.00 0.04 0.03 0.12 0.13 0.02 0.00 0.00 0.00 0.00 0.00 0.00 0.01 0.05 0.00 0.00 0.00 0.01 0.07 0.09 0.04 0.01 0.00 0.03 0.12 0.17 0.16 0.08 0.08 0.09 0.13 0.08 0.09 0.08 0.13 0.14 0.13 0.07 0.18 0.16 0.15 0.12 0.09 0.10 0.14 0.13 0.14 0.19 0.09
0.00 0.03 0.14 0.28 0.08 0.00 0.00 0.01 0.00 0.00 0.00 0.01 0.03 0.10 0.01 0.01 0.00 0.00 0.03 0.03 0.00 0.00 0.00 0.03 0.20 0.13 0.10 0.06 0.11 0.09 0.10 0.11 0.15 0.18 0.16 0.23 0.23 0.17 0.16 0.15 0.16 0.16 0.08 0.09 0.09 0.03 0.03 0.05 0.05
0.06 0.27 0.53 0.33 0.01 0.00 0.00 0.00 0.00 0.00 0.01 0.01 0.00 0.00 0.00 0.00 0.02 0.01 0.04 0.07 0.01 0.01 0.01 0.00 0.13 0.12 0.13 0.07 0.10 0.08 0.08 0.14 0.11 0.13 0.16 0.24 0.51 0.16 0.20 0.16 0.08 0.02 0.01 0.02 0.01 0.07 0.06 0.07 0.12
0.32 0.59 0.59 0.10 0.00 0.00 0.00 0.00 0.00 0.00 0.00 0.01 0.00 0.00 0.00 0.01 0.04 0.02 0.04 0.05 0.01 0.01 0.01 0.01 0.04 0.08 0.11 0.09 0.13 0.08 0.06 0.11 0.10 0.13 0.13 0.12 0.15 0.07 0.08 0.04 0.01 0.00 0.01 0.00 0.00 0.01 0.01 0.01 0.03
0.33 1.14 0.82 0.30 0.00 0.00 0.00 0.00 0.00 0.00 0.01 0.00 0.00 0.00 0.00 0.01 0.13 0.07 0.02 0.03 0.05 0.08 0.04 0.01 0.01 0.07 0.05 0.08 0.16 0.05 0.05 0.11 0.08 0.09 0.20 0.24 0.12 0.11 0.17 0.11 0.02 0.00 0.00 0.00 0.00 0.00 0.00 0.00 0.00
0.36 1.75 0.80 0.86 0.01 0.00 0.00 0.02 0.01 0.02 0.00 0.00 0.00 0.00 0.00 0.00 0.04 0.02 0.00 0.01 0.10 0.04 0.02 0.01 0.01 0.01 0.13 0.12 0.23 0.28 0.19 0.18 0.16 0.19 0.39 0.61 0.10 0.11 0.20 0.15 0.05 0.00 0.01 0.02 0.01 0.00 0.01 0.01 0.00
0.65 2.07 1.04 0.56 0.09 0.02 0.01 0.02 0.00 0.01 0.01 0.01 0.00 0.00 0.00 0.00 0.00 0.01 0.01 0.00 0.10 0.04 0.04 0.01 0.00 0.00 0.10 0.14 0.21 0.26 0.19 0.24 0.29 0.22 0.22 0.18 0.12 0.20 0.07 0.12 0.12 0.11 0.09 0.12 0.13 0.11 0.11 0.30 0.12
0.51 2.33 1.07 0.35 0.29 0.13 0.11 0.02 0.00 0.01 0.01 0.00 0.00 0.00 0.00 0.00 0.00 0.01 0.02 0.01 0.02 0.01 0.01 0.00 0.00 0.01 0.06 0.06 0.01 0.04 0.03 0.05 0.17 0.30 0.19 0.07 0.08 0.02 0.04 0.11 0.17 0.16 0.16 0.23 0.08 0.07 0.05 0.14 0.06
0.36 0.49 0.96 0.95 0.70 0.11 0.15 0.04 0.00 0.01 0.01 0.00 0.00 0.00 0.00 0.00 0.00 0.01 0.00 0.00 0.00 0.00 0.00 0.00 0.00 0.03 0.04 0.02 0.06 0.02 0.02 0.02 0.19 0.22 0.07 0.06 0.00 0.08 0.15 0.08 0.51 0.46 0.32 0.58 0.07 0.03 0.00 0.00 0.00
0.26 0.42 0.69 0.95 0.30 0.17 0.17 0.11 0.04 0.01 0.01 0.00 0.00 0.00 0.00 0.00 0.01 0.01 0.00 0.00 0.00 0.00 0.00 0.00 0.00 0.02 0.01 0.04 0.02 0.12 0.06 0.00 0.03 0.06 0.09 0.09 0.04 0.14 0.13 0.08 0.42 0.29 0.11 0.13 0.03 0.01 0.01 0.00 0.00
0.13 0.31 0.58 1.11 0.82 0.43 0.20 0.16 0.11 0.04 0.01 0.00 0.00 0.00 0.00 0.00 0.00 0.00 0.01 0.00 0.00 0.00 0.00 0.00 0.00 0.00 0.00 0.04 0.08 0.06 0.02 0.01 0.02 0.11 0.13 0.10 0.05 0.05 0.07 0.13 0.08 0.14 0.08 0.01 0.01 0.10 0.07 0.00 0.00
0.22 0.44 0.86 1.10 1.32 1.00 0.50 0.33 0.23 0.07 0.05 0.00 0.00 0.00 0.00 0.00 0.00 0.00 0.00 0.00 0.00 0.00 0.00 0.00 0.00 0.00 0.00 0.02 0.05 0.02 0.01 0.01 0.02 0.04 0.10 0.21 0.04 0.08 0.23 0.12 0.07 0.08 0.08 0.03 0.02 0.01 0.00 0.00 0.00
0.30 0.53 0.87 1.02 1.39 1.44 0.69 0.54 0.33 0.10 0.03 0.01 0.00 0.00 0.00 0.00 0.00 0.00 0.00 0.00 0.00 0.00 0.00 0.00 0.00 0.00 0.00 0.01 0.01 0.01 0.00 0.05 0.01 0.01 0.02 0.03 0.03 0.07 0.10 0.06 0.12 0.25 0.68 0.11 0.05 0.02 0.00 0.00 0.01
0.56 0.63 0.83 2.15 2.23 2.28 1.44 1.21 0.54 0.32 0.09 0.02 0.00 0.00 0.00 0.00 0.00 0.00 0.00 0.00 0.00 0.00 0.00 0.00 0.00 0.00 0.00 0.01 0.02 0.03 0.03 0.04 0.00 0.02 0.03 0.00 0.02 0.10 0.04 0.04 0.08 0.16 0.09 0.09 0.02 0.05 0.00 0.00 0.00
0.36 0.69 0.80 1.39 2.76 2.33 1.88 1.52 0.65 0.50 0.27 0.06 0.01 0.00 0.00 0.00 0.00 0.00 0.00 0.00 0.00 0.00 0.00 0.00 0.00 0.00 0.04 0.07 0.07 0.09 0.06 0.04 0.00 0.03 0.05 0.04 0.04 0.05 0.08 0.06 0.06 0.08 0.07 0.04 0.01 0.00 0.00 0.00 0.00
0.38 0.68 1.16 1.30 2.09 2.70 2.26 1.54 1.32 0.62 0.37 0.09 0.01 0.00 0.00 0.00 0.00 0.00 0.00 0.00 0.00 0.00 0.00 0.00 0.01 0.04 0.10 0.06 0.02 0.03 0.03 0.01 0.02 0.07 0.08 0.10 0.07 0.06 0.08 0.06 0.05 0.41 0.07 0.00 0.00 0.00 0.00 0.00 0.00
0.11 0.37 1.37 1.49 1.67 1.43 1.82 1.41 1.55 1.60 0.63 0.10 0.02 0.02 0.00 0.00 0.00 0.00 0.00 0.00 0.00 0.00 0.00 0.00 0.03 0.06 0.06 0.05 0.07 0.08 0.03 0.03 0.04 0.09 0.09 0.06 0.10 0.07 0.05 0.07 0.06 0.11 0.04 0.01 0.01 0.00 0.01 0.00 0.00
0.13 0.14 0.87 1.86 1.50 1.38 1.06 1.54 1.31 1.32 1.31 0.33 0.04 0.01 0.02 0.00 0.00 0.00 0.00 0.00 0.00 0.00 0.00 0.00 0.02 0.09 0.04 0.09 0.10 0.29 0.22 0.29 0.22 0.12 0.10 0.08 0.06 0.09 0.05 0.11 0.30 0.10 0.11 0.04 0.03 0.03 0.01 0.01 0.00
0.16 0.16 0.41 1.15 1.36 1.25 1.13 1.07 1.26 0.94 1.09 0.61 0.12 0.01 0.01 0.02 0.00 0.00 0.00 0.00 0.00 0.00 0.00 0.00 0.01 0.10 0.07 0.07 0.09 0.20 0.40 0.44 0.33 0.27 0.38 0.19 0.03 0.05 0.03 0.03 0.07 0.10 0.35 0.26 0.03 0.06 0.03 0.01 0.00
0.04 0.07 0.24 0.63 0.93 0.86 0.72 0.67 0.66 0.84 0.63 0.54 0.11 0.04 0.02 0.02 0.01 0.02 0.00 0.00 0.00 0.00 0.00 0.00 0.00 0.03 0.03 0.04 0.20 0.18 0.12 0.18 0.21 0.24 0.49 0.23 0.07 0.02 0.01 0.01 0.01 0.05 0.14 0.10 0.09 0.05 0.06 0.02 0.02
0.01 0.06 0.08 0.28 0.90 0.56 0.25 0.34 0.33 0.40 0.33 0.32 0.14 0.20 0.04 0.03 0.02 0.03 0.00 0.00 0.00 0.00 0.00 0.00 0.00 0.00 0.01 0.01 0.05 0.16 0.29 0.26 0.51 0.75 0.43 0.17 0.14 0.03 0.02 0.01 0.01 0.03 0.22 0.21 0.04 0.04 0.03 0.03 0.04
0.01 0.02 0.15 0.22 0.48 0.43 0.12 0.15 0.28 0.03 0.11 0.16 0.09 0.15 0.09 0.05 0.03 0.03 0.02 0.02 0.00 0.00 0.00 0.00 0.00 0.00 0.00 0.00 0.00 0.01 0.16 0.28 0.29 0.38 0.31 0.25 0.35 0.47 0.20 0.20 0.11 0.05 0.04 0.05 0.05 0.08 0.04 0.01 0.03
0.01 0.01 0.02 0.05 0.11 0.21 0.19 0.35 0.14 0.01 0.00 0.03 0.03 0.05 0.24 0.07 0.06 0.05 0.04 0.08 0.09 0.01 0.01 0.06 0.02 0.02 0.00 0.02 0.02 0.01 0.04 0.05 0.16 0.18 0.46 0.42 0.42 0.61 0.22 0.21 0.14 0.12 0.06 0.02 0.01 0.01 0.00 0.03 0.02
0.02 0.01 0.03 0.04 0.06 0.10 0.28 0.45 0.13 0.03 0.00 0.00 0.02 0.02 0.10 0.05 0.09 0.04 0.03 0.19 0.51 0.25 0.22 0.07 0.08 0.07 0.05 0.03 0.03 0.08 0.13 0.07 0.10 0.31 0.33 0.39 0.48 0.63 0.68 0.18 0.05 0.07 0.03 0.01 0.01 0.01 0.01 0.10 0.18
0.00 0.04 0.06 0.06 0.07 0.07 0.19 0.70 0.30 0.01 0.00 0.00 0.01 0.02 0.00 0.03 0.10 0.09 0.07 0.12 0.37 0.72 0.78 0.50 0.14 0.09 0.10 0.03 0.05 0.10 0.06 0.08 0.16 0.12 0.24 0.42 0.52 1.48 1.11 0.27 0.13 0.05 0.03 0.07 0.08 0.03 0.01 0.03 0.06
0.00 0.02 0.05 0.03 0.02 0.02 0.07 0.15 0.06 0.02 0.00 0.00 0.00 0.01 0.00 0.00 0.07 0.14 0.10 0.18 0.17 0.59 0.43 0.95 0.26 0.11 0.06 0.06 0.27 0.46 0.18 0.06 0.09 0.14 0.21 0.22 0.23 0.41 0.28 0.31 0.23 0.24 0.12 0.10 0.11 0.12 0.10 0.08 0.04
0.00 0.00 0.00 0.00 0.00 0.00 0.00 0.08 0.16 0.15 0.02 0.01 0.02 0.04 0.05 0.06 0.09 0.15 0.15 0.37 0.23 0.19 0.22 0.26 0.33 0.46 0.48 0.56 0.74 0.59 0.67 0.54 0.24 0.17 0.18 0.17 0.15 0.15 0.25 0.20 0.33 0.36 0.16 0.17 0.18 0.10 0.13 0.16 0.12

GFSSGP_prec_precacc24_120.txt.gz
Total_Precipitation_Accumulation
0.00 0.00 0.06 0.20 0.26 0.18 0.00 0.00 0.00 0.00 0.00 0.00 0.00 0.00 0.00 0.01 0.00 0.00 0.07 0.14 0.01 0.00 0.04 0.29 0.24 0.29 0.44 0.33 0.16 0.12 0.08 0.09 0.09 0.07 0.07 0.05 0.04 0.09 0.19 0.19 0.18 0.13 0.09 0.10 0.10 0.12 0.08 0.04 0.02
0.00 0.09 0.08 0.65 0.28 0.07 0.01 0.00 0.00 0.00 0.00 0.00 0.00 0.00 0.01 0.00 0.00 0.00 0.02 0.01 0.02 0.02 0.04 0.15 0.13 0.22 0.37 0.23 0.13 0.05 0.10 0.08 0.05 0.05 0.07 0.12 0.24 0.23 0.13 0.08 0.08 0.13 0.11 0.14 0.13 0.14 0.15 0.13 0.14
0.00 0.06 0.10 0.42 0.09 0.03 0.00 0.00 0.00 0.00 0.00 0.00 0.08 0.02 0.00 0.00 0.00 0.00 0.03 0.04 0.06 0.05 0.00 0.04 0.07 0.11 0.16 0.11 0.10 0.09 0.13 0.09 0.10 0.10 0.15 0.22 0.30 0.18 0.08 0.09 0.14 0.20 0.24 0.26 0.29 0.28 0.42 0.30 0.34
0.00 0.04 0.00 0.11 0.11 0.02 0.00 0.00 0.00 0.00 0.00 0.00 0.01 0.02 0.00 0.00 0.00 0.01 0.07 0.09 0.04 0.01 0.00 0.01 0.05 0.10 0.12 0.06 0.08 0.10 0.13 0.12 0.11 0.08 0.12 0.13 0.11 0.07 0.16 0.11 0.12 0.08 0.11 0.12 0.16 0.13 0.14 0.19 0.10
0.00 0.01 0.10 0.28 0.07 0.00 0.00 0.00 0.00 0.00 0.00 0.01 0.02 0.04 0.01 0.01 0.00 0.00 0.03 0.03 0.00 0.00 0.00 0.02 0.18 0.11 0.09 0.08 0.14 0.16 0.14 0.16 0.17 0.19 0.15 0.20 0.14 0.05 0.09 0.13 0.13 0.11 0.04 0.07 0.07 0.03 0.02 0.05 0.05
0.03 0.11 0.47 0.33 0.01 0.00 0.00 0.00 0.00 0.00 0.01 0.01 0.00 0.00 0.00 0.00 0.02 0.01 0.04 0.07 0.01 0.01 0.01 0.00 0.13 0.13 0.12 0.12 0.18 0.13 0.14 0.18 0.19 0.13 0.08 0.12 0.29 0.11 0.16 0.15 0.07 0.02 0.00 0.01 0.00 0.04 0.05 0.07 0.12
0.27 0.45 0.51 0.10 0.00 0.00 0.00 0.00 0.00 0.00 0.00 0.01 0.00 0.00 0.00 0.01 0.04 0.02 0.04 0.05 0.01 0.01 0.01 0.01 0.04 0.06 0.10 0.10 0.18 0.18 0.13 0.19 0.16 0.10 0.07 0.10 0.12 0.05 0.06 0.02 0.00 0.00 0.01 0.00 0.00 0.01 0.00 0.01 0.03
0.31 0.98 0.77 0.30 0.00 0.00 0.00 0.00 0.00 0.00 0.01 0.00 0.00 0.00 0.00 0.00 0.13 0.07 0.02 0.03 0.05 0.08 0.04 0.01 0.01 0.05 0.03 0.07 0.25 0.15 0.10 0.13 0.08 0.10 0.20 0.25 0.13 0.11 0.12 0.08 0.01 0.00 0.00 0.00 0.00 0.00 0.00 0.00 0.00
0.35 1.63 0.74 0.86 0.01 0.00 0.00 0.02 0.01 0.02 0.00 0.00 0.00 0.00 0.00 0.00 0.04 0.02 0.00 0.01 0.10 0.04 0.02 0.00 0.01 0.02 0.14 0.14 0.28 0.39 0.29 0.16 0.16 0.23 0.44 0.58 0.08 0.05 0.11 0.12 0.04 0.00 0.01 0.02 0.01 0.00 0.01 0.01 0.00
0.62 2.02 1.00 0.56 0.09 0.03 0.01 0.02 0.00 0.01 0.01 0.01 0.00 0.00 0.00 0.00 0.00 0.01 0.01 0.00 0.10 0.04 0.03 0.00 0.00 0.00 0.10 0.14 0.23 0.35 0.19 0.24 0.29 0.23 0.21 0.16 0.09 0.11 0.07 0.12 0.12 0.11 0.09 0.12 0.12 0.11 0.11 0.30 0.11
0.53 2.32 1.03 0.35 0.29 0.14 0.11 0.02 0.00 0.01 0.01 0.00 0.00 0.00 0.00 0.00 0.00 0.01 0.02 0.01 0.02 0.01 0.01 0.00 0.00 0.00 0.05 0.06 0.01 0.05 0.03 0.05 0.17 0.30 0.19 0.07 0.08 0.02 0.04 0.11 0.17 0.16 0.16 0.23 0.08 0.07 0.05 0.14 0.06
0.44 0.51 0.96 0.95 0.70 0.13 0.18 0.06 0.00 0.01 0.01 0.00 0.00 0.00 0.00 0.00 0.00 0.01 0.00 0.00 0.00 0.00 0.00 0.00 0.00 0.01 0.04 0.02 0.06 0.02 0.02 0.02 0.19 0.22 0.07 0.06 0.00 0.08 0.15 0.08 0.51 0.46 0.32 0.58 0.07 0.03 0.00 0.00 0.00
0.26 0.42 0.69 0.95 0.31 0.19 0.18 0.15 0.04 0.01 0.01 0.00 0.00 0.00 0.00 0.00 0.01 0.01 0.00 0.00 0.00 0.00 0.00 0.00 0.00 0.02 0.01 0.04 0.02 0.12 0.06 0.00 0.03 0.06 0.09 0.09 0.04 0.14 0.13 0.08 0.42 0.29 0.11 0.13 0.03 0.01 0.01 0.00 0.00
0.12 0.30 0.58 1.11 0.82 0.43 0.27 0.25 0.12 0.05 0.01 0.00 0.00 0.00 0.00 0.00 0.00 0.00 0.01 0.00 0.00 0.00 0.00 0.00 0.00 0.00 0.00 0.04 0.08 0.06 0.02 0.01 0.02 0.11 0.13 0.10 0.05 0.05 0.07 0.13 0.08 0.14 0.08 0.01 0.01 0.10 0.07 0.00 0.00
0.15 0.44 0.84 1.05 1.26 0.95 0.53 0.44 0.37 0.07 0.05 0.00 0.00 0.00 0.00 0.00 0.00 0.00 0.00 0.00 0.00 0.00 0.00 0.00 0.00 0.00 0.00 0.02 0.06 0.02 0.01 0.01 0.02 0.04 0.10 0.21 0.04 0.08 0.23 0.12 0.07 0.08 0.08 0.03 0.02 0.01 0.00 0.00 0.00
0.21 0.47 0.81 0.89 1.29 1.33 0.63 0.60 0.45 0.10 0.03 0.01 0.00 0.00 0.00 0.00 0.00 0.00 0.00 0.00 0.00 0.00 0.00 0.00 0.00 0.00 0.00 0.02 0.01 0.01 0.00 0.05 0.01 0.01 0.02 0.03 0.03 0.07 0.10 0.06 0.12 0.25 0.68 0.11 0.05 0.02 0.00 0.00 0.01
0.44 0.52 0.72 2.05 2.11 2.06 1.12 1.11 0.44 0.22 0.06 0.02 0.00 0.00 0.00 0.00 0.00 0.00 0.00 0.00 0.00 0.00 0.00 0.00 0.00 0.00 0.00 0.00 0.02 0.03 0.03 0.04 0.00 0.02 0.03 0.00 0.02 0.10 0.04 0.04 0.08 0.16 0.09 0.09 0.02 0.05 0.00 0.00 0.00
0.33 0.63 0.74 1.31 2.68 2.15 1.51 1.35 0.51 0.24 0.13 0.04 0.01 0.00 0.00 0.00 0.00 0.00 0.00 0.00 0.00 0.00 0.00 0.00 0.00 0.00 0.05 0.08 0.07 0.09 0.06 0.03 0.00 0.03 0.05 0.04 0.04 0.05 0.08 0.06 0.06 0.08 0.07 0.04 0.01 0.00 0.00 0.00 0.00
0.38 0.66 1.11 1.26 2.05 2.44 1.93 1.31 1.17 0.49 0.25 0.05 0.01 0.00 0.00 0.00 0.00 0.00 0.00 0.00 0.00 0.00 0.00 0.00 0.01 0.05 0.06 0.05 0.02 0.03 0.07 0.01 0.02 0.07 0.08 0.10 0.07 0.06 0.08 0.06 0.05 0.41 0.07 0.02 0.01 0.00 0.00 0.00 0.00
0.11 0.36 1.36 1.45 1.52 1.29 1.63 1.27 1.41 1.40 0.50 0.08 0.02 0.03 0.00 0.00 0.00 0.00 0.00 0.00 0.00 0.00 0.00 0.00 0.04 0.09 0.07 0.04 0.07 0.08 0.03 0.03 0.04 0.09 0.09 0.06 0.10 0.07 0.05 0.07 0.06 0.11 0.04 0.01 0.01 0.00 0.01 0.00 0.00
0.13 0.13 0.87 1.82 1.43 1.30 0.96 1.46 1.24 1.19 1.04 0.24 0.04 0.02 0.02 0.00 0.00 0.00 0.00 0.00 0.00 0.00 0.00 0.00 0.02 0.12 0.12 0.12 0.09 0.15 0.22 0.33 0.24 0.14 0.11 0.08 0.06 0.09 0.05 0.11 0.30 0.10 0.11 0.04 0.03 0.03 0.01 0.01 0.00
0.16 0.16 0.41 1.17 1.36 1.18 1.11 1.01 1.19 0.90 0.91 0.52 0.09 0.01 0.01 0.02 0.00 0.00 0.00 0.00 0.00 0.00 0.00 0.00 0.01 0.13 0.11 0.07 0.11 0.23 0.31 0.31 0.28 0.32 0.44 0.25 0.05 0.05 0.03 0.03 0.07 0.10 0.35 0.26 0.03 0.06 0.03 0.01 0.00
0.04 0.07 0.25 0.66 0.96 0.84 0.71 0.67 0.62 0.81 0.62 0.53 0.10 0.04 0.02 0.02 0.01 0.02 0.00 0.00 0.00 0.00 0.00 0.00 0.00 0.10 0.07 0.05 0.30 0.18 0.08 0.11 0.19 0.28 0.42 0.24 0.12 0.02 0.01 0.01 0.01 0.05 0.14 0.10 0.09 0.05 0.06 0.02 0.02
0.01 0.06 0.09 0.31 0.96 0.56 0.24 0.34 0.32 0.40 0.33 0.32 0.14 0.20 0.04 0.03 0.02 0.03 0.00 0.00 0.00 0.00 0.00 0.00 0.00 0.01 0.02 0.04 0.11 0.21 0.23 0.22 0.38 0.63 0.38 0.20 0.15 0.03 0.02 0.02 0.01 0.03 0.22 0.21 0.04 0.03 0.03 0.03 0.04
0.00 0.02 0.16 0.23 0.49 0.43 0.12 0.16 0.28 0.03 0.11 0.16 0.09 0.15 0.09 0.05 0.03 0.03 0.02 0.02 0.00 0.00 0.00 0.00 0.00 0.00 0.00 0.04 0.06 0.07 0.15 0.19 0.25 0.27 0.25 0.31 0.31 0.42 0.24 0.18 0.10 0.05 0.04 0.05 0.05 0.04 0.01 0.01 0.03
0.01 0.01 0.02 0.05 0.11 0.23 0.20 0.36 0.14 0.01 0.00 0.03 0.03 0.05 0.24 0.07 0.05 0.05 0.04 0.08 0.09 0.01 0.01 0.06 0.02 0.02 0.00 0.01 0.02 0.03 0.07 0.08 0.11 0.17 0.45 0.45 0.45 0.64 0.23 0.22 0.16 0.13 0.09 0.04 0.02 0.01 0.00 0.01 0.01
0.02 0.01 0.03 0.04 0.07 0.12 0.28 0.45 0.13 0.03 0.00 0.00 0.02 0.02 0.10 0.05 0.09 0.04 0.03 0.19 0.51 0.24 0.21 0.07 0.08 0.07 0.05 0.02 0.03 0.06 0.06 0.06 0.07 0.15 0.36 0.36 0.45 0.66 0.68 0.21 0.08 0.07 0.06 0.03 0.02 0.01 0.01 0.09 0.18
0.00 0.04 0.07 0.06 0.08 0.08 0.19 0.70 0.30 0.01 0.00 0.00 0.01 0.02 0.00 0.03 0.08 0.06 0.06 0.12 0.37 0.71 0.74 0.47 0.14 0.07 0.09 0.03 0.02 0.02 0.01 0.02 0.11 0.05 0.19 0.37 0.53 1.47 0.97 0.19 0.08 0.04 0.06 0.05 0.09 0.04 0.02 0.03 0.06
0.00 0.02 0.05 0.04 0.02 0.02 0.08 0.15 0.06 0.02 0.00 0.00 0.00 0.01 0.00 0.00 0.07 0.13 0.10 0.18 0.17 0.59 0.42 0.84 0.19 0.06 0.05 0.06 0.27 0.38 0.11 0.04 0.06 0.08 0.15 0.23 0.26 0.41 0.19 0.19 0.15 0.12 0.08 0.04 0.05 0.12 0.10 0.09 0.06
0.00 0.00 0.00 0.02 0.00 0.00 0.01 0.09 0.16 0.15 0.02 0.01 0.02 0.04 0.05 0.06 0.09 0.13 0.12 0.37 0.23 0.19 0.22 0.23 0.25 0.35 0.44 0.53 0.74 0.59 0.64 0.49 0.22 0.21 0.16 0.14 0.13 0.14 0.16 0.16 0.23 0.16 0.14 0.14 0.16 0.17 0.11 0.14 0.11

GFSSGP_prec_precacc24_123.txt.gz
Total_Precipitation_Accumulation
0.00 0.00 0.06 0.20 0.24 0.17 0.00 0.00 0.00 0.00 0.00 0.00 0.00 0.00 0.00 0.01 0.00 0.01 0.07 0.14 0.01 0.00 0.04 0.29 0.26 0.33 0.42 0.35 0.31 0.16 0.10 0.13 0.12 0.09 0.07 0.05 0.06 0.07 0.20 0.20 0.17 0.14 0.08 0.09 0.09 0.08 0.10 0.09 0.06
0.00 0.09 0.08 0.64 0.22 0.06 0.00 0.00 0.00 0.00 0.00 0.00 0.00 0.01 0.00 0.00 0.00 0.00 0.02 0.01 0.01 0.01 0.03 0.15 0.15 0.21 0.32 0.31 0.24 0.09 0.12 0.11 0.08 0.07 0.08 0.14 0.25 0.22 0.12 0.08 0.09 0.15 0.11 0.13 0.13 0.16 0.19 0.18 0.19
0.00 0.06 0.09 0.41 0.03 0.01 0.00 0.00 0.00 0.00 0.00 0.02 0.09 0.02 0.00 0.00 0.00 0.00 0.03 0.04 0.04 0.03 0.00 0.04 0.04 0.07 0.17 0.17 0.17 0.12 0.14 0.10 0.10 0.10 0.14 0.21 0.27 0.13 0.07 0.10 0.14 0.19 0.16 0.18 0.23 0.25 0.43 0.31 0.35
0.00 0.03 0.00 0.09 0.03 0.00 0.00 0.00 0.00 0.00 0.00 0.00 0.01 0.00 0.00 0.00 0.00 0.01 0.07 0.06 0.01 0.01 0.01 0.00 0.01 0.03 0.05 0.07 0.09 0.14 0.16 0.13 0.13 0.09 0.12 0.12 0.09 0.07 0.13 0.10 0.10 0.05 0.08 0.14 0.16 0.13 0.16 0.19 0.10
0.00 0.01 0.10 0.24 0.05 0.00 0.00 0.00 0.00 0.00 0.00 0.00 0.00 0.01 0.01 0.01 0.00 0.00 0.02 0.01 0.00 0.00 0.00 0.00 0.11 0.08 0.07 0.09 0.19 0.19 0.16 0.17 0.20 0.19 0.12 0.14 0.11 0.05 0.07 0.09 0.06 0.03 0.02 0.06 0.06 0.02 0.02 0.05 0.05
0.04 0.05 0.47 0.29 0.01 0.00 0.00 0.00 0.00 0.01 0.00 0.01 0.00 0.00 0.00 0.00 0.01 0.00 0.04 0.07 0.01 0.01 0.00 0.00 0.11 0.12 0.12 0.12 0.24 0.18 0.21 0.23 0.23 0.12 0.05 0.09 0.19 0.09 0.13 0.12 0.04 0.01 0.00 0.01 0.00 0.04 0.05 0.07 0.12
0.15 0.30 0.46 0.08 0.00 0.00 0.00 0.00 0.00 0.00 0.00 0.00 0.00 0.00 0.00 0.01 0.04 0.02 0.04 0.05 0.01 0.01 0.00 0.00 0.04 0.05 0.09 0.12 0.22 0.21 0.15 0.19 0.18 0.10 0.06 0.10 0.11 0.04 0.05 0.01 0.01 0.01 0.03 0.00 0.00 0.01 0.00 0.01 0.03
0.21 0.76 0.69 0.29 0.00 0.00 0.00 0.00 0.00 0.00 0.01 0.00 0.00 0.00 0.00 0.00 0.13 0.07 0.02 0.03 0.05 0.08 0.04 0.02 0.01 0.03 0.02 0.08 0.32 0.23 0.12 0.12 0.08 0.10 0.20 0.23 0.12 0.11 0.11 0.07 0.01 0.01 0.01 0.00 0.00 0.00 0.00 0.00 0.00
0.32 1.37 0.68 0.85 0.02 0.01 0.00 0.02 0.00 0.01 0.00 0.00 0.00 0.00 0.00 0.00 0.04 0.02 0.00 0.01 0.10 0.04 0.03 0.02 0.01 0.03 0.16 0.15 0.30 0.43 0.28 0.15 0.13 0.22 0.37 0.38 0.07 0.05 0.09 0.10 0.04 0.00 0.01 0.02 0.01 0.00 0.01 0.01 0.00
0.54 1.92 0.94 0.55 0.09 0.03 0.01 0.02 0.00 0.01 0.01 0.01 0.00 0.00 0.00 0.00 0.00 0.01 0.01 0.00 0.10 0.04 0.04 0.03 0.00 0.00 0.10 0.14 0.26 0.41 0.19 0.24 0.26 0.22 0.17 0.10 0.09 0.06 0.07 0.12 0.13 0.12 0.10 0.12 0.12 0.11 0.11 0.28 0.11
0.48 2.15 0.97 0.33 0.28 0.14 0.11 0.02 0.00 0.01 0.00 0.00 0.00 0.00 0.00 0.00 0.00 0.01 0.02 0.01 0.02 0.01 0.01 0.00 0.00 0.00 0.06 0.06 0.01 0.05 0.03 0.05 0.17 0.27 0.13 0.07 0.08 0.02 0.04 0.11 0.17 0.16 0.16 0.23 0.08 0.07 0.05 0.14 0.06
0.43 0.48 0.94 0.94 0.70 0.13 0.19 0.11 0.01 0.01 0.02 0.00 0.00 0.00 0.00 0.00 0.00 0.01 0.00 0.00 0.00 0.00 0.00 0.00 0.00 0.00 0.04 0.02 0.06 0.02 0.02 0.02 0.18 0.22 0.07 0.06 0.00 0.08 0.15 0.08 0.51 0.46 0.32 0.58 0.07 0.03 0.00 0.00 0.00
0.24 0.39 0.68 0.92 0.30 0.19 0.17 0.17 0.08 0.01 0.01 0.00 0.00 0.00 0.00 0.00 0.01 0.01 0.00 0.00 0.00 0.00 0.00 0.00 0.00 0.01 0.01 0.04 0.02 0.12 0.06 0.00 0.03 0.06 0.09 0.09 0.04 0.14 0.13 0.08 0.42 0.29 0.11 0.13 0.03 0.01 0.01 0.00 0.00
0.10 0.28 0.55 1.07 0.81 0.42 0.26 0.26 0.14 0.05 0.01 0.00 0.00 0.00 0.00 0.00 0.00 0.00 0.01 0.00 0.00 0.00 0.00 0.00 0.00 0.00 0.00 0.04 0.08 0.06 0.02 0.01 0.02 0.11 0.13 0.10 0.05 0.05 0.07 0.12 0.08 0.13 0.08 0.01 0.01 0.10 0.07 0.00 0.00
0.07 0.40 0.79 0.99 1.27 0.96 0.54 0.48 0.40 0.08 0.05 0.00 0.00 0.00 0.00 0.00 0.00 0.00 0.00 0.00 0.00 0.00 0.00 0.00 0.00 0.00 0.00 0.03 0.06 0.02 0.01 0.01 0.02 0.04 0.10 0.21 0.04 0.08 0.22 0.12 0.07 0.08 0.08 0.03 0.02 0.01 0.00 0.00 0.00
0.13 0.36 0.78 0.82 1.27 1.33 0.64 0.66 0.47 0.11 0.03 0.01 0.00 0.00 0.00 0.00 0.00 0.00 0.00 0.00 0.00 0.00 0.00 0.00 0.00 0.00 0.00 0.02 0.02 0.01 0.00 0.05 0.01 0.01 0.02 0.03 0.03 0.07 0.10 0.06 0.12 0.25 0.68 0.11 0.05 0.02 0.00 0.00 0.01
0.28 0.34 0.57 1.92 2.04 2.04 1.12 1.19 0.38 0.23 0.07 0.04 0.00 0.00 0.00 0.00 0.00 0.00 0.00 0.00 0.00 0.00 0.00 0.00 0.00 0.00 0.01 0.01 0.02 0.03 0.03 0.04 0.01 0.01 0.03 0.00 0.02 0.10 0.04 0.04 0.08 0.16 0.09 0.09 0.02 0.05 0.00 0.00 0.00
0.26 0.45 0.58 1.18 2.60 2.11 1.46 1.32 0.42 0.21 0.13 0.12 0.01 0.00 0.00 0.00 0.00 0.00 0.00 0.00 0.00 0.00 0.00 0.00 0.00 0.00 0.03 0.06 0.07 0.09 0.06 0.03 0.00 0.03 0.05 0.04 0.04 0.05 0.08 0.06 0.06 0.08 0.07 0.04 0.01 0.00 0.00 0.00 0.00
0.32 0.42 0.64 1.13 2.01 2.18 1.75 1.17 0.92 0.20 0.12 0.06 0.04 0.01 0.00 0.00 0.00 0.00 0.00 0.00 0.00 0.00 0.00 0.00 0.00 0.02 0.00 0.01 0.02 0.03 0.07 0.01 0.02 0.07 0.08 0.10 0.07 0.06 0.08 0.06 0.05 0.41 0.09 0.08 0.01 0.00 0.00 0.00 0.00
0.11 0.23 0.61 1.12 1.47 1.23 1.42 1.09 1.09 0.81 0.17 0.04 0.05 0.03 0.00 0.00 0.00 0.00 0.00 0.00 0.00 0.00 0.00 0.00 0.03 0.06 0.07 0.02 0.05 0.07 0.03 0.03 0.04 0.09 0.09 0.06 0.10 0.07 0.05 0.07 0.06 0.11 0.04 0.01 0.01 0.06 0.03 0.00 0.00
0.12 0.10 0.35 1.34 1.36 1.18 0.73 1.17 1.06 0.85 0.58 0.11 0.02 0.05 0.02 0.00 0.00 0.00 0.00 0.00 0.00 0.00 0.00 0.00 0.02 0.09 0.12 0.12 0.05 0.13 0.19 0.22 0.18 0.13 0.10 0.08 0.06 0.09 0.05 0.11 0.28 0.10 0.11 0.04 0.03 0.04 0.01 0.11 0.00
0.16 0.15 0.11 0.79 1.33 1.09 0.99 0.89 1.13 0.83 0.54 0.27 0.05 0.03 0.02 0.01 0.00 0.00 0.00 0.00 0.00 0.00 0.00 0.00 0.01 0.14 0.10 0.07 0.12 0.22 0.15 0.13 0.20 0.29 0.41 0.24 0.05 0.05 0.03 0.03 0.07 0.10 0.35 0.25 0.03 0.06 0.03 0.01 0.00
0.04 0.07 0.13 0.54 0.93 0.82 0.68 0.62 0.59 0.79 0.41 0.25 0.08 0.04 0.03 0.01 0.00 0.01 0.00 0.00 0.00 0.00 0.00 0.00 0.00 0.11 0.07 0.09 0.39 0.16 0.08 0.10 0.17 0.20 0.34 0.19 0.11 0.02 0.01 0.01 0.01 0.05 0.14 0.10 0.08 0.05 0.06 0.02 0.02
0.01 0.06 0.09 0.31 0.95 0.51 0.23 0.33 0.31 0.40 0.26 0.13 0.09 0.17 0.03 0.02 0.02 0.03 0.00 0.00 0.00 0.00 0.00 0.00 0.00 0.01 0.03 0.12 0.12 0.18 0.16 0.20 0.31 0.44 0.24 0.20 0.15 0.03 0.02 0.02 0.01 0.03 0.22 0.21 0.04 0.03 0.03 0.03 0.04
0.00 0.02 0.16 0.23 0.47 0.43 0.12 0.16 0.28 0.05 0.10 0.10 0.06 0.13 0.08 0.03 0.02 0.02 0.02 0.02 0.00 0.00 0.00 0.00 0.00 0.00 0.00 0.06 0.07 0.07 0.12 0.14 0.24 0.22 0.21 0.23 0.27 0.39 0.21 0.15 0.07 0.05 0.04 0.05 0.05 0.04 0.01 0.01 0.04
0.01 0.01 0.02 0.05 0.11 0.23 0.19 0.36 0.14 0.03 0.00 0.03 0.03 0.05 0.24 0.07 0.05 0.05 0.04 0.05 0.07 0.01 0.01 0.06 0.02 0.01 0.00 0.00 0.00 0.02 0.07 0.08 0.10 0.16 0.45 0.45 0.39 0.64 0.21 0.22 0.16 0.13 0.09 0.04 0.02 0.01 0.00 0.01 0.01
0.02 0.01 0.03 0.04 0.07 0.11 0.28 0.45 0.13 0.04 0.01 0.00 0.02 0.02 0.10 0.05 0.08 0.03 0.03 0.18 0.50 0.23 0.21 0.05 0.08 0.06 0.03 0.00 0.00 0.00 0.02 0.05 0.03 0.11 0.40 0.36 0.44 0.51 0.64 0.21 0.08 0.07 0.06 0.03 0.01 0.01 0.01 0.07 0.18
0.00 0.06 0.07 0.06 0.08 0.08 0.19 0.70 0.31 0.01 0.00 0.00 0.01 0.02 0.00 0.03 0.08 0.07 0.06 0.12 0.37 0.69 0.70 0.46 0.14 0.07 0.08 0.01 0.01 0.01 0.01 0.02 0.11 0.08 0.25 0.33 0.57 1.21 0.87 0.21 0.10 0.05 0.08 0.07 0.09 0.04 0.02 0.02 0.06
0.00 0.02 0.05 0.04 0.03 0.03 0.08 0.16 0.12 0.03 0.00 0.00 0.02 0.01 0.01 0.00 0.07 0.13 0.11 0.18 0.17 0.59 0.39 0.82 0.17 0.06 0.03 0.03 0.21 0.27 0.11 0.04 0.06 0.08 0.19 0.29 0.31 0.40 0.20 0.22 0.23 0.19 0.13 0.10 0.16 0.16 0.09 0.11 0.08
0.00 0.00 0.00 0.02 0.01 0.02 0.01 0.10 0.17 0.15 0.02 0.01 0.04 0.04 0.06 0.03 0.06 0.14 0.12 0.37 0.23 0.16 0.21 0.23 0.20 0.26 0.39 0.48 0.66 0.49 0.63 0.47 0.20 0.19 0.17 0.21 0.19 0.21 0.17 0.16 0.18 0.20 0.18 0.21 0.21 0.24 0.14 0.20 0.15

GFSSGP_prec_precacc24_126.txt.gz
Total_Precipitation_Accumulation
0.00 0.01 0.06 0.22 0.44 0.14 0.00 0.00 0.00 0.00 0.00 0.00 0.00 0.00 0.00 0.01 0.01 0.02 0.06 0.13 0.02 0.00 0.04 0.29 0.28 0.33 0.38 0.35 0.37 0.25 0.12 0.13 0.13 0.14 0.09 0.06 0.06 0.07 0.20 0.17 0.14 0.13 0.11 0.10 0.16 0.21 0.20 0.16 0.08
0.00 0.10 0.08 0.62 0.34 0.03 0.00 0.00 0.00 0.00 0.00 0.00 0.00 0.01 0.00 0.00 0.00 0.00 0.01 0.01 0.00 0.00 0.03 0.15 0.16 0.20 0.30 0.32 0.26 0.13 0.12 0.11 0.08 0.08 0.06 0.11 0.21 0.20 0.12 0.04 0.06 0.13 0.11 0.17 0.23 0.24 0.27 0.20 0.20
0.00 0.07 0.09 0.75 0.10 0.00 0.00 0.00 0.00 0.00 0.01 0.07 0.01 0.01 0.00 0.00 0.00 0.00 0.03 0.04 0.04 0.02 0.00 0.04 0.05 0.06 0.16 0.19 0.19 0.13 0.12 0.08 0.09 0.08 0.12 0.19 0.25 0.12 0.06 0.05 0.09 0.16 0.17 0.18 0.26 0.27 0.43 0.31 0.35
0.00 0.01 0.02 0.01 0.00 0.00 0.00 0.00 0.00 0.00 0.00 0.01 0.01 0.00 0.00 0.00 0.00 0.01 0.07 0.06 0.01 0.16 0.01 0.00 0.01 0.04 0.05 0.11 0.12 0.23 0.16 0.14 0.16 0.12 0.11 0.10 0.07 0.09 0.12 0.13 0.09 0.06 0.11 0.16 0.18 0.13 0.15 0.19 0.10
0.00 0.16 0.41 0.09 0.01 0.00 0.00 0.00 0.00 0.00 0.00 0.00 0.00 0.01 0.01 0.01 0.00 0.00 0.02 0.01 0.04 0.54 0.00 0.00 0.10 0.07 0.06 0.11 0.24 0.25 0.18 0.17 0.21 0.21 0.11 0.09 0.08 0.03 0.07 0.08 0.05 0.03 0.03 0.06 0.05 0.01 0.02 0.05 0.05
0.03 1.04 0.96 0.20 0.01 0.00 0.00 0.00 0.00 0.00 0.00 0.00 0.00 0.00 0.00 0.00 0.00 0.00 0.04 0.04 0.02 0.10 0.00 0.00 0.11 0.12 0.13 0.13 0.26 0.18 0.21 0.23 0.23 0.12 0.05 0.08 0.10 0.08 0.10 0.11 0.03 0.01 0.01 0.01 0.00 0.04 0.05 0.07 0.12
0.06 0.65 0.67 0.07 0.01 0.00 0.00 0.01 0.01 0.00 0.00 0.00 0.00 0.00 0.00 0.01 0.03 0.01 0.05 0.06 0.01 0.01 0.00 0.00 0.04 0.05 0.09 0.12 0.22 0.20 0.16 0.20 0.18 0.10 0.06 0.10 0.10 0.04 0.04 0.02 0.01 0.02 0.03 0.00 0.00 0.01 0.00 0.01 0.03
0.09 0.58 0.62 0.24 0.03 0.00 0.00 0.00 0.00 0.00 0.00 0.00 0.02 0.01 0.00 0.00 0.13 0.07 0.02 0.03 0.05 0.16 0.02 0.02 0.01 0.02 0.02 0.08 0.31 0.22 0.11 0.12 0.08 0.10 0.15 0.21 0.12 0.07 0.10 0.08 0.02 0.01 0.02 0.00 0.00 0.00 0.00 0.00 0.00
0.26 0.50 0.52 0.69 0.06 0.25 0.00 0.02 0.00 0.01 0.00 0.00 0.00 0.00 0.00 0.00 0.04 0.02 0.00 0.01 0.10 0.16 0.06 0.02 0.03 0.04 0.17 0.15 0.30 0.43 0.28 0.12 0.12 0.23 0.36 0.29 0.07 0.05 0.05 0.07 0.04 0.00 0.01 0.02 0.01 0.00 0.00 0.00 0.00
0.44 1.80 1.00 0.64 0.11 0.16 0.02 0.03 0.00 0.00 0.00 0.00 0.00 0.00 0.00 0.00 0.00 0.01 0.01 0.00 0.10 0.05 0.26 0.12 0.02 0.05 0.10 0.14 0.28 0.47 0.29 0.24 0.22 0.16 0.14 0.07 0.09 0.06 0.07 0.12 0.13 0.12 0.10 0.12 0.12 0.11 0.06 0.02 0.00
0.44 1.54 0.78 0.22 0.23 0.12 0.11 0.05 0.00 0.01 0.01 0.00 0.00 0.00 0.00 0.00 0.00 0.01 0.02 0.01 0.02 0.01 0.02 0.07 0.01 0.04 0.09 0.06 0.03 0.22 0.26 0.05 0.07 0.15 0.10 0.06 0.08 0.02 0.04 0.11 0.15 0.14 0.11 0.08 0.06 0.07 0.04 0.02 0.00
0.41 0.42 0.89 0.87 0.64 0.12 0.18 0.19 0.03 0.02 0.08 0.00 0.00 0.00 0.00 0.00 0.00 0.01 0.00 0.01 0.00 0.01 0.02 0.01 0.00 0.18 0.23 0.02 0.13 0.02 0.02 0.02 0.03 0.08 0.07 0.06 0.00 0.08 0.14 0.08 0.30 0.21 0.24 0.10 0.05 0.03 0.00 0.00 0.00
0.21 0.36 0.64 0.83 0.25 0.17 0.17 0.21 0.16 0.01 0.01 0.00 0.00 0.00 0.00 0.00 0.01 0.01 0.00 0.00 0.00 0.00 0.01 0.00 0.00 0.03 0.03 0.09 0.04 0.12 0.06 0.00 0.03 0.06 0.09 0.09 0.04 0.14 0.12 0.06 0.35 0.18 0.08 0.09 0.03 0.01 0.00 0.00 0.00
0.10 0.24 0.52 1.05 0.76 0.40 0.25 0.29 0.20 0.05 0.01 0.00 0.00 0.00 0.00 0.00 0.00 0.00 0.01 0.00 0.00 0.00 0.00 0.00 0.00 0.00 0.00 0.08 0.09 0.06 0.09 0.01 0.02 0.11 0.12 0.04 0.05 0.04 0.04 0.05 0.07 0.08 0.06 0.01 0.01 0.01 0.00 0.00 0.00
0.07 0.38 0.74 0.88 1.21 0.95 0.54 0.49 0.56 0.15 0.05 0.00 0.00 0.00 0.00 0.00 0.00 0.00 0.00 0.00 0.00 0.00 0.00 0.00 0.00 0.00 0.00 0.03 0.06 0.03 0.11 0.02 0.02 0.05 0.08 0.13 0.03 0.02 0.07 0.06 0.07 0.08 0.08 0.03 0.02 0.01 0.00 0.00 0.00
0.07 0.31 0.75 0.69 1.22 1.33 0.65 0.73 0.90 0.48 0.04 0.01 0.00 0.00 0.00 0.00 0.00 0.00 0.00 0.00 0.00 0.00 0.00 0.00 0.00 0.01 0.00 0.02 0.01 0.00 0.00 0.05 0.02 0.04 0.02 0.03 0.03 0.03 0.07 0.06 0.12 0.25 0.68 0.11 0.05 0.02 0.00 0.00 0.01
0.13 0.24 0.54 1.88 2.00 2.04 1.13 1.35 0.61 0.38 0.09 0.07 0.00 0.00 0.00 0.00 0.00 0.00 0.00 0.00 0.00 0.00 0.00 0.00 0.00 0.00 0.01 0.01 0.02 0.03 0.03 0.05 0.08 0.05 0.03 0.00 0.02 0.09 0.05 0.04 0.08 0.16 0.08 0.08 0.02 0.05 0.00 0.00 0.00
0.07 0.25 0.45 1.05 2.38 2.11 1.46 1.27 0.40 0.22 0.14 0.22 0.07 0.00 0.00 0.00 0.00 0.00 0.00 0.00 0.00 0.00 0.00 0.00 0.00 0.00 0.03 0.06 0.08 0.09 0.05 0.06 0.01 0.04 0.05 0.04 0.04 0.05 0.11 0.10 0.06 0.09 0.14 0.08 0.10 0.00 0.00 0.00 0.00
0.01 0.17 0.31 0.70 1.79 2.17 1.74 1.09 0.80 0.18 0.12 0.17 0.20 0.01 0.00 0.00 0.00 0.00 0.00 0.00 0.00 0.00 0.00 0.00 0.00 0.03 0.01 0.02 0.02 0.04 0.07 0.02 0.02 0.08 0.08 0.10 0.07 0.06 0.10 0.09 0.05 0.31 0.48 0.51 0.07 0.01 0.00 0.00 0.00
0.08 0.14 0.20 0.25 0.95 1.00 1.40 1.07 1.02 0.47 0.12 0.02 0.09 0.11 0.01 0.00 0.00 0.00 0.00 0.00 0.00 0.00 0.00 0.00 0.02 0.06 0.07 0.02 0.05 0.04 0.03 0.03 0.04 0.09 0.09 0.06 0.10 0.07 0.06 0.07 0.07 0.27 0.32 0.06 0.09 0.34 0.21 0.50 0.00
0.12 0.09 0.05 0.13 0.29 0.68 0.69 1.07 0.90 0.52 0.25 0.02 0.02 0.18 0.04 0.00 0.00 0.00 0.00 0.00 0.00 0.00 0.00 0.00 0.03 0.08 0.11 0.06 0.03 0.07 0.15 0.16 0.17 0.11 0.09 0.08 0.06 0.09 0.05 0.08 0.12 0.17 0.08 0.07 0.05 0.09 0.15 0.42 0.04
0.14 0.09 0.06 0.06 0.18 0.70 0.95 0.84 0.95 0.64 0.33 0.08 0.02 0.03 0.03 0.00 0.00 0.00 0.00 0.00 0.00 0.00 0.00 0.00 0.01 0.09 0.09 0.03 0.09 0.20 0.12 0.07 0.15 0.20 0.17 0.09 0.04 0.05 0.03 0.02 0.02 0.05 0.11 0.36 0.03 0.07 0.10 0.15 0.32
0.04 0.07 0.08 0.04 0.14 0.41 0.62 0.60 0.55 0.78 0.38 0.06 0.01 0.00 0.04 0.01 0.00 0.00 0.00 0.00 0.00 0.00 0.00 0.00 0.00 0.14 0.11 0.16 0.30 0.11 0.07 0.09 0.13 0.12 0.11 0.07 0.08 0.02 0.01 0.01 0.01 0.03 0.04 0.02 0.01 0.05 0.07 0.05 0.16
0.01 0.05 0.09 0.07 0.14 0.26 0.21 0.32 0.29 0.40 0.27 0.08 0.04 0.01 0.01 0.01 0.02 0.01 0.00 0.00 0.00 0.00 0.00 0.00 0.00 0.04 0.09 0.16 0.13 0.11 0.11 0.15 0.29 0.24 0.15 0.09 0.06 0.02 0.02 0.02 0.01 0.02 0.01 0.03 0.03 0.03 0.03 0.03 0.06
0.00 0.02 0.14 0.12 0.19 0.25 0.06 0.15 0.27 0.05 0.14 0.09 0.06 0.03 0.02 0.01 0.01 0.02 0.02 0.01 0.00 0.00 0.00 0.00 0.00 0.01 0.04 0.10 0.08 0.11 0.11 0.12 0.19 0.15 0.16 0.15 0.12 0.15 0.16 0.14 0.07 0.04 0.03 0.03 0.03 0.02 0.03 0.02 0.05
0.01 0.01 0.02 0.03 0.08 0.12 0.13 0.33 0.14 0.03 0.01 0.03 0.05 0.04 0.04 0.03 0.02 0.01 0.01 0.02 0.06 0.00 0.00 0.00 0.00 0.00 0.01 0.06 0.04 0.07 0.11 0.10 0.08 0.11 0.35 0.23 0.20 0.35 0.11 0.15 0.15 0.12 0.09 0.04 0.02 0.01 0.00 0.00 0.01
0.02 0.01 0.02 0.03 0.06 0.09 0.21 0.38 0.13 0.04 0.05 0.01 0.02 0.02 0.02 0.02 0.03 0.01 0.01 0.12 0.23 0.14 0.07 0.03 0.01 0.01 0.00 0.01 0.03 0.05 0.06 0.07 0.02 0.09 0.39 0.32 0.33 0.24 0.10 0.11 0.07 0.07 0.06 0.03 0.02 0.01 0.01 0.01 0.01
0.00 0.06 0.07 0.06 0.07 0.06 0.16 0.65 0.30 0.02 0.00 0.00 0.01 0.02 0.01 0.02 0.02 0.03 0.02 0.07 0.27 0.58 0.27 0.28 0.10 0.04 0.01 0.00 0.00 0.01 0.02 0.03 0.13 0.13 0.27 0.28 0.34 0.18 0.15 0.14 0.11 0.07 0.10 0.08 0.10 0.05 0.01 0.03 0.01
0.00 0.02 0.05 0.04 0.03 0.03 0.06 0.13 0.14 0.10 0.00 0.00 0.05 0.04 0.02 0.00 0.04 0.07 0.09 0.14 0.19 0.57 0.36 0.79 0.16 0.05 0.02 0.02 0.12 0.15 0.05 0.03 0.06 0.11 0.24 0.34 0.32 0.17 0.15 0.11 0.19 0.20 0.16 0.14 0.18 0.17 0.12 0.13 0.09
0.00 0.00 0.00 0.02 0.01 0.02 0.01 0.08 0.06 0.03 0.01 0.02 0.20 0.17 0.06 0.06 0.09 0.06 0.15 0.38 0.28 0.19 0.20 0.23 0.20 0.26 0.39 0.48 0.65 0.45 0.33 0.34 0.16 0.13 0.13 0.25 0.34 0.27 0.13 0.19 0.18 0.19 0.22 0.25 0.19 0.27 0.21 0.21 0.19

GFSSGP_prec_precacc24_129.txt.gz
Total_Precipitation_Accumulation
0.02 0.09 0.13 0.33 1.05 0.20 0.01 0.00 0.00 0.00 0.00 0.00 0.00 0.00 0.00 0.04 0.03 0.02 0.03 0.07 0.01 0.00 0.04 0.30 0.31 0.33 0.38 0.35 0.39 0.29 0.21 0.18 0.16 0.17 0.09 0.06 0.08 0.08 0.20 0.20 0.15 0.21 0.18 0.15 0.16 0.22 0.20 0.16 0.08
0.05 0.13 0.14 0.37 0.42 0.06 0.01 0.00 0.00 0.00 0.00 0.00 0.00 0.01 0.00 0.00 0.00 0.00 0.01 0.05 0.00 0.00 0.03 0.15 0.16 0.20 0.30 0.32 0.27 0.17 0.15 0.13 0.09 0.12 0.07 0.12 0.21 0.20 0.11 0.04 0.09 0.15 0.13 0.20 0.24 0.25 0.27 0.22 0.22
0.03 0.12 0.67 0.69 0.13 0.04 0.01 0.00 0.00 0.00 0.01 0.07 0.01 0.01 0.00 0.00 0.00 0.00 0.04 0.03 0.03 0.01 0.00 0.04 0.05 0.06 0.16 0.19 0.19 0.14 0.11 0.08 0.10 0.09 0.12 0.19 0.26 0.14 0.06 0.05 0.10 0.16 0.16 0.18 0.26 0.27 0.43 0.32 0.35
0.03 0.07 0.11 0.14 0.06 0.01 0.00 0.00 0.00 0.00 0.00 0.01 0.01 0.00 0.00 0.00 0.00 0.01 0.04 0.06 0.04 0.19 0.01 0.00 0.00 0.04 0.05 0.10 0.09 0.22 0.15 0.13 0.13 0.10 0.09 0.12 0.09 0.14 0.20 0.19 0.10 0.06 0.11 0.16 0.18 0.13 0.15 0.19 0.10
0.05 0.28 0.55 0.10 0.03 0.00 0.00 0.00 0.00 0.00 0.00 0.00 0.00 0.01 0.01 0.01 0.00 0.00 0.01 0.02 0.07 0.58 0.04 0.01 0.09 0.06 0.05 0.09 0.22 0.25 0.19 0.17 0.17 0.18 0.10 0.09 0.10 0.04 0.08 0.10 0.05 0.02 0.03 0.06 0.05 0.01 0.02 0.05 0.05
0.04 1.29 0.84 0.16 0.05 0.00 0.00 0.00 0.00 0.00 0.00 0.00 0.00 0.00 0.00 0.00 0.00 0.00 0.02 0.03 0.21 0.19 0.03 0.01 0.11 0.12 0.12 0.13 0.26 0.18 0.21 0.24 0.22 0.11 0.05 0.07 0.10 0.08 0.09 0.10 0.02 0.01 0.01 0.01 0.00 0.04 0.05 0.07 0.12
0.07 1.13 0.64 0.15 0.14 0.00 0.00 0.01 0.01 0.00 0.00 0.00 0.00 0.00 0.00 0.01 0.04 0.02 0.10 0.05 0.07 0.05 0.03 0.00 0.04 0.06 0.09 0.12 0.23 0.20 0.16 0.21 0.17 0.10 0.06 0.10 0.10 0.04 0.03 0.01 0.00 0.02 0.03 0.00 0.00 0.01 0.00 0.01 0.03
0.17 0.78 0.79 0.31 0.16 0.04 0.00 0.01 0.00 0.00 0.00 0.00 0.02 0.01 0.00 0.00 0.13 0.09 0.05 0.08 0.23 0.26 0.07 0.02 0.01 0.03 0.03 0.11 0.31 0.23 0.11 0.12 0.08 0.09 0.11 0.17 0.08 0.00 0.01 0.02 0.00 0.01 0.02 0.00 0.00 0.00 0.00 0.00 0.00
0.33 1.00 0.89 0.35 0.20 0.32 0.01 0.02 0.00 0.01 0.00 0.00 0.00 0.00 0.00 0.00 0.04 0.03 0.02 0.03 0.16 0.30 0.12 0.05 0.03 0.07 0.19 0.16 0.29 0.42 0.28 0.12 0.10 0.18 0.26 0.20 0.03 0.04 0.02 0.02 0.01 0.00 0.00 0.02 0.00 0.00 0.00 0.00 0.00
0.41 1.40 0.97 0.40 0.11 0.18 0.03 0.04 0.00 0.00 0.00 0.00 0.00 0.00 0.00 0.00 0.00 0.01 0.01 0.01 0.10 0.09 0.33 0.22 0.09 0.09 0.11 0.14 0.28 0.47 0.30 0.18 0.09 0.08 0.05 0.03 0.04 0.04 0.06 0.08 0.04 0.01 0.00 0.00 0.02 0.04 0.04 0.01 0.00
0.33 0.96 0.64 0.12 0.08 0.12 0.12 0.09 0.01 0.01 0.01 0.00 0.00 0.00 0.00 0.00 0.00 0.01 0.01 0.01 0.03 0.07 0.07 0.23 0.07 0.22 0.12 0.06 0.04 0.24 0.26 0.03 0.02 0.04 0.01 0.00 0.02 0.00 0.02 0.01 0.00 0.00 0.00 0.00 0.00 0.00 0.01 0.00 0.00
0.45 0.36 0.23 0.41 0.25 0.10 0.18 0.22 0.06 0.02 0.08 0.00 0.00 0.00 0.00 0.00 0.00 0.01 0.00 0.01 0.01 0.04 0.05 0.09 0.06 0.23 0.31 0.21 0.22 0.06 0.03 0.01 0.01 0.07 0.03 0.03 0.00 0.00 0.00 0.00 0.00 0.00 0.00 0.00 0.02 0.00 0.00 0.00 0.00
0.21 0.34 0.42 0.38 0.09 0.12 0.17 0.22 0.20 0.02 0.02 0.00 0.00 0.00 0.00 0.00 0.01 0.01 0.00 0.00 0.00 0.01 0.02 0.03 0.04 0.11 0.19 0.42 0.13 0.17 0.04 0.00 0.02 0.02 0.05 0.03 0.01 0.00 0.00 0.00 0.01 0.01 0.00 0.01 0.01 0.00 0.00 0.00 0.00
0.06 0.17 0.45 0.66 0.25 0.28 0.25 0.27 0.21 0.12 0.02 0.00 0.00 0.00 0.00 0.00 0.00 0.00 0.01 0.00 0.00 0.01 0.00 0.01 0.02 0.07 0.20 0.57 0.31 0.12 0.12 0.01 0.02 0.04 0.05 0.03 0.03 0.00 0.00 0.00 0.01 0.02 0.02 0.00 0.00 0.00 0.00 0.00 0.00
0.03 0.31 0.71 0.81 0.90 0.87 0.50 0.51 0.63 0.22 0.05 0.00 0.00 0.00 0.00 0.00 0.00 0.00 0.00 0.00 0.00 0.00 0.00 0.00 0.01 0.05 0.05 0.18 0.14 0.05 0.14 0.04 0.02 0.05 0.06 0.04 0.02 0.00 0.02 0.03 0.04 0.05 0.04 0.02 0.01 0.01 0.00 0.00 0.00
0.06 0.27 0.68 1.18 0.84 1.28 0.65 0.78 1.20 0.61 0.07 0.01 0.00 0.00 0.00 0.00 0.00 0.00 0.00 0.00 0.00 0.00 0.00 0.00 0.00 0.01 0.02 0.04 0.02 0.03 0.03 0.06 0.02 0.07 0.01 0.01 0.00 0.01 0.02 0.04 0.12 0.23 0.67 0.09 0.05 0.02 0.00 0.00 0.00
0.03 0.14 0.36 1.60 1.35 1.88 1.12 1.34 0.68 0.44 0.20 0.09 0.00 0.00 0.00 0.00 0.00 0.00 0.00 0.00 0.00 0.00 0.00 0.00 0.00 0.00 0.01 0.01 0.02 0.06 0.02 0.07 0.08 0.07 0.04 0.00 0.02 0.05 0.05 0.04 0.08 0.16 0.08 0.06 0.02 0.05 0.00 0.00 0.00
0.00 0.08 0.23 0.73 1.66 1.57 1.38 1.24 0.39 0.23 0.24 0.31 0.08 0.00 0.00 0.00 0.00 0.00 0.00 0.00 0.00 0.00 0.00 0.00 0.01 0.00 0.02 0.05 0.07 0.06 0.03 0.07 0.01 0.05 0.06 0.04 0.04 0.04 0.12 0.09 0.06 0.10 0.21 0.09 0.11 0.01 0.00 0.00 0.00
0.00 0.07 0.16 0.27 0.60 1.37 1.57 1.05 0.75 0.17 0.13 0.21 0.21 0.01 0.00 0.00 0.00 0.00 0.00 0.00 0.00 0.00 0.00 0.00 0.00 0.03 0.01 0.01 0.04 0.05 0.08 0.02 0.04 0.10 0.08 0.10 0.07 0.06 0.09 0.10 0.05 0.11 0.48 0.65 0.13 0.06 0.03 0.01 0.00
0.05 0.08 0.07 0.05 0.23 0.40 1.12 1.01 0.96 0.44 0.11 0.03 0.09 0.10 0.02 0.00 0.00 0.00 0.00 0.00 0.00 0.00 0.00 0.00 0.03 0.06 0.07 0.02 0.04 0.04 0.03 0.04 0.04 0.11 0.10 0.06 0.10 0.07 0.05 0.09 0.07 0.23 0.29 0.17 0.19 0.36 0.24 0.55 0.04
0.10 0.05 0.03 0.02 0.04 0.02 0.22 0.94 0.85 0.49 0.24 0.02 0.02 0.18 0.05 0.00 0.00 0.00 0.00 0.00 0.00 0.00 0.00 0.00 0.03 0.06 0.10 0.07 0.03 0.08 0.17 0.17 0.14 0.12 0.04 0.07 0.06 0.09 0.05 0.06 0.08 0.22 0.21 0.20 0.10 0.09 0.18 0.46 0.08
0.07 0.03 0.02 0.04 0.04 0.05 0.13 0.53 0.84 0.58 0.31 0.07 0.02 0.03 0.03 0.00 0.00 0.00 0.00 0.00 0.00 0.00 0.00 0.00 0.01 0.07 0.07 0.05 0.12 0.21 0.12 0.05 0.12 0.17 0.14 0.07 0.04 0.05 0.03 0.01 0.00 0.16 0.53 0.52 0.14 0.21 0.18 0.20 0.39
0.01 0.04 0.07 0.04 0.03 0.04 0.11 0.25 0.44 0.74 0.36 0.07 0.03 0.00 0.03 0.00 0.01 0.00 0.00 0.00 0.00 0.00 0.00 0.00 0.00 0.13 0.10 0.16 0.31 0.10 0.05 0.06 0.07 0.12 0.11 0.07 0.07 0.01 0.01 0.00 0.00 0.04 0.05 0.04 0.05 0.12 0.16 0.12 0.21
0.00 0.02 0.06 0.06 0.06 0.04 0.07 0.17 0.22 0.39 0.27 0.08 0.11 0.02 0.01 0.01 0.02 0.02 0.00 0.00 0.00 0.00 0.00 0.00 0.00 0.04 0.09 0.16 0.11 0.10 0.10 0.10 0.24 0.23 0.13 0.07 0.02 0.00 0.00 0.01 0.00 0.00 0.00 0.01 0.01 0.03 0.05 0.05 0.08
0.00 0.01 0.06 0.07 0.04 0.01 0.01 0.04 0.12 0.05 0.14 0.09 0.09 0.04 0.01 0.01 0.02 0.06 0.01 0.00 0.00 0.00 0.00 0.00 0.00 0.01 0.04 0.10 0.07 0.10 0.09 0.08 0.16 0.15 0.13 0.12 0.08 0.04 0.09 0.08 0.06 0.03 0.02 0.01 0.01 0.01 0.03 0.02 0.06
0.01 0.01 0.01 0.01 0.02 0.07 0.07 0.05 0.05 0.01 0.01 0.03 0.06 0.05 0.02 0.02 0.03 0.02 0.01 0.01 0.00 0.00 0.00 0.00 0.00 0.00 0.01 0.06 0.04 0.07 0.12 0.10 0.08 0.10 0.18 0.13 0.09 0.07 0.05 0.05 0.11 0.08 0.05 0.03 0.01 0.01 0.00 0.00 0.02
0.02 0.01 0.02 0.03 0.03 0.05 0.06 0.05 0.03 0.02 0.05 0.01 0.02 0.03 0.01 0.02 0.04 0.01 0.02 0.03 0.00 0.00 0.01 0.00 0.00 0.00 0.00 0.01 0.03 0.06 0.06 0.08 0.03 0.05 0.24 0.17 0.21 0.09 0.06 0.05 0.05 0.06 0.05 0.03 0.02 0.00 0.01 0.01 0.01
0.00 0.06 0.07 0.06 0.07 0.03 0.01 0.13 0.10 0.01 0.00 0.00 0.02 0.04 0.02 0.03 0.02 0.02 0.03 0.03 0.00 0.20 0.08 0.08 0.02 0.00 0.00 0.00 0.00 0.00 0.01 0.03 0.12 0.09 0.19 0.21 0.27 0.16 0.15 0.11 0.08 0.07 0.10 0.09 0.11 0.04 0.01 0.02 0.01
0.00 0.02 0.05 0.04 0.03 0.02 0.03 0.08 0.10 0.08 0.00 0.00 0.05 0.05 0.09 0.03 0.08 0.09 0.10 0.10 0.09 0.42 0.22 0.16 0.09 0.02 0.00 0.00 0.01 0.00 0.00 0.00 0.04 0.09 0.22 0.32 0.26 0.14 0.14 0.08 0.15 0.23 0.18 0.15 0.19 0.16 0.12 0.13 0.10
0.00 0.00 0.00 0.02 0.01 0.02 0.01 0.05 0.02 0.00 0.00 0.00 0.17 0.14 0.09 0.05 0.09 0.12 0.20 0.26 0.11 0.22 0.18 0.15 0.14 0.18 0.27 0.34 0.46 0.34 0.22 0.17 0.08 0.08 0.11 0.22 0.33 0.27 0.16 0.23 0.24 0.27 0.25 0.27 0.20 0.33 0.29 0.25 0.21

GFSSGP_prec_precacc24_132.txt.gz
Total_Precipitation_Accumulation
0.03 0.09 0.12 0.27 1.03 0.19 0.01 0.00 0.00 0.01 0.00 0.00 0.00 0.01 0.00 0.05 0.05 0.02 0.01 0.05 0.01 0.00 0.04 0.31 0.34 0.34 0.38 0.34 0.37 0.26 0.22 0.15 0.12 0.17 0.10 0.06 0.07 0.08 0.20 0.19 0.15 0.21 0.19 0.15 0.17 0.23 0.24 0.19 0.09
0.07 0.10 0.11 0.34 0.43 0.11 0.03 0.00 0.00 0.00 0.00 0.00 0.00 0.01 0.00 0.00 0.00 0.00 0.01 0.04 0.00 0.00 0.04 0.17 0.22 0.24 0.30 0.31 0.26 0.16 0.15 0.10 0.08 0.13 0.07 0.12 0.19 0.17 0.11 0.04 0.09 0.15 0.13 0.20 0.24 0.25 0.28 0.21 0.22
0.06 0.08 0.67 0.65 0.14 0.06 0.01 0.00 0.00 0.00 0.01 0.07 0.01 0.01 0.00 0.00 0.00 0.00 0.02 0.00 0.00 0.01 0.01 0.05 0.08 0.08 0.17 0.21 0.23 0.20 0.16 0.10 0.11 0.09 0.12 0.17 0.22 0.10 0.05 0.05 0.10 0.19 0.17 0.18 0.26 0.27 0.43 0.32 0.35
0.06 0.13 0.22 0.20 0.09 0.01 0.00 0.00 0.00 0.00 0.00 0.01 0.01 0.00 0.00 0.00 0.00 0.00 0.00 0.00 0.03 0.19 0.01 0.00 0.00 0.04 0.05 0.10 0.12 0.26 0.22 0.16 0.13 0.11 0.08 0.14 0.11 0.14 0.19 0.18 0.10 0.06 0.12 0.17 0.18 0.13 0.15 0.19 0.10
0.08 0.31 0.59 0.16 0.10 0.00 0.00 0.00 0.00 0.00 0.00 0.00 0.00 0.01 0.00 0.00 0.00 0.00 0.00 0.01 0.07 0.58 0.04 0.01 0.09 0.06 0.05 0.10 0.22 0.28 0.21 0.17 0.17 0.21 0.14 0.13 0.11 0.05 0.08 0.09 0.05 0.01 0.02 0.06 0.05 0.01 0.02 0.05 0.07
0.05 1.29 0.83 0.26 0.18 0.00 0.00 0.00 0.00 0.00 0.00 0.00 0.00 0.00 0.00 0.00 0.00 0.00 0.03 0.03 0.22 0.19 0.03 0.01 0.11 0.12 0.12 0.14 0.27 0.23 0.22 0.23 0.25 0.14 0.10 0.08 0.09 0.07 0.08 0.09 0.02 0.01 0.01 0.01 0.00 0.04 0.05 0.07 0.13
0.10 1.28 0.73 0.37 0.22 0.01 0.00 0.02 0.01 0.00 0.00 0.00 0.00 0.00 0.00 0.01 0.02 0.02 0.11 0.08 0.09 0.07 0.05 0.01 0.04 0.05 0.08 0.14 0.23 0.20 0.15 0.20 0.17 0.08 0.05 0.04 0.07 0.04 0.03 0.01 0.00 0.02 0.03 0.00 0.00 0.01 0.00 0.01 0.03
0.31 0.88 0.98 0.56 0.31 0.09 0.00 0.01 0.00 0.00 0.00 0.00 0.02 0.01 0.00 0.00 0.13 0.23 0.26 0.16 0.27 0.29 0.13 0.07 0.01 0.03 0.03 0.12 0.31 0.23 0.11 0.12 0.07 0.07 0.09 0.12 0.06 0.00 0.00 0.02 0.00 0.01 0.02 0.00 0.00 0.00 0.00 0.00 0.00
0.57 1.25 1.01 0.56 0.30 0.35 0.05 0.00 0.00 0.01 0.00 0.00 0.00 0.00 0.00 0.00 0.04 0.05 0.04 0.12 0.12 0.32 0.16 0.19 0.08 0.07 0.19 0.16 0.29 0.39 0.23 0.07 0.07 0.16 0.23 0.12 0.00 0.00 0.00 0.00 0.00 0.00 0.00 0.00 0.00 0.00 0.00 0.00 0.00
0.44 0.72 0.62 0.38 0.12 0.18 0.07 0.03 0.00 0.00 0.00 0.00 0.00 0.00 0.00 0.00 0.00 0.01 0.01 0.02 0.08 0.13 0.36 0.35 0.12 0.09 0.11 0.14 0.27 0.45 0.27 0.16 0.09 0.07 0.03 0.02 0.00 0.00 0.00 0.00 0.01 0.01 0.00 0.00 0.02 0.04 0.04 0.01 0.00
0.41 0.74 0.49 0.07 0.07 0.12 0.15 0.11 0.02 0.00 0.01 0.00 0.00 0.00 0.00 0.00 0.00 0.01 0.01 0.01 0.03 0.07 0.09 0.31 0.09 0.22 0.12 0.06 0.05 0.26 0.26 0.03 0.02 0.02 0.01 0.00 0.00 0.00 0.00 0.00 0.00 0.00 0.00 0.00 0.00 0.00 0.01 0.00 0.00
0.37 0.27 0.22 0.39 0.21 0.08 0.19 0.23 0.06 0.03 0.07 0.00 0.00 0.00 0.00 0.00 0.00 0.01 0.00 0.01 0.03 0.04 0.06 0.12 0.11 0.24 0.31 0.26 0.28 0.10 0.04 0.00 0.00 0.00 0.00 0.01 0.00 0.00 0.00 0.00 0.00 0.00 0.00 0.00 0.00 0.00 0.00 0.00 0.00
0.14 0.19 0.20 0.22 0.05 0.05 0.10 0.22 0.21 0.02 0.02 0.01 0.00 0.00 0.00 0.00 0.01 0.01 0.00 0.02 0.02 0.02 0.04 0.06 0.04 0.12 0.19 0.39 0.12 0.16 0.04 0.00 0.01 0.00 0.00 0.01 0.01 0.00 0.00 0.00 0.00 0.00 0.00 0.00 0.01 0.00 0.00 0.00 0.00
0.05 0.13 0.18 0.09 0.05 0.04 0.17 0.24 0.21 0.12 0.01 0.00 0.00 0.00 0.00 0.00 0.00 0.00 0.01 0.01 0.02 0.02 0.00 0.03 0.04 0.08 0.21 0.56 0.31 0.10 0.11 0.01 0.01 0.03 0.01 0.02 0.02 0.00 0.00 0.00 0.00 0.02 0.01 0.00 0.00 0.00 0.00 0.00 0.00
0.03 0.13 0.41 0.39 0.25 0.22 0.30 0.43 0.62 0.22 0.05 0.00 0.00 0.00 0.00 0.00 0.00 0.00 0.00 0.00 0.00 0.00 0.00 0.00 0.01 0.05 0.11 0.20 0.10 0.07 0.16 0.04 0.01 0.04 0.02 0.01 0.01 0.00 0.02 0.02 0.02 0.00 0.00 0.00 0.00 0.00 0.00 0.00 0.00
0.04 0.15 0.52 1.06 0.53 0.47 0.39 0.70 1.20 0.61 0.07 0.01 0.00 0.00 0.00 0.00 0.00 0.00 0.00 0.00 0.00 0.00 0.00 0.00 0.00 0.02 0.08 0.08 0.02 0.05 0.05 0.06 0.02 0.08 0.01 0.00 0.00 0.00 0.02 0.01 0.01 0.00 0.00 0.00 0.00 0.00 0.00 0.00 0.00
0.00 0.02 0.21 1.01 0.81 0.80 0.76 1.22 0.68 0.44 0.19 0.08 0.00 0.00 0.00 0.00 0.00 0.00 0.00 0.00 0.00 0.00 0.00 0.01 0.00 0.01 0.04 0.04 0.06 0.10 0.01 0.07 0.08 0.09 0.04 0.00 0.02 0.03 0.04 0.02 0.03 0.01 0.01 0.01 0.01 0.03 0.00 0.00 0.00
0.00 0.03 0.09 0.50 1.05 0.99 0.96 1.12 0.39 0.23 0.24 0.31 0.08 0.00 0.00 0.00 0.00 0.00 0.00 0.00 0.00 0.00 0.00 0.00 0.01 0.00 0.03 0.05 0.11 0.06 0.06 0.07 0.02 0.06 0.06 0.03 0.04 0.02 0.08 0.08 0.05 0.07 0.20 0.08 0.11 0.01 0.00 0.00 0.00
0.00 0.00 0.05 0.10 0.31 0.83 0.92 0.91 0.68 0.16 0.12 0.21 0.21 0.01 0.00 0.00 0.00 0.00 0.00 0.00 0.00 0.00 0.00 0.00 0.01 0.03 0.01 0.01 0.04 0.05 0.09 0.04 0.04 0.08 0.08 0.09 0.07 0.04 0.07 0.12 0.05 0.10 0.48 0.64 0.13 0.06 0.03 0.01 0.00
0.00 0.01 0.03 0.03 0.12 0.14 0.52 0.73 0.87 0.40 0.10 0.03 0.09 0.10 0.02 0.00 0.00 0.00 0.00 0.00 0.00 0.00 0.00 0.00 0.03 0.06 0.07 0.02 0.04 0.04 0.03 0.04 0.06 0.07 0.08 0.05 0.10 0.08 0.06 0.10 0.07 0.23 0.29 0.17 0.19 0.36 0.24 0.55 0.03
0.06 0.02 0.01 0.02 0.02 0.00 0.06 0.45 0.75 0.46 0.22 0.02 0.02 0.18 0.05 0.00 0.00 0.00 0.00 0.00 0.00 0.00 0.00 0.00 0.03 0.06 0.10 0.08 0.05 0.09 0.18 0.19 0.17 0.10 0.03 0.06 0.04 0.07 0.04 0.05 0.09 0.21 0.21 0.20 0.09 0.08 0.18 0.46 0.08
0.05 0.01 0.00 0.03 0.04 0.03 0.02 0.18 0.47 0.53 0.29 0.07 0.02 0.03 0.03 0.00 0.00 0.00 0.00 0.00 0.00 0.00 0.00 0.00 0.01 0.07 0.07 0.06 0.12 0.22 0.12 0.05 0.12 0.15 0.14 0.07 0.03 0.03 0.03 0.02 0.01 0.16 0.53 0.52 0.13 0.18 0.17 0.20 0.39
0.00 0.04 0.07 0.04 0.03 0.02 0.01 0.01 0.15 0.52 0.34 0.07 0.03 0.00 0.03 0.00 0.01 0.00 0.00 0.00 0.00 0.00 0.00 0.00 0.00 0.13 0.10 0.16 0.31 0.12 0.05 0.07 0.07 0.11 0.11 0.07 0.07 0.01 0.00 0.01 0.00 0.04 0.05 0.04 0.05 0.11 0.11 0.11 0.21
0.00 0.02 0.05 0.06 0.06 0.02 0.00 0.00 0.01 0.20 0.23 0.08 0.11 0.02 0.01 0.01 0.02 0.02 0.00 0.00 0.00 0.00 0.00 0.00 0.00 0.04 0.09 0.16 0.11 0.10 0.10 0.11 0.19 0.18 0.13 0.07 0.02 0.00 0.00 0.01 0.00 0.00 0.00 0.01 0.01 0.03 0.04 0.03 0.07
0.00 0.01 0.04 0.05 0.03 0.00 0.00 0.01 0.00 0.03 0.14 0.09 0.08 0.03 0.00 0.01 0.02 0.06 0.01 0.00 0.00 0.00 0.00 0.00 0.00 0.01 0.04 0.10 0.07 0.10 0.08 0.08 0.15 0.14 0.12 0.12 0.08 0.04 0.09 0.08 0.06 0.03 0.02 0.01 0.01 0.01 0.03 0.02 0.03
0.01 0.01 0.01 0.00 0.01 0.03 0.02 0.01 0.01 0.01 0.01 0.03 0.06 0.05 0.01 0.02 0.03 0.02 0.00 0.01 0.02 0.00 0.00 0.00 0.00 0.00 0.01 0.06 0.04 0.07 0.10 0.09 0.07 0.09 0.16 0.12 0.09 0.07 0.05 0.05 0.11 0.08 0.05 0.02 0.01 0.00 0.00 0.00 0.01
0.02 0.01 0.02 0.03 0.03 0.04 0.01 0.00 0.00 0.01 0.05 0.01 0.02 0.02 0.01 0.01 0.04 0.01 0.03 0.03 0.02 0.00 0.00 0.00 0.00 0.00 0.00 0.01 0.03 0.06 0.06 0.07 0.03 0.05 0.22 0.16 0.21 0.09 0.06 0.05 0.05 0.06 0.05 0.03 0.02 0.00 0.01 0.01 0.01
0.00 0.06 0.07 0.05 0.07 0.02 0.01 0.01 0.01 0.01 0.00 0.00 0.02 0.04 0.02 0.03 0.06 0.08 0.12 0.06 0.00 0.00 0.00 0.00 0.00 0.00 0.00 0.00 0.00 0.00 0.01 0.03 0.12 0.09 0.19 0.20 0.27 0.16 0.15 0.11 0.09 0.08 0.10 0.09 0.09 0.03 0.01 0.02 0.01
0.00 0.02 0.05 0.04 0.03 0.02 0.02 0.04 0.09 0.08 0.00 0.00 0.05 0.05 0.09 0.05 0.09 0.10 0.16 0.11 0.09 0.04 0.00 0.00 0.00 0.00 0.00 0.00 0.00 0.00 0.00 0.00 0.04 0.09 0.22 0.32 0.26 0.14 0.14 0.08 0.16 0.27 0.19 0.16 0.19 0.17 0.13 0.13 0.10
0.00 0.00 0.00 0.02 0.01 0.02 0.01 0.05 0.02 0.00 0.00 0.00 0.17 0.13 0.11 0.07 0.09 0.16 0.27 0.33 0.11 0.14 0.09 0.05 0.03 0.01 0.06 0.09 0.15 0.16 0.12 0.08 0.02 0.06 0.10 0.22 0.34 0.28 0.16 0.23 0.28 0.29 0.28 0.30 0.20 0.32 0.29 0.24 0.20

GFSSGP_prec_precacc24_138.txt.gz
Total_Precipitation_Accumulation
0.03 0.09 0.11 0.26 1.02 0.19 0.01 0.00 0.00 0.01 0.00 0.00 0.00 0.01 0.02 0.05 0.05 0.02 0.01 0.05 0.01 0.00 0.01 0.24 0.26 0.20 0.38 0.43 0.47 0.31 0.30 0.21 0.20 0.19 0.08 0.06 0.09 0.08 0.12 0.15 0.09 0.20 0.21 0.13 0.16 0.35 0.27 0.20 0.09
0.07 0.06 0.11 0.34 0.43 0.12 0.03 0.00 0.00 0.00 0.00 0.00 0.00 0.01 0.00 0.00 0.03 0.00 0.01 0.04 0.00 0.00 0.03 0.14 0.24 0.33 0.39 0.46 0.41 0.33 0.32 0.29 0.24 0.18 0.09 0.11 0.11 0.07 0.07 0.06 0.18 0.22 0.16 0.18 0.27 0.23 0.22 0.16 0.12
0.06 0.08 0.67 0.65 0.14 0.07 0.01 0.00 0.00 0.00 0.01 0.07 0.01 0.01 0.00 0.00 0.00 0.00 0.02 0.00 0.00 0.02 0.05 0.11 0.16 0.26 0.32 0.43 0.42 0.34 0.38 0.31 0.31 0.24 0.12 0.12 0.15 0.10 0.10 0.12 0.15 0.31 0.24 0.29 0.31 0.20 0.16 0.16 0.16
0.06 0.13 0.24 0.20 0.12 0.01 0.00 0.00 0.00 0.00 0.00 0.01 0.01 0.00 0.00 0.00 0.00 0.00 0.00 0.00 0.03 0.20 0.05 0.07 0.11 0.21 0.24 0.31 0.24 0.33 0.35 0.35 0.31 0.20 0.07 0.12 0.14 0.20 0.32 0.42 0.32 0.21 0.26 0.23 0.18 0.13 0.13 0.13 0.08
0.09 0.31 0.60 0.19 0.13 0.01 0.00 0.00 0.00 0.00 0.00 0.00 0.00 0.00 0.00 0.00 0.00 0.00 0.00 0.01 0.07 0.58 0.09 0.11 0.15 0.15 0.20 0.25 0.35 0.39 0.35 0.30 0.32 0.29 0.21 0.17 0.16 0.10 0.12 0.14 0.13 0.10 0.07 0.07 0.06 0.09 0.09 0.06 0.07
0.05 1.29 0.87 0.39 0.29 0.03 0.00 0.00 0.00 0.00 0.00 0.00 0.00 0.00 0.00 0.00 0.00 0.00 0.03 0.03 0.22 0.18 0.05 0.10 0.13 0.17 0.16 0.24 0.40 0.35 0.32 0.30 0.37 0.19 0.22 0.21 0.23 0.23 0.14 0.11 0.06 0.01 0.01 0.01 0.00 0.06 0.08 0.05 0.01
0.10 1.29 0.79 0.69 0.44 0.42 0.05 0.03 0.01 0.00 0.00 0.00 0.00 0.00 0.00 0.00 0.01 0.02 0.11 0.08 0.09 0.07 0.09 0.09 0.13 0.16 0.14 0.28 0.32 0.27 0.16 0.21 0.22 0.13 0.20 0.16 0.15 0.07 0.03 0.01 0.00 0.02 0.03 0.00 0.00 0.01 0.00 0.00 0.00
0.31 0.89 1.14 1.01 0.45 0.29 0.03 0.01 0.00 0.00 0.00 0.00 0.02 0.01 0.00 0.00 0.03 0.18 0.26 0.17 0.27 0.23 0.15 0.09 0.08 0.11 0.13 0.18 0.32 0.24 0.10 0.11 0.14 0.13 0.10 0.11 0.06 0.00 0.01 0.03 0.00 0.01 0.02 0.00 0.00 0.00 0.00 0.00 0.00
0.52 1.25 1.07 0.62 0.33 0.42 0.13 0.01 0.00 0.00 0.00 0.00 0.00 0.00 0.00 0.00 0.01 0.04 0.04 0.13 0.12 0.31 0.15 0.22 0.20 0.14 0.31 0.23 0.22 0.28 0.21 0.07 0.07 0.11 0.13 0.07 0.06 0.02 0.00 0.00 0.00 0.00 0.00 0.00 0.00 0.00 0.00 0.00 0.00
0.43 0.67 0.56 0.37 0.12 0.19 0.13 0.05 0.00 0.00 0.00 0.00 0.00 0.00 0.00 0.00 0.00 0.00 0.00 0.03 0.05 0.12 0.36 0.35 0.14 0.12 0.12 0.07 0.17 0.34 0.24 0.10 0.05 0.03 0.01 0.03 0.02 0.00 0.00 0.00 0.02 0.01 0.00 0.00 0.00 0.00 0.00 0.00 0.00
0.36 0.66 0.37 0.05 0.05 0.08 0.11 0.12 0.02 0.00 0.01 0.00 0.00 0.00 0.00 0.00 0.00 0.00 0.00 0.01 0.02 0.06 0.09 0.31 0.10 0.22 0.08 0.02 0.05 0.26 0.26 0.03 0.02 0.02 0.00 0.00 0.00 0.00 0.00 0.00 0.02 0.01 0.00 0.00 0.00 0.00 0.00 0.00 0.00
0.30 0.15 0.12 0.09 0.12 0.09 0.15 0.22 0.06 0.03 0.08 0.00 0.00 0.00 0.00 0.00 0.00 0.00 0.00 0.01 0.03 0.04 0.06 0.12 0.11 0.24 0.29 0.25 0.22 0.08 0.03 0.00 0.00 0.00 0.00 0.00 0.00 0.00 0.00 0.00 0.00 0.00 0.00 0.00 0.00 0.00 0.00 0.00 0.00
0.08 0.03 0.06 0.02 0.03 0.04 0.06 0.21 0.19 0.02 0.02 0.01 0.00 0.00 0.00 0.00 0.00 0.00 0.00 0.03 0.02 0.02 0.04 0.06 0.04 0.12 0.19 0.38 0.13 0.09 0.01 0.00 0.00 0.00 0.00 0.00 0.00 0.00 0.00 0.00 0.00 0.00 0.00 0.00 0.00 0.00 0.00 0.00 0.00
0.05 0.09 0.07 0.03 0.03 0.02 0.14 0.19 0.17 0.12 0.01 0.00 0.00 0.00 0.00 0.00 0.00 0.00 0.00 0.02 0.03 0.02 0.00 0.03 0.04 0.10 0.22 0.53 0.24 0.07 0.11 0.00 0.00 0.00 0.01 0.00 0.00 0.00 0.00 0.00 0.00 0.00 0.00 0.00 0.00 0.00 0.00 0.00 0.00
0.01 0.07 0.11 0.14 0.10 0.06 0.13 0.30 0.49 0.20 0.02 0.00 0.00 0.00 0.00 0.00 0.00 0.00 0.00 0.00 0.00 0.00 0.00 0.00 0.01 0.09 0.12 0.18 0.10 0.05 0.16 0.02 0.00 0.02 0.02 0.00 0.00 0.00 0.00 0.00 0.00 0.00 0.00 0.00 0.00 0.00 0.00 0.00 0.00
0.10 0.07 0.29 0.93 0.25 0.11 0.13 0.54 1.06 0.56 0.05 0.01 0.00 0.00 0.00 0.00 0.00 0.00 0.00 0.00 0.00 0.00 0.00 0.00 0.00 0.02 0.08 0.07 0.02 0.05 0.05 0.02 0.01 0.09 0.02 0.00 0.00 0.00 0.00 0.00 0.00 0.00 0.00 0.00 0.00 0.00 0.00 0.00 0.00
0.07 0.01 0.06 0.22 0.09 0.10 0.15 0.57 0.52 0.32 0.15 0.07 0.00 0.00 0.00 0.00 0.00 0.00 0.00 0.00 0.00 0.00 0.00 0.01 0.00 0.01 0.04 0.03 0.06 0.11 0.01 0.03 0.08 0.08 0.02 0.00 0.00 0.00 0.03 0.02 0.00 0.00 0.00 0.01 0.00 0.00 0.00 0.00 0.00
0.00 0.00 0.01 0.06 0.07 0.04 0.13 0.29 0.11 0.14 0.16 0.28 0.08 0.00 0.00 0.00 0.00 0.00 0.00 0.00 0.00 0.00 0.00 0.00 0.01 0.00 0.03 0.04 0.10 0.05 0.04 0.04 0.03 0.04 0.01 0.01 0.01 0.00 0.08 0.07 0.03 0.04 0.17 0.07 0.10 0.01 0.00 0.00 0.00
0.00 0.00 0.00 0.01 0.00 0.02 0.01 0.12 0.26 0.08 0.08 0.19 0.21 0.01 0.00 0.00 0.00 0.00 0.00 0.00 0.00 0.00 0.00 0.00 0.01 0.03 0.01 0.01 0.04 0.04 0.09 0.06 0.03 0.04 0.00 0.00 0.02 0.00 0.04 0.11 0.05 0.09 0.47 0.64 0.12 0.06 0.03 0.01 0.00
0.00 0.00 0.00 0.01 0.00 0.01 0.00 0.03 0.14 0.18 0.02 0.02 0.09 0.10 0.02 0.01 0.00 0.00 0.00 0.00 0.00 0.00 0.00 0.00 0.03 0.06 0.07 0.02 0.04 0.04 0.04 0.03 0.05 0.03 0.01 0.00 0.00 0.01 0.05 0.10 0.07 0.23 0.29 0.17 0.19 0.36 0.24 0.55 0.03
0.00 0.00 0.00 0.02 0.03 0.04 0.01 0.01 0.07 0.13 0.06 0.00 0.01 0.17 0.06 0.02 0.01 0.00 0.00 0.00 0.00 0.00 0.00 0.00 0.03 0.06 0.10 0.08 0.05 0.10 0.19 0.17 0.18 0.10 0.04 0.02 0.00 0.00 0.07 0.07 0.09 0.21 0.21 0.20 0.08 0.08 0.18 0.46 0.08
0.00 0.00 0.00 0.02 0.04 0.05 0.01 0.01 0.00 0.03 0.06 0.02 0.01 0.02 0.03 0.02 0.02 0.03 0.00 0.00 0.00 0.00 0.00 0.00 0.01 0.07 0.07 0.06 0.12 0.22 0.12 0.05 0.11 0.11 0.10 0.08 0.02 0.00 0.03 0.07 0.02 0.16 0.53 0.52 0.13 0.18 0.17 0.20 0.39
0.00 0.01 0.03 0.04 0.04 0.02 0.01 0.00 0.00 0.01 0.02 0.01 0.02 0.00 0.03 0.01 0.03 0.03 0.00 0.00 0.00 0.00 0.00 0.00 0.00 0.13 0.10 0.16 0.31 0.12 0.05 0.07 0.07 0.11 0.10 0.07 0.07 0.01 0.03 0.11 0.06 0.04 0.05 0.04 0.05 0.11 0.11 0.11 0.21
0.00 0.00 0.04 0.07 0.09 0.02 0.00 0.00 0.00 0.01 0.02 0.04 0.09 0.01 0.01 0.01 0.01 0.03 0.02 0.00 0.00 0.00 0.00 0.00 0.00 0.04 0.09 0.16 0.11 0.10 0.10 0.11 0.19 0.18 0.13 0.07 0.02 0.00 0.00 0.06 0.07 0.02 0.00 0.01 0.02 0.04 0.03 0.03 0.07
0.00 0.00 0.03 0.05 0.04 0.01 0.00 0.01 0.00 0.02 0.05 0.02 0.04 0.02 0.00 0.01 0.01 0.06 0.02 0.03 0.01 0.00 0.00 0.00 0.00 0.01 0.04 0.10 0.07 0.10 0.08 0.08 0.15 0.14 0.12 0.12 0.08 0.04 0.09 0.10 0.18 0.09 0.03 0.01 0.04 0.05 0.06 0.06 0.06
0.00 0.00 0.00 0.00 0.01 0.02 0.01 0.01 0.00 0.01 0.01 0.00 0.03 0.03 0.00 0.01 0.03 0.01 0.01 0.06 0.08 0.01 0.00 0.00 0.00 0.00 0.01 0.06 0.04 0.07 0.10 0.09 0.07 0.10 0.16 0.12 0.09 0.07 0.06 0.06 0.15 0.13 0.09 0.06 0.05 0.03 0.01 0.00 0.01
0.00 0.00 0.00 0.02 0.03 0.04 0.01 0.00 0.00 0.01 0.05 0.01 0.00 0.00 0.00 0.01 0.04 0.03 0.04 0.03 0.08 0.05 0.02 0.00 0.00 0.00 0.00 0.01 0.03 0.06 0.06 0.07 0.03 0.07 0.18 0.07 0.09 0.06 0.06 0.05 0.06 0.07 0.11 0.04 0.02 0.01 0.01 0.01 0.01
0.00 0.02 0.06 0.04 0.05 0.02 0.01 0.01 0.01 0.01 0.00 0.00 0.01 0.02 0.02 0.03 0.06 0.09 0.13 0.08 0.02 0.08 0.05 0.03 0.00 0.00 0.00 0.00 0.00 0.00 0.01 0.02 0.06 0.09 0.16 0.05 0.13 0.12 0.11 0.09 0.11 0.06 0.12 0.12 0.10 0.03 0.01 0.02 0.01
0.00 0.01 0.02 0.03 0.02 0.02 0.02 0.04 0.09 0.08 0.00 0.00 0.05 0.05 0.09 0.05 0.09 0.10 0.17 0.17 0.20 0.15 0.09 0.03 0.00 0.00 0.01 0.00 0.00 0.00 0.00 0.00 0.02 0.08 0.13 0.27 0.25 0.14 0.14 0.08 0.17 0.20 0.23 0.20 0.20 0.16 0.13 0.13 0.10
0.00 0.00 0.00 0.01 0.01 0.02 0.01 0.05 0.02 0.00 0.00 0.00 0.17 0.13 0.11 0.07 0.10 0.16 0.29 0.37 0.15 0.18 0.18 0.10 0.02 0.00 0.02 0.05 0.07 0.01 0.00 0.00 0.00 0.05 0.06 0.18 0.33 0.29 0.16 0.25 0.31 0.34 0.30 0.36 0.22 0.33 0.34 0.27 0.20

GFSSGP_prec_precacc24_141.txt.gz
Total_Precipitation_Accumulation
0.03 0.09 0.10 0.26 1.02 0.19 0.01 0.00 0.00 0.01 0.00 0.00 0.00 0.01 0.02 0.05 0.05 0.02 0.01 0.05 0.01 0.00 0.00 0.28 0.31 0.20 0.30 0.35 0.50 0.41 0.47 0.35 0.38 0.33 0.19 0.12 0.08 0.09 0.08 0.12 0.10 0.22 0.20 0.11 0.16 0.37 0.29 0.22 0.09
0.07 0.06 0.11 0.34 0.43 0.12 0.03 0.00 0.00 0.00 0.00 0.00 0.00 0.01 0.00 0.00 0.03 0.00 0.01 0.04 0.00 0.00 0.02 0.11 0.25 0.34 0.20 0.41 0.45 0.43 0.49 0.42 0.47 0.21 0.10 0.10 0.06 0.05 0.06 0.08 0.17 0.21 0.12 0.10 0.19 0.21 0.17 0.14 0.13
0.06 0.08 0.67 0.65 0.14 0.07 0.01 0.00 0.00 0.00 0.01 0.07 0.01 0.01 0.00 0.00 0.00 0.00 0.02 0.00 0.00 0.02 0.05 0.09 0.25 0.27 0.27 0.46 0.50 0.41 0.42 0.39 0.39 0.29 0.14 0.07 0.06 0.12 0.19 0.20 0.15 0.31 0.20 0.19 0.13 0.05 0.04 0.07 0.10
0.06 0.13 0.24 0.21 0.16 0.01 0.00 0.00 0.00 0.00 0.00 0.01 0.01 0.00 0.00 0.00 0.00 0.00 0.00 0.00 0.03 0.21 0.06 0.10 0.16 0.25 0.28 0.37 0.25 0.33 0.35 0.39 0.41 0.32 0.18 0.16 0.27 0.38 0.49 0.59 0.39 0.24 0.28 0.20 0.12 0.07 0.12 0.13 0.11
0.09 0.31 0.60 0.20 0.14 0.01 0.00 0.00 0.00 0.00 0.00 0.00 0.00 0.00 0.00 0.00 0.00 0.00 0.00 0.01 0.07 0.58 0.09 0.11 0.15 0.17 0.28 0.34 0.39 0.39 0.35 0.28 0.37 0.34 0.30 0.20 0.24 0.22 0.34 0.25 0.15 0.13 0.07 0.04 0.04 0.09 0.13 0.10 0.09
0.05 1.29 0.87 0.42 0.29 0.03 0.00 0.00 0.00 0.00 0.00 0.00 0.00 0.00 0.00 0.00 0.00 0.00 0.03 0.03 0.22 0.20 0.07 0.10 0.13 0.20 0.22 0.34 0.43 0.36 0.35 0.31 0.45 0.31 0.30 0.19 0.19 0.21 0.13 0.08 0.06 0.01 0.01 0.01 0.01 0.04 0.04 0.05 0.01
0.10 1.29 0.81 0.72 0.45 0.49 0.06 0.03 0.01 0.00 0.00 0.00 0.00 0.00 0.00 0.00 0.01 0.02 0.11 0.08 0.09 0.07 0.13 0.11 0.15 0.17 0.19 0.35 0.36 0.31 0.26 0.37 0.37 0.23 0.26 0.17 0.12 0.05 0.02 0.01 0.00 0.02 0.03 0.00 0.00 0.01 0.00 0.00 0.00
0.31 0.89 1.14 1.02 0.46 0.35 0.03 0.01 0.00 0.00 0.00 0.00 0.02 0.01 0.00 0.00 0.03 0.18 0.26 0.17 0.27 0.23 0.16 0.12 0.16 0.17 0.18 0.22 0.33 0.28 0.27 0.28 0.34 0.25 0.13 0.05 0.03 0.00 0.01 0.03 0.00 0.01 0.02 0.00 0.00 0.00 0.00 0.00 0.00
0.52 1.25 1.07 0.62 0.33 0.42 0.13 0.01 0.00 0.00 0.00 0.00 0.00 0.00 0.00 0.00 0.01 0.04 0.04 0.13 0.11 0.30 0.15 0.23 0.24 0.23 0.31 0.26 0.21 0.25 0.27 0.18 0.21 0.11 0.12 0.06 0.06 0.02 0.00 0.00 0.00 0.00 0.00 0.00 0.00 0.00 0.00 0.00 0.00
0.41 0.67 0.55 0.34 0.11 0.18 0.13 0.05 0.00 0.00 0.00 0.00 0.00 0.00 0.00 0.00 0.00 0.00 0.00 0.03 0.05 0.12 0.36 0.35 0.15 0.14 0.09 0.07 0.12 0.25 0.21 0.13 0.06 0.03 0.01 0.03 0.02 0.00 0.00 0.00 0.02 0.01 0.00 0.00 0.00 0.00 0.01 0.00 0.00
0.31 0.58 0.37 0.03 0.04 0.01 0.05 0.12 0.02 0.00 0.01 0.00 0.00 0.00 0.00 0.00 0.00 0.00 0.00 0.01 0.02 0.06 0.09 0.31 0.10 0.22 0.08 0.01 0.05 0.22 0.25 0.03 0.02 0.02 0.00 0.00 0.00 0.00 0.00 0.00 0.02 0.01 0.00 0.00 0.00 0.00 0.00 0.00 0.00
0.23 0.11 0.10 0.01 0.00 0.04 0.07 0.20 0.06 0.03 0.08 0.00 0.00 0.00 0.00 0.00 0.00 0.00 0.00 0.01 0.03 0.04 0.06 0.12 0.11 0.24 0.27 0.24 0.22 0.08 0.03 0.00 0.00 0.00 0.00 0.00 0.00 0.00 0.00 0.00 0.00 0.00 0.00 0.00 0.00 0.00 0.00 0.00 0.00
0.07 0.01 0.03 0.01 0.01 0.03 0.02 0.13 0.19 0.04 0.03 0.02 0.00 0.00 0.00 0.00 0.00 0.00 0.00 0.03 0.02 0.02 0.04 0.06 0.04 0.12 0.19 0.38 0.13 0.09 0.01 0.00 0.00 0.00 0.00 0.00 0.00 0.00 0.00 0.00 0.00 0.00 0.00 0.00 0.00 0.00 0.00 0.00 0.00
0.05 0.09 0.07 0.03 0.03 0.01 0.07 0.13 0.13 0.11 0.02 0.00 0.00 0.00 0.00 0.00 0.00 0.00 0.00 0.02 0.03 0.02 0.00 0.03 0.04 0.10 0.22 0.53 0.24 0.07 0.11 0.00 0.00 0.00 0.01 0.00 0.00 0.00 0.00 0.00 0.00 0.00 0.00 0.00 0.00 0.00 0.00 0.00 0.00
0.01 0.05 0.10 0.13 0.09 0.03 0.07 0.24 0.43 0.17 0.02 0.00 0.00 0.00 0.00 0.00 0.00 0.00 0.00 0.00 0.00 0.00 0.00 0.00 0.01 0.09 0.12 0.18 0.10 0.05 0.16 0.02 0.00 0.02 0.02 0.00 0.00 0.00 0.00 0.00 0.00 0.00 0.00 0.00 0.00 0.00 0.00 0.00 0.00
0.09 0.06 0.28 0.92 0.23 0.07 0.11 0.47 0.96 0.54 0.04 0.00 0.00 0.00 0.00 0.00 0.00 0.00 0.00 0.00 0.00 0.00 0.00 0.00 0.00 0.02 0.08 0.07 0.02 0.05 0.05 0.01 0.01 0.09 0.02 0.00 0.00 0.00 0.00 0.00 0.00 0.00 0.00 0.00 0.00 0.00 0.00 0.00 0.00
0.07 0.02 0.06 0.22 0.08 0.06 0.11 0.49 0.40 0.26 0.18 0.08 0.00 0.00 0.00 0.00 0.00 0.00 0.00 0.00 0.00 0.00 0.00 0.01 0.00 0.01 0.04 0.03 0.06 0.11 0.01 0.03 0.08 0.08 0.02 0.00 0.00 0.00 0.03 0.02 0.00 0.00 0.00 0.01 0.00 0.00 0.00 0.00 0.00
0.00 0.00 0.00 0.05 0.07 0.03 0.06 0.21 0.05 0.05 0.18 0.32 0.08 0.00 0.00 0.00 0.00 0.00 0.00 0.00 0.00 0.00 0.00 0.00 0.01 0.00 0.03 0.04 0.10 0.05 0.04 0.04 0.03 0.04 0.01 0.01 0.01 0.00 0.08 0.07 0.03 0.04 0.17 0.07 0.10 0.01 0.00 0.00 0.00
0.00 0.00 0.00 0.01 0.00 0.02 0.01 0.07 0.04 0.03 0.06 0.18 0.20 0.00 0.00 0.00 0.00 0.00 0.00 0.00 0.00 0.00 0.00 0.00 0.01 0.03 0.01 0.01 0.04 0.04 0.08 0.06 0.03 0.04 0.00 0.00 0.02 0.00 0.04 0.11 0.05 0.09 0.47 0.64 0.12 0.06 0.03 0.01 0.00
0.00 0.00 0.00 0.01 0.00 0.01 0.00 0.00 0.00 0.02 0.01 0.02 0.09 0.09 0.02 0.01 0.00 0.00 0.00 0.00 0.00 0.00 0.00 0.00 0.03 0.06 0.07 0.02 0.04 0.04 0.04 0.03 0.05 0.03 0.01 0.00 0.00 0.01 0.05 0.10 0.07 0.23 0.29 0.17 0.19 0.36 0.24 0.55 0.03
0.00 0.00 0.00 0.01 0.03 0.04 0.01 0.00 0.00 0.01 0.02 0.00 0.01 0.17 0.07 0.02 0.01 0.00 0.00 0.00 0.00 0.00 0.00 0.00 0.03 0.06 0.10 0.08 0.05 0.10 0.19 0.14 0.17 0.10 0.04 0.00 0.00 0.00 0.07 0.07 0.09 0.21 0.21 0.20 0.08 0.08 0.18 0.46 0.08
0.00 0.00 0.00 0.02 0.04 0.05 0.01 0.01 0.00 0.00 0.03 0.01 0.00 0.02 0.03 0.02 0.02 0.03 0.00 0.00 0.00 0.00 0.00 0.00 0.01 0.07 0.07 0.06 0.12 0.18 0.10 0.04 0.07 0.06 0.07 0.08 0.02 0.00 0.03 0.07 0.02 0.16 0.53 0.52 0.13 0.18 0.17 0.20 0.39
0.00 0.00 0.00 0.03 0.04 0.03 0.01 0.00 0.00 0.00 0.00 0.01 0.02 0.00 0.03 0.01 0.03 0.03 0.00 0.00 0.00 0.00 0.00 0.00 0.00 0.13 0.10 0.16 0.31 0.09 0.02 0.06 0.04 0.08 0.06 0.06 0.07 0.01 0.03 0.11 0.06 0.04 0.05 0.04 0.05 0.11 0.11 0.11 0.21
0.00 0.00 0.01 0.05 0.10 0.03 0.00 0.00 0.00 0.01 0.01 0.04 0.09 0.01 0.01 0.01 0.01 0.03 0.03 0.00 0.00 0.00 0.00 0.00 0.00 0.04 0.09 0.16 0.11 0.09 0.06 0.07 0.17 0.14 0.11 0.04 0.01 0.00 0.00 0.05 0.07 0.02 0.00 0.01 0.02 0.04 0.04 0.04 0.08
0.00 0.00 0.01 0.02 0.04 0.00 0.00 0.01 0.00 0.02 0.05 0.02 0.04 0.02 0.00 0.01 0.01 0.06 0.02 0.03 0.01 0.00 0.00 0.00 0.00 0.01 0.04 0.10 0.07 0.10 0.07 0.07 0.11 0.10 0.08 0.09 0.05 0.02 0.06 0.05 0.16 0.07 0.02 0.01 0.04 0.08 0.10 0.07 0.07
0.00 0.00 0.00 0.00 0.00 0.01 0.01 0.01 0.00 0.01 0.01 0.00 0.03 0.03 0.00 0.01 0.03 0.01 0.01 0.06 0.08 0.01 0.00 0.00 0.00 0.00 0.01 0.06 0.04 0.07 0.10 0.09 0.07 0.07 0.12 0.11 0.08 0.07 0.05 0.05 0.09 0.07 0.08 0.06 0.05 0.05 0.04 0.00 0.02
0.00 0.00 0.00 0.00 0.00 0.01 0.01 0.00 0.00 0.01 0.05 0.01 0.00 0.00 0.00 0.01 0.04 0.03 0.04 0.03 0.08 0.05 0.02 0.00 0.00 0.00 0.00 0.01 0.03 0.06 0.06 0.07 0.03 0.07 0.17 0.07 0.09 0.06 0.06 0.05 0.05 0.06 0.10 0.05 0.03 0.01 0.04 0.01 0.01
0.00 0.02 0.01 0.00 0.00 0.00 0.01 0.01 0.01 0.01 0.00 0.00 0.01 0.02 0.02 0.03 0.06 0.09 0.13 0.08 0.03 0.08 0.05 0.03 0.00 0.00 0.00 0.00 0.00 0.00 0.01 0.01 0.02 0.09 0.15 0.04 0.12 0.12 0.09 0.06 0.11 0.06 0.12 0.12 0.09 0.02 0.01 0.04 0.02
0.00 0.00 0.00 0.01 0.01 0.01 0.02 0.04 0.09 0.08 0.00 0.00 0.05 0.05 0.09 0.05 0.09 0.10 0.17 0.17 0.21 0.16 0.09 0.03 0.00 0.00 0.01 0.00 0.00 0.00 0.00 0.00 0.00 0.05 0.12 0.22 0.22 0.14 0.14 0.08 0.18 0.20 0.23 0.22 0.21 0.13 0.11 0.13 0.11
0.00 0.00 0.00 0.01 0.01 0.02 0.01 0.05 0.02 0.00 0.00 0.00 0.17 0.13 0.11 0.07 0.10 0.15 0.27 0.37 0.14 0.18 0.18 0.10 0.02 0.00 0.03 0.06 0.07 0.01 0.00 0.00 0.00 0.05 0.06 0.18 0.32 0.28 0.16 0.26 0.32 0.34 0.29 0.41 0.25 0.34 0.31 0.21 0.16

GFSSGP_prec_precacc24_144.txt.gz
Total_Precipitation_Accumulation
0.03 0.08 0.10 0.26 1.03 0.19 0.01 0.00 0.00 0.01 0.00 0.00 0.00 0.01 0.02 0.07 0.09 0.09 0.01 0.05 0.01 0.01 0.08 0.31 0.31 0.19 0.23 0.22 0.45 0.45 0.57 0.45 0.48 0.42 0.31 0.26 0.10 0.09 0.08 0.14 0.15 0.21 0.19 0.10 0.16 0.36 0.26 0.20 0.09
0.07 0.06 0.11 0.34 0.43 0.12 0.03 0.00 0.00 0.00 0.00 0.00 0.00 0.01 0.01 0.01 0.03 0.00 0.01 0.04 0.00 0.00 0.09 0.16 0.26 0.35 0.18 0.34 0.46 0.46 0.57 0.53 0.64 0.31 0.20 0.12 0.09 0.05 0.06 0.10 0.21 0.15 0.09 0.13 0.19 0.20 0.16 0.10 0.12
0.06 0.08 0.67 0.65 0.15 0.07 0.01 0.00 0.00 0.00 0.01 0.07 0.01 0.01 0.00 0.00 0.00 0.00 0.02 0.00 0.00 0.03 0.07 0.11 0.29 0.29 0.26 0.44 0.50 0.41 0.43 0.47 0.47 0.38 0.23 0.13 0.08 0.13 0.21 0.22 0.17 0.24 0.18 0.16 0.11 0.05 0.04 0.06 0.07
0.06 0.13 0.24 0.24 0.24 0.03 0.00 0.00 0.00 0.00 0.00 0.01 0.01 0.00 0.00 0.00 0.00 0.00 0.00 0.00 0.03 0.21 0.06 0.13 0.21 0.25 0.30 0.38 0.27 0.33 0.34 0.35 0.42 0.40 0.27 0.22 0.28 0.39 0.51 0.70 0.42 0.31 0.24 0.15 0.09 0.08 0.18 0.14 0.10
0.09 0.31 0.62 0.30 0.19 0.01 0.00 0.00 0.00 0.00 0.00 0.00 0.00 0.00 0.00 0.00 0.00 0.00 0.00 0.01 0.07 0.58 0.09 0.12 0.23 0.23 0.37 0.37 0.36 0.31 0.31 0.23 0.35 0.37 0.38 0.22 0.24 0.23 0.36 0.29 0.25 0.20 0.07 0.04 0.04 0.12 0.15 0.11 0.11
0.05 1.30 0.95 0.52 0.38 0.04 0.00 0.00 0.00 0.00 0.00 0.00 0.00 0.00 0.00 0.00 0.00 0.00 0.03 0.03 0.22 0.20 0.07 0.11 0.22 0.35 0.28 0.31 0.34 0.31 0.28 0.26 0.35 0.39 0.42 0.22 0.25 0.28 0.21 0.15 0.11 0.03 0.01 0.01 0.01 0.04 0.04 0.06 0.02
0.10 1.28 0.83 0.78 0.51 0.53 0.06 0.03 0.01 0.00 0.00 0.00 0.00 0.00 0.00 0.00 0.01 0.02 0.11 0.08 0.10 0.07 0.13 0.11 0.15 0.24 0.19 0.31 0.28 0.20 0.18 0.28 0.30 0.32 0.41 0.24 0.14 0.05 0.02 0.01 0.01 0.02 0.03 0.00 0.01 0.01 0.00 0.00 0.00
0.31 0.89 1.16 1.08 0.47 0.36 0.03 0.01 0.00 0.00 0.00 0.00 0.02 0.01 0.00 0.00 0.03 0.18 0.26 0.17 0.27 0.23 0.16 0.12 0.18 0.17 0.19 0.23 0.22 0.18 0.21 0.24 0.33 0.43 0.33 0.10 0.02 0.01 0.01 0.03 0.00 0.01 0.02 0.00 0.00 0.00 0.00 0.00 0.00
0.52 1.23 1.08 0.63 0.34 0.42 0.13 0.01 0.00 0.00 0.00 0.00 0.00 0.00 0.00 0.00 0.01 0.04 0.04 0.13 0.11 0.30 0.15 0.24 0.25 0.22 0.29 0.23 0.17 0.18 0.28 0.25 0.32 0.31 0.16 0.09 0.07 0.02 0.00 0.00 0.00 0.00 0.00 0.00 0.00 0.00 0.00 0.00 0.00
0.39 0.62 0.54 0.34 0.11 0.18 0.13 0.05 0.00 0.00 0.00 0.00 0.00 0.00 0.00 0.00 0.00 0.00 0.00 0.03 0.05 0.12 0.36 0.35 0.15 0.15 0.10 0.12 0.16 0.28 0.38 0.27 0.18 0.14 0.02 0.03 0.02 0.00 0.00 0.00 0.02 0.01 0.00 0.00 0.00 0.00 0.01 0.00 0.00
0.29 0.52 0.37 0.03 0.03 0.01 0.05 0.11 0.02 0.00 0.01 0.00 0.00 0.00 0.00 0.00 0.00 0.00 0.00 0.01 0.02 0.06 0.09 0.31 0.10 0.22 0.08 0.07 0.12 0.31 0.34 0.09 0.07 0.05 0.00 0.00 0.00 0.00 0.00 0.00 0.02 0.01 0.00 0.00 0.00 0.00 0.00 0.00 0.00
0.16 0.09 0.10 0.01 0.00 0.03 0.04 0.18 0.06 0.04 0.08 0.00 0.00 0.00 0.00 0.00 0.00 0.00 0.00 0.01 0.03 0.04 0.06 0.11 0.11 0.24 0.28 0.28 0.23 0.09 0.04 0.00 0.00 0.00 0.00 0.00 0.00 0.00 0.00 0.00 0.00 0.00 0.00 0.00 0.00 0.00 0.00 0.00 0.00
0.06 0.01 0.03 0.01 0.00 0.01 0.01 0.09 0.20 0.04 0.03 0.02 0.00 0.00 0.00 0.00 0.00 0.00 0.00 0.03 0.02 0.02 0.04 0.06 0.04 0.12 0.19 0.39 0.13 0.09 0.01 0.00 0.00 0.00 0.00 0.00 0.00 0.00 0.00 0.00 0.00 0.00 0.00 0.00 0.00 0.00 0.00 0.00 0.00
0.05 0.09 0.07 0.03 0.03 0.01 0.00 0.05 0.13 0.10 0.02 0.00 0.00 0.00 0.00 0.00 0.00 0.00 0.00 0.02 0.03 0.02 0.00 0.03 0.04 0.10 0.22 0.53 0.24 0.07 0.11 0.00 0.00 0.00 0.01 0.00 0.00 0.00 0.00 0.00 0.00 0.00 0.00 0.00 0.00 0.00 0.00 0.00 0.00
0.01 0.05 0.10 0.13 0.08 0.03 0.02 0.14 0.29 0.18 0.02 0.00 0.00 0.00 0.00 0.00 0.00 0.00 0.00 0.00 0.00 0.00 0.00 0.00 0.01 0.09 0.12 0.18 0.09 0.05 0.16 0.02 0.00 0.02 0.02 0.00 0.00 0.00 0.00 0.00 0.00 0.00 0.00 0.00 0.00 0.00 0.00 0.00 0.00
0.08 0.06 0.29 0.92 0.22 0.06 0.10 0.39 0.82 0.54 0.05 0.00 0.00 0.00 0.00 0.00 0.00 0.00 0.00 0.00 0.00 0.00 0.00 0.00 0.00 0.02 0.08 0.07 0.02 0.05 0.05 0.01 0.01 0.09 0.02 0.00 0.00 0.00 0.00 0.00 0.00 0.00 0.00 0.00 0.00 0.00 0.00 0.00 0.00
0.07 0.02 0.06 0.21 0.08 0.06 0.10 0.47 0.38 0.25 0.18 0.08 0.00 0.00 0.00 0.00 0.00 0.00 0.00 0.00 0.00 0.00 0.00 0.01 0.00 0.01 0.04 0.03 0.06 0.11 0.01 0.03 0.08 0.08 0.02 0.00 0.00 0.00 0.03 0.02 0.00 0.00 0.00 0.01 0.00 0.00 0.00 0.00 0.00
0.00 0.00 0.00 0.04 0.07 0.03 0.05 0.18 0.05 0.04 0.16 0.32 0.08 0.00 0.00 0.00 0.00 0.00 0.00 0.00 0.00 0.00 0.00 0.00 0.01 0.00 0.01 0.02 0.10 0.05 0.04 0.04 0.03 0.04 0.01 0.01 0.01 0.00 0.08 0.07 0.03 0.04 0.17 0.07 0.10 0.01 0.00 0.00 0.00
0.00 0.00 0.00 0.00 0.00 0.02 0.01 0.05 0.02 0.00 0.02 0.18 0.20 0.00 0.00 0.00 0.00 0.00 0.00 0.00 0.00 0.00 0.00 0.00 0.00 0.01 0.00 0.01 0.04 0.04 0.04 0.05 0.03 0.04 0.00 0.00 0.02 0.00 0.04 0.11 0.05 0.09 0.47 0.63 0.12 0.06 0.03 0.01 0.00
0.00 0.00 0.00 0.00 0.00 0.01 0.00 0.00 0.00 0.00 0.00 0.02 0.08 0.08 0.02 0.01 0.00 0.00 0.00 0.00 0.00 0.00 0.00 0.00 0.02 0.03 0.04 0.01 0.02 0.03 0.03 0.03 0.05 0.03 0.01 0.00 0.00 0.01 0.05 0.10 0.07 0.23 0.29 0.17 0.19 0.36 0.24 0.55 0.03
0.00 0.00 0.00 0.00 0.02 0.04 0.01 0.00 0.00 0.00 0.01 0.00 0.01 0.16 0.07 0.02 0.01 0.00 0.00 0.00 0.00 0.00 0.00 0.00 0.03 0.04 0.02 0.06 0.04 0.05 0.12 0.06 0.13 0.09 0.03 0.00 0.00 0.00 0.07 0.07 0.09 0.21 0.21 0.20 0.08 0.08 0.18 0.46 0.08
0.00 0.00 0.00 0.00 0.00 0.03 0.01 0.01 0.00 0.00 0.02 0.01 0.00 0.02 0.03 0.02 0.02 0.03 0.00 0.00 0.00 0.00 0.00 0.00 0.01 0.04 0.04 0.06 0.09 0.07 0.04 0.02 0.02 0.01 0.01 0.02 0.00 0.00 0.03 0.07 0.02 0.16 0.53 0.52 0.13 0.18 0.17 0.20 0.39
0.00 0.00 0.00 0.00 0.01 0.01 0.00 0.00 0.00 0.00 0.00 0.01 0.02 0.00 0.03 0.01 0.03 0.03 0.00 0.00 0.00 0.00 0.00 0.00 0.00 0.06 0.07 0.15 0.21 0.06 0.01 0.03 0.02 0.04 0.05 0.04 0.00 0.00 0.03 0.11 0.06 0.04 0.05 0.04 0.05 0.11 0.11 0.11 0.21
0.00 0.00 0.00 0.02 0.04 0.02 0.00 0.00 0.00 0.01 0.01 0.04 0.09 0.01 0.01 0.01 0.01 0.03 0.03 0.00 0.00 0.00 0.00 0.00 0.00 0.04 0.09 0.13 0.04 0.03 0.04 0.03 0.12 0.09 0.10 0.01 0.00 0.00 0.00 0.05 0.07 0.02 0.00 0.01 0.02 0.04 0.04 0.04 0.08
0.00 0.00 0.00 0.01 0.03 0.00 0.00 0.00 0.00 0.02 0.05 0.02 0.04 0.02 0.00 0.01 0.01 0.06 0.02 0.03 0.01 0.00 0.00 0.00 0.00 0.01 0.04 0.07 0.02 0.05 0.03 0.04 0.07 0.14 0.03 0.02 0.00 0.00 0.01 0.03 0.15 0.07 0.02 0.01 0.04 0.10 0.12 0.08 0.10
0.00 0.00 0.00 0.00 0.00 0.00 0.00 0.00 0.00 0.01 0.01 0.00 0.03 0.03 0.00 0.01 0.03 0.01 0.01 0.06 0.08 0.01 0.00 0.00 0.00 0.00 0.01 0.06 0.04 0.05 0.05 0.03 0.02 0.02 0.01 0.02 0.00 0.00 0.01 0.02 0.06 0.09 0.08 0.05 0.06 0.10 0.05 0.02 0.06
0.00 0.00 0.00 0.00 0.00 0.00 0.00 0.00 0.00 0.01 0.05 0.01 0.00 0.00 0.00 0.01 0.04 0.03 0.04 0.03 0.08 0.05 0.02 0.00 0.00 0.00 0.00 0.01 0.03 0.06 0.04 0.04 0.02 0.05 0.05 0.01 0.01 0.00 0.01 0.01 0.01 0.04 0.08 0.05 0.04 0.02 0.05 0.02 0.02
0.00 0.02 0.00 0.00 0.00 0.00 0.00 0.01 0.01 0.01 0.00 0.00 0.01 0.02 0.02 0.03 0.06 0.09 0.13 0.08 0.03 0.08 0.05 0.03 0.00 0.00 0.00 0.00 0.00 0.00 0.01 0.01 0.02 0.09 0.10 0.03 0.10 0.08 0.10 0.06 0.10 0.05 0.09 0.11 0.09 0.01 0.01 0.05 0.02
0.00 0.00 0.00 0.00 0.01 0.00 0.01 0.03 0.09 0.08 0.00 0.00 0.05 0.05 0.09 0.05 0.09 0.10 0.17 0.17 0.21 0.16 0.09 0.03 0.00 0.00 0.01 0.00 0.00 0.00 0.00 0.00 0.00 0.04 0.09 0.13 0.16 0.13 0.15 0.09 0.24 0.23 0.20 0.24 0.24 0.10 0.12 0.15 0.12
0.00 0.00 0.00 0.00 0.00 0.02 0.00 0.04 0.02 0.00 0.00 0.00 0.17 0.13 0.11 0.07 0.09 0.15 0.27 0.37 0.14 0.18 0.18 0.10 0.02 0.00 0.03 0.06 0.07 0.01 0.00 0.00 0.00 0.00 0.03 0.13 0.25 0.19 0.16 0.27 0.37 0.38 0.31 0.50 0.28 0.25 0.31 0.26 0.20

GFSSGP_prec_precacc24_147.txt.gz
Total_Precipitation_Accumulation
0.03 0.08 0.10 0.26 1.09 0.21 0.01 0.00 0.00 0.01 0.00 0.00 0.00 0.01 0.02 0.11 0.20 0.28 0.02 0.05 0.01 0.02 0.18 0.31 0.30 0.15 0.22 0.17 0.29 0.41 0.55 0.41 0.47 0.40 0.37 0.39 0.15 0.09 0.06 0.13 0.14 0.20 0.20 0.10 0.20 0.35 0.23 0.15 0.05
0.07 0.06 0.11 0.35 0.50 0.13 0.03 0.00 0.00 0.00 0.00 0.00 0.00 0.01 0.01 0.03 0.03 0.00 0.01 0.05 0.01 0.02 0.26 0.17 0.24 0.33 0.17 0.22 0.33 0.43 0.56 0.54 0.72 0.44 0.29 0.19 0.11 0.05 0.06 0.10 0.19 0.15 0.14 0.15 0.19 0.17 0.12 0.05 0.06
0.06 0.08 0.69 0.66 0.26 0.08 0.01 0.00 0.00 0.00 0.01 0.05 0.00 0.01 0.00 0.01 0.00 0.00 0.02 0.00 0.00 0.04 0.22 0.13 0.28 0.29 0.22 0.35 0.39 0.37 0.41 0.50 0.50 0.44 0.38 0.20 0.10 0.19 0.23 0.19 0.15 0.27 0.25 0.16 0.11 0.04 0.02 0.04 0.07
0.06 0.13 0.27 0.31 0.31 0.03 0.00 0.00 0.00 0.00 0.00 0.01 0.00 0.00 0.00 0.00 0.00 0.00 0.00 0.00 0.04 0.21 0.11 0.14 0.22 0.25 0.30 0.38 0.27 0.28 0.31 0.34 0.41 0.45 0.33 0.24 0.30 0.47 0.53 0.69 0.46 0.39 0.26 0.13 0.05 0.06 0.16 0.13 0.10
0.09 0.31 0.80 0.45 0.21 0.02 0.00 0.00 0.00 0.00 0.00 0.00 0.00 0.00 0.00 0.00 0.00 0.00 0.00 0.02 0.08 0.58 0.10 0.14 0.27 0.24 0.38 0.37 0.33 0.28 0.29 0.22 0.33 0.41 0.44 0.24 0.25 0.25 0.41 0.34 0.32 0.21 0.07 0.03 0.04 0.12 0.15 0.11 0.11
0.05 1.29 1.01 0.64 0.45 0.04 0.00 0.00 0.00 0.00 0.00 0.00 0.00 0.00 0.00 0.00 0.00 0.00 0.03 0.03 0.22 0.20 0.07 0.12 0.26 0.41 0.35 0.33 0.28 0.26 0.23 0.28 0.32 0.45 0.61 0.43 0.49 0.51 0.41 0.18 0.12 0.03 0.01 0.01 0.01 0.03 0.04 0.06 0.02
0.10 1.28 0.81 0.82 0.65 0.58 0.06 0.03 0.01 0.00 0.00 0.00 0.00 0.00 0.00 0.00 0.01 0.02 0.11 0.08 0.10 0.07 0.13 0.11 0.15 0.28 0.25 0.31 0.23 0.18 0.16 0.26 0.28 0.43 0.62 0.47 0.30 0.17 0.10 0.02 0.01 0.01 0.00 0.00 0.01 0.01 0.00 0.00 0.00
0.30 0.90 1.23 1.12 0.53 0.38 0.03 0.01 0.00 0.00 0.00 0.00 0.02 0.01 0.00 0.00 0.03 0.18 0.26 0.17 0.27 0.22 0.17 0.12 0.18 0.17 0.20 0.22 0.14 0.09 0.19 0.22 0.33 0.46 0.44 0.12 0.02 0.01 0.01 0.03 0.01 0.00 0.00 0.00 0.00 0.00 0.00 0.00 0.00
0.52 1.17 1.12 0.65 0.36 0.44 0.13 0.01 0.00 0.00 0.00 0.00 0.00 0.00 0.00 0.00 0.01 0.04 0.04 0.13 0.11 0.31 0.16 0.24 0.24 0.21 0.30 0.28 0.18 0.21 0.33 0.26 0.40 0.39 0.25 0.18 0.08 0.02 0.00 0.00 0.00 0.00 0.00 0.00 0.00 0.00 0.00 0.00 0.00
0.38 0.47 0.49 0.32 0.11 0.19 0.13 0.05 0.00 0.00 0.00 0.00 0.00 0.00 0.00 0.00 0.00 0.00 0.00 0.03 0.05 0.12 0.36 0.32 0.14 0.15 0.15 0.21 0.17 0.24 0.38 0.30 0.28 0.19 0.03 0.06 0.02 0.00 0.00 0.00 0.00 0.00 0.00 0.00 0.00 0.00 0.01 0.00 0.00
0.29 0.42 0.34 0.03 0.04 0.01 0.05 0.11 0.02 0.00 0.01 0.00 0.00 0.00 0.00 0.00 0.00 0.00 0.00 0.01 0.02 0.06 0.09 0.31 0.10 0.22 0.10 0.14 0.17 0.33 0.35 0.10 0.13 0.10 0.01 0.00 0.00 0.00 0.00 0.00 0.02 0.01 0.00 0.00 0.00 0.00 0.00 0.00 0.00
0.16 0.09 0.10 0.01 0.00 0.02 0.03 0.14 0.06 0.04 0.07 0.00 0.00 0.00 0.00 0.00 0.00 0.00 0.00 0.01 0.03 0.04 0.06 0.11 0.12 0.24 0.30 0.31 0.25 0.10 0.04 0.02 0.01 0.01 0.00 0.00 0.00 0.00 0.00 0.00 0.00 0.00 0.00 0.00 0.00 0.00 0.00 0.00 0.00
0.06 0.01 0.03 0.01 0.00 0.01 0.01 0.07 0.16 0.05 0.03 0.02 0.00 0.00 0.00 0.00 0.00 0.00 0.00 0.03 0.02 0.02 0.04 0.07 0.05 0.15 0.22 0.41 0.14 0.09 0.02 0.00 0.01 0.01 0.00 0.00 0.00 0.00 0.00 0.00 0.00 0.00 0.00 0.00 0.00 0.00 0.00 0.00 0.00
0.05 0.09 0.07 0.03 0.02 0.00 0.01 0.05 0.11 0.11 0.02 0.00 0.00 0.00 0.00 0.00 0.00 0.00 0.00 0.02 0.03 0.02 0.00 0.03 0.04 0.11 0.23 0.53 0.24 0.07 0.11 0.00 0.00 0.00 0.01 0.00 0.00 0.00 0.00 0.00 0.00 0.00 0.00 0.00 0.00 0.00 0.00 0.00 0.00
0.01 0.06 0.09 0.12 0.07 0.01 0.01 0.09 0.23 0.17 0.02 0.00 0.00 0.00 0.00 0.00 0.00 0.00 0.00 0.00 0.00 0.00 0.00 0.00 0.02 0.09 0.12 0.18 0.09 0.05 0.16 0.02 0.00 0.02 0.02 0.00 0.00 0.00 0.00 0.00 0.00 0.00 0.00 0.00 0.00 0.00 0.00 0.00 0.00
0.08 0.08 0.29 0.90 0.22 0.06 0.08 0.36 0.74 0.52 0.04 0.00 0.00 0.00 0.00 0.00 0.00 0.00 0.00 0.00 0.00 0.00 0.00 0.00 0.00 0.01 0.08 0.06 0.01 0.05 0.05 0.01 0.01 0.09 0.02 0.00 0.00 0.00 0.00 0.00 0.00 0.00 0.00 0.00 0.00 0.00 0.00 0.00 0.00
0.07 0.03 0.11 0.22 0.08 0.05 0.06 0.32 0.33 0.23 0.17 0.06 0.00 0.00 0.00 0.00 0.00 0.00 0.00 0.00 0.00 0.00 0.00 0.01 0.00 0.00 0.04 0.03 0.06 0.11 0.01 0.03 0.07 0.08 0.02 0.00 0.00 0.00 0.03 0.02 0.00 0.00 0.00 0.01 0.01 0.00 0.00 0.00 0.00
0.00 0.01 0.01 0.05 0.07 0.02 0.03 0.08 0.04 0.02 0.15 0.25 0.07 0.00 0.00 0.00 0.00 0.00 0.00 0.00 0.00 0.00 0.00 0.00 0.01 0.00 0.01 0.02 0.09 0.05 0.03 0.04 0.03 0.04 0.01 0.01 0.01 0.00 0.08 0.07 0.03 0.04 0.17 0.07 0.10 0.01 0.00 0.00 0.00
0.00 0.01 0.01 0.01 0.00 0.01 0.00 0.00 0.02 0.00 0.01 0.16 0.17 0.00 0.00 0.00 0.00 0.00 0.00 0.00 0.00 0.00 0.00 0.00 0.00 0.01 0.00 0.01 0.04 0.04 0.04 0.05 0.03 0.04 0.00 0.00 0.02 0.00 0.04 0.11 0.05 0.09 0.46 0.57 0.12 0.06 0.03 0.01 0.00
0.00 0.00 0.00 0.00 0.00 0.01 0.00 0.00 0.00 0.00 0.00 0.01 0.05 0.08 0.02 0.01 0.00 0.00 0.00 0.00 0.00 0.00 0.00 0.00 0.02 0.02 0.00 0.01 0.02 0.02 0.03 0.03 0.05 0.03 0.01 0.00 0.00 0.01 0.05 0.10 0.07 0.23 0.29 0.17 0.19 0.30 0.22 0.55 0.03
0.00 0.00 0.00 0.00 0.01 0.04 0.01 0.00 0.01 0.00 0.01 0.00 0.01 0.14 0.07 0.02 0.01 0.00 0.00 0.00 0.00 0.00 0.00 0.00 0.03 0.04 0.01 0.03 0.03 0.05 0.08 0.06 0.13 0.09 0.03 0.00 0.00 0.00 0.07 0.07 0.09 0.21 0.21 0.20 0.08 0.08 0.18 0.36 0.08
0.00 0.00 0.00 0.00 0.00 0.01 0.01 0.01 0.04 0.00 0.02 0.01 0.00 0.00 0.02 0.02 0.03 0.03 0.00 0.00 0.00 0.00 0.00 0.00 0.01 0.03 0.04 0.05 0.06 0.05 0.03 0.02 0.01 0.01 0.00 0.01 0.00 0.00 0.03 0.07 0.02 0.16 0.53 0.52 0.13 0.18 0.17 0.20 0.39
0.00 0.00 0.00 0.00 0.01 0.01 0.00 0.00 0.00 0.00 0.00 0.01 0.02 0.00 0.02 0.01 0.03 0.03 0.00 0.00 0.00 0.00 0.00 0.00 0.00 0.04 0.06 0.11 0.08 0.06 0.01 0.02 0.02 0.04 0.05 0.05 0.00 0.00 0.03 0.11 0.06 0.04 0.05 0.04 0.05 0.11 0.11 0.11 0.21
0.00 0.00 0.00 0.02 0.04 0.02 0.00 0.00 0.00 0.00 0.01 0.04 0.09 0.01 0.01 0.01 0.01 0.03 0.03 0.00 0.00 0.00 0.00 0.00 0.00 0.03 0.07 0.05 0.03 0.03 0.03 0.03 0.08 0.09 0.10 0.01 0.00 0.00 0.00 0.05 0.07 0.02 0.00 0.01 0.02 0.04 0.04 0.04 0.08
0.00 0.00 0.00 0.01 0.03 0.00 0.00 0.00 0.00 0.00 0.04 0.02 0.04 0.02 0.00 0.01 0.01 0.06 0.02 0.03 0.01 0.00 0.00 0.00 0.00 0.01 0.04 0.04 0.01 0.05 0.03 0.04 0.06 0.21 0.04 0.02 0.00 0.00 0.01 0.03 0.15 0.07 0.02 0.04 0.05 0.10 0.12 0.08 0.09
0.00 0.00 0.00 0.00 0.00 0.00 0.00 0.00 0.00 0.00 0.01 0.00 0.03 0.03 0.00 0.01 0.02 0.01 0.01 0.06 0.08 0.01 0.00 0.00 0.00 0.00 0.01 0.06 0.04 0.05 0.05 0.02 0.02 0.02 0.00 0.02 0.00 0.00 0.02 0.02 0.06 0.09 0.09 0.08 0.12 0.14 0.05 0.03 0.07
0.00 0.00 0.00 0.00 0.00 0.00 0.01 0.00 0.00 0.00 0.04 0.01 0.00 0.00 0.00 0.01 0.04 0.03 0.04 0.03 0.08 0.05 0.02 0.00 0.00 0.00 0.00 0.01 0.03 0.05 0.04 0.04 0.02 0.03 0.00 0.00 0.00 0.00 0.01 0.01 0.01 0.04 0.08 0.05 0.07 0.02 0.05 0.03 0.04
0.00 0.00 0.00 0.00 0.00 0.00 0.00 0.01 0.01 0.01 0.00 0.00 0.01 0.02 0.02 0.03 0.05 0.09 0.13 0.08 0.03 0.08 0.05 0.03 0.00 0.00 0.00 0.00 0.00 0.00 0.01 0.01 0.02 0.06 0.04 0.02 0.03 0.02 0.05 0.03 0.07 0.04 0.07 0.09 0.08 0.01 0.01 0.05 0.02
0.00 0.00 0.00 0.00 0.00 0.00 0.00 0.02 0.03 0.07 0.00 0.00 0.03 0.05 0.09 0.05 0.09 0.10 0.16 0.17 0.21 0.16 0.09 0.03 0.00 0.00 0.01 0.00 0.00 0.00 0.00 0.00 0.00 0.03 0.04 0.07 0.09 0.05 0.10 0.06 0.17 0.17 0.16 0.20 0.18 0.07 0.12 0.17 0.12
0.00 0.00 0.00 0.00 0.00 0.00 0.00 0.01 0.00 0.00 0.00 0.00 0.16 0.13 0.11 0.07 0.09 0.15 0.27 0.36 0.14 0.18 0.18 0.10 0.02 0.00 0.03 0.06 0.07 0.01 0.00 0.00 0.00 0.00 0.02 0.06 0.20 0.11 0.07 0.21 0.35 0.34 0.27 0.42 0.20 0.19 0.28 0.21 0.18

GFSSGP_prec_precacc24_150.txt.gz
Total_Precipitation_Accumulation
0.03 0.09 0.09 0.23 1.02 0.32 0.03 0.00 0.00 0.01 0.00 0.00 0.00 0.01 0.03 0.12 0.28 0.39 0.02 0.05 0.01 0.02 0.18 0.31 0.28 0.15 0.22 0.17 0.22 0.29 0.51 0.41 0.45 0.35 0.34 0.39 0.18 0.09 0.05 0.10 0.12 0.17 0.17 0.13 0.13 0.22 0.13 0.08 0.04
0.08 0.07 0.11 0.65 0.73 0.15 0.04 0.00 0.00 0.00 0.00 0.00 0.00 0.01 0.02 0.03 0.03 0.00 0.01 0.05 0.01 0.03 0.27 0.17 0.22 0.32 0.17 0.22 0.29 0.37 0.53 0.52 0.70 0.42 0.29 0.22 0.12 0.07 0.12 0.10 0.20 0.16 0.14 0.12 0.10 0.09 0.04 0.02 0.06
0.07 0.08 0.90 1.18 1.09 0.15 0.01 0.00 0.00 0.00 0.00 0.00 0.00 0.01 0.01 0.01 0.00 0.01 0.02 0.00 0.01 0.05 0.26 0.13 0.28 0.28 0.21 0.31 0.35 0.34 0.40 0.50 0.48 0.44 0.41 0.27 0.11 0.23 0.25 0.20 0.14 0.27 0.23 0.16 0.08 0.02 0.01 0.03 0.07
0.06 0.13 0.48 0.52 0.40 0.05 0.00 0.00 0.00 0.00 0.00 0.00 0.00 0.00 0.00 0.00 0.00 0.00 0.00 0.00 0.05 0.19 0.18 0.14 0.22 0.24 0.29 0.34 0.24 0.19 0.27 0.31 0.37 0.43 0.36 0.27 0.30 0.47 0.49 0.67 0.46 0.39 0.26 0.15 0.03 0.06 0.16 0.13 0.10
0.09 0.20 1.19 0.92 0.34 0.03 0.00 0.00 0.00 0.00 0.00 0.00 0.00 0.00 0.00 0.00 0.00 0.00 0.00 0.01 0.05 0.10 0.12 0.14 0.30 0.27 0.38 0.36 0.28 0.23 0.24 0.20 0.31 0.39 0.45 0.24 0.26 0.30 0.47 0.40 0.36 0.22 0.07 0.03 0.04 0.12 0.15 0.11 0.11
0.04 0.34 0.53 0.67 0.55 0.08 0.00 0.00 0.00 0.00 0.00 0.00 0.00 0.00 0.00 0.00 0.00 0.00 0.01 0.02 0.21 0.13 0.07 0.12 0.26 0.41 0.34 0.31 0.25 0.26 0.22 0.27 0.32 0.47 0.73 0.61 0.70 0.75 0.52 0.26 0.15 0.03 0.00 0.00 0.01 0.03 0.04 0.06 0.02
0.08 0.80 0.54 0.89 0.79 0.98 0.08 0.02 0.00 0.00 0.00 0.00 0.00 0.00 0.00 0.00 0.01 0.02 0.08 0.07 0.10 0.07 0.13 0.11 0.15 0.28 0.25 0.31 0.27 0.28 0.17 0.27 0.32 0.48 0.78 0.64 0.42 0.39 0.25 0.07 0.01 0.00 0.00 0.00 0.01 0.01 0.00 0.00 0.00
0.30 0.78 1.18 1.12 0.59 0.67 0.05 0.01 0.00 0.00 0.00 0.00 0.00 0.00 0.00 0.00 0.03 0.18 0.26 0.17 0.27 0.16 0.17 0.12 0.18 0.17 0.20 0.23 0.25 0.22 0.28 0.24 0.34 0.47 0.53 0.22 0.10 0.09 0.06 0.02 0.00 0.00 0.00 0.00 0.00 0.00 0.00 0.00 0.00
0.52 1.18 1.08 0.54 0.40 0.28 0.13 0.01 0.00 0.00 0.00 0.00 0.00 0.00 0.00 0.00 0.01 0.04 0.04 0.13 0.12 0.19 0.15 0.23 0.22 0.19 0.30 0.29 0.23 0.28 0.37 0.27 0.40 0.39 0.29 0.21 0.08 0.02 0.00 0.00 0.00 0.00 0.00 0.00 0.00 0.00 0.00 0.00 0.00
0.42 0.56 0.35 0.14 0.11 0.20 0.13 0.03 0.00 0.00 0.00 0.00 0.00 0.00 0.00 0.00 0.00 0.00 0.00 0.03 0.06 0.14 0.16 0.24 0.12 0.10 0.15 0.22 0.15 0.18 0.27 0.27 0.27 0.20 0.06 0.06 0.04 0.00 0.00 0.00 0.00 0.00 0.00 0.00 0.00 0.00 0.01 0.00 0.00
0.34 0.38 0.26 0.03 0.05 0.31 0.06 0.08 0.02 0.00 0.01 0.00 0.00 0.00 0.00 0.00 0.00 0.00 0.00 0.01 0.03 0.07 0.07 0.25 0.09 0.18 0.10 0.18 0.16 0.17 0.12 0.09 0.13 0.12 0.02 0.00 0.00 0.00 0.00 0.00 0.02 0.01 0.00 0.00 0.00 0.00 0.00 0.00 0.00
0.27 0.10 0.10 0.01 0.00 0.03 0.03 0.05 0.04 0.05 0.02 0.00 0.00 0.00 0.00 0.00 0.00 0.00 0.00 0.01 0.02 0.03 0.04 0.11 0.11 0.07 0.17 0.35 0.18 0.09 0.04 0.02 0.01 0.01 0.00 0.00 0.00 0.00 0.00 0.00 0.00 0.00 0.00 0.00 0.01 0.00 0.00 0.00 0.00
0.09 0.05 0.03 0.01 0.00 0.01 0.00 0.03 0.08 0.05 0.03 0.02 0.00 0.00 0.00 0.00 0.00 0.00 0.00 0.03 0.02 0.01 0.03 0.07 0.05 0.13 0.20 0.37 0.12 0.09 0.02 0.00 0.02 0.01 0.00 0.00 0.00 0.00 0.00 0.02 0.07 0.04 0.00 0.00 0.01 0.00 0.00 0.00 0.00
0.09 0.10 0.07 0.03 0.02 0.00 0.01 0.02 0.05 0.11 0.02 0.00 0.00 0.00 0.00 0.00 0.00 0.00 0.00 0.02 0.03 0.02 0.00 0.03 0.04 0.10 0.23 0.50 0.25 0.08 0.04 0.00 0.00 0.01 0.01 0.00 0.00 0.00 0.00 0.00 0.00 0.00 0.00 0.00 0.00 0.00 0.00 0.00 0.00
0.01 0.07 0.15 0.14 0.07 0.02 0.02 0.20 0.11 0.14 0.02 0.00 0.00 0.00 0.00 0.00 0.00 0.00 0.00 0.00 0.00 0.00 0.00 0.00 0.02 0.09 0.12 0.18 0.09 0.05 0.05 0.02 0.00 0.02 0.02 0.09 0.05 0.00 0.00 0.01 0.02 0.00 0.01 0.01 0.01 0.00 0.00 0.00 0.00
0.08 0.12 0.94 1.28 0.22 0.06 0.08 0.60 0.47 0.15 0.04 0.00 0.00 0.00 0.00 0.00 0.00 0.00 0.00 0.00 0.00 0.00 0.00 0.01 0.01 0.01 0.08 0.06 0.01 0.05 0.05 0.01 0.00 0.06 0.02 0.02 0.07 0.00 0.00 0.03 0.27 0.00 0.00 0.02 0.02 0.00 0.00 0.00 0.00
0.07 0.07 0.21 0.35 0.08 0.05 0.10 0.58 0.16 0.08 0.16 0.04 0.00 0.00 0.00 0.00 0.00 0.00 0.00 0.00 0.00 0.00 0.00 0.01 0.01 0.00 0.03 0.03 0.06 0.10 0.02 0.02 0.01 0.04 0.01 0.00 0.03 0.00 0.02 0.11 0.16 0.00 0.01 0.02 0.11 0.03 0.01 0.00 0.00
0.02 0.13 0.10 0.20 0.13 0.02 0.00 0.04 0.02 0.01 0.15 0.16 0.01 0.00 0.00 0.00 0.00 0.00 0.00 0.00 0.00 0.00 0.00 0.00 0.02 0.00 0.01 0.01 0.08 0.05 0.04 0.01 0.02 0.03 0.01 0.01 0.01 0.00 0.04 0.01 0.03 0.02 0.09 0.03 0.27 0.06 0.00 0.00 0.00
0.00 0.01 0.06 0.02 0.01 0.01 0.00 0.00 0.01 0.00 0.01 0.05 0.01 0.00 0.00 0.00 0.00 0.00 0.00 0.00 0.00 0.00 0.00 0.00 0.00 0.00 0.00 0.00 0.03 0.03 0.04 0.05 0.03 0.03 0.00 0.00 0.02 0.00 0.02 0.09 0.05 0.02 0.02 0.14 0.06 0.05 0.03 0.01 0.00
0.00 0.00 0.00 0.00 0.00 0.01 0.00 0.00 0.00 0.00 0.00 0.01 0.00 0.00 0.01 0.01 0.00 0.00 0.00 0.00 0.00 0.00 0.00 0.00 0.01 0.01 0.00 0.01 0.00 0.01 0.02 0.02 0.03 0.03 0.01 0.00 0.00 0.01 0.04 0.09 0.04 0.01 0.01 0.12 0.11 0.02 0.04 0.05 0.03
0.00 0.00 0.00 0.00 0.01 0.04 0.01 0.00 0.01 0.02 0.03 0.00 0.00 0.00 0.02 0.02 0.01 0.00 0.00 0.00 0.00 0.00 0.00 0.00 0.01 0.02 0.00 0.03 0.02 0.03 0.05 0.04 0.07 0.06 0.03 0.00 0.00 0.00 0.07 0.07 0.04 0.10 0.16 0.14 0.06 0.02 0.04 0.05 0.04
0.00 0.00 0.00 0.00 0.00 0.01 0.01 0.01 0.08 0.06 0.04 0.01 0.00 0.00 0.01 0.02 0.03 0.03 0.00 0.00 0.00 0.00 0.00 0.00 0.00 0.00 0.01 0.04 0.04 0.02 0.01 0.01 0.00 0.01 0.01 0.01 0.00 0.00 0.03 0.07 0.02 0.15 0.47 0.17 0.13 0.17 0.09 0.06 0.06
0.00 0.00 0.00 0.00 0.01 0.01 0.00 0.00 0.00 0.00 0.00 0.01 0.02 0.00 0.00 0.01 0.04 0.04 0.00 0.00 0.00 0.00 0.00 0.00 0.00 0.00 0.01 0.01 0.06 0.06 0.01 0.02 0.00 0.02 0.03 0.05 0.01 0.00 0.03 0.11 0.06 0.05 0.04 0.05 0.05 0.11 0.10 0.08 0.08
0.00 0.00 0.00 0.02 0.04 0.02 0.00 0.00 0.01 0.05 0.00 0.00 0.07 0.01 0.00 0.00 0.02 0.04 0.05 0.01 0.00 0.00 0.00 0.00 0.00 0.00 0.00 0.00 0.01 0.03 0.03 0.01 0.04 0.05 0.08 0.02 0.00 0.00 0.00 0.05 0.07 0.02 0.01 0.04 0.04 0.04 0.04 0.04 0.08
0.00 0.00 0.00 0.01 0.03 0.00 0.00 0.00 0.00 0.03 0.01 0.01 0.03 0.02 0.00 0.00 0.01 0.06 0.06 0.06 0.02 0.01 0.00 0.00 0.00 0.00 0.00 0.00 0.00 0.00 0.01 0.00 0.05 0.21 0.05 0.17 0.03 0.00 0.00 0.03 0.16 0.07 0.02 0.05 0.08 0.12 0.13 0.09 0.10
0.00 0.00 0.00 0.00 0.00 0.01 0.00 0.00 0.00 0.00 0.00 0.00 0.00 0.02 0.06 0.01 0.02 0.01 0.01 0.06 0.08 0.01 0.00 0.00 0.00 0.00 0.00 0.00 0.00 0.00 0.00 0.01 0.02 0.02 0.01 0.05 0.05 0.00 0.03 0.06 0.09 0.11 0.09 0.09 0.12 0.16 0.05 0.04 0.08
0.00 0.00 0.00 0.00 0.00 0.01 0.02 0.02 0.00 0.00 0.00 0.00 0.00 0.01 0.04 0.01 0.04 0.02 0.04 0.03 0.08 0.05 0.02 0.00 0.00 0.00 0.00 0.00 0.00 0.00 0.00 0.01 0.01 0.02 0.01 0.00 0.00 0.00 0.01 0.01 0.04 0.07 0.10 0.06 0.09 0.04 0.06 0.08 0.06
0.00 0.00 0.00 0.00 0.00 0.00 0.01 0.01 0.01 0.00 0.00 0.00 0.01 0.10 0.03 0.03 0.05 0.07 0.12 0.07 0.03 0.08 0.05 0.03 0.00 0.00 0.00 0.00 0.00 0.00 0.00 0.00 0.01 0.04 0.03 0.00 0.00 0.01 0.03 0.04 0.06 0.03 0.06 0.09 0.09 0.02 0.02 0.07 0.06
0.00 0.00 0.00 0.00 0.00 0.00 0.00 0.00 0.00 0.00 0.00 0.00 0.00 0.03 0.10 0.05 0.08 0.08 0.10 0.14 0.17 0.16 0.09 0.03 0.00 0.00 0.01 0.00 0.00 0.00 0.00 0.00 0.00 0.00 0.01 0.01 0.02 0.03 0.03 0.05 0.17 0.16 0.13 0.17 0.17 0.08 0.09 0.17 0.11
0.00 0.00 0.00 0.00 0.00 0.00 0.00 0.00 0.00 0.00 0.00 0.00 0.00 0.04 0.49 0.04 0.05 0.14 0.17 0.21 0.07 0.13 0.17 0.10 0.02 0.00 0.03 0.06 0.06 0.00 0.01 0.02 0.01 0.02 0.01 0.02 0.05 0.06 0.07 0.16 0.28 0.30 0.19 0.34 0.20 0.19 0.22 0.20 0.14